<?xml version="1.0" encoding="UTF-8" standalone="no" ?>
<gpx xmlns="http://www.topografix.com/GPX/1/1" xmlns:xsi="http://www.w3.org/2001/XMLSchema-instance" xsi:schemaLocation="http://www.topografix.com/GPX/1/1 http://www.topografix.com/GPX/1/1/gpx.xsd" version="1.1" creator="VisuGPX - https://www.visugpx.com">
  <metadata>
    <name>ChapelleE_GesvresRagon_11-20km</name>
    <desc><![CDATA[gnerando idor:10119982_10751486_12328489_12879936_8202803]]></desc>
  </metadata>
  <trk>
    <name><![CDATA[ChapelleE_GesvresEtRagon_11.2km-10751486]]></name>
    <extensions>
      <line xmlns="http://www.topografix.com/GPX/gpx_style/0/2">
        <color>0000FF</color>
        <opacity>1</opacity>
        <width>4</width>
      </line>
    </extensions>
    <trkseg>
      <trkpt lat="47.27977" lon="-1.557">
        <ele>40</ele>
        <time>2023-11-03T07:51:00Z</time>
      </trkpt>
      <trkpt lat="47.2798" lon="-1.55729">
        <ele>40</ele>
        <time>2023-11-03T07:51:27Z</time>
      </trkpt>
      <trkpt lat="47.27975" lon="-1.55788">
        <ele>38</ele>
        <time>2023-11-03T07:52:20Z</time>
      </trkpt>
      <trkpt lat="47.27973" lon="-1.55816">
        <ele>38</ele>
        <time>2023-11-03T07:52:46Z</time>
      </trkpt>
      <trkpt lat="47.27963" lon="-1.55911">
        <ele>36</ele>
        <time>2023-11-03T07:54:13Z</time>
      </trkpt>
      <trkpt lat="47.27963" lon="-1.55939">
        <ele>36</ele>
        <time>2023-11-03T07:54:38Z</time>
      </trkpt>
      <trkpt lat="47.2796" lon="-1.55966">
        <ele>37</ele>
        <time>2023-11-03T07:55:03Z</time>
      </trkpt>
      <trkpt lat="47.27957" lon="-1.56">
        <ele>38</ele>
        <time>2023-11-03T07:55:34Z</time>
      </trkpt>
      <trkpt lat="47.27953" lon="-1.56026">
        <ele>38</ele>
        <time>2023-11-03T07:55:58Z</time>
      </trkpt>
      <trkpt lat="47.27948" lon="-1.56059">
        <ele>38</ele>
        <time>2023-11-03T07:56:29Z</time>
      </trkpt>
      <trkpt lat="47.27939" lon="-1.5615">
        <ele>37</ele>
        <time>2023-11-03T07:57:52Z</time>
      </trkpt>
      <trkpt lat="47.27936" lon="-1.56179">
        <ele>36</ele>
        <time>2023-11-03T07:58:19Z</time>
      </trkpt>
      <trkpt lat="47.27935" lon="-1.56206">
        <ele>35</ele>
        <time>2023-11-03T07:58:43Z</time>
      </trkpt>
      <trkpt lat="47.27929" lon="-1.56235">
        <ele>35</ele>
        <time>2023-11-03T07:59:11Z</time>
      </trkpt>
      <trkpt lat="47.27948" lon="-1.56249">
        <ele>34</ele>
        <time>2023-11-03T07:59:39Z</time>
      </trkpt>
      <trkpt lat="47.27966" lon="-1.5627">
        <ele>33</ele>
        <time>2023-11-03T08:00:10Z</time>
      </trkpt>
      <trkpt lat="47.27956" lon="-1.56296">
        <ele>32</ele>
        <time>2023-11-03T08:00:37Z</time>
      </trkpt>
      <trkpt lat="47.27941" lon="-1.56313">
        <ele>31</ele>
        <time>2023-11-03T08:01:02Z</time>
      </trkpt>
      <trkpt lat="47.2793" lon="-1.56335">
        <ele>30</ele>
        <time>2023-11-03T08:01:27Z</time>
      </trkpt>
      <trkpt lat="47.27932" lon="-1.56367">
        <ele>29</ele>
        <time>2023-11-03T08:01:56Z</time>
      </trkpt>
      <trkpt lat="47.2792" lon="-1.56392">
        <ele>28</ele>
        <time>2023-11-03T08:02:23Z</time>
      </trkpt>
      <trkpt lat="47.27903" lon="-1.56381">
        <ele>26</ele>
        <time>2023-11-03T08:02:48Z</time>
      </trkpt>
      <trkpt lat="47.27891" lon="-1.56405">
        <ele>24</ele>
        <time>2023-11-03T08:03:15Z</time>
      </trkpt>
      <trkpt lat="47.27885" lon="-1.56434">
        <ele>21</ele>
        <time>2023-11-03T08:03:43Z</time>
      </trkpt>
      <trkpt lat="47.27871" lon="-1.56454">
        <ele>18</ele>
        <time>2023-11-03T08:04:09Z</time>
      </trkpt>
      <trkpt lat="47.2786" lon="-1.56481">
        <ele>16</ele>
        <time>2023-11-03T08:04:37Z</time>
      </trkpt>
      <trkpt lat="47.27863" lon="-1.56514">
        <ele>14</ele>
        <time>2023-11-03T08:05:07Z</time>
      </trkpt>
      <trkpt lat="47.27875" lon="-1.56536">
        <ele>14</ele>
        <time>2023-11-03T08:05:33Z</time>
      </trkpt>
      <trkpt lat="47.27889" lon="-1.56554">
        <ele>15</ele>
        <time>2023-11-03T08:05:58Z</time>
      </trkpt>
      <trkpt lat="47.27902" lon="-1.56574">
        <ele>15</ele>
        <time>2023-11-03T08:06:23Z</time>
      </trkpt>
      <trkpt lat="47.27916" lon="-1.56591">
        <ele>16</ele>
        <time>2023-11-03T08:06:47Z</time>
      </trkpt>
      <trkpt lat="47.2793" lon="-1.56611">
        <ele>17</ele>
        <time>2023-11-03T08:07:13Z</time>
      </trkpt>
      <trkpt lat="47.27937" lon="-1.56638">
        <ele>16</ele>
        <time>2023-11-03T08:07:39Z</time>
      </trkpt>
      <trkpt lat="47.27939" lon="-1.56667">
        <ele>16</ele>
        <time>2023-11-03T08:08:06Z</time>
      </trkpt>
      <trkpt lat="47.2792" lon="-1.56666">
        <ele>16</ele>
        <time>2023-11-03T08:08:31Z</time>
      </trkpt>
      <trkpt lat="47.27901" lon="-1.56662">
        <ele>16</ele>
        <time>2023-11-03T08:08:56Z</time>
      </trkpt>
      <trkpt lat="47.27886" lon="-1.56679">
        <ele>18</ele>
        <time>2023-11-03T08:09:22Z</time>
      </trkpt>
      <trkpt lat="47.27871" lon="-1.56699">
        <ele>21</ele>
        <time>2023-11-03T08:09:49Z</time>
      </trkpt>
      <trkpt lat="47.27854" lon="-1.56709">
        <ele>22</ele>
        <time>2023-11-03T08:10:13Z</time>
      </trkpt>
      <trkpt lat="47.27836" lon="-1.56718">
        <ele>24</ele>
        <time>2023-11-03T08:10:39Z</time>
      </trkpt>
      <trkpt lat="47.2782" lon="-1.56735">
        <ele>27</ele>
        <time>2023-11-03T08:11:05Z</time>
      </trkpt>
      <trkpt lat="47.27807" lon="-1.56755">
        <ele>29</ele>
        <time>2023-11-03T08:11:30Z</time>
      </trkpt>
      <trkpt lat="47.27791" lon="-1.56769">
        <ele>30</ele>
        <time>2023-11-03T08:11:55Z</time>
      </trkpt>
      <trkpt lat="47.27773" lon="-1.56782">
        <ele>31</ele>
        <time>2023-11-03T08:12:21Z</time>
      </trkpt>
      <trkpt lat="47.27759" lon="-1.56803">
        <ele>33</ele>
        <time>2023-11-03T08:12:48Z</time>
      </trkpt>
      <trkpt lat="47.2774" lon="-1.56821">
        <ele>34</ele>
        <time>2023-11-03T08:13:18Z</time>
      </trkpt>
      <trkpt lat="47.27728" lon="-1.56844">
        <ele>34</ele>
        <time>2023-11-03T08:13:45Z</time>
      </trkpt>
      <trkpt lat="47.27712" lon="-1.56857">
        <ele>34</ele>
        <time>2023-11-03T08:14:09Z</time>
      </trkpt>
      <trkpt lat="47.27695" lon="-1.5687">
        <ele>33</ele>
        <time>2023-11-03T08:14:34Z</time>
      </trkpt>
      <trkpt lat="47.2768" lon="-1.56889">
        <ele>33</ele>
        <time>2023-11-03T08:15:01Z</time>
      </trkpt>
      <trkpt lat="47.27665" lon="-1.56909">
        <ele>33</ele>
        <time>2023-11-03T08:15:28Z</time>
      </trkpt>
      <trkpt lat="47.27634" lon="-1.56944">
        <ele>35</ele>
        <time>2023-11-03T08:16:20Z</time>
      </trkpt>
      <trkpt lat="47.27616" lon="-1.56964">
        <ele>37</ele>
        <time>2023-11-03T08:16:50Z</time>
      </trkpt>
      <trkpt lat="47.27599" lon="-1.56988">
        <ele>38</ele>
        <time>2023-11-03T08:17:21Z</time>
      </trkpt>
      <trkpt lat="47.27583" lon="-1.57006">
        <ele>39</ele>
        <time>2023-11-03T08:17:48Z</time>
      </trkpt>
      <trkpt lat="47.27567" lon="-1.57027">
        <ele>39</ele>
        <time>2023-11-03T08:18:17Z</time>
      </trkpt>
      <trkpt lat="47.2755" lon="-1.5705">
        <ele>38</ele>
        <time>2023-11-03T08:18:48Z</time>
      </trkpt>
      <trkpt lat="47.27524" lon="-1.57097">
        <ele>39</ele>
        <time>2023-11-03T08:19:43Z</time>
      </trkpt>
      <trkpt lat="47.27525" lon="-1.57124">
        <ele>40</ele>
        <time>2023-11-03T08:20:07Z</time>
      </trkpt>
      <trkpt lat="47.27509" lon="-1.57137">
        <ele>40</ele>
        <time>2023-11-03T08:20:32Z</time>
      </trkpt>
      <trkpt lat="47.27491" lon="-1.57142">
        <ele>39</ele>
        <time>2023-11-03T08:20:56Z</time>
      </trkpt>
      <trkpt lat="47.27452" lon="-1.57159">
        <ele>38</ele>
        <time>2023-11-03T08:21:50Z</time>
      </trkpt>
      <trkpt lat="47.27433" lon="-1.57168">
        <ele>37</ele>
        <time>2023-11-03T08:22:17Z</time>
      </trkpt>
      <trkpt lat="47.27429" lon="-1.57196">
        <ele>37</ele>
        <time>2023-11-03T08:22:43Z</time>
      </trkpt>
      <trkpt lat="47.27428" lon="-1.57225">
        <ele>38</ele>
        <time>2023-11-03T08:23:09Z</time>
      </trkpt>
      <trkpt lat="47.27419" lon="-1.57314">
        <ele>40</ele>
        <time>2023-11-03T08:24:31Z</time>
      </trkpt>
      <trkpt lat="47.27417" lon="-1.57342">
        <ele>40</ele>
        <time>2023-11-03T08:24:56Z</time>
      </trkpt>
      <trkpt lat="47.27413" lon="-1.57372">
        <ele>39</ele>
        <time>2023-11-03T08:25:24Z</time>
      </trkpt>
      <trkpt lat="47.2741" lon="-1.57403">
        <ele>39</ele>
        <time>2023-11-03T08:25:52Z</time>
      </trkpt>
      <trkpt lat="47.27405" lon="-1.5743">
        <ele>39</ele>
        <time>2023-11-03T08:26:17Z</time>
      </trkpt>
      <trkpt lat="47.27401" lon="-1.57457">
        <ele>39</ele>
        <time>2023-11-03T08:26:42Z</time>
      </trkpt>
      <trkpt lat="47.27398" lon="-1.57486">
        <ele>39</ele>
        <time>2023-11-03T08:27:09Z</time>
      </trkpt>
      <trkpt lat="47.27397" lon="-1.57513">
        <ele>39</ele>
        <time>2023-11-03T08:27:33Z</time>
      </trkpt>
      <trkpt lat="47.27416" lon="-1.57528">
        <ele>40</ele>
        <time>2023-11-03T08:28:02Z</time>
      </trkpt>
      <trkpt lat="47.27437" lon="-1.5754">
        <ele>40</ele>
        <time>2023-11-03T08:28:32Z</time>
      </trkpt>
      <trkpt lat="47.27452" lon="-1.57559">
        <ele>40</ele>
        <time>2023-11-03T08:28:59Z</time>
      </trkpt>
      <trkpt lat="47.27471" lon="-1.57576">
        <ele>41</ele>
        <time>2023-11-03T08:29:28Z</time>
      </trkpt>
      <trkpt lat="47.27483" lon="-1.576">
        <ele>41</ele>
        <time>2023-11-03T08:29:55Z</time>
      </trkpt>
      <trkpt lat="47.27491" lon="-1.57627">
        <ele>41</ele>
        <time>2023-11-03T08:30:22Z</time>
      </trkpt>
      <trkpt lat="47.27485" lon="-1.57652">
        <ele>41</ele>
        <time>2023-11-03T08:30:46Z</time>
      </trkpt>
      <trkpt lat="47.27475" lon="-1.57679">
        <ele>40</ele>
        <time>2023-11-03T08:31:14Z</time>
      </trkpt>
      <trkpt lat="47.27467" lon="-1.57705">
        <ele>39</ele>
        <time>2023-11-03T08:31:40Z</time>
      </trkpt>
      <trkpt lat="47.27456" lon="-1.57729">
        <ele>39</ele>
        <time>2023-11-03T08:32:06Z</time>
      </trkpt>
      <trkpt lat="47.27446" lon="-1.5776">
        <ele>38</ele>
        <time>2023-11-03T08:32:37Z</time>
      </trkpt>
      <trkpt lat="47.27441" lon="-1.57787">
        <ele>38</ele>
        <time>2023-11-03T08:33:02Z</time>
      </trkpt>
      <trkpt lat="47.27438" lon="-1.57823">
        <ele>38</ele>
        <time>2023-11-03T08:33:35Z</time>
      </trkpt>
      <trkpt lat="47.27426" lon="-1.57918">
        <ele>39</ele>
        <time>2023-11-03T08:35:03Z</time>
      </trkpt>
      <trkpt lat="47.27423" lon="-1.57952">
        <ele>40</ele>
        <time>2023-11-03T08:35:34Z</time>
      </trkpt>
      <trkpt lat="47.27417" lon="-1.57977">
        <ele>41</ele>
        <time>2023-11-03T08:35:58Z</time>
      </trkpt>
      <trkpt lat="47.27413" lon="-1.58003">
        <ele>42</ele>
        <time>2023-11-03T08:36:22Z</time>
      </trkpt>
      <trkpt lat="47.2741" lon="-1.58038">
        <ele>42</ele>
        <time>2023-11-03T08:36:54Z</time>
      </trkpt>
      <trkpt lat="47.2741" lon="-1.58067">
        <ele>42</ele>
        <time>2023-11-03T08:37:20Z</time>
      </trkpt>
      <trkpt lat="47.27408" lon="-1.58098">
        <ele>42</ele>
        <time>2023-11-03T08:37:48Z</time>
      </trkpt>
      <trkpt lat="47.27401" lon="-1.58125">
        <ele>42</ele>
        <time>2023-11-03T08:38:14Z</time>
      </trkpt>
      <trkpt lat="47.27397" lon="-1.58152">
        <ele>42</ele>
        <time>2023-11-03T08:38:39Z</time>
      </trkpt>
      <trkpt lat="47.27383" lon="-1.58174">
        <ele>41</ele>
        <time>2023-11-03T08:39:07Z</time>
      </trkpt>
      <trkpt lat="47.27368" lon="-1.58193">
        <ele>41</ele>
        <time>2023-11-03T08:39:33Z</time>
      </trkpt>
      <trkpt lat="47.2736" lon="-1.58222">
        <ele>41</ele>
        <time>2023-11-03T08:40:02Z</time>
      </trkpt>
      <trkpt lat="47.27353" lon="-1.5825">
        <ele>40</ele>
        <time>2023-11-03T08:40:29Z</time>
      </trkpt>
      <trkpt lat="47.27345" lon="-1.58278">
        <ele>41</ele>
        <time>2023-11-03T08:40:56Z</time>
      </trkpt>
      <trkpt lat="47.27341" lon="-1.58305">
        <ele>42</ele>
        <time>2023-11-03T08:41:21Z</time>
      </trkpt>
      <trkpt lat="47.27323" lon="-1.58357">
        <ele>44</ele>
        <time>2023-11-03T08:42:14Z</time>
      </trkpt>
      <trkpt lat="47.27319" lon="-1.58387">
        <ele>45</ele>
        <time>2023-11-03T08:42:42Z</time>
      </trkpt>
      <trkpt lat="47.27337" lon="-1.58399">
        <ele>46</ele>
        <time>2023-11-03T08:43:08Z</time>
      </trkpt>
      <trkpt lat="47.27362" lon="-1.58406">
        <ele>47</ele>
        <time>2023-11-03T08:43:42Z</time>
      </trkpt>
      <trkpt lat="47.27384" lon="-1.58416">
        <ele>48</ele>
        <time>2023-11-03T08:44:13Z</time>
      </trkpt>
      <trkpt lat="47.27404" lon="-1.58423">
        <ele>49</ele>
        <time>2023-11-03T08:44:40Z</time>
      </trkpt>
      <trkpt lat="47.27426" lon="-1.5842">
        <ele>49</ele>
        <time>2023-11-03T08:45:10Z</time>
      </trkpt>
      <trkpt lat="47.27443" lon="-1.58427">
        <ele>50</ele>
        <time>2023-11-03T08:45:33Z</time>
      </trkpt>
      <trkpt lat="47.27465" lon="-1.58434">
        <ele>51</ele>
        <time>2023-11-03T08:46:03Z</time>
      </trkpt>
      <trkpt lat="47.27485" lon="-1.58436">
        <ele>51</ele>
        <time>2023-11-03T08:46:30Z</time>
      </trkpt>
      <trkpt lat="47.27503" lon="-1.58441">
        <ele>52</ele>
        <time>2023-11-03T08:46:54Z</time>
      </trkpt>
      <trkpt lat="47.27521" lon="-1.58448">
        <ele>52</ele>
        <time>2023-11-03T08:47:19Z</time>
      </trkpt>
      <trkpt lat="47.27541" lon="-1.58451">
        <ele>52</ele>
        <time>2023-11-03T08:47:46Z</time>
      </trkpt>
      <trkpt lat="47.27556" lon="-1.58467">
        <ele>53</ele>
        <time>2023-11-03T08:48:11Z</time>
      </trkpt>
      <trkpt lat="47.27574" lon="-1.58478">
        <ele>52</ele>
        <time>2023-11-03T08:48:37Z</time>
      </trkpt>
      <trkpt lat="47.27592" lon="-1.58484">
        <ele>52</ele>
        <time>2023-11-03T08:49:01Z</time>
      </trkpt>
      <trkpt lat="47.27611" lon="-1.58494">
        <ele>51</ele>
        <time>2023-11-03T08:49:28Z</time>
      </trkpt>
      <trkpt lat="47.27629" lon="-1.58501">
        <ele>51</ele>
        <time>2023-11-03T08:49:53Z</time>
      </trkpt>
      <trkpt lat="47.27646" lon="-1.58511">
        <ele>50</ele>
        <time>2023-11-03T08:50:18Z</time>
      </trkpt>
      <trkpt lat="47.27665" lon="-1.58521">
        <ele>50</ele>
        <time>2023-11-03T08:50:44Z</time>
      </trkpt>
      <trkpt lat="47.27684" lon="-1.58533">
        <ele>51</ele>
        <time>2023-11-03T08:51:12Z</time>
      </trkpt>
      <trkpt lat="47.27706" lon="-1.58536">
        <ele>52</ele>
        <time>2023-11-03T08:51:42Z</time>
      </trkpt>
      <trkpt lat="47.27722" lon="-1.5855">
        <ele>52</ele>
        <time>2023-11-03T08:52:06Z</time>
      </trkpt>
      <trkpt lat="47.2774" lon="-1.58559">
        <ele>53</ele>
        <time>2023-11-03T08:52:32Z</time>
      </trkpt>
      <trkpt lat="47.2776" lon="-1.58566">
        <ele>53</ele>
        <time>2023-11-03T08:52:59Z</time>
      </trkpt>
      <trkpt lat="47.27779" lon="-1.58577">
        <ele>53</ele>
        <time>2023-11-03T08:53:26Z</time>
      </trkpt>
      <trkpt lat="47.27797" lon="-1.58581">
        <ele>52</ele>
        <time>2023-11-03T08:53:51Z</time>
      </trkpt>
      <trkpt lat="47.27819" lon="-1.58584">
        <ele>52</ele>
        <time>2023-11-03T08:54:20Z</time>
      </trkpt>
      <trkpt lat="47.2784" lon="-1.58589">
        <ele>52</ele>
        <time>2023-11-03T08:54:49Z</time>
      </trkpt>
      <trkpt lat="47.2786" lon="-1.58598">
        <ele>52</ele>
        <time>2023-11-03T08:55:16Z</time>
      </trkpt>
      <trkpt lat="47.2788" lon="-1.58603">
        <ele>53</ele>
        <time>2023-11-03T08:55:44Z</time>
      </trkpt>
      <trkpt lat="47.27901" lon="-1.58604">
        <ele>53</ele>
        <time>2023-11-03T08:56:12Z</time>
      </trkpt>
      <trkpt lat="47.2792" lon="-1.58606">
        <ele>53</ele>
        <time>2023-11-03T08:56:37Z</time>
      </trkpt>
      <trkpt lat="47.27918" lon="-1.58635">
        <ele>53</ele>
        <time>2023-11-03T08:57:03Z</time>
      </trkpt>
      <trkpt lat="47.27938" lon="-1.58643">
        <ele>53</ele>
        <time>2023-11-03T08:57:31Z</time>
      </trkpt>
      <trkpt lat="47.27957" lon="-1.58641">
        <ele>53</ele>
        <time>2023-11-03T08:57:56Z</time>
      </trkpt>
      <trkpt lat="47.27975" lon="-1.58636">
        <ele>53</ele>
        <time>2023-11-03T08:58:21Z</time>
      </trkpt>
      <trkpt lat="47.27997" lon="-1.5864">
        <ele>53</ele>
        <time>2023-11-03T08:58:50Z</time>
      </trkpt>
      <trkpt lat="47.28016" lon="-1.58636">
        <ele>53</ele>
        <time>2023-11-03T08:59:16Z</time>
      </trkpt>
      <trkpt lat="47.2806" lon="-1.58641">
        <ele>52</ele>
        <time>2023-11-03T09:00:15Z</time>
      </trkpt>
      <trkpt lat="47.28081" lon="-1.58644">
        <ele>52</ele>
        <time>2023-11-03T09:00:43Z</time>
      </trkpt>
      <trkpt lat="47.28141" lon="-1.58654">
        <ele>51</ele>
        <time>2023-11-03T09:02:04Z</time>
      </trkpt>
      <trkpt lat="47.2816" lon="-1.58656">
        <ele>50</ele>
        <time>2023-11-03T09:02:29Z</time>
      </trkpt>
      <trkpt lat="47.28166" lon="-1.58682">
        <ele>50</ele>
        <time>2023-11-03T09:02:54Z</time>
      </trkpt>
      <trkpt lat="47.28155" lon="-1.58706">
        <ele>50</ele>
        <time>2023-11-03T09:03:20Z</time>
      </trkpt>
      <trkpt lat="47.28146" lon="-1.58729">
        <ele>50</ele>
        <time>2023-11-03T09:03:44Z</time>
      </trkpt>
      <trkpt lat="47.28136" lon="-1.58757">
        <ele>50</ele>
        <time>2023-11-03T09:04:13Z</time>
      </trkpt>
      <trkpt lat="47.2814" lon="-1.58785">
        <ele>50</ele>
        <time>2023-11-03T09:04:39Z</time>
      </trkpt>
      <trkpt lat="47.28155" lon="-1.58811">
        <ele>50</ele>
        <time>2023-11-03T09:05:10Z</time>
      </trkpt>
      <trkpt lat="47.28173" lon="-1.58818">
        <ele>49</ele>
        <time>2023-11-03T09:05:35Z</time>
      </trkpt>
      <trkpt lat="47.28192" lon="-1.5883">
        <ele>49</ele>
        <time>2023-11-03T09:06:02Z</time>
      </trkpt>
      <trkpt lat="47.28209" lon="-1.58849">
        <ele>49</ele>
        <time>2023-11-03T09:06:31Z</time>
      </trkpt>
      <trkpt lat="47.28223" lon="-1.58868">
        <ele>49</ele>
        <time>2023-11-03T09:06:56Z</time>
      </trkpt>
      <trkpt lat="47.28212" lon="-1.58893">
        <ele>49</ele>
        <time>2023-11-03T09:07:23Z</time>
      </trkpt>
      <trkpt lat="47.28188" lon="-1.58942">
        <ele>51</ele>
        <time>2023-11-03T09:08:18Z</time>
      </trkpt>
      <trkpt lat="47.28175" lon="-1.58966">
        <ele>51</ele>
        <time>2023-11-03T09:08:45Z</time>
      </trkpt>
      <trkpt lat="47.2816" lon="-1.58988">
        <ele>52</ele>
        <time>2023-11-03T09:09:14Z</time>
      </trkpt>
      <trkpt lat="47.28146" lon="-1.59014">
        <ele>53</ele>
        <time>2023-11-03T09:09:44Z</time>
      </trkpt>
      <trkpt lat="47.28132" lon="-1.59041">
        <ele>53</ele>
        <time>2023-11-03T09:10:15Z</time>
      </trkpt>
      <trkpt lat="47.28117" lon="-1.59062">
        <ele>53</ele>
        <time>2023-11-03T09:10:42Z</time>
      </trkpt>
      <trkpt lat="47.28104" lon="-1.59087">
        <ele>53</ele>
        <time>2023-11-03T09:11:11Z</time>
      </trkpt>
      <trkpt lat="47.28089" lon="-1.59107">
        <ele>53</ele>
        <time>2023-11-03T09:11:38Z</time>
      </trkpt>
      <trkpt lat="47.2809" lon="-1.59139">
        <ele>53</ele>
        <time>2023-11-03T09:12:07Z</time>
      </trkpt>
      <trkpt lat="47.28094" lon="-1.59165">
        <ele>53</ele>
        <time>2023-11-03T09:12:31Z</time>
      </trkpt>
      <trkpt lat="47.28108" lon="-1.59184">
        <ele>53</ele>
        <time>2023-11-03T09:12:56Z</time>
      </trkpt>
      <trkpt lat="47.28121" lon="-1.59206">
        <ele>53</ele>
        <time>2023-11-03T09:13:23Z</time>
      </trkpt>
      <trkpt lat="47.28139" lon="-1.59227">
        <ele>53</ele>
        <time>2023-11-03T09:13:53Z</time>
      </trkpt>
      <trkpt lat="47.28153" lon="-1.59247">
        <ele>52</ele>
        <time>2023-11-03T09:14:19Z</time>
      </trkpt>
      <trkpt lat="47.28166" lon="-1.59267">
        <ele>52</ele>
        <time>2023-11-03T09:14:44Z</time>
      </trkpt>
      <trkpt lat="47.28181" lon="-1.59283">
        <ele>53</ele>
        <time>2023-11-03T09:15:09Z</time>
      </trkpt>
      <trkpt lat="47.28197" lon="-1.59298">
        <ele>53</ele>
        <time>2023-11-03T09:15:34Z</time>
      </trkpt>
      <trkpt lat="47.28211" lon="-1.59319">
        <ele>53</ele>
        <time>2023-11-03T09:16:01Z</time>
      </trkpt>
      <trkpt lat="47.28224" lon="-1.59343">
        <ele>54</ele>
        <time>2023-11-03T09:16:29Z</time>
      </trkpt>
      <trkpt lat="47.28241" lon="-1.59357">
        <ele>54</ele>
        <time>2023-11-03T09:16:55Z</time>
      </trkpt>
      <trkpt lat="47.28258" lon="-1.59374">
        <ele>54</ele>
        <time>2023-11-03T09:17:22Z</time>
      </trkpt>
      <trkpt lat="47.28277" lon="-1.5939">
        <ele>55</ele>
        <time>2023-11-03T09:17:51Z</time>
      </trkpt>
      <trkpt lat="47.28295" lon="-1.59402">
        <ele>55</ele>
        <time>2023-11-03T09:18:18Z</time>
      </trkpt>
      <trkpt lat="47.28315" lon="-1.59415">
        <ele>54</ele>
        <time>2023-11-03T09:18:47Z</time>
      </trkpt>
      <trkpt lat="47.28357" lon="-1.59427">
        <ele>54</ele>
        <time>2023-11-03T09:19:44Z</time>
      </trkpt>
      <trkpt lat="47.28376" lon="-1.59435">
        <ele>54</ele>
        <time>2023-11-03T09:20:10Z</time>
      </trkpt>
      <trkpt lat="47.28399" lon="-1.59437">
        <ele>54</ele>
        <time>2023-11-03T09:20:41Z</time>
      </trkpt>
      <trkpt lat="47.28421" lon="-1.59442">
        <ele>53</ele>
        <time>2023-11-03T09:21:11Z</time>
      </trkpt>
      <trkpt lat="47.28464" lon="-1.59454">
        <ele>54</ele>
        <time>2023-11-03T09:22:09Z</time>
      </trkpt>
      <trkpt lat="47.28483" lon="-1.59457">
        <ele>54</ele>
        <time>2023-11-03T09:22:35Z</time>
      </trkpt>
      <trkpt lat="47.28504" lon="-1.59465">
        <ele>54</ele>
        <time>2023-11-03T09:23:04Z</time>
      </trkpt>
      <trkpt lat="47.28524" lon="-1.59468">
        <ele>53</ele>
        <time>2023-11-03T09:23:31Z</time>
      </trkpt>
      <trkpt lat="47.28545" lon="-1.59475">
        <ele>53</ele>
        <time>2023-11-03T09:23:59Z</time>
      </trkpt>
      <trkpt lat="47.28565" lon="-1.59483">
        <ele>52</ele>
        <time>2023-11-03T09:24:27Z</time>
      </trkpt>
      <trkpt lat="47.28584" lon="-1.59491">
        <ele>51</ele>
        <time>2023-11-03T09:24:53Z</time>
      </trkpt>
      <trkpt lat="47.28604" lon="-1.59495">
        <ele>51</ele>
        <time>2023-11-03T09:25:20Z</time>
      </trkpt>
      <trkpt lat="47.28623" lon="-1.59499">
        <ele>51</ele>
        <time>2023-11-03T09:25:46Z</time>
      </trkpt>
      <trkpt lat="47.28642" lon="-1.59505">
        <ele>52</ele>
        <time>2023-11-03T09:26:12Z</time>
      </trkpt>
      <trkpt lat="47.28661" lon="-1.5951">
        <ele>52</ele>
        <time>2023-11-03T09:26:37Z</time>
      </trkpt>
      <trkpt lat="47.28683" lon="-1.59515">
        <ele>52</ele>
        <time>2023-11-03T09:27:07Z</time>
      </trkpt>
      <trkpt lat="47.28701" lon="-1.59525">
        <ele>52</ele>
        <time>2023-11-03T09:27:33Z</time>
      </trkpt>
      <trkpt lat="47.28717" lon="-1.59539">
        <ele>52</ele>
        <time>2023-11-03T09:27:58Z</time>
      </trkpt>
      <trkpt lat="47.28732" lon="-1.59554">
        <ele>52</ele>
        <time>2023-11-03T09:28:22Z</time>
      </trkpt>
      <trkpt lat="47.2875" lon="-1.59574">
        <ele>52</ele>
        <time>2023-11-03T09:28:52Z</time>
      </trkpt>
      <trkpt lat="47.28766" lon="-1.59596">
        <ele>52</ele>
        <time>2023-11-03T09:29:21Z</time>
      </trkpt>
      <trkpt lat="47.28782" lon="-1.59615">
        <ele>53</ele>
        <time>2023-11-03T09:29:49Z</time>
      </trkpt>
      <trkpt lat="47.28797" lon="-1.59632">
        <ele>54</ele>
        <time>2023-11-03T09:30:14Z</time>
      </trkpt>
      <trkpt lat="47.28816" lon="-1.59647">
        <ele>55</ele>
        <time>2023-11-03T09:30:43Z</time>
      </trkpt>
      <trkpt lat="47.28838" lon="-1.59649">
        <ele>56</ele>
        <time>2023-11-03T09:31:12Z</time>
      </trkpt>
      <trkpt lat="47.2886" lon="-1.59648">
        <ele>56</ele>
        <time>2023-11-03T09:31:41Z</time>
      </trkpt>
      <trkpt lat="47.28878" lon="-1.59646">
        <ele>57</ele>
        <time>2023-11-03T09:32:05Z</time>
      </trkpt>
      <trkpt lat="47.28898" lon="-1.59647">
        <ele>57</ele>
        <time>2023-11-03T09:32:32Z</time>
      </trkpt>
      <trkpt lat="47.28919" lon="-1.59644">
        <ele>58</ele>
        <time>2023-11-03T09:33:00Z</time>
      </trkpt>
      <trkpt lat="47.28938" lon="-1.59651">
        <ele>59</ele>
        <time>2023-11-03T09:33:26Z</time>
      </trkpt>
      <trkpt lat="47.28957" lon="-1.59656">
        <ele>59</ele>
        <time>2023-11-03T09:33:52Z</time>
      </trkpt>
      <trkpt lat="47.28996" lon="-1.59671">
        <ele>60</ele>
        <time>2023-11-03T09:34:46Z</time>
      </trkpt>
      <trkpt lat="47.29018" lon="-1.59676">
        <ele>59</ele>
        <time>2023-11-03T09:35:16Z</time>
      </trkpt>
      <trkpt lat="47.29039" lon="-1.59686">
        <ele>59</ele>
        <time>2023-11-03T09:35:45Z</time>
      </trkpt>
      <trkpt lat="47.29075" lon="-1.59698">
        <ele>58</ele>
        <time>2023-11-03T09:36:34Z</time>
      </trkpt>
      <trkpt lat="47.29094" lon="-1.59704">
        <ele>57</ele>
        <time>2023-11-03T09:37:00Z</time>
      </trkpt>
      <trkpt lat="47.29117" lon="-1.59706">
        <ele>56</ele>
        <time>2023-11-03T09:37:31Z</time>
      </trkpt>
      <trkpt lat="47.29138" lon="-1.59697">
        <ele>55</ele>
        <time>2023-11-03T09:38:00Z</time>
      </trkpt>
      <trkpt lat="47.29157" lon="-1.59699">
        <ele>54</ele>
        <time>2023-11-03T09:38:26Z</time>
      </trkpt>
      <trkpt lat="47.29178" lon="-1.59702">
        <ele>53</ele>
        <time>2023-11-03T09:38:54Z</time>
      </trkpt>
      <trkpt lat="47.29216" lon="-1.59703">
        <ele>52</ele>
        <time>2023-11-03T09:39:45Z</time>
      </trkpt>
      <trkpt lat="47.29236" lon="-1.59705">
        <ele>52</ele>
        <time>2023-11-03T09:40:11Z</time>
      </trkpt>
      <trkpt lat="47.29244" lon="-1.59681">
        <ele>52</ele>
        <time>2023-11-03T09:40:36Z</time>
      </trkpt>
      <trkpt lat="47.29241" lon="-1.59653">
        <ele>52</ele>
        <time>2023-11-03T09:41:01Z</time>
      </trkpt>
      <trkpt lat="47.29237" lon="-1.59624">
        <ele>53</ele>
        <time>2023-11-03T09:41:28Z</time>
      </trkpt>
      <trkpt lat="47.29254" lon="-1.59611">
        <ele>53</ele>
        <time>2023-11-03T09:41:54Z</time>
      </trkpt>
      <trkpt lat="47.29263" lon="-1.59583">
        <ele>53</ele>
        <time>2023-11-03T09:42:22Z</time>
      </trkpt>
      <trkpt lat="47.29266" lon="-1.59553">
        <ele>53</ele>
        <time>2023-11-03T09:42:49Z</time>
      </trkpt>
      <trkpt lat="47.2927" lon="-1.59525">
        <ele>53</ele>
        <time>2023-11-03T09:43:15Z</time>
      </trkpt>
      <trkpt lat="47.29275" lon="-1.59495">
        <ele>53</ele>
        <time>2023-11-03T09:43:43Z</time>
      </trkpt>
      <trkpt lat="47.29278" lon="-1.59467">
        <ele>53</ele>
        <time>2023-11-03T09:44:09Z</time>
      </trkpt>
      <trkpt lat="47.29282" lon="-1.5944">
        <ele>53</ele>
        <time>2023-11-03T09:44:34Z</time>
      </trkpt>
      <trkpt lat="47.29283" lon="-1.59413">
        <ele>52</ele>
        <time>2023-11-03T09:44:58Z</time>
      </trkpt>
      <trkpt lat="47.29288" lon="-1.59384">
        <ele>52</ele>
        <time>2023-11-03T09:45:25Z</time>
      </trkpt>
      <trkpt lat="47.29291" lon="-1.59351">
        <ele>52</ele>
        <time>2023-11-03T09:45:55Z</time>
      </trkpt>
      <trkpt lat="47.29299" lon="-1.5932">
        <ele>51</ele>
        <time>2023-11-03T09:46:25Z</time>
      </trkpt>
      <trkpt lat="47.29302" lon="-1.59288">
        <ele>50</ele>
        <time>2023-11-03T09:46:54Z</time>
      </trkpt>
      <trkpt lat="47.29309" lon="-1.59258">
        <ele>50</ele>
        <time>2023-11-03T09:47:23Z</time>
      </trkpt>
      <trkpt lat="47.29322" lon="-1.59234">
        <ele>49</ele>
        <time>2023-11-03T09:47:51Z</time>
      </trkpt>
      <trkpt lat="47.29344" lon="-1.59229">
        <ele>50</ele>
        <time>2023-11-03T09:48:21Z</time>
      </trkpt>
      <trkpt lat="47.29361" lon="-1.59222">
        <ele>50</ele>
        <time>2023-11-03T09:48:44Z</time>
      </trkpt>
      <trkpt lat="47.29352" lon="-1.59198">
        <ele>48</ele>
        <time>2023-11-03T09:49:09Z</time>
      </trkpt>
      <trkpt lat="47.29352" lon="-1.5917">
        <ele>46</ele>
        <time>2023-11-03T09:49:34Z</time>
      </trkpt>
      <trkpt lat="47.29359" lon="-1.59145">
        <ele>45</ele>
        <time>2023-11-03T09:49:59Z</time>
      </trkpt>
      <trkpt lat="47.29369" lon="-1.59123">
        <ele>44</ele>
        <time>2023-11-03T09:50:23Z</time>
      </trkpt>
      <trkpt lat="47.2938" lon="-1.59098">
        <ele>43</ele>
        <time>2023-11-03T09:50:50Z</time>
      </trkpt>
      <trkpt lat="47.29392" lon="-1.59075">
        <ele>43</ele>
        <time>2023-11-03T09:51:16Z</time>
      </trkpt>
      <trkpt lat="47.29409" lon="-1.5906">
        <ele>43</ele>
        <time>2023-11-03T09:51:43Z</time>
      </trkpt>
      <trkpt lat="47.29425" lon="-1.59038">
        <ele>43</ele>
        <time>2023-11-03T09:52:12Z</time>
      </trkpt>
      <trkpt lat="47.29438" lon="-1.59018">
        <ele>42</ele>
        <time>2023-11-03T09:52:37Z</time>
      </trkpt>
      <trkpt lat="47.29445" lon="-1.58993">
        <ele>41</ele>
        <time>2023-11-03T09:53:01Z</time>
      </trkpt>
      <trkpt lat="47.29443" lon="-1.58963">
        <ele>40</ele>
        <time>2023-11-03T09:53:29Z</time>
      </trkpt>
      <trkpt lat="47.29435" lon="-1.58933">
        <ele>39</ele>
        <time>2023-11-03T09:53:58Z</time>
      </trkpt>
      <trkpt lat="47.29436" lon="-1.58905">
        <ele>38</ele>
        <time>2023-11-03T09:54:23Z</time>
      </trkpt>
      <trkpt lat="47.2943" lon="-1.58879">
        <ele>37</ele>
        <time>2023-11-03T09:54:48Z</time>
      </trkpt>
      <trkpt lat="47.29429" lon="-1.58852">
        <ele>37</ele>
        <time>2023-11-03T09:55:12Z</time>
      </trkpt>
      <trkpt lat="47.29427" lon="-1.58819">
        <ele>36</ele>
        <time>2023-11-03T09:55:42Z</time>
      </trkpt>
      <trkpt lat="47.29433" lon="-1.58791">
        <ele>35</ele>
        <time>2023-11-03T09:56:09Z</time>
      </trkpt>
      <trkpt lat="47.29439" lon="-1.58764">
        <ele>35</ele>
        <time>2023-11-03T09:56:35Z</time>
      </trkpt>
      <trkpt lat="47.29441" lon="-1.58735">
        <ele>34</ele>
        <time>2023-11-03T09:57:01Z</time>
      </trkpt>
      <trkpt lat="47.29444" lon="-1.58708">
        <ele>34</ele>
        <time>2023-11-03T09:57:26Z</time>
      </trkpt>
      <trkpt lat="47.29446" lon="-1.58677">
        <ele>34</ele>
        <time>2023-11-03T09:57:54Z</time>
      </trkpt>
      <trkpt lat="47.29447" lon="-1.58647">
        <ele>33</ele>
        <time>2023-11-03T09:58:21Z</time>
      </trkpt>
      <trkpt lat="47.29445" lon="-1.58621">
        <ele>32</ele>
        <time>2023-11-03T09:58:45Z</time>
      </trkpt>
      <trkpt lat="47.29442" lon="-1.58591">
        <ele>31</ele>
        <time>2023-11-03T09:59:12Z</time>
      </trkpt>
      <trkpt lat="47.29442" lon="-1.58561">
        <ele>32</ele>
        <time>2023-11-03T09:59:40Z</time>
      </trkpt>
      <trkpt lat="47.29439" lon="-1.58534">
        <ele>32</ele>
        <time>2023-11-03T10:00:04Z</time>
      </trkpt>
      <trkpt lat="47.29437" lon="-1.58501">
        <ele>33</ele>
        <time>2023-11-03T10:00:34Z</time>
      </trkpt>
      <trkpt lat="47.29433" lon="-1.58471">
        <ele>34</ele>
        <time>2023-11-03T10:01:02Z</time>
      </trkpt>
      <trkpt lat="47.29436" lon="-1.58439">
        <ele>35</ele>
        <time>2023-11-03T10:01:31Z</time>
      </trkpt>
      <trkpt lat="47.29441" lon="-1.58412">
        <ele>36</ele>
        <time>2023-11-03T10:01:57Z</time>
      </trkpt>
      <trkpt lat="47.29447" lon="-1.58383">
        <ele>36</ele>
        <time>2023-11-03T10:02:24Z</time>
      </trkpt>
      <trkpt lat="47.29445" lon="-1.58353">
        <ele>36</ele>
        <time>2023-11-03T10:02:51Z</time>
      </trkpt>
      <trkpt lat="47.29437" lon="-1.58326">
        <ele>37</ele>
        <time>2023-11-03T10:03:18Z</time>
      </trkpt>
      <trkpt lat="47.2943" lon="-1.58293">
        <ele>37</ele>
        <time>2023-11-03T10:03:49Z</time>
      </trkpt>
      <trkpt lat="47.29419" lon="-1.58266">
        <ele>38</ele>
        <time>2023-11-03T10:04:18Z</time>
      </trkpt>
      <trkpt lat="47.29414" lon="-1.58234">
        <ele>38</ele>
        <time>2023-11-03T10:04:47Z</time>
      </trkpt>
      <trkpt lat="47.29417" lon="-1.58201">
        <ele>39</ele>
        <time>2023-11-03T10:05:18Z</time>
      </trkpt>
      <trkpt lat="47.29419" lon="-1.58173">
        <ele>39</ele>
        <time>2023-11-03T10:05:43Z</time>
      </trkpt>
      <trkpt lat="47.29411" lon="-1.58142">
        <ele>38</ele>
        <time>2023-11-03T10:06:13Z</time>
      </trkpt>
      <trkpt lat="47.29403" lon="-1.58117">
        <ele>38</ele>
        <time>2023-11-03T10:06:38Z</time>
      </trkpt>
      <trkpt lat="47.29394" lon="-1.58093">
        <ele>37</ele>
        <time>2023-11-03T10:07:03Z</time>
      </trkpt>
      <trkpt lat="47.29383" lon="-1.58063">
        <ele>36</ele>
        <time>2023-11-03T10:07:34Z</time>
      </trkpt>
      <trkpt lat="47.29366" lon="-1.58047">
        <ele>36</ele>
        <time>2023-11-03T10:08:01Z</time>
      </trkpt>
      <trkpt lat="47.29347" lon="-1.58046">
        <ele>36</ele>
        <time>2023-11-03T10:08:26Z</time>
      </trkpt>
      <trkpt lat="47.29332" lon="-1.58027">
        <ele>35</ele>
        <time>2023-11-03T10:08:52Z</time>
      </trkpt>
      <trkpt lat="47.29323" lon="-1.58004">
        <ele>34</ele>
        <time>2023-11-03T10:09:16Z</time>
      </trkpt>
      <trkpt lat="47.29312" lon="-1.57978">
        <ele>32</ele>
        <time>2023-11-03T10:09:44Z</time>
      </trkpt>
      <trkpt lat="47.293" lon="-1.57953">
        <ele>30</ele>
        <time>2023-11-03T10:10:12Z</time>
      </trkpt>
      <trkpt lat="47.29286" lon="-1.57925">
        <ele>28</ele>
        <time>2023-11-03T10:10:43Z</time>
      </trkpt>
      <trkpt lat="47.2927" lon="-1.57903">
        <ele>26</ele>
        <time>2023-11-03T10:11:13Z</time>
      </trkpt>
      <trkpt lat="47.29255" lon="-1.57881">
        <ele>24</ele>
        <time>2023-11-03T10:11:41Z</time>
      </trkpt>
      <trkpt lat="47.29238" lon="-1.57865">
        <ele>24</ele>
        <time>2023-11-03T10:12:08Z</time>
      </trkpt>
      <trkpt lat="47.29224" lon="-1.57846">
        <ele>23</ele>
        <time>2023-11-03T10:12:33Z</time>
      </trkpt>
      <trkpt lat="47.29215" lon="-1.57816">
        <ele>22</ele>
        <time>2023-11-03T10:13:03Z</time>
      </trkpt>
      <trkpt lat="47.29209" lon="-1.57786">
        <ele>21</ele>
        <time>2023-11-03T10:13:31Z</time>
      </trkpt>
      <trkpt lat="47.292" lon="-1.57754">
        <ele>20</ele>
        <time>2023-11-03T10:14:03Z</time>
      </trkpt>
      <trkpt lat="47.29191" lon="-1.57728">
        <ele>20</ele>
        <time>2023-11-03T10:14:29Z</time>
      </trkpt>
      <trkpt lat="47.29199" lon="-1.57701">
        <ele>21</ele>
        <time>2023-11-03T10:14:56Z</time>
      </trkpt>
      <trkpt lat="47.29205" lon="-1.57673">
        <ele>21</ele>
        <time>2023-11-03T10:15:22Z</time>
      </trkpt>
      <trkpt lat="47.29214" lon="-1.57649">
        <ele>20</ele>
        <time>2023-11-03T10:15:47Z</time>
      </trkpt>
      <trkpt lat="47.2923" lon="-1.57591">
        <ele>19</ele>
        <time>2023-11-03T10:16:44Z</time>
      </trkpt>
      <trkpt lat="47.29242" lon="-1.57564">
        <ele>18</ele>
        <time>2023-11-03T10:17:13Z</time>
      </trkpt>
      <trkpt lat="47.29225" lon="-1.57549">
        <ele>19</ele>
        <time>2023-11-03T10:17:39Z</time>
      </trkpt>
      <trkpt lat="47.29208" lon="-1.57541">
        <ele>20</ele>
        <time>2023-11-03T10:18:03Z</time>
      </trkpt>
      <trkpt lat="47.29188" lon="-1.57552">
        <ele>21</ele>
        <time>2023-11-03T10:18:32Z</time>
      </trkpt>
      <trkpt lat="47.29175" lon="-1.57578">
        <ele>22</ele>
        <time>2023-11-03T10:19:01Z</time>
      </trkpt>
      <trkpt lat="47.29154" lon="-1.57581">
        <ele>24</ele>
        <time>2023-11-03T10:19:29Z</time>
      </trkpt>
      <trkpt lat="47.29131" lon="-1.57574">
        <ele>25</ele>
        <time>2023-11-03T10:20:00Z</time>
      </trkpt>
      <trkpt lat="47.29112" lon="-1.57573">
        <ele>27</ele>
        <time>2023-11-03T10:20:26Z</time>
      </trkpt>
      <trkpt lat="47.29093" lon="-1.57569">
        <ele>28</ele>
        <time>2023-11-03T10:20:51Z</time>
      </trkpt>
      <trkpt lat="47.29074" lon="-1.57561">
        <ele>29</ele>
        <time>2023-11-03T10:21:18Z</time>
      </trkpt>
      <trkpt lat="47.29055" lon="-1.57559">
        <ele>30</ele>
        <time>2023-11-03T10:21:43Z</time>
      </trkpt>
      <trkpt lat="47.29036" lon="-1.57561">
        <ele>31</ele>
        <time>2023-11-03T10:22:09Z</time>
      </trkpt>
      <trkpt lat="47.29029" lon="-1.57534">
        <ele>32</ele>
        <time>2023-11-03T10:22:35Z</time>
      </trkpt>
      <trkpt lat="47.29034" lon="-1.57507">
        <ele>32</ele>
        <time>2023-11-03T10:23:00Z</time>
      </trkpt>
      <trkpt lat="47.29038" lon="-1.57479">
        <ele>32</ele>
        <time>2023-11-03T10:23:26Z</time>
      </trkpt>
      <trkpt lat="47.29038" lon="-1.57452">
        <ele>32</ele>
        <time>2023-11-03T10:23:50Z</time>
      </trkpt>
      <trkpt lat="47.29039" lon="-1.57423">
        <ele>32</ele>
        <time>2023-11-03T10:24:17Z</time>
      </trkpt>
      <trkpt lat="47.29037" lon="-1.57395">
        <ele>33</ele>
        <time>2023-11-03T10:24:42Z</time>
      </trkpt>
      <trkpt lat="47.29037" lon="-1.57364">
        <ele>33</ele>
        <time>2023-11-03T10:25:10Z</time>
      </trkpt>
      <trkpt lat="47.29038" lon="-1.57337">
        <ele>33</ele>
        <time>2023-11-03T10:25:35Z</time>
      </trkpt>
      <trkpt lat="47.29038" lon="-1.57308">
        <ele>33</ele>
        <time>2023-11-03T10:26:01Z</time>
      </trkpt>
      <trkpt lat="47.29034" lon="-1.57249">
        <ele>33</ele>
        <time>2023-11-03T10:26:55Z</time>
      </trkpt>
      <trkpt lat="47.2903" lon="-1.57218">
        <ele>34</ele>
        <time>2023-11-03T10:27:23Z</time>
      </trkpt>
      <trkpt lat="47.29031" lon="-1.57188">
        <ele>35</ele>
        <time>2023-11-03T10:27:50Z</time>
      </trkpt>
      <trkpt lat="47.2903" lon="-1.57159">
        <ele>35</ele>
        <time>2023-11-03T10:28:17Z</time>
      </trkpt>
      <trkpt lat="47.29021" lon="-1.57133">
        <ele>36</ele>
        <time>2023-11-03T10:28:43Z</time>
      </trkpt>
      <trkpt lat="47.29024" lon="-1.57106">
        <ele>36</ele>
        <time>2023-11-03T10:29:08Z</time>
      </trkpt>
      <trkpt lat="47.29035" lon="-1.57081">
        <ele>35</ele>
        <time>2023-11-03T10:29:35Z</time>
      </trkpt>
      <trkpt lat="47.29049" lon="-1.57063">
        <ele>34</ele>
        <time>2023-11-03T10:30:00Z</time>
      </trkpt>
      <trkpt lat="47.29061" lon="-1.57039">
        <ele>34</ele>
        <time>2023-11-03T10:30:27Z</time>
      </trkpt>
      <trkpt lat="47.29074" lon="-1.57017">
        <ele>34</ele>
        <time>2023-11-03T10:30:53Z</time>
      </trkpt>
      <trkpt lat="47.2909" lon="-1.56999">
        <ele>34</ele>
        <time>2023-11-03T10:31:20Z</time>
      </trkpt>
      <trkpt lat="47.29109" lon="-1.56983">
        <ele>33</ele>
        <time>2023-11-03T10:31:49Z</time>
      </trkpt>
      <trkpt lat="47.29126" lon="-1.56965">
        <ele>32</ele>
        <time>2023-11-03T10:32:17Z</time>
      </trkpt>
      <trkpt lat="47.29147" lon="-1.56952">
        <ele>32</ele>
        <time>2023-11-03T10:32:47Z</time>
      </trkpt>
      <trkpt lat="47.2916" lon="-1.56933">
        <ele>32</ele>
        <time>2023-11-03T10:33:12Z</time>
      </trkpt>
      <trkpt lat="47.29174" lon="-1.56912">
        <ele>31</ele>
        <time>2023-11-03T10:33:38Z</time>
      </trkpt>
      <trkpt lat="47.29186" lon="-1.56891">
        <ele>29</ele>
        <time>2023-11-03T10:34:03Z</time>
      </trkpt>
      <trkpt lat="47.292" lon="-1.56866">
        <ele>26</ele>
        <time>2023-11-03T10:34:33Z</time>
      </trkpt>
      <trkpt lat="47.29216" lon="-1.56845">
        <ele>24</ele>
        <time>2023-11-03T10:35:01Z</time>
      </trkpt>
      <trkpt lat="47.29232" lon="-1.56828">
        <ele>22</ele>
        <time>2023-11-03T10:35:28Z</time>
      </trkpt>
      <trkpt lat="47.29236" lon="-1.56796">
        <ele>19</ele>
        <time>2023-11-03T10:35:57Z</time>
      </trkpt>
      <trkpt lat="47.29221" lon="-1.56777">
        <ele>18</ele>
        <time>2023-11-03T10:36:23Z</time>
      </trkpt>
      <trkpt lat="47.292" lon="-1.56783">
        <ele>19</ele>
        <time>2023-11-03T10:36:52Z</time>
      </trkpt>
      <trkpt lat="47.29184" lon="-1.568">
        <ele>21</ele>
        <time>2023-11-03T10:37:18Z</time>
      </trkpt>
      <trkpt lat="47.29166" lon="-1.56807">
        <ele>23</ele>
        <time>2023-11-03T10:37:43Z</time>
      </trkpt>
      <trkpt lat="47.29144" lon="-1.56819">
        <ele>25</ele>
        <time>2023-11-03T10:38:14Z</time>
      </trkpt>
      <trkpt lat="47.29126" lon="-1.56819">
        <ele>25</ele>
        <time>2023-11-03T10:38:38Z</time>
      </trkpt>
      <trkpt lat="47.29102" lon="-1.56821">
        <ele>26</ele>
        <time>2023-11-03T10:39:11Z</time>
      </trkpt>
      <trkpt lat="47.2908" lon="-1.56817">
        <ele>26</ele>
        <time>2023-11-03T10:39:40Z</time>
      </trkpt>
      <trkpt lat="47.29064" lon="-1.56801">
        <ele>24</ele>
        <time>2023-11-03T10:40:06Z</time>
      </trkpt>
      <trkpt lat="47.29054" lon="-1.56774">
        <ele>21</ele>
        <time>2023-11-03T10:40:34Z</time>
      </trkpt>
      <trkpt lat="47.2905" lon="-1.56744">
        <ele>19</ele>
        <time>2023-11-03T10:41:01Z</time>
      </trkpt>
      <trkpt lat="47.29043" lon="-1.56714">
        <ele>18</ele>
        <time>2023-11-03T10:41:30Z</time>
      </trkpt>
      <trkpt lat="47.29029" lon="-1.56695">
        <ele>18</ele>
        <time>2023-11-03T10:41:56Z</time>
      </trkpt>
      <trkpt lat="47.29021" lon="-1.56666">
        <ele>17</ele>
        <time>2023-11-03T10:42:24Z</time>
      </trkpt>
      <trkpt lat="47.29006" lon="-1.56647">
        <ele>18</ele>
        <time>2023-11-03T10:42:50Z</time>
      </trkpt>
      <trkpt lat="47.2899" lon="-1.56623">
        <ele>16</ele>
        <time>2023-11-03T10:43:21Z</time>
      </trkpt>
      <trkpt lat="47.28976" lon="-1.56606">
        <ele>16</ele>
        <time>2023-11-03T10:43:45Z</time>
      </trkpt>
      <trkpt lat="47.28958" lon="-1.56602">
        <ele>16</ele>
        <time>2023-11-03T10:44:09Z</time>
      </trkpt>
      <trkpt lat="47.28939" lon="-1.56619">
        <ele>16</ele>
        <time>2023-11-03T10:44:39Z</time>
      </trkpt>
      <trkpt lat="47.28935" lon="-1.56648">
        <ele>15</ele>
        <time>2023-11-03T10:45:06Z</time>
      </trkpt>
      <trkpt lat="47.2892" lon="-1.56673">
        <ele>13</ele>
        <time>2023-11-03T10:45:36Z</time>
      </trkpt>
      <trkpt lat="47.28911" lon="-1.56701">
        <ele>13</ele>
        <time>2023-11-03T10:46:04Z</time>
      </trkpt>
      <trkpt lat="47.28901" lon="-1.56726">
        <ele>14</ele>
        <time>2023-11-03T10:46:30Z</time>
      </trkpt>
      <trkpt lat="47.28891" lon="-1.56752">
        <ele>15</ele>
        <time>2023-11-03T10:46:57Z</time>
      </trkpt>
      <trkpt lat="47.28886" lon="-1.56782">
        <ele>17</ele>
        <time>2023-11-03T10:47:25Z</time>
      </trkpt>
      <trkpt lat="47.28872" lon="-1.56806">
        <ele>18</ele>
        <time>2023-11-03T10:47:54Z</time>
      </trkpt>
      <trkpt lat="47.28858" lon="-1.56823">
        <ele>17</ele>
        <time>2023-11-03T10:48:18Z</time>
      </trkpt>
      <trkpt lat="47.28844" lon="-1.56841">
        <ele>18</ele>
        <time>2023-11-03T10:48:43Z</time>
      </trkpt>
      <trkpt lat="47.28826" lon="-1.5685">
        <ele>19</ele>
        <time>2023-11-03T10:49:08Z</time>
      </trkpt>
      <trkpt lat="47.28807" lon="-1.56853">
        <ele>20</ele>
        <time>2023-11-03T10:49:34Z</time>
      </trkpt>
      <trkpt lat="47.28787" lon="-1.56861">
        <ele>22</ele>
        <time>2023-11-03T10:50:01Z</time>
      </trkpt>
      <trkpt lat="47.28769" lon="-1.56853">
        <ele>21</ele>
        <time>2023-11-03T10:50:26Z</time>
      </trkpt>
      <trkpt lat="47.28751" lon="-1.56861">
        <ele>22</ele>
        <time>2023-11-03T10:50:52Z</time>
      </trkpt>
      <trkpt lat="47.28732" lon="-1.56857">
        <ele>21</ele>
        <time>2023-11-03T10:51:17Z</time>
      </trkpt>
      <trkpt lat="47.28718" lon="-1.56838">
        <ele>19</ele>
        <time>2023-11-03T10:51:43Z</time>
      </trkpt>
      <trkpt lat="47.287" lon="-1.56833">
        <ele>18</ele>
        <time>2023-11-03T10:52:07Z</time>
      </trkpt>
      <trkpt lat="47.28681" lon="-1.56828">
        <ele>18</ele>
        <time>2023-11-03T10:52:33Z</time>
      </trkpt>
      <trkpt lat="47.28667" lon="-1.56809">
        <ele>16</ele>
        <time>2023-11-03T10:52:58Z</time>
      </trkpt>
      <trkpt lat="47.28652" lon="-1.56794">
        <ele>15</ele>
        <time>2023-11-03T10:53:22Z</time>
      </trkpt>
      <trkpt lat="47.28631" lon="-1.56789">
        <ele>15</ele>
        <time>2023-11-03T10:53:51Z</time>
      </trkpt>
      <trkpt lat="47.2861" lon="-1.56781">
        <ele>15</ele>
        <time>2023-11-03T10:54:20Z</time>
      </trkpt>
      <trkpt lat="47.28573" lon="-1.56761">
        <ele>15</ele>
        <time>2023-11-03T10:55:12Z</time>
      </trkpt>
      <trkpt lat="47.28556" lon="-1.56749">
        <ele>15</ele>
        <time>2023-11-03T10:55:37Z</time>
      </trkpt>
      <trkpt lat="47.2854" lon="-1.56732">
        <ele>16</ele>
        <time>2023-11-03T10:56:04Z</time>
      </trkpt>
      <trkpt lat="47.28524" lon="-1.5671">
        <ele>16</ele>
        <time>2023-11-03T10:56:33Z</time>
      </trkpt>
      <trkpt lat="47.28509" lon="-1.56688">
        <ele>16</ele>
        <time>2023-11-03T10:57:01Z</time>
      </trkpt>
      <trkpt lat="47.285" lon="-1.56662">
        <ele>16</ele>
        <time>2023-11-03T10:57:28Z</time>
      </trkpt>
      <trkpt lat="47.28505" lon="-1.56634">
        <ele>14</ele>
        <time>2023-11-03T10:57:54Z</time>
      </trkpt>
      <trkpt lat="47.28503" lon="-1.56602">
        <ele>13</ele>
        <time>2023-11-03T10:58:23Z</time>
      </trkpt>
      <trkpt lat="47.28493" lon="-1.56577">
        <ele>12</ele>
        <time>2023-11-03T10:58:49Z</time>
      </trkpt>
      <trkpt lat="47.28472" lon="-1.56573">
        <ele>12</ele>
        <time>2023-11-03T10:59:17Z</time>
      </trkpt>
      <trkpt lat="47.28454" lon="-1.56577">
        <ele>11</ele>
        <time>2023-11-03T10:59:42Z</time>
      </trkpt>
      <trkpt lat="47.28437" lon="-1.56586">
        <ele>11</ele>
        <time>2023-11-03T11:00:06Z</time>
      </trkpt>
      <trkpt lat="47.28428" lon="-1.56611">
        <ele>12</ele>
        <time>2023-11-03T11:00:31Z</time>
      </trkpt>
      <trkpt lat="47.2842" lon="-1.56643">
        <ele>13</ele>
        <time>2023-11-03T11:01:02Z</time>
      </trkpt>
      <trkpt lat="47.28413" lon="-1.56674">
        <ele>14</ele>
        <time>2023-11-03T11:01:32Z</time>
      </trkpt>
      <trkpt lat="47.28402" lon="-1.56696">
        <ele>16</ele>
        <time>2023-11-03T11:01:57Z</time>
      </trkpt>
      <trkpt lat="47.2839" lon="-1.56717">
        <ele>18</ele>
        <time>2023-11-03T11:02:21Z</time>
      </trkpt>
      <trkpt lat="47.28386" lon="-1.56745">
        <ele>20</ele>
        <time>2023-11-03T11:02:47Z</time>
      </trkpt>
      <trkpt lat="47.28376" lon="-1.56771">
        <ele>22</ele>
        <time>2023-11-03T11:03:14Z</time>
      </trkpt>
      <trkpt lat="47.28359" lon="-1.56788">
        <ele>23</ele>
        <time>2023-11-03T11:03:42Z</time>
      </trkpt>
      <trkpt lat="47.28354" lon="-1.56815">
        <ele>25</ele>
        <time>2023-11-03T11:04:07Z</time>
      </trkpt>
      <trkpt lat="47.28337" lon="-1.56827">
        <ele>27</ele>
        <time>2023-11-03T11:04:32Z</time>
      </trkpt>
      <trkpt lat="47.28333" lon="-1.56795">
        <ele>25</ele>
        <time>2023-11-03T11:05:02Z</time>
      </trkpt>
      <trkpt lat="47.28332" lon="-1.56766">
        <ele>24</ele>
        <time>2023-11-03T11:05:28Z</time>
      </trkpt>
      <trkpt lat="47.28334" lon="-1.56733">
        <ele>22</ele>
        <time>2023-11-03T11:05:58Z</time>
      </trkpt>
      <trkpt lat="47.28337" lon="-1.56705">
        <ele>19</ele>
        <time>2023-11-03T11:06:24Z</time>
      </trkpt>
      <trkpt lat="47.28346" lon="-1.56681">
        <ele>17</ele>
        <time>2023-11-03T11:06:49Z</time>
      </trkpt>
      <trkpt lat="47.28354" lon="-1.56652">
        <ele>15</ele>
        <time>2023-11-03T11:07:17Z</time>
      </trkpt>
      <trkpt lat="47.28349" lon="-1.56623">
        <ele>13</ele>
        <time>2023-11-03T11:07:44Z</time>
      </trkpt>
      <trkpt lat="47.28333" lon="-1.56609">
        <ele>13</ele>
        <time>2023-11-03T11:08:09Z</time>
      </trkpt>
      <trkpt lat="47.28315" lon="-1.566">
        <ele>12</ele>
        <time>2023-11-03T11:08:34Z</time>
      </trkpt>
      <trkpt lat="47.28295" lon="-1.56586">
        <ele>11</ele>
        <time>2023-11-03T11:09:04Z</time>
      </trkpt>
      <trkpt lat="47.28278" lon="-1.56578">
        <ele>11</ele>
        <time>2023-11-03T11:09:28Z</time>
      </trkpt>
      <trkpt lat="47.28261" lon="-1.56589">
        <ele>10</ele>
        <time>2023-11-03T11:09:52Z</time>
      </trkpt>
      <trkpt lat="47.28245" lon="-1.56605">
        <ele>12</ele>
        <time>2023-11-03T11:10:18Z</time>
      </trkpt>
      <trkpt lat="47.28229" lon="-1.5662">
        <ele>13</ele>
        <time>2023-11-03T11:10:43Z</time>
      </trkpt>
      <trkpt lat="47.28212" lon="-1.56642">
        <ele>15</ele>
        <time>2023-11-03T11:11:14Z</time>
      </trkpt>
      <trkpt lat="47.28196" lon="-1.56665">
        <ele>16</ele>
        <time>2023-11-03T11:11:43Z</time>
      </trkpt>
      <trkpt lat="47.28177" lon="-1.56671">
        <ele>16</ele>
        <time>2023-11-03T11:12:09Z</time>
      </trkpt>
      <trkpt lat="47.28154" lon="-1.5668">
        <ele>17</ele>
        <time>2023-11-03T11:12:41Z</time>
      </trkpt>
      <trkpt lat="47.28131" lon="-1.56678">
        <ele>17</ele>
        <time>2023-11-03T11:13:12Z</time>
      </trkpt>
      <trkpt lat="47.2811" lon="-1.56675">
        <ele>16</ele>
        <time>2023-11-03T11:13:40Z</time>
      </trkpt>
      <trkpt lat="47.2809" lon="-1.56686">
        <ele>17</ele>
        <time>2023-11-03T11:14:08Z</time>
      </trkpt>
      <trkpt lat="47.28072" lon="-1.56692">
        <ele>17</ele>
        <time>2023-11-03T11:14:33Z</time>
      </trkpt>
      <trkpt lat="47.2805" lon="-1.56698">
        <ele>18</ele>
        <time>2023-11-03T11:15:03Z</time>
      </trkpt>
      <trkpt lat="47.28026" lon="-1.56699">
        <ele>19</ele>
        <time>2023-11-03T11:15:35Z</time>
      </trkpt>
      <trkpt lat="47.28006" lon="-1.56696">
        <ele>20</ele>
        <time>2023-11-03T11:16:02Z</time>
      </trkpt>
      <trkpt lat="47.27962" lon="-1.56679">
        <ele>18</ele>
        <time>2023-11-03T11:17:03Z</time>
      </trkpt>
      <trkpt lat="47.27944" lon="-1.56678">
        <ele>17</ele>
        <time>2023-11-03T11:17:27Z</time>
      </trkpt>
      <trkpt lat="47.27936" lon="-1.5665">
        <ele>16</ele>
        <time>2023-11-03T11:17:54Z</time>
      </trkpt>
      <trkpt lat="47.27934" lon="-1.56624">
        <ele>17</ele>
        <time>2023-11-03T11:18:18Z</time>
      </trkpt>
      <trkpt lat="47.27921" lon="-1.566">
        <ele>16</ele>
        <time>2023-11-03T11:18:46Z</time>
      </trkpt>
      <trkpt lat="47.27889" lon="-1.56563">
        <ele>15</ele>
        <time>2023-11-03T11:19:40Z</time>
      </trkpt>
      <trkpt lat="47.27873" lon="-1.56546">
        <ele>14</ele>
        <time>2023-11-03T11:20:06Z</time>
      </trkpt>
      <trkpt lat="47.27861" lon="-1.56526">
        <ele>14</ele>
        <time>2023-11-03T11:20:30Z</time>
      </trkpt>
      <trkpt lat="47.27853" lon="-1.56502">
        <ele>14</ele>
        <time>2023-11-03T11:20:55Z</time>
      </trkpt>
      <trkpt lat="47.27864" lon="-1.56475">
        <ele>16</ele>
        <time>2023-11-03T11:21:23Z</time>
      </trkpt>
      <trkpt lat="47.27871" lon="-1.56451">
        <ele>18</ele>
        <time>2023-11-03T11:21:47Z</time>
      </trkpt>
      <trkpt lat="47.2788" lon="-1.56424">
        <ele>21</ele>
        <time>2023-11-03T11:22:14Z</time>
      </trkpt>
      <trkpt lat="47.27888" lon="-1.56396">
        <ele>24</ele>
        <time>2023-11-03T11:22:41Z</time>
      </trkpt>
      <trkpt lat="47.27907" lon="-1.56399">
        <ele>26</ele>
        <time>2023-11-03T11:23:07Z</time>
      </trkpt>
      <trkpt lat="47.27923" lon="-1.56379">
        <ele>28</ele>
        <time>2023-11-03T11:23:35Z</time>
      </trkpt>
      <trkpt lat="47.27925" lon="-1.5635">
        <ele>29</ele>
        <time>2023-11-03T11:24:01Z</time>
      </trkpt>
      <trkpt lat="47.2793" lon="-1.56319">
        <ele>30</ele>
        <time>2023-11-03T11:24:30Z</time>
      </trkpt>
      <trkpt lat="47.27944" lon="-1.563">
        <ele>32</ele>
        <time>2023-11-03T11:24:56Z</time>
      </trkpt>
      <trkpt lat="47.2796" lon="-1.56274">
        <ele>33</ele>
        <time>2023-11-03T11:25:27Z</time>
      </trkpt>
      <trkpt lat="47.27945" lon="-1.56252">
        <ele>34</ele>
        <time>2023-11-03T11:25:56Z</time>
      </trkpt>
      <trkpt lat="47.27927" lon="-1.56239">
        <ele>34</ele>
        <time>2023-11-03T11:26:22Z</time>
      </trkpt>
      <trkpt lat="47.27936" lon="-1.56181">
        <ele>36</ele>
        <time>2023-11-03T11:27:16Z</time>
      </trkpt>
      <trkpt lat="47.27941" lon="-1.56154">
        <ele>37</ele>
        <time>2023-11-03T11:27:42Z</time>
      </trkpt>
      <trkpt lat="47.27944" lon="-1.56126">
        <ele>37</ele>
        <time>2023-11-03T11:28:07Z</time>
      </trkpt>
      <trkpt lat="47.27944" lon="-1.56097">
        <ele>38</ele>
        <time>2023-11-03T11:28:33Z</time>
      </trkpt>
      <trkpt lat="47.27952" lon="-1.56069">
        <ele>38</ele>
        <time>2023-11-03T11:29:01Z</time>
      </trkpt>
      <trkpt lat="47.27952" lon="-1.56035">
        <ele>38</ele>
        <time>2023-11-03T11:29:32Z</time>
      </trkpt>
      <trkpt lat="47.27955" lon="-1.56007">
        <ele>38</ele>
        <time>2023-11-03T11:29:57Z</time>
      </trkpt>
      <trkpt lat="47.27958" lon="-1.5598">
        <ele>37</ele>
        <time>2023-11-03T11:30:22Z</time>
      </trkpt>
      <trkpt lat="47.27959" lon="-1.55952">
        <ele>36</ele>
        <time>2023-11-03T11:30:48Z</time>
      </trkpt>
      <trkpt lat="47.27959" lon="-1.55918">
        <ele>36</ele>
        <time>2023-11-03T11:31:18Z</time>
      </trkpt>
      <trkpt lat="47.2796" lon="-1.55889">
        <ele>36</ele>
        <time>2023-11-03T11:31:45Z</time>
      </trkpt>
      <trkpt lat="47.27966" lon="-1.55859">
        <ele>37</ele>
        <time>2023-11-03T11:32:13Z</time>
      </trkpt>
      <trkpt lat="47.27969" lon="-1.5583">
        <ele>38</ele>
        <time>2023-11-03T11:32:40Z</time>
      </trkpt>
      <trkpt lat="47.27972" lon="-1.55803">
        <ele>38</ele>
        <time>2023-11-03T11:33:04Z</time>
      </trkpt>
      <trkpt lat="47.27975" lon="-1.55771">
        <ele>39</ele>
        <time>2023-11-03T11:33:34Z</time>
      </trkpt>
      <trkpt lat="47.27975" lon="-1.55744">
        <ele>39</ele>
        <time>2023-11-03T11:33:58Z</time>
      </trkpt>
      <trkpt lat="47.27983" lon="-1.5572">
        <ele>40</ele>
        <time>2023-11-03T11:34:22Z</time>
        <extensions>
          <visugpx:TrkExtension xmlns:visugpx="https://www.visugpx.com/editgpx/">
            <visugpx:node>1</visugpx:node>
            </visugpx:TrkExtension>
        </extensions>
      </trkpt>
    </trkseg>
  </trk>
  <trk>
    <name><![CDATA[ChapelleE_GesvresRagonParCapellia_11km-12328489]]></name>
    <extensions>
      <line xmlns="http://www.topografix.com/GPX/gpx_style/0/2">
        <color>00FF00</color>
        <width>4</width>
      </line>
    </extensions>
    <trkseg>
      <trkpt lat="47.27977" lon="-1.557">
        <ele>40</ele>
        <time>2023-11-03T07:50:06Z</time>
      </trkpt>
      <trkpt lat="47.2798" lon="-1.55729">
        <ele>40</ele>
        <time>2023-11-03T07:50:33Z</time>
      </trkpt>
      <trkpt lat="47.27975" lon="-1.55788">
        <ele>38</ele>
        <time>2023-11-03T07:51:26Z</time>
      </trkpt>
      <trkpt lat="47.27973" lon="-1.55816">
        <ele>38</ele>
        <time>2023-11-03T07:51:52Z</time>
      </trkpt>
      <trkpt lat="47.27963" lon="-1.55911">
        <ele>36</ele>
        <time>2023-11-03T07:53:19Z</time>
      </trkpt>
      <trkpt lat="47.27963" lon="-1.55939">
        <ele>36</ele>
        <time>2023-11-03T07:53:44Z</time>
      </trkpt>
      <trkpt lat="47.2796" lon="-1.55966">
        <ele>37</ele>
        <time>2023-11-03T07:54:09Z</time>
      </trkpt>
      <trkpt lat="47.27957" lon="-1.56">
        <ele>38</ele>
        <time>2023-11-03T07:54:40Z</time>
      </trkpt>
      <trkpt lat="47.27953" lon="-1.56026">
        <ele>38</ele>
        <time>2023-11-03T07:55:04Z</time>
      </trkpt>
      <trkpt lat="47.27948" lon="-1.56059">
        <ele>38</ele>
        <time>2023-11-03T07:55:35Z</time>
      </trkpt>
      <trkpt lat="47.27939" lon="-1.5615">
        <ele>37</ele>
        <time>2023-11-03T07:56:58Z</time>
      </trkpt>
      <trkpt lat="47.27936" lon="-1.56179">
        <ele>36</ele>
        <time>2023-11-03T07:57:25Z</time>
      </trkpt>
      <trkpt lat="47.27935" lon="-1.56206">
        <ele>35</ele>
        <time>2023-11-03T07:57:49Z</time>
      </trkpt>
      <trkpt lat="47.27929" lon="-1.56235">
        <ele>35</ele>
        <time>2023-11-03T07:58:17Z</time>
      </trkpt>
      <trkpt lat="47.27948" lon="-1.56249">
        <ele>34</ele>
        <time>2023-11-03T07:58:45Z</time>
      </trkpt>
      <trkpt lat="47.27966" lon="-1.5627">
        <ele>33</ele>
        <time>2023-11-03T07:59:16Z</time>
      </trkpt>
      <trkpt lat="47.27956" lon="-1.56296">
        <ele>32</ele>
        <time>2023-11-03T07:59:43Z</time>
      </trkpt>
      <trkpt lat="47.27941" lon="-1.56313">
        <ele>31</ele>
        <time>2023-11-03T08:00:08Z</time>
      </trkpt>
      <trkpt lat="47.2793" lon="-1.56335">
        <ele>30</ele>
        <time>2023-11-03T08:00:33Z</time>
      </trkpt>
      <trkpt lat="47.27932" lon="-1.56367">
        <ele>29</ele>
        <time>2023-11-03T08:01:02Z</time>
      </trkpt>
      <trkpt lat="47.2792" lon="-1.56392">
        <ele>28</ele>
        <time>2023-11-03T08:01:29Z</time>
      </trkpt>
      <trkpt lat="47.27903" lon="-1.56381">
        <ele>26</ele>
        <time>2023-11-03T08:01:54Z</time>
      </trkpt>
      <trkpt lat="47.27891" lon="-1.56405">
        <ele>24</ele>
        <time>2023-11-03T08:02:21Z</time>
      </trkpt>
      <trkpt lat="47.27885" lon="-1.56434">
        <ele>21</ele>
        <time>2023-11-03T08:02:49Z</time>
      </trkpt>
      <trkpt lat="47.27871" lon="-1.56454">
        <ele>18</ele>
        <time>2023-11-03T08:03:15Z</time>
      </trkpt>
      <trkpt lat="47.2786" lon="-1.56481">
        <ele>16</ele>
        <time>2023-11-03T08:03:43Z</time>
      </trkpt>
      <trkpt lat="47.27863" lon="-1.56514">
        <ele>14</ele>
        <time>2023-11-03T08:04:13Z</time>
      </trkpt>
      <trkpt lat="47.27875" lon="-1.56536">
        <ele>14</ele>
        <time>2023-11-03T08:04:39Z</time>
      </trkpt>
      <trkpt lat="47.27889" lon="-1.56554">
        <ele>15</ele>
        <time>2023-11-03T08:05:04Z</time>
      </trkpt>
      <trkpt lat="47.27902" lon="-1.56574">
        <ele>15</ele>
        <time>2023-11-03T08:05:29Z</time>
      </trkpt>
      <trkpt lat="47.27916" lon="-1.56591">
        <ele>16</ele>
        <time>2023-11-03T08:05:53Z</time>
      </trkpt>
      <trkpt lat="47.2793" lon="-1.56611">
        <ele>17</ele>
        <time>2023-11-03T08:06:19Z</time>
      </trkpt>
      <trkpt lat="47.27937" lon="-1.56638">
        <ele>16</ele>
        <time>2023-11-03T08:06:45Z</time>
      </trkpt>
      <trkpt lat="47.27939" lon="-1.56667">
        <ele>16</ele>
        <time>2023-11-03T08:07:12Z</time>
      </trkpt>
      <trkpt lat="47.2792" lon="-1.56666">
        <ele>16</ele>
        <time>2023-11-03T08:07:37Z</time>
      </trkpt>
      <trkpt lat="47.27901" lon="-1.56662">
        <ele>16</ele>
        <time>2023-11-03T08:08:02Z</time>
      </trkpt>
      <trkpt lat="47.27886" lon="-1.56679">
        <ele>18</ele>
        <time>2023-11-03T08:08:28Z</time>
      </trkpt>
      <trkpt lat="47.27871" lon="-1.56699">
        <ele>21</ele>
        <time>2023-11-03T08:08:55Z</time>
      </trkpt>
      <trkpt lat="47.27854" lon="-1.56709">
        <ele>22</ele>
        <time>2023-11-03T08:09:19Z</time>
      </trkpt>
      <trkpt lat="47.27836" lon="-1.56718">
        <ele>24</ele>
        <time>2023-11-03T08:09:45Z</time>
      </trkpt>
      <trkpt lat="47.2782" lon="-1.56735">
        <ele>27</ele>
        <time>2023-11-03T08:10:11Z</time>
      </trkpt>
      <trkpt lat="47.27807" lon="-1.56755">
        <ele>29</ele>
        <time>2023-11-03T08:10:36Z</time>
      </trkpt>
      <trkpt lat="47.27791" lon="-1.56769">
        <ele>30</ele>
        <time>2023-11-03T08:11:01Z</time>
      </trkpt>
      <trkpt lat="47.27773" lon="-1.56782">
        <ele>31</ele>
        <time>2023-11-03T08:11:27Z</time>
      </trkpt>
      <trkpt lat="47.27759" lon="-1.56803">
        <ele>33</ele>
        <time>2023-11-03T08:11:54Z</time>
      </trkpt>
      <trkpt lat="47.2774" lon="-1.56821">
        <ele>34</ele>
        <time>2023-11-03T08:12:24Z</time>
      </trkpt>
      <trkpt lat="47.27728" lon="-1.56844">
        <ele>34</ele>
        <time>2023-11-03T08:12:51Z</time>
      </trkpt>
      <trkpt lat="47.27712" lon="-1.56857">
        <ele>34</ele>
        <time>2023-11-03T08:13:15Z</time>
      </trkpt>
      <trkpt lat="47.27695" lon="-1.5687">
        <ele>33</ele>
        <time>2023-11-03T08:13:40Z</time>
      </trkpt>
      <trkpt lat="47.2768" lon="-1.56889">
        <ele>33</ele>
        <time>2023-11-03T08:14:07Z</time>
      </trkpt>
      <trkpt lat="47.27665" lon="-1.56909">
        <ele>33</ele>
        <time>2023-11-03T08:14:34Z</time>
      </trkpt>
      <trkpt lat="47.27634" lon="-1.56944">
        <ele>35</ele>
        <time>2023-11-03T08:15:26Z</time>
      </trkpt>
      <trkpt lat="47.27616" lon="-1.56964">
        <ele>37</ele>
        <time>2023-11-03T08:15:56Z</time>
      </trkpt>
      <trkpt lat="47.27599" lon="-1.56988">
        <ele>38</ele>
        <time>2023-11-03T08:16:27Z</time>
      </trkpt>
      <trkpt lat="47.27583" lon="-1.57006">
        <ele>39</ele>
        <time>2023-11-03T08:16:54Z</time>
      </trkpt>
      <trkpt lat="47.27567" lon="-1.57027">
        <ele>39</ele>
        <time>2023-11-03T08:17:23Z</time>
      </trkpt>
      <trkpt lat="47.2755" lon="-1.5705">
        <ele>38</ele>
        <time>2023-11-03T08:17:54Z</time>
      </trkpt>
      <trkpt lat="47.27524" lon="-1.57097">
        <ele>39</ele>
        <time>2023-11-03T08:18:49Z</time>
      </trkpt>
      <trkpt lat="47.27525" lon="-1.57124">
        <ele>40</ele>
        <time>2023-11-03T08:19:13Z</time>
      </trkpt>
      <trkpt lat="47.27509" lon="-1.57137">
        <ele>40</ele>
        <time>2023-11-03T08:19:38Z</time>
      </trkpt>
      <trkpt lat="47.27491" lon="-1.57142">
        <ele>39</ele>
        <time>2023-11-03T08:20:02Z</time>
      </trkpt>
      <trkpt lat="47.27452" lon="-1.57159">
        <ele>38</ele>
        <time>2023-11-03T08:20:56Z</time>
      </trkpt>
      <trkpt lat="47.27433" lon="-1.57168">
        <ele>37</ele>
        <time>2023-11-03T08:21:23Z</time>
      </trkpt>
      <trkpt lat="47.27429" lon="-1.57196">
        <ele>37</ele>
        <time>2023-11-03T08:21:49Z</time>
      </trkpt>
      <trkpt lat="47.27428" lon="-1.57225">
        <ele>38</ele>
        <time>2023-11-03T08:22:15Z</time>
      </trkpt>
      <trkpt lat="47.27419" lon="-1.57314">
        <ele>40</ele>
        <time>2023-11-03T08:23:37Z</time>
      </trkpt>
      <trkpt lat="47.27417" lon="-1.57342">
        <ele>40</ele>
        <time>2023-11-03T08:24:02Z</time>
      </trkpt>
      <trkpt lat="47.27413" lon="-1.57372">
        <ele>39</ele>
        <time>2023-11-03T08:24:30Z</time>
      </trkpt>
      <trkpt lat="47.2741" lon="-1.57403">
        <ele>39</ele>
        <time>2023-11-03T08:24:58Z</time>
      </trkpt>
      <trkpt lat="47.27405" lon="-1.5743">
        <ele>39</ele>
        <time>2023-11-03T08:25:23Z</time>
      </trkpt>
      <trkpt lat="47.27401" lon="-1.57457">
        <ele>39</ele>
        <time>2023-11-03T08:25:48Z</time>
      </trkpt>
      <trkpt lat="47.27398" lon="-1.57486">
        <ele>39</ele>
        <time>2023-11-03T08:26:15Z</time>
      </trkpt>
      <trkpt lat="47.27397" lon="-1.57513">
        <ele>39</ele>
        <time>2023-11-03T08:26:39Z</time>
      </trkpt>
      <trkpt lat="47.27416" lon="-1.57528">
        <ele>40</ele>
        <time>2023-11-03T08:27:08Z</time>
      </trkpt>
      <trkpt lat="47.27437" lon="-1.5754">
        <ele>40</ele>
        <time>2023-11-03T08:27:38Z</time>
      </trkpt>
      <trkpt lat="47.27452" lon="-1.57559">
        <ele>40</ele>
        <time>2023-11-03T08:28:05Z</time>
      </trkpt>
      <trkpt lat="47.27471" lon="-1.57576">
        <ele>41</ele>
        <time>2023-11-03T08:28:34Z</time>
      </trkpt>
      <trkpt lat="47.27483" lon="-1.576">
        <ele>41</ele>
        <time>2023-11-03T08:29:01Z</time>
      </trkpt>
      <trkpt lat="47.27491" lon="-1.57627">
        <ele>41</ele>
        <time>2023-11-03T08:29:28Z</time>
      </trkpt>
      <trkpt lat="47.27485" lon="-1.57652">
        <ele>41</ele>
        <time>2023-11-03T08:29:52Z</time>
      </trkpt>
      <trkpt lat="47.27475" lon="-1.57679">
        <ele>40</ele>
        <time>2023-11-03T08:30:20Z</time>
      </trkpt>
      <trkpt lat="47.27467" lon="-1.57705">
        <ele>39</ele>
        <time>2023-11-03T08:30:46Z</time>
      </trkpt>
      <trkpt lat="47.27456" lon="-1.57729">
        <ele>39</ele>
        <time>2023-11-03T08:31:12Z</time>
      </trkpt>
      <trkpt lat="47.27446" lon="-1.5776">
        <ele>38</ele>
        <time>2023-11-03T08:31:43Z</time>
      </trkpt>
      <trkpt lat="47.27441" lon="-1.57787">
        <ele>38</ele>
        <time>2023-11-03T08:32:08Z</time>
      </trkpt>
      <trkpt lat="47.27438" lon="-1.57823">
        <ele>38</ele>
        <time>2023-11-03T08:32:41Z</time>
      </trkpt>
      <trkpt lat="47.27426" lon="-1.57918">
        <ele>39</ele>
        <time>2023-11-03T08:34:09Z</time>
      </trkpt>
      <trkpt lat="47.27423" lon="-1.57952">
        <ele>40</ele>
        <time>2023-11-03T08:34:40Z</time>
      </trkpt>
      <trkpt lat="47.27417" lon="-1.57977">
        <ele>41</ele>
        <time>2023-11-03T08:35:04Z</time>
      </trkpt>
      <trkpt lat="47.27413" lon="-1.58003">
        <ele>42</ele>
        <time>2023-11-03T08:35:28Z</time>
      </trkpt>
      <trkpt lat="47.2741" lon="-1.58038">
        <ele>42</ele>
        <time>2023-11-03T08:36:00Z</time>
      </trkpt>
      <trkpt lat="47.2741" lon="-1.58067">
        <ele>42</ele>
        <time>2023-11-03T08:36:26Z</time>
      </trkpt>
      <trkpt lat="47.27408" lon="-1.58098">
        <ele>42</ele>
        <time>2023-11-03T08:36:54Z</time>
      </trkpt>
      <trkpt lat="47.27401" lon="-1.58125">
        <ele>42</ele>
        <time>2023-11-03T08:37:20Z</time>
      </trkpt>
      <trkpt lat="47.27397" lon="-1.58152">
        <ele>42</ele>
        <time>2023-11-03T08:37:45Z</time>
      </trkpt>
      <trkpt lat="47.27383" lon="-1.58174">
        <ele>41</ele>
        <time>2023-11-03T08:38:13Z</time>
      </trkpt>
      <trkpt lat="47.27368" lon="-1.58193">
        <ele>41</ele>
        <time>2023-11-03T08:38:39Z</time>
      </trkpt>
      <trkpt lat="47.2736" lon="-1.58222">
        <ele>41</ele>
        <time>2023-11-03T08:39:08Z</time>
      </trkpt>
      <trkpt lat="47.27353" lon="-1.5825">
        <ele>40</ele>
        <time>2023-11-03T08:39:35Z</time>
      </trkpt>
      <trkpt lat="47.27345" lon="-1.58278">
        <ele>41</ele>
        <time>2023-11-03T08:40:02Z</time>
      </trkpt>
      <trkpt lat="47.27341" lon="-1.58305">
        <ele>42</ele>
        <time>2023-11-03T08:40:27Z</time>
      </trkpt>
      <trkpt lat="47.27323" lon="-1.58357">
        <ele>44</ele>
        <time>2023-11-03T08:41:20Z</time>
      </trkpt>
      <trkpt lat="47.27319" lon="-1.58387">
        <ele>45</ele>
        <time>2023-11-03T08:41:48Z</time>
      </trkpt>
      <trkpt lat="47.27337" lon="-1.58399">
        <ele>46</ele>
        <time>2023-11-03T08:42:14Z</time>
      </trkpt>
      <trkpt lat="47.27362" lon="-1.58406">
        <ele>47</ele>
        <time>2023-11-03T08:42:48Z</time>
      </trkpt>
      <trkpt lat="47.27384" lon="-1.58416">
        <ele>48</ele>
        <time>2023-11-03T08:43:19Z</time>
      </trkpt>
      <trkpt lat="47.27404" lon="-1.58423">
        <ele>49</ele>
        <time>2023-11-03T08:43:46Z</time>
      </trkpt>
      <trkpt lat="47.27426" lon="-1.5842">
        <ele>49</ele>
        <time>2023-11-03T08:44:16Z</time>
      </trkpt>
      <trkpt lat="47.27443" lon="-1.58427">
        <ele>50</ele>
        <time>2023-11-03T08:44:39Z</time>
      </trkpt>
      <trkpt lat="47.27465" lon="-1.58434">
        <ele>51</ele>
        <time>2023-11-03T08:45:09Z</time>
      </trkpt>
      <trkpt lat="47.27485" lon="-1.58436">
        <ele>51</ele>
        <time>2023-11-03T08:45:36Z</time>
      </trkpt>
      <trkpt lat="47.27503" lon="-1.58441">
        <ele>52</ele>
        <time>2023-11-03T08:46:00Z</time>
      </trkpt>
      <trkpt lat="47.27521" lon="-1.58448">
        <ele>52</ele>
        <time>2023-11-03T08:46:25Z</time>
      </trkpt>
      <trkpt lat="47.27541" lon="-1.58451">
        <ele>52</ele>
        <time>2023-11-03T08:46:52Z</time>
      </trkpt>
      <trkpt lat="47.27556" lon="-1.58467">
        <ele>53</ele>
        <time>2023-11-03T08:47:17Z</time>
      </trkpt>
      <trkpt lat="47.27574" lon="-1.58478">
        <ele>52</ele>
        <time>2023-11-03T08:47:43Z</time>
      </trkpt>
      <trkpt lat="47.27592" lon="-1.58484">
        <ele>52</ele>
        <time>2023-11-03T08:48:07Z</time>
      </trkpt>
      <trkpt lat="47.27611" lon="-1.58494">
        <ele>51</ele>
        <time>2023-11-03T08:48:34Z</time>
      </trkpt>
      <trkpt lat="47.27629" lon="-1.58501">
        <ele>51</ele>
        <time>2023-11-03T08:48:59Z</time>
      </trkpt>
      <trkpt lat="47.27646" lon="-1.58511">
        <ele>50</ele>
        <time>2023-11-03T08:49:24Z</time>
      </trkpt>
      <trkpt lat="47.27665" lon="-1.58521">
        <ele>50</ele>
        <time>2023-11-03T08:49:50Z</time>
      </trkpt>
      <trkpt lat="47.27684" lon="-1.58533">
        <ele>51</ele>
        <time>2023-11-03T08:50:18Z</time>
      </trkpt>
      <trkpt lat="47.27706" lon="-1.58536">
        <ele>52</ele>
        <time>2023-11-03T08:50:48Z</time>
      </trkpt>
      <trkpt lat="47.27722" lon="-1.5855">
        <ele>52</ele>
        <time>2023-11-03T08:51:12Z</time>
      </trkpt>
      <trkpt lat="47.2774" lon="-1.58559">
        <ele>53</ele>
        <time>2023-11-03T08:51:38Z</time>
      </trkpt>
      <trkpt lat="47.2776" lon="-1.58566">
        <ele>53</ele>
        <time>2023-11-03T08:52:05Z</time>
      </trkpt>
      <trkpt lat="47.27779" lon="-1.58577">
        <ele>53</ele>
        <time>2023-11-03T08:52:32Z</time>
      </trkpt>
      <trkpt lat="47.27797" lon="-1.58581">
        <ele>52</ele>
        <time>2023-11-03T08:52:57Z</time>
      </trkpt>
      <trkpt lat="47.27819" lon="-1.58584">
        <ele>52</ele>
        <time>2023-11-03T08:53:26Z</time>
      </trkpt>
      <trkpt lat="47.2784" lon="-1.58589">
        <ele>52</ele>
        <time>2023-11-03T08:53:55Z</time>
      </trkpt>
      <trkpt lat="47.2786" lon="-1.58598">
        <ele>52</ele>
        <time>2023-11-03T08:54:22Z</time>
      </trkpt>
      <trkpt lat="47.2788" lon="-1.58603">
        <ele>53</ele>
        <time>2023-11-03T08:54:50Z</time>
      </trkpt>
      <trkpt lat="47.27901" lon="-1.58604">
        <ele>53</ele>
        <time>2023-11-03T08:55:18Z</time>
      </trkpt>
      <trkpt lat="47.2792" lon="-1.58606">
        <ele>53</ele>
        <time>2023-11-03T08:55:43Z</time>
      </trkpt>
      <trkpt lat="47.27918" lon="-1.58635">
        <ele>53</ele>
        <time>2023-11-03T08:56:09Z</time>
      </trkpt>
      <trkpt lat="47.27938" lon="-1.58643">
        <ele>53</ele>
        <time>2023-11-03T08:56:37Z</time>
      </trkpt>
      <trkpt lat="47.27957" lon="-1.58641">
        <ele>53</ele>
        <time>2023-11-03T08:57:02Z</time>
      </trkpt>
      <trkpt lat="47.27975" lon="-1.58636">
        <ele>53</ele>
        <time>2023-11-03T08:57:27Z</time>
      </trkpt>
      <trkpt lat="47.27997" lon="-1.5864">
        <ele>53</ele>
        <time>2023-11-03T08:57:56Z</time>
      </trkpt>
      <trkpt lat="47.28016" lon="-1.58636">
        <ele>53</ele>
        <time>2023-11-03T08:58:22Z</time>
      </trkpt>
      <trkpt lat="47.2806" lon="-1.58641">
        <ele>52</ele>
        <time>2023-11-03T08:59:21Z</time>
      </trkpt>
      <trkpt lat="47.28081" lon="-1.58644">
        <ele>52</ele>
        <time>2023-11-03T08:59:49Z</time>
      </trkpt>
      <trkpt lat="47.28141" lon="-1.58654">
        <ele>51</ele>
        <time>2023-11-03T09:01:10Z</time>
      </trkpt>
      <trkpt lat="47.2816" lon="-1.58656">
        <ele>50</ele>
        <time>2023-11-03T09:01:35Z</time>
      </trkpt>
      <trkpt lat="47.28166" lon="-1.58682">
        <ele>50</ele>
        <time>2023-11-03T09:02:00Z</time>
      </trkpt>
      <trkpt lat="47.28155" lon="-1.58706">
        <ele>50</ele>
        <time>2023-11-03T09:02:26Z</time>
      </trkpt>
      <trkpt lat="47.28146" lon="-1.58729">
        <ele>50</ele>
        <time>2023-11-03T09:02:50Z</time>
      </trkpt>
      <trkpt lat="47.28136" lon="-1.58757">
        <ele>50</ele>
        <time>2023-11-03T09:03:19Z</time>
      </trkpt>
      <trkpt lat="47.2814" lon="-1.58785">
        <ele>50</ele>
        <time>2023-11-03T09:03:45Z</time>
      </trkpt>
      <trkpt lat="47.28155" lon="-1.58811">
        <ele>50</ele>
        <time>2023-11-03T09:04:16Z</time>
      </trkpt>
      <trkpt lat="47.28173" lon="-1.58818">
        <ele>49</ele>
        <time>2023-11-03T09:04:41Z</time>
      </trkpt>
      <trkpt lat="47.28192" lon="-1.5883">
        <ele>49</ele>
        <time>2023-11-03T09:05:08Z</time>
      </trkpt>
      <trkpt lat="47.28209" lon="-1.58849">
        <ele>49</ele>
        <time>2023-11-03T09:05:37Z</time>
      </trkpt>
      <trkpt lat="47.28223" lon="-1.58868">
        <ele>49</ele>
        <time>2023-11-03T09:06:02Z</time>
      </trkpt>
      <trkpt lat="47.28212" lon="-1.58893">
        <ele>49</ele>
        <time>2023-11-03T09:06:29Z</time>
      </trkpt>
      <trkpt lat="47.28188" lon="-1.58942">
        <ele>51</ele>
        <time>2023-11-03T09:07:24Z</time>
      </trkpt>
      <trkpt lat="47.28175" lon="-1.58966">
        <ele>51</ele>
        <time>2023-11-03T09:07:51Z</time>
      </trkpt>
      <trkpt lat="47.2816" lon="-1.58988">
        <ele>52</ele>
        <time>2023-11-03T09:08:20Z</time>
      </trkpt>
      <trkpt lat="47.28146" lon="-1.59014">
        <ele>53</ele>
        <time>2023-11-03T09:08:50Z</time>
      </trkpt>
      <trkpt lat="47.28132" lon="-1.59041">
        <ele>53</ele>
        <time>2023-11-03T09:09:21Z</time>
      </trkpt>
      <trkpt lat="47.28117" lon="-1.59062">
        <ele>53</ele>
        <time>2023-11-03T09:09:48Z</time>
      </trkpt>
      <trkpt lat="47.28104" lon="-1.59087">
        <ele>53</ele>
        <time>2023-11-03T09:10:17Z</time>
      </trkpt>
      <trkpt lat="47.28089" lon="-1.59107">
        <ele>53</ele>
        <time>2023-11-03T09:10:44Z</time>
      </trkpt>
      <trkpt lat="47.2809" lon="-1.59139">
        <ele>53</ele>
        <time>2023-11-03T09:11:13Z</time>
      </trkpt>
      <trkpt lat="47.28094" lon="-1.59165">
        <ele>53</ele>
        <time>2023-11-03T09:11:37Z</time>
      </trkpt>
      <trkpt lat="47.28108" lon="-1.59184">
        <ele>53</ele>
        <time>2023-11-03T09:12:02Z</time>
      </trkpt>
      <trkpt lat="47.28121" lon="-1.59206">
        <ele>53</ele>
        <time>2023-11-03T09:12:29Z</time>
      </trkpt>
      <trkpt lat="47.28139" lon="-1.59227">
        <ele>53</ele>
        <time>2023-11-03T09:12:59Z</time>
      </trkpt>
      <trkpt lat="47.28153" lon="-1.59247">
        <ele>52</ele>
        <time>2023-11-03T09:13:25Z</time>
      </trkpt>
      <trkpt lat="47.28166" lon="-1.59267">
        <ele>52</ele>
        <time>2023-11-03T09:13:50Z</time>
      </trkpt>
      <trkpt lat="47.28181" lon="-1.59283">
        <ele>53</ele>
        <time>2023-11-03T09:14:15Z</time>
      </trkpt>
      <trkpt lat="47.28197" lon="-1.59298">
        <ele>53</ele>
        <time>2023-11-03T09:14:40Z</time>
      </trkpt>
      <trkpt lat="47.28211" lon="-1.59319">
        <ele>53</ele>
        <time>2023-11-03T09:15:07Z</time>
      </trkpt>
      <trkpt lat="47.28224" lon="-1.59343">
        <ele>54</ele>
        <time>2023-11-03T09:15:35Z</time>
      </trkpt>
      <trkpt lat="47.28241" lon="-1.59357">
        <ele>54</ele>
        <time>2023-11-03T09:16:01Z</time>
      </trkpt>
      <trkpt lat="47.28258" lon="-1.59374">
        <ele>54</ele>
        <time>2023-11-03T09:16:28Z</time>
      </trkpt>
      <trkpt lat="47.28277" lon="-1.5939">
        <ele>55</ele>
        <time>2023-11-03T09:16:57Z</time>
      </trkpt>
      <trkpt lat="47.28295" lon="-1.59402">
        <ele>55</ele>
        <time>2023-11-03T09:17:24Z</time>
      </trkpt>
      <trkpt lat="47.28315" lon="-1.59415">
        <ele>54</ele>
        <time>2023-11-03T09:17:53Z</time>
      </trkpt>
      <trkpt lat="47.28357" lon="-1.59427">
        <ele>54</ele>
        <time>2023-11-03T09:18:50Z</time>
      </trkpt>
      <trkpt lat="47.28376" lon="-1.59435">
        <ele>54</ele>
        <time>2023-11-03T09:19:16Z</time>
      </trkpt>
      <trkpt lat="47.28399" lon="-1.59437">
        <ele>54</ele>
        <time>2023-11-03T09:19:47Z</time>
      </trkpt>
      <trkpt lat="47.28421" lon="-1.59442">
        <ele>53</ele>
        <time>2023-11-03T09:20:17Z</time>
      </trkpt>
      <trkpt lat="47.28464" lon="-1.59454">
        <ele>54</ele>
        <time>2023-11-03T09:21:15Z</time>
      </trkpt>
      <trkpt lat="47.28483" lon="-1.59457">
        <ele>54</ele>
        <time>2023-11-03T09:21:41Z</time>
      </trkpt>
      <trkpt lat="47.28504" lon="-1.59465">
        <ele>54</ele>
        <time>2023-11-03T09:22:10Z</time>
      </trkpt>
      <trkpt lat="47.28524" lon="-1.59468">
        <ele>53</ele>
        <time>2023-11-03T09:22:37Z</time>
      </trkpt>
      <trkpt lat="47.28545" lon="-1.59475">
        <ele>53</ele>
        <time>2023-11-03T09:23:05Z</time>
      </trkpt>
      <trkpt lat="47.28565" lon="-1.59483">
        <ele>52</ele>
        <time>2023-11-03T09:23:33Z</time>
      </trkpt>
      <trkpt lat="47.28584" lon="-1.59491">
        <ele>51</ele>
        <time>2023-11-03T09:23:59Z</time>
      </trkpt>
      <trkpt lat="47.28604" lon="-1.59495">
        <ele>51</ele>
        <time>2023-11-03T09:24:26Z</time>
      </trkpt>
      <trkpt lat="47.28623" lon="-1.59499">
        <ele>51</ele>
        <time>2023-11-03T09:24:52Z</time>
      </trkpt>
      <trkpt lat="47.28642" lon="-1.59505">
        <ele>52</ele>
        <time>2023-11-03T09:25:18Z</time>
      </trkpt>
      <trkpt lat="47.28661" lon="-1.5951">
        <ele>52</ele>
        <time>2023-11-03T09:25:43Z</time>
      </trkpt>
      <trkpt lat="47.28683" lon="-1.59515">
        <ele>52</ele>
        <time>2023-11-03T09:26:13Z</time>
      </trkpt>
      <trkpt lat="47.28701" lon="-1.59525">
        <ele>52</ele>
        <time>2023-11-03T09:26:39Z</time>
      </trkpt>
      <trkpt lat="47.28717" lon="-1.59539">
        <ele>52</ele>
        <time>2023-11-03T09:27:04Z</time>
      </trkpt>
      <trkpt lat="47.28732" lon="-1.59554">
        <ele>52</ele>
        <time>2023-11-03T09:27:28Z</time>
      </trkpt>
      <trkpt lat="47.2875" lon="-1.59574">
        <ele>52</ele>
        <time>2023-11-03T09:27:58Z</time>
      </trkpt>
      <trkpt lat="47.28766" lon="-1.59596">
        <ele>52</ele>
        <time>2023-11-03T09:28:27Z</time>
      </trkpt>
      <trkpt lat="47.28782" lon="-1.59615">
        <ele>53</ele>
        <time>2023-11-03T09:28:55Z</time>
      </trkpt>
      <trkpt lat="47.28797" lon="-1.59632">
        <ele>54</ele>
        <time>2023-11-03T09:29:20Z</time>
      </trkpt>
      <trkpt lat="47.28816" lon="-1.59647">
        <ele>55</ele>
        <time>2023-11-03T09:29:49Z</time>
      </trkpt>
      <trkpt lat="47.28838" lon="-1.59649">
        <ele>56</ele>
        <time>2023-11-03T09:30:18Z</time>
      </trkpt>
      <trkpt lat="47.2886" lon="-1.59648">
        <ele>56</ele>
        <time>2023-11-03T09:30:47Z</time>
      </trkpt>
      <trkpt lat="47.28878" lon="-1.59646">
        <ele>57</ele>
        <time>2023-11-03T09:31:11Z</time>
      </trkpt>
      <trkpt lat="47.28898" lon="-1.59647">
        <ele>57</ele>
        <time>2023-11-03T09:31:38Z</time>
      </trkpt>
      <trkpt lat="47.28919" lon="-1.59644">
        <ele>58</ele>
        <time>2023-11-03T09:32:06Z</time>
      </trkpt>
      <trkpt lat="47.28938" lon="-1.59651">
        <ele>59</ele>
        <time>2023-11-03T09:32:32Z</time>
      </trkpt>
      <trkpt lat="47.28957" lon="-1.59656">
        <ele>59</ele>
        <time>2023-11-03T09:32:58Z</time>
      </trkpt>
      <trkpt lat="47.28996" lon="-1.59671">
        <ele>60</ele>
        <time>2023-11-03T09:33:52Z</time>
      </trkpt>
      <trkpt lat="47.29018" lon="-1.59676">
        <ele>59</ele>
        <time>2023-11-03T09:34:22Z</time>
      </trkpt>
      <trkpt lat="47.29039" lon="-1.59686">
        <ele>59</ele>
        <time>2023-11-03T09:34:51Z</time>
      </trkpt>
      <trkpt lat="47.29075" lon="-1.59698">
        <ele>58</ele>
        <time>2023-11-03T09:35:40Z</time>
      </trkpt>
      <trkpt lat="47.29094" lon="-1.59704">
        <ele>57</ele>
        <time>2023-11-03T09:36:06Z</time>
      </trkpt>
      <trkpt lat="47.29117" lon="-1.59706">
        <ele>56</ele>
        <time>2023-11-03T09:36:37Z</time>
      </trkpt>
      <trkpt lat="47.29138" lon="-1.59697">
        <ele>55</ele>
        <time>2023-11-03T09:37:06Z</time>
      </trkpt>
      <trkpt lat="47.29157" lon="-1.59699">
        <ele>54</ele>
        <time>2023-11-03T09:37:32Z</time>
      </trkpt>
      <trkpt lat="47.29178" lon="-1.59702">
        <ele>53</ele>
        <time>2023-11-03T09:38:00Z</time>
      </trkpt>
      <trkpt lat="47.29216" lon="-1.59703">
        <ele>52</ele>
        <time>2023-11-03T09:38:51Z</time>
      </trkpt>
      <trkpt lat="47.29236" lon="-1.59705">
        <ele>52</ele>
        <time>2023-11-03T09:39:17Z</time>
      </trkpt>
      <trkpt lat="47.29244" lon="-1.59681">
        <ele>52</ele>
        <time>2023-11-03T09:39:42Z</time>
      </trkpt>
      <trkpt lat="47.29241" lon="-1.59653">
        <ele>52</ele>
        <time>2023-11-03T09:40:07Z</time>
      </trkpt>
      <trkpt lat="47.29237" lon="-1.59624">
        <ele>53</ele>
        <time>2023-11-03T09:40:34Z</time>
      </trkpt>
      <trkpt lat="47.29254" lon="-1.59611">
        <ele>53</ele>
        <time>2023-11-03T09:41:00Z</time>
      </trkpt>
      <trkpt lat="47.29263" lon="-1.59583">
        <ele>53</ele>
        <time>2023-11-03T09:41:28Z</time>
      </trkpt>
      <trkpt lat="47.29266" lon="-1.59553">
        <ele>53</ele>
        <time>2023-11-03T09:41:55Z</time>
      </trkpt>
      <trkpt lat="47.2927" lon="-1.59525">
        <ele>53</ele>
        <time>2023-11-03T09:42:21Z</time>
      </trkpt>
      <trkpt lat="47.29275" lon="-1.59495">
        <ele>53</ele>
        <time>2023-11-03T09:42:49Z</time>
      </trkpt>
      <trkpt lat="47.29278" lon="-1.59467">
        <ele>53</ele>
        <time>2023-11-03T09:43:15Z</time>
      </trkpt>
      <trkpt lat="47.29282" lon="-1.5944">
        <ele>53</ele>
        <time>2023-11-03T09:43:40Z</time>
      </trkpt>
      <trkpt lat="47.29283" lon="-1.59413">
        <ele>52</ele>
        <time>2023-11-03T09:44:04Z</time>
      </trkpt>
      <trkpt lat="47.29288" lon="-1.59384">
        <ele>52</ele>
        <time>2023-11-03T09:44:31Z</time>
      </trkpt>
      <trkpt lat="47.29291" lon="-1.59351">
        <ele>52</ele>
        <time>2023-11-03T09:45:01Z</time>
      </trkpt>
      <trkpt lat="47.29299" lon="-1.5932">
        <ele>51</ele>
        <time>2023-11-03T09:45:31Z</time>
      </trkpt>
      <trkpt lat="47.29302" lon="-1.59288">
        <ele>50</ele>
        <time>2023-11-03T09:46:00Z</time>
      </trkpt>
      <trkpt lat="47.29309" lon="-1.59258">
        <ele>50</ele>
        <time>2023-11-03T09:46:29Z</time>
      </trkpt>
      <trkpt lat="47.29322" lon="-1.59234">
        <ele>49</ele>
        <time>2023-11-03T09:46:57Z</time>
      </trkpt>
      <trkpt lat="47.29344" lon="-1.59229">
        <ele>50</ele>
        <time>2023-11-03T09:47:27Z</time>
      </trkpt>
      <trkpt lat="47.29361" lon="-1.59222">
        <ele>50</ele>
        <time>2023-11-03T09:47:50Z</time>
      </trkpt>
      <trkpt lat="47.29352" lon="-1.59198">
        <ele>48</ele>
        <time>2023-11-03T09:48:15Z</time>
      </trkpt>
      <trkpt lat="47.29352" lon="-1.5917">
        <ele>46</ele>
        <time>2023-11-03T09:48:40Z</time>
      </trkpt>
      <trkpt lat="47.29359" lon="-1.59145">
        <ele>45</ele>
        <time>2023-11-03T09:49:05Z</time>
      </trkpt>
      <trkpt lat="47.29369" lon="-1.59123">
        <ele>44</ele>
        <time>2023-11-03T09:49:29Z</time>
      </trkpt>
      <trkpt lat="47.2938" lon="-1.59098">
        <ele>43</ele>
        <time>2023-11-03T09:49:56Z</time>
      </trkpt>
      <trkpt lat="47.29392" lon="-1.59075">
        <ele>43</ele>
        <time>2023-11-03T09:50:22Z</time>
      </trkpt>
      <trkpt lat="47.29409" lon="-1.5906">
        <ele>43</ele>
        <time>2023-11-03T09:50:49Z</time>
      </trkpt>
      <trkpt lat="47.29425" lon="-1.59038">
        <ele>43</ele>
        <time>2023-11-03T09:51:18Z</time>
      </trkpt>
      <trkpt lat="47.29438" lon="-1.59018">
        <ele>42</ele>
        <time>2023-11-03T09:51:43Z</time>
      </trkpt>
      <trkpt lat="47.29445" lon="-1.58993">
        <ele>41</ele>
        <time>2023-11-03T09:52:07Z</time>
      </trkpt>
      <trkpt lat="47.29443" lon="-1.58963">
        <ele>40</ele>
        <time>2023-11-03T09:52:35Z</time>
      </trkpt>
      <trkpt lat="47.29435" lon="-1.58933">
        <ele>39</ele>
        <time>2023-11-03T09:53:04Z</time>
      </trkpt>
      <trkpt lat="47.29436" lon="-1.58905">
        <ele>38</ele>
        <time>2023-11-03T09:53:29Z</time>
      </trkpt>
      <trkpt lat="47.2943" lon="-1.58879">
        <ele>37</ele>
        <time>2023-11-03T09:53:54Z</time>
      </trkpt>
      <trkpt lat="47.29429" lon="-1.58852">
        <ele>37</ele>
        <time>2023-11-03T09:54:18Z</time>
      </trkpt>
      <trkpt lat="47.29427" lon="-1.58819">
        <ele>36</ele>
        <time>2023-11-03T09:54:48Z</time>
      </trkpt>
      <trkpt lat="47.29433" lon="-1.58791">
        <ele>35</ele>
        <time>2023-11-03T09:55:15Z</time>
      </trkpt>
      <trkpt lat="47.29439" lon="-1.58764">
        <ele>35</ele>
        <time>2023-11-03T09:55:41Z</time>
      </trkpt>
      <trkpt lat="47.29441" lon="-1.58735">
        <ele>34</ele>
        <time>2023-11-03T09:56:07Z</time>
      </trkpt>
      <trkpt lat="47.29444" lon="-1.58708">
        <ele>34</ele>
        <time>2023-11-03T09:56:32Z</time>
      </trkpt>
      <trkpt lat="47.29446" lon="-1.58677">
        <ele>34</ele>
        <time>2023-11-03T09:57:00Z</time>
      </trkpt>
      <trkpt lat="47.29447" lon="-1.58647">
        <ele>33</ele>
        <time>2023-11-03T09:57:27Z</time>
      </trkpt>
      <trkpt lat="47.29445" lon="-1.58621">
        <ele>32</ele>
        <time>2023-11-03T09:57:51Z</time>
      </trkpt>
      <trkpt lat="47.29442" lon="-1.58591">
        <ele>31</ele>
        <time>2023-11-03T09:58:18Z</time>
      </trkpt>
      <trkpt lat="47.29442" lon="-1.58561">
        <ele>32</ele>
        <time>2023-11-03T09:58:46Z</time>
      </trkpt>
      <trkpt lat="47.29439" lon="-1.58534">
        <ele>32</ele>
        <time>2023-11-03T09:59:10Z</time>
      </trkpt>
      <trkpt lat="47.29437" lon="-1.58501">
        <ele>33</ele>
        <time>2023-11-03T09:59:40Z</time>
      </trkpt>
      <trkpt lat="47.29433" lon="-1.58471">
        <ele>34</ele>
        <time>2023-11-03T10:00:08Z</time>
      </trkpt>
      <trkpt lat="47.29436" lon="-1.58439">
        <ele>35</ele>
        <time>2023-11-03T10:00:37Z</time>
      </trkpt>
      <trkpt lat="47.29441" lon="-1.58412">
        <ele>36</ele>
        <time>2023-11-03T10:01:03Z</time>
      </trkpt>
      <trkpt lat="47.29447" lon="-1.58383">
        <ele>36</ele>
        <time>2023-11-03T10:01:30Z</time>
      </trkpt>
      <trkpt lat="47.29445" lon="-1.58353">
        <ele>36</ele>
        <time>2023-11-03T10:01:57Z</time>
      </trkpt>
      <trkpt lat="47.29437" lon="-1.58326">
        <ele>37</ele>
        <time>2023-11-03T10:02:24Z</time>
      </trkpt>
      <trkpt lat="47.2943" lon="-1.58293">
        <ele>37</ele>
        <time>2023-11-03T10:02:55Z</time>
      </trkpt>
      <trkpt lat="47.29419" lon="-1.58266">
        <ele>38</ele>
        <time>2023-11-03T10:03:24Z</time>
      </trkpt>
      <trkpt lat="47.29414" lon="-1.58234">
        <ele>38</ele>
        <time>2023-11-03T10:03:53Z</time>
      </trkpt>
      <trkpt lat="47.29417" lon="-1.58201">
        <ele>39</ele>
        <time>2023-11-03T10:04:24Z</time>
      </trkpt>
      <trkpt lat="47.29419" lon="-1.58173">
        <ele>39</ele>
        <time>2023-11-03T10:04:49Z</time>
      </trkpt>
      <trkpt lat="47.29411" lon="-1.58142">
        <ele>38</ele>
        <time>2023-11-03T10:05:19Z</time>
      </trkpt>
      <trkpt lat="47.29403" lon="-1.58117">
        <ele>38</ele>
        <time>2023-11-03T10:05:44Z</time>
      </trkpt>
      <trkpt lat="47.29394" lon="-1.58093">
        <ele>37</ele>
        <time>2023-11-03T10:06:09Z</time>
      </trkpt>
      <trkpt lat="47.29383" lon="-1.58063">
        <ele>36</ele>
        <time>2023-11-03T10:06:40Z</time>
      </trkpt>
      <trkpt lat="47.29366" lon="-1.58047">
        <ele>36</ele>
        <time>2023-11-03T10:07:07Z</time>
      </trkpt>
      <trkpt lat="47.29347" lon="-1.58046">
        <ele>36</ele>
        <time>2023-11-03T10:07:32Z</time>
      </trkpt>
      <trkpt lat="47.29332" lon="-1.58027">
        <ele>35</ele>
        <time>2023-11-03T10:07:58Z</time>
      </trkpt>
      <trkpt lat="47.29323" lon="-1.58004">
        <ele>34</ele>
        <time>2023-11-03T10:08:22Z</time>
      </trkpt>
      <trkpt lat="47.29312" lon="-1.57978">
        <ele>32</ele>
        <time>2023-11-03T10:08:50Z</time>
      </trkpt>
      <trkpt lat="47.293" lon="-1.57953">
        <ele>30</ele>
        <time>2023-11-03T10:09:18Z</time>
      </trkpt>
      <trkpt lat="47.29286" lon="-1.57925">
        <ele>28</ele>
        <time>2023-11-03T10:09:49Z</time>
      </trkpt>
      <trkpt lat="47.2927" lon="-1.57903">
        <ele>26</ele>
        <time>2023-11-03T10:10:19Z</time>
      </trkpt>
      <trkpt lat="47.29255" lon="-1.57881">
        <ele>24</ele>
        <time>2023-11-03T10:10:47Z</time>
      </trkpt>
      <trkpt lat="47.29238" lon="-1.57865">
        <ele>24</ele>
        <time>2023-11-03T10:11:14Z</time>
      </trkpt>
      <trkpt lat="47.29224" lon="-1.57846">
        <ele>23</ele>
        <time>2023-11-03T10:11:39Z</time>
      </trkpt>
      <trkpt lat="47.29215" lon="-1.57816">
        <ele>22</ele>
        <time>2023-11-03T10:12:09Z</time>
      </trkpt>
      <trkpt lat="47.29209" lon="-1.57786">
        <ele>21</ele>
        <time>2023-11-03T10:12:37Z</time>
      </trkpt>
      <trkpt lat="47.292" lon="-1.57754">
        <ele>20</ele>
        <time>2023-11-03T10:13:09Z</time>
      </trkpt>
      <trkpt lat="47.29191" lon="-1.57728">
        <ele>20</ele>
        <time>2023-11-03T10:13:35Z</time>
      </trkpt>
      <trkpt lat="47.29199" lon="-1.57701">
        <ele>21</ele>
        <time>2023-11-03T10:14:02Z</time>
      </trkpt>
      <trkpt lat="47.29205" lon="-1.57673">
        <ele>21</ele>
        <time>2023-11-03T10:14:28Z</time>
      </trkpt>
      <trkpt lat="47.29214" lon="-1.57649">
        <ele>20</ele>
        <time>2023-11-03T10:14:53Z</time>
      </trkpt>
      <trkpt lat="47.2923" lon="-1.57591">
        <ele>19</ele>
        <time>2023-11-03T10:15:50Z</time>
      </trkpt>
      <trkpt lat="47.29242" lon="-1.57564">
        <ele>18</ele>
        <time>2023-11-03T10:16:19Z</time>
      </trkpt>
      <trkpt lat="47.29225" lon="-1.57549">
        <ele>19</ele>
        <time>2023-11-03T10:16:45Z</time>
      </trkpt>
      <trkpt lat="47.29208" lon="-1.57541">
        <ele>20</ele>
        <time>2023-11-03T10:17:09Z</time>
      </trkpt>
      <trkpt lat="47.29188" lon="-1.57552">
        <ele>21</ele>
        <time>2023-11-03T10:17:38Z</time>
      </trkpt>
      <trkpt lat="47.29175" lon="-1.57578">
        <ele>22</ele>
        <time>2023-11-03T10:18:07Z</time>
      </trkpt>
      <trkpt lat="47.29154" lon="-1.57581">
        <ele>24</ele>
        <time>2023-11-03T10:18:35Z</time>
      </trkpt>
      <trkpt lat="47.29131" lon="-1.57574">
        <ele>25</ele>
        <time>2023-11-03T10:19:06Z</time>
      </trkpt>
      <trkpt lat="47.29112" lon="-1.57573">
        <ele>27</ele>
        <time>2023-11-03T10:19:32Z</time>
      </trkpt>
      <trkpt lat="47.29093" lon="-1.57569">
        <ele>28</ele>
        <time>2023-11-03T10:19:57Z</time>
      </trkpt>
      <trkpt lat="47.29074" lon="-1.57561">
        <ele>29</ele>
        <time>2023-11-03T10:20:24Z</time>
      </trkpt>
      <trkpt lat="47.29055" lon="-1.57559">
        <ele>30</ele>
        <time>2023-11-03T10:20:49Z</time>
      </trkpt>
      <trkpt lat="47.29036" lon="-1.57561">
        <ele>31</ele>
        <time>2023-11-03T10:21:15Z</time>
      </trkpt>
      <trkpt lat="47.29029" lon="-1.57534">
        <ele>32</ele>
        <time>2023-11-03T10:21:41Z</time>
      </trkpt>
      <trkpt lat="47.29034" lon="-1.57507">
        <ele>32</ele>
        <time>2023-11-03T10:22:06Z</time>
      </trkpt>
      <trkpt lat="47.29038" lon="-1.57479">
        <ele>32</ele>
        <time>2023-11-03T10:22:32Z</time>
      </trkpt>
      <trkpt lat="47.29038" lon="-1.57452">
        <ele>32</ele>
        <time>2023-11-03T10:22:56Z</time>
      </trkpt>
      <trkpt lat="47.29039" lon="-1.57423">
        <ele>32</ele>
        <time>2023-11-03T10:23:23Z</time>
      </trkpt>
      <trkpt lat="47.29037" lon="-1.57395">
        <ele>33</ele>
        <time>2023-11-03T10:23:48Z</time>
      </trkpt>
      <trkpt lat="47.29037" lon="-1.57364">
        <ele>33</ele>
        <time>2023-11-03T10:24:16Z</time>
      </trkpt>
      <trkpt lat="47.29038" lon="-1.57337">
        <ele>33</ele>
        <time>2023-11-03T10:24:41Z</time>
      </trkpt>
      <trkpt lat="47.29038" lon="-1.57308">
        <ele>33</ele>
        <time>2023-11-03T10:25:07Z</time>
      </trkpt>
      <trkpt lat="47.29034" lon="-1.57249">
        <ele>33</ele>
        <time>2023-11-03T10:26:01Z</time>
      </trkpt>
      <trkpt lat="47.2903" lon="-1.57218">
        <ele>34</ele>
        <time>2023-11-03T10:26:29Z</time>
      </trkpt>
      <trkpt lat="47.29031" lon="-1.57188">
        <ele>35</ele>
        <time>2023-11-03T10:26:56Z</time>
      </trkpt>
      <trkpt lat="47.2903" lon="-1.57159">
        <ele>35</ele>
        <time>2023-11-03T10:27:23Z</time>
      </trkpt>
      <trkpt lat="47.29021" lon="-1.57133">
        <ele>36</ele>
        <time>2023-11-03T10:27:49Z</time>
      </trkpt>
      <trkpt lat="47.29024" lon="-1.57106">
        <ele>36</ele>
        <time>2023-11-03T10:28:14Z</time>
      </trkpt>
      <trkpt lat="47.29035" lon="-1.57081">
        <ele>35</ele>
        <time>2023-11-03T10:28:41Z</time>
      </trkpt>
      <trkpt lat="47.29049" lon="-1.57063">
        <ele>34</ele>
        <time>2023-11-03T10:29:06Z</time>
      </trkpt>
      <trkpt lat="47.29061" lon="-1.57039">
        <ele>34</ele>
        <time>2023-11-03T10:29:33Z</time>
      </trkpt>
      <trkpt lat="47.29074" lon="-1.57017">
        <ele>34</ele>
        <time>2023-11-03T10:29:59Z</time>
      </trkpt>
      <trkpt lat="47.2909" lon="-1.56999">
        <ele>34</ele>
        <time>2023-11-03T10:30:26Z</time>
      </trkpt>
      <trkpt lat="47.29109" lon="-1.56983">
        <ele>33</ele>
        <time>2023-11-03T10:30:55Z</time>
      </trkpt>
      <trkpt lat="47.29126" lon="-1.56965">
        <ele>32</ele>
        <time>2023-11-03T10:31:23Z</time>
      </trkpt>
      <trkpt lat="47.29147" lon="-1.56952">
        <ele>32</ele>
        <time>2023-11-03T10:31:53Z</time>
      </trkpt>
      <trkpt lat="47.2916" lon="-1.56933">
        <ele>32</ele>
        <time>2023-11-03T10:32:18Z</time>
      </trkpt>
      <trkpt lat="47.29174" lon="-1.56912">
        <ele>31</ele>
        <time>2023-11-03T10:32:44Z</time>
      </trkpt>
      <trkpt lat="47.29186" lon="-1.56891">
        <ele>29</ele>
        <time>2023-11-03T10:33:09Z</time>
      </trkpt>
      <trkpt lat="47.292" lon="-1.56866">
        <ele>26</ele>
        <time>2023-11-03T10:33:39Z</time>
      </trkpt>
      <trkpt lat="47.29216" lon="-1.56845">
        <ele>24</ele>
        <time>2023-11-03T10:34:07Z</time>
      </trkpt>
      <trkpt lat="47.29232" lon="-1.56828">
        <ele>22</ele>
        <time>2023-11-03T10:34:34Z</time>
      </trkpt>
      <trkpt lat="47.29252" lon="-1.56794">
        <ele>18</ele>
        <time>2023-11-03T10:35:14Z</time>
      </trkpt>
      <trkpt lat="47.29258" lon="-1.56749">
        <ele>14</ele>
        <time>2023-11-03T10:35:56Z</time>
      </trkpt>
      <trkpt lat="47.29241" lon="-1.5668">
        <ele>16</ele>
        <time>2023-11-03T10:37:02Z</time>
      </trkpt>
      <trkpt lat="47.29227" lon="-1.56638">
        <ele>18</ele>
        <time>2023-11-03T10:37:45Z</time>
      </trkpt>
      <trkpt lat="47.29191" lon="-1.56629">
        <ele>19</ele>
        <time>2023-11-03T10:38:33Z</time>
      </trkpt>
      <trkpt lat="47.29137" lon="-1.56623">
        <ele>18</ele>
        <time>2023-11-03T10:39:46Z</time>
      </trkpt>
      <trkpt lat="47.29108" lon="-1.56581">
        <ele>21</ele>
        <time>2023-11-03T10:40:40Z</time>
      </trkpt>
      <trkpt lat="47.29076" lon="-1.56483">
        <ele>29</ele>
        <time>2023-11-03T10:42:18Z</time>
      </trkpt>
      <trkpt lat="47.29048" lon="-1.56451">
        <ele>31</ele>
        <time>2023-11-03T10:43:06Z</time>
      </trkpt>
      <trkpt lat="47.28955" lon="-1.56455">
        <ele>32</ele>
        <time>2023-11-03T10:45:10Z</time>
      </trkpt>
      <trkpt lat="47.28892" lon="-1.5652">
        <ele>28</ele>
        <time>2023-11-03T10:46:52Z</time>
      </trkpt>
      <trkpt lat="47.28852" lon="-1.56623">
        <ele>19</ele>
        <time>2023-11-03T10:48:40Z</time>
      </trkpt>
      <trkpt lat="47.28842" lon="-1.56744">
        <ele>15</ele>
        <time>2023-11-03T10:50:30Z</time>
      </trkpt>
      <trkpt lat="47.28815" lon="-1.56761">
        <ele>15</ele>
        <time>2023-11-03T10:51:09Z</time>
      </trkpt>
      <trkpt lat="47.28758" lon="-1.56742">
        <ele>13</ele>
        <time>2023-11-03T10:52:27Z</time>
      </trkpt>
      <trkpt lat="47.2868" lon="-1.56688">
        <ele>13</ele>
        <time>2023-11-03T10:54:22Z</time>
      </trkpt>
      <trkpt lat="47.28577" lon="-1.56642">
        <ele>13</ele>
        <time>2023-11-03T10:56:46Z</time>
      </trkpt>
      <trkpt lat="47.2856" lon="-1.56564">
        <ele>17</ele>
        <time>2023-11-03T10:58:00Z</time>
      </trkpt>
      <trkpt lat="47.28534" lon="-1.56474">
        <ele>24</ele>
        <time>2023-11-03T10:59:29Z</time>
      </trkpt>
      <trkpt lat="47.28494" lon="-1.56464">
        <ele>24</ele>
        <time>2023-11-03T11:00:23Z</time>
      </trkpt>
      <trkpt lat="47.28424" lon="-1.56494">
        <ele>17</ele>
        <time>2023-11-03T11:02:00Z</time>
      </trkpt>
      <trkpt lat="47.28398" lon="-1.5648">
        <ele>18</ele>
        <time>2023-11-03T11:02:37Z</time>
      </trkpt>
      <trkpt lat="47.2837" lon="-1.56485">
        <ele>17</ele>
        <time>2023-11-03T11:03:15Z</time>
      </trkpt>
      <trkpt lat="47.2835" lon="-1.56472">
        <ele>18</ele>
        <time>2023-11-03T11:03:44Z</time>
      </trkpt>
      <trkpt lat="47.28225" lon="-1.56498">
        <ele>21</ele>
        <time>2023-11-03T11:06:32Z</time>
      </trkpt>
      <trkpt lat="47.28173" lon="-1.56571">
        <ele>19</ele>
        <time>2023-11-03T11:08:08Z</time>
      </trkpt>
      <trkpt lat="47.28118" lon="-1.56592">
        <ele>20</ele>
        <time>2023-11-03T11:09:24Z</time>
      </trkpt>
      <trkpt lat="47.28076" lon="-1.56612">
        <ele>20</ele>
        <time>2023-11-03T11:10:23Z</time>
      </trkpt>
      <trkpt lat="47.2801" lon="-1.56619">
        <ele>19</ele>
        <time>2023-11-03T11:11:51Z</time>
      </trkpt>
      <trkpt lat="47.27978" lon="-1.56601">
        <ele>19</ele>
        <time>2023-11-03T11:12:37Z</time>
      </trkpt>
      <trkpt lat="47.27934" lon="-1.56609">
        <ele>17</ele>
        <time>2023-11-03T11:13:36Z</time>
      </trkpt>
      <trkpt lat="47.27936" lon="-1.5665">
        <ele>16</ele>
        <time>2023-11-03T11:14:13Z</time>
      </trkpt>
      <trkpt lat="47.27934" lon="-1.56624">
        <ele>17</ele>
        <time>2023-11-03T11:14:37Z</time>
      </trkpt>
      <trkpt lat="47.27921" lon="-1.566">
        <ele>16</ele>
        <time>2023-11-03T11:15:05Z</time>
      </trkpt>
      <trkpt lat="47.27889" lon="-1.56563">
        <ele>15</ele>
        <time>2023-11-03T11:15:59Z</time>
      </trkpt>
      <trkpt lat="47.27873" lon="-1.56546">
        <ele>14</ele>
        <time>2023-11-03T11:16:25Z</time>
      </trkpt>
      <trkpt lat="47.27861" lon="-1.56526">
        <ele>14</ele>
        <time>2023-11-03T11:16:49Z</time>
      </trkpt>
      <trkpt lat="47.27853" lon="-1.56502">
        <ele>14</ele>
        <time>2023-11-03T11:17:14Z</time>
      </trkpt>
      <trkpt lat="47.27864" lon="-1.56475">
        <ele>16</ele>
        <time>2023-11-03T11:17:42Z</time>
      </trkpt>
      <trkpt lat="47.27871" lon="-1.56451">
        <ele>18</ele>
        <time>2023-11-03T11:18:06Z</time>
      </trkpt>
      <trkpt lat="47.2788" lon="-1.56424">
        <ele>21</ele>
        <time>2023-11-03T11:18:33Z</time>
      </trkpt>
      <trkpt lat="47.27888" lon="-1.56396">
        <ele>24</ele>
        <time>2023-11-03T11:19:01Z</time>
      </trkpt>
      <trkpt lat="47.27907" lon="-1.56399">
        <ele>26</ele>
        <time>2023-11-03T11:19:26Z</time>
      </trkpt>
      <trkpt lat="47.27923" lon="-1.56379">
        <ele>28</ele>
        <time>2023-11-03T11:19:54Z</time>
      </trkpt>
      <trkpt lat="47.27925" lon="-1.5635">
        <ele>29</ele>
        <time>2023-11-03T11:20:20Z</time>
      </trkpt>
      <trkpt lat="47.2793" lon="-1.56319">
        <ele>30</ele>
        <time>2023-11-03T11:20:49Z</time>
      </trkpt>
      <trkpt lat="47.27944" lon="-1.563">
        <ele>32</ele>
        <time>2023-11-03T11:21:15Z</time>
      </trkpt>
      <trkpt lat="47.2796" lon="-1.56274">
        <ele>33</ele>
        <time>2023-11-03T11:21:46Z</time>
      </trkpt>
      <trkpt lat="47.27945" lon="-1.56252">
        <ele>34</ele>
        <time>2023-11-03T11:22:15Z</time>
      </trkpt>
      <trkpt lat="47.27927" lon="-1.56239">
        <ele>34</ele>
        <time>2023-11-03T11:22:41Z</time>
      </trkpt>
      <trkpt lat="47.27936" lon="-1.56181">
        <ele>36</ele>
        <time>2023-11-03T11:23:35Z</time>
      </trkpt>
      <trkpt lat="47.27941" lon="-1.56154">
        <ele>37</ele>
        <time>2023-11-03T11:24:01Z</time>
      </trkpt>
      <trkpt lat="47.27944" lon="-1.56126">
        <ele>37</ele>
        <time>2023-11-03T11:24:26Z</time>
      </trkpt>
      <trkpt lat="47.27944" lon="-1.56097">
        <ele>38</ele>
        <time>2023-11-03T11:24:53Z</time>
      </trkpt>
      <trkpt lat="47.27952" lon="-1.56069">
        <ele>38</ele>
        <time>2023-11-03T11:25:20Z</time>
      </trkpt>
      <trkpt lat="47.27952" lon="-1.56035">
        <ele>38</ele>
        <time>2023-11-03T11:25:51Z</time>
      </trkpt>
      <trkpt lat="47.27955" lon="-1.56007">
        <ele>38</ele>
        <time>2023-11-03T11:26:16Z</time>
      </trkpt>
      <trkpt lat="47.27958" lon="-1.5598">
        <ele>37</ele>
        <time>2023-11-03T11:26:41Z</time>
      </trkpt>
      <trkpt lat="47.27959" lon="-1.55952">
        <ele>36</ele>
        <time>2023-11-03T11:27:07Z</time>
      </trkpt>
      <trkpt lat="47.27959" lon="-1.55918">
        <ele>36</ele>
        <time>2023-11-03T11:27:37Z</time>
      </trkpt>
      <trkpt lat="47.2796" lon="-1.55889">
        <ele>36</ele>
        <time>2023-11-03T11:28:04Z</time>
      </trkpt>
      <trkpt lat="47.27966" lon="-1.55859">
        <ele>37</ele>
        <time>2023-11-03T11:28:32Z</time>
      </trkpt>
      <trkpt lat="47.27969" lon="-1.5583">
        <ele>38</ele>
        <time>2023-11-03T11:28:59Z</time>
      </trkpt>
      <trkpt lat="47.27972" lon="-1.55803">
        <ele>38</ele>
        <time>2023-11-03T11:29:23Z</time>
      </trkpt>
      <trkpt lat="47.27975" lon="-1.55771">
        <ele>39</ele>
        <time>2023-11-03T11:29:53Z</time>
      </trkpt>
      <trkpt lat="47.27975" lon="-1.55744">
        <ele>39</ele>
        <time>2023-11-03T11:30:17Z</time>
      </trkpt>
      <trkpt lat="47.27983" lon="-1.5572">
        <ele>40</ele>
        <time>2023-11-03T11:30:41Z</time>
      </trkpt>
    </trkseg>
  </trk>
  <trk>
    <name><![CDATA[ChapelleE_VerriereTreilliersVFRagon_20km-12879936]]></name>
    <extensions>
      <line xmlns="http://www.topografix.com/GPX/gpx_style/0/2">
        <color>FF0000</color>
        <opacity>1</opacity>
        <width>4</width>
      </line>
    </extensions>
    <trkseg>
      <trkpt lat="47.27922" lon="-1.56551">
        <ele>18</ele>
        <time>2023-11-03T07:49:45Z</time>
      </trkpt>
      <trkpt lat="47.27934" lon="-1.56624">
        <ele>17</ele>
        <time>2023-11-03T07:50:53Z</time>
      </trkpt>
      <trkpt lat="47.27936" lon="-1.5665">
        <ele>16</ele>
        <time>2023-11-03T07:51:17Z</time>
      </trkpt>
      <trkpt lat="47.27944" lon="-1.56678">
        <ele>17</ele>
        <time>2023-11-03T07:51:44Z</time>
      </trkpt>
      <trkpt lat="47.27962" lon="-1.56679">
        <ele>18</ele>
        <time>2023-11-03T07:52:08Z</time>
      </trkpt>
      <trkpt lat="47.28006" lon="-1.56696">
        <ele>20</ele>
        <time>2023-11-03T07:53:09Z</time>
      </trkpt>
      <trkpt lat="47.28026" lon="-1.56699">
        <ele>19</ele>
        <time>2023-11-03T07:53:36Z</time>
      </trkpt>
      <trkpt lat="47.2805" lon="-1.56698">
        <ele>18</ele>
        <time>2023-11-03T07:54:08Z</time>
      </trkpt>
      <trkpt lat="47.28072" lon="-1.56692">
        <ele>17</ele>
        <time>2023-11-03T07:54:38Z</time>
      </trkpt>
      <trkpt lat="47.2809" lon="-1.56686">
        <ele>17</ele>
        <time>2023-11-03T07:55:02Z</time>
      </trkpt>
      <trkpt lat="47.2811" lon="-1.56675">
        <ele>16</ele>
        <time>2023-11-03T07:55:31Z</time>
      </trkpt>
      <trkpt lat="47.28131" lon="-1.56678">
        <ele>17</ele>
        <time>2023-11-03T07:55:59Z</time>
      </trkpt>
      <trkpt lat="47.28154" lon="-1.5668">
        <ele>17</ele>
        <time>2023-11-03T07:56:30Z</time>
      </trkpt>
      <trkpt lat="47.28177" lon="-1.56671">
        <ele>16</ele>
        <time>2023-11-03T07:57:01Z</time>
      </trkpt>
      <trkpt lat="47.28196" lon="-1.56665">
        <ele>16</ele>
        <time>2023-11-03T07:57:27Z</time>
      </trkpt>
      <trkpt lat="47.28212" lon="-1.56642">
        <ele>15</ele>
        <time>2023-11-03T07:57:57Z</time>
      </trkpt>
      <trkpt lat="47.28229" lon="-1.5662">
        <ele>13</ele>
        <time>2023-11-03T07:58:27Z</time>
      </trkpt>
      <trkpt lat="47.28245" lon="-1.56605">
        <ele>12</ele>
        <time>2023-11-03T07:58:53Z</time>
      </trkpt>
      <trkpt lat="47.28261" lon="-1.56589">
        <ele>10</ele>
        <time>2023-11-03T07:59:18Z</time>
      </trkpt>
      <trkpt lat="47.28278" lon="-1.56578">
        <ele>11</ele>
        <time>2023-11-03T07:59:43Z</time>
      </trkpt>
      <trkpt lat="47.28295" lon="-1.56586">
        <ele>11</ele>
        <time>2023-11-03T08:00:07Z</time>
      </trkpt>
      <trkpt lat="47.28315" lon="-1.566">
        <ele>12</ele>
        <time>2023-11-03T08:00:37Z</time>
      </trkpt>
      <trkpt lat="47.28333" lon="-1.56609">
        <ele>13</ele>
        <time>2023-11-03T08:01:02Z</time>
      </trkpt>
      <trkpt lat="47.28349" lon="-1.56623">
        <ele>13</ele>
        <time>2023-11-03T08:01:27Z</time>
      </trkpt>
      <trkpt lat="47.28354" lon="-1.56652">
        <ele>15</ele>
        <time>2023-11-03T08:01:54Z</time>
      </trkpt>
      <trkpt lat="47.28346" lon="-1.56681">
        <ele>17</ele>
        <time>2023-11-03T08:02:22Z</time>
      </trkpt>
      <trkpt lat="47.28337" lon="-1.56705">
        <ele>19</ele>
        <time>2023-11-03T08:02:47Z</time>
      </trkpt>
      <trkpt lat="47.28334" lon="-1.56733">
        <ele>22</ele>
        <time>2023-11-03T08:03:13Z</time>
      </trkpt>
      <trkpt lat="47.28332" lon="-1.56766">
        <ele>24</ele>
        <time>2023-11-03T08:03:43Z</time>
      </trkpt>
      <trkpt lat="47.28333" lon="-1.56795">
        <ele>25</ele>
        <time>2023-11-03T08:04:09Z</time>
      </trkpt>
      <trkpt lat="47.28337" lon="-1.56827">
        <ele>27</ele>
        <time>2023-11-03T08:04:38Z</time>
      </trkpt>
      <trkpt lat="47.28354" lon="-1.56815">
        <ele>25</ele>
        <time>2023-11-03T08:05:04Z</time>
      </trkpt>
      <trkpt lat="47.28359" lon="-1.56788">
        <ele>23</ele>
        <time>2023-11-03T08:05:29Z</time>
      </trkpt>
      <trkpt lat="47.28376" lon="-1.56771">
        <ele>22</ele>
        <time>2023-11-03T08:05:56Z</time>
      </trkpt>
      <trkpt lat="47.28386" lon="-1.56745">
        <ele>20</ele>
        <time>2023-11-03T08:06:23Z</time>
      </trkpt>
      <trkpt lat="47.2839" lon="-1.56717">
        <ele>18</ele>
        <time>2023-11-03T08:06:49Z</time>
      </trkpt>
      <trkpt lat="47.28402" lon="-1.56696">
        <ele>16</ele>
        <time>2023-11-03T08:07:14Z</time>
      </trkpt>
      <trkpt lat="47.28413" lon="-1.56674">
        <ele>14</ele>
        <time>2023-11-03T08:07:39Z</time>
      </trkpt>
      <trkpt lat="47.2842" lon="-1.56643">
        <ele>13</ele>
        <time>2023-11-03T08:08:08Z</time>
      </trkpt>
      <trkpt lat="47.28428" lon="-1.56611">
        <ele>12</ele>
        <time>2023-11-03T08:08:39Z</time>
      </trkpt>
      <trkpt lat="47.28437" lon="-1.56586">
        <ele>11</ele>
        <time>2023-11-03T08:09:05Z</time>
      </trkpt>
      <trkpt lat="47.28454" lon="-1.56577">
        <ele>11</ele>
        <time>2023-11-03T08:09:29Z</time>
      </trkpt>
      <trkpt lat="47.28472" lon="-1.56573">
        <ele>12</ele>
        <time>2023-11-03T08:09:53Z</time>
      </trkpt>
      <trkpt lat="47.28493" lon="-1.56577">
        <ele>12</ele>
        <time>2023-11-03T08:10:22Z</time>
      </trkpt>
      <trkpt lat="47.28503" lon="-1.56602">
        <ele>13</ele>
        <time>2023-11-03T08:10:48Z</time>
      </trkpt>
      <trkpt lat="47.28505" lon="-1.56634">
        <ele>14</ele>
        <time>2023-11-03T08:11:17Z</time>
      </trkpt>
      <trkpt lat="47.285" lon="-1.56662">
        <ele>16</ele>
        <time>2023-11-03T08:11:43Z</time>
      </trkpt>
      <trkpt lat="47.28509" lon="-1.56688">
        <ele>16</ele>
        <time>2023-11-03T08:12:10Z</time>
      </trkpt>
      <trkpt lat="47.28524" lon="-1.5671">
        <ele>16</ele>
        <time>2023-11-03T08:12:38Z</time>
      </trkpt>
      <trkpt lat="47.2854" lon="-1.56732">
        <ele>16</ele>
        <time>2023-11-03T08:13:07Z</time>
      </trkpt>
      <trkpt lat="47.28556" lon="-1.56749">
        <ele>15</ele>
        <time>2023-11-03T08:13:33Z</time>
      </trkpt>
      <trkpt lat="47.28573" lon="-1.56761">
        <ele>15</ele>
        <time>2023-11-03T08:13:59Z</time>
      </trkpt>
      <trkpt lat="47.2861" lon="-1.56781">
        <ele>15</ele>
        <time>2023-11-03T08:14:51Z</time>
      </trkpt>
      <trkpt lat="47.28631" lon="-1.56789">
        <ele>15</ele>
        <time>2023-11-03T08:15:20Z</time>
      </trkpt>
      <trkpt lat="47.28652" lon="-1.56794">
        <ele>15</ele>
        <time>2023-11-03T08:15:48Z</time>
      </trkpt>
      <trkpt lat="47.28667" lon="-1.56809">
        <ele>16</ele>
        <time>2023-11-03T08:16:13Z</time>
      </trkpt>
      <trkpt lat="47.28681" lon="-1.56828">
        <ele>18</ele>
        <time>2023-11-03T08:16:38Z</time>
      </trkpt>
      <trkpt lat="47.287" lon="-1.56833">
        <ele>18</ele>
        <time>2023-11-03T08:17:04Z</time>
      </trkpt>
      <trkpt lat="47.28718" lon="-1.56838">
        <ele>19</ele>
        <time>2023-11-03T08:17:28Z</time>
      </trkpt>
      <trkpt lat="47.28732" lon="-1.56857">
        <ele>21</ele>
        <time>2023-11-03T08:17:54Z</time>
      </trkpt>
      <trkpt lat="47.28751" lon="-1.56861">
        <ele>22</ele>
        <time>2023-11-03T08:18:19Z</time>
      </trkpt>
      <trkpt lat="47.28769" lon="-1.56853">
        <ele>21</ele>
        <time>2023-11-03T08:18:44Z</time>
      </trkpt>
      <trkpt lat="47.28787" lon="-1.56861">
        <ele>22</ele>
        <time>2023-11-03T08:19:09Z</time>
      </trkpt>
      <trkpt lat="47.28807" lon="-1.56853">
        <ele>20</ele>
        <time>2023-11-03T08:19:37Z</time>
      </trkpt>
      <trkpt lat="47.28826" lon="-1.5685">
        <ele>19</ele>
        <time>2023-11-03T08:20:03Z</time>
      </trkpt>
      <trkpt lat="47.28844" lon="-1.56841">
        <ele>18</ele>
        <time>2023-11-03T08:20:28Z</time>
      </trkpt>
      <trkpt lat="47.28858" lon="-1.56823">
        <ele>17</ele>
        <time>2023-11-03T08:20:53Z</time>
      </trkpt>
      <trkpt lat="47.28872" lon="-1.56806">
        <ele>18</ele>
        <time>2023-11-03T08:21:17Z</time>
      </trkpt>
      <trkpt lat="47.28886" lon="-1.56782">
        <ele>17</ele>
        <time>2023-11-03T08:21:46Z</time>
      </trkpt>
      <trkpt lat="47.28891" lon="-1.56752">
        <ele>15</ele>
        <time>2023-11-03T08:22:14Z</time>
      </trkpt>
      <trkpt lat="47.28901" lon="-1.56726">
        <ele>14</ele>
        <time>2023-11-03T08:22:41Z</time>
      </trkpt>
      <trkpt lat="47.28911" lon="-1.56701">
        <ele>13</ele>
        <time>2023-11-03T08:23:07Z</time>
      </trkpt>
      <trkpt lat="47.2892" lon="-1.56673">
        <ele>13</ele>
        <time>2023-11-03T08:23:35Z</time>
      </trkpt>
      <trkpt lat="47.28935" lon="-1.56648">
        <ele>15</ele>
        <time>2023-11-03T08:24:05Z</time>
      </trkpt>
      <trkpt lat="47.28939" lon="-1.56619">
        <ele>16</ele>
        <time>2023-11-03T08:24:32Z</time>
      </trkpt>
      <trkpt lat="47.28958" lon="-1.56602">
        <ele>16</ele>
        <time>2023-11-03T08:25:02Z</time>
      </trkpt>
      <trkpt lat="47.28976" lon="-1.56606">
        <ele>16</ele>
        <time>2023-11-03T08:25:26Z</time>
      </trkpt>
      <trkpt lat="47.2899" lon="-1.56623">
        <ele>16</ele>
        <time>2023-11-03T08:25:50Z</time>
      </trkpt>
      <trkpt lat="47.29006" lon="-1.56647">
        <ele>18</ele>
        <time>2023-11-03T08:26:21Z</time>
      </trkpt>
      <trkpt lat="47.29021" lon="-1.56666">
        <ele>17</ele>
        <time>2023-11-03T08:26:47Z</time>
      </trkpt>
      <trkpt lat="47.29029" lon="-1.56695">
        <ele>18</ele>
        <time>2023-11-03T08:27:15Z</time>
      </trkpt>
      <trkpt lat="47.29043" lon="-1.56714">
        <ele>18</ele>
        <time>2023-11-03T08:27:41Z</time>
      </trkpt>
      <trkpt lat="47.2905" lon="-1.56744">
        <ele>19</ele>
        <time>2023-11-03T08:28:09Z</time>
      </trkpt>
      <trkpt lat="47.29054" lon="-1.56774">
        <ele>21</ele>
        <time>2023-11-03T08:28:37Z</time>
      </trkpt>
      <trkpt lat="47.29064" lon="-1.56801">
        <ele>24</ele>
        <time>2023-11-03T08:29:05Z</time>
      </trkpt>
      <trkpt lat="47.2908" lon="-1.56817">
        <ele>26</ele>
        <time>2023-11-03T08:29:31Z</time>
      </trkpt>
      <trkpt lat="47.29102" lon="-1.56821">
        <ele>26</ele>
        <time>2023-11-03T08:30:00Z</time>
      </trkpt>
      <trkpt lat="47.29126" lon="-1.56819">
        <ele>25</ele>
        <time>2023-11-03T08:30:32Z</time>
      </trkpt>
      <trkpt lat="47.29144" lon="-1.56819">
        <ele>25</ele>
        <time>2023-11-03T08:30:56Z</time>
      </trkpt>
      <trkpt lat="47.29166" lon="-1.56807">
        <ele>23</ele>
        <time>2023-11-03T08:31:28Z</time>
      </trkpt>
      <trkpt lat="47.29184" lon="-1.568">
        <ele>21</ele>
        <time>2023-11-03T08:31:53Z</time>
      </trkpt>
      <trkpt lat="47.292" lon="-1.56783">
        <ele>19</ele>
        <time>2023-11-03T08:32:19Z</time>
      </trkpt>
      <trkpt lat="47.29221" lon="-1.56777">
        <ele>18</ele>
        <time>2023-11-03T08:32:47Z</time>
      </trkpt>
      <trkpt lat="47.29236" lon="-1.56796">
        <ele>19</ele>
        <time>2023-11-03T08:33:14Z</time>
      </trkpt>
      <trkpt lat="47.29235" lon="-1.56603">
        <ele>21</ele>
        <time>2023-11-03T08:36:08Z</time>
      </trkpt>
      <trkpt lat="47.29525" lon="-1.56771">
        <ele>30</ele>
        <time>2023-11-03T08:43:04Z</time>
      </trkpt>
      <trkpt lat="47.30401" lon="-1.56531">
        <ele>31</ele>
        <time>2023-11-03T09:02:53Z</time>
      </trkpt>
      <trkpt lat="47.30449" lon="-1.56337">
        <ele>33</ele>
        <time>2023-11-03T09:06:00Z</time>
      </trkpt>
      <trkpt lat="47.30626" lon="-1.56577">
        <ele>38</ele>
        <time>2023-11-03T09:11:21Z</time>
      </trkpt>
      <trkpt lat="47.30747" lon="-1.5649">
        <ele>38</ele>
        <time>2023-11-03T09:14:21Z</time>
      </trkpt>
      <trkpt lat="47.31013" lon="-1.57011">
        <ele>42</ele>
        <time>2023-11-03T09:24:11Z</time>
      </trkpt>
      <trkpt lat="47.32203" lon="-1.58363">
        <ele>39</ele>
        <time>2023-11-03T09:57:35Z</time>
      </trkpt>
      <trkpt lat="47.32397" lon="-1.58726">
        <ele>43</ele>
        <time>2023-11-03T10:04:33Z</time>
      </trkpt>
      <trkpt lat="47.32581" lon="-1.59552">
        <ele>43</ele>
        <time>2023-11-03T10:17:40Z</time>
      </trkpt>
      <trkpt lat="47.3284" lon="-1.60772">
        <ele>51</ele>
        <time>2023-11-03T10:36:56Z</time>
      </trkpt>
      <trkpt lat="47.33016" lon="-1.61727">
        <ele>59</ele>
        <time>2023-11-03T10:51:51Z</time>
      </trkpt>
      <trkpt lat="47.32878" lon="-1.61885">
        <ele>57</ele>
        <time>2023-11-03T10:55:44Z</time>
      </trkpt>
      <trkpt lat="47.32847" lon="-1.61788">
        <ele>56</ele>
        <time>2023-11-03T10:57:21Z</time>
      </trkpt>
      <trkpt lat="47.3248" lon="-1.61568">
        <ele>49</ele>
        <time>2023-11-03T11:06:10Z</time>
      </trkpt>
      <trkpt lat="47.32207" lon="-1.61752">
        <ele>32</ele>
        <time>2023-11-03T11:12:51Z</time>
      </trkpt>
      <trkpt lat="47.32058" lon="-1.61614">
        <ele>19</ele>
        <time>2023-11-03T11:16:45Z</time>
      </trkpt>
      <trkpt lat="47.31889" lon="-1.61711">
        <ele>26</ele>
        <time>2023-11-03T11:20:47Z</time>
      </trkpt>
      <trkpt lat="47.31899" lon="-1.61543">
        <ele>22</ele>
        <time>2023-11-03T11:23:20Z</time>
      </trkpt>
      <trkpt lat="47.31754" lon="-1.61221">
        <ele>25</ele>
        <time>2023-11-03T11:29:10Z</time>
      </trkpt>
      <trkpt lat="47.31591" lon="-1.61114">
        <ele>30</ele>
        <time>2023-11-03T11:33:08Z</time>
      </trkpt>
      <trkpt lat="47.31562" lon="-1.60695">
        <ele>20</ele>
        <time>2023-11-03T11:39:29Z</time>
      </trkpt>
      <trkpt lat="47.31371" lon="-1.60418">
        <ele>31</ele>
        <time>2023-11-03T11:45:26Z</time>
      </trkpt>
      <trkpt lat="47.31214" lon="-1.60455">
        <ele>35</ele>
        <time>2023-11-03T11:48:58Z</time>
      </trkpt>
      <trkpt lat="47.31089" lon="-1.60115">
        <ele>40</ele>
        <time>2023-11-03T11:54:48Z</time>
      </trkpt>
      <trkpt lat="47.31025" lon="-1.59997">
        <ele>40</ele>
        <time>2023-11-03T11:57:05Z</time>
      </trkpt>
      <trkpt lat="47.30992" lon="-1.5973">
        <ele>31</ele>
        <time>2023-11-03T12:01:11Z</time>
      </trkpt>
      <trkpt lat="47.30982" lon="-1.59496">
        <ele>35</ele>
        <time>2023-11-03T12:04:43Z</time>
      </trkpt>
      <trkpt lat="47.30851" lon="-1.59374">
        <ele>47</ele>
        <time>2023-11-03T12:08:10Z</time>
      </trkpt>
      <trkpt lat="47.3037" lon="-1.5942">
        <ele>40</ele>
        <time>2023-11-03T12:18:53Z</time>
      </trkpt>
      <trkpt lat="47.30162" lon="-1.59389">
        <ele>49</ele>
        <time>2023-11-03T12:23:32Z</time>
      </trkpt>
      <trkpt lat="47.30023" lon="-1.59073">
        <ele>54</ele>
        <time>2023-11-03T12:29:13Z</time>
      </trkpt>
      <trkpt lat="47.2942" lon="-1.59384">
        <ele>56</ele>
        <time>2023-11-03T12:43:25Z</time>
      </trkpt>
      <trkpt lat="47.29361" lon="-1.59222">
        <ele>50</ele>
        <time>2023-11-03T12:46:11Z</time>
      </trkpt>
      <trkpt lat="47.29344" lon="-1.59229">
        <ele>50</ele>
        <time>2023-11-03T12:46:35Z</time>
      </trkpt>
      <trkpt lat="47.29322" lon="-1.59234">
        <ele>49</ele>
        <time>2023-11-03T12:47:05Z</time>
      </trkpt>
      <trkpt lat="47.29309" lon="-1.59258">
        <ele>50</ele>
        <time>2023-11-03T12:47:33Z</time>
      </trkpt>
      <trkpt lat="47.29302" lon="-1.59288">
        <ele>50</ele>
        <time>2023-11-03T12:48:01Z</time>
      </trkpt>
      <trkpt lat="47.29299" lon="-1.5932">
        <ele>51</ele>
        <time>2023-11-03T12:48:31Z</time>
      </trkpt>
      <trkpt lat="47.29291" lon="-1.59351">
        <ele>52</ele>
        <time>2023-11-03T12:49:01Z</time>
      </trkpt>
      <trkpt lat="47.29288" lon="-1.59384">
        <ele>52</ele>
        <time>2023-11-03T12:49:31Z</time>
      </trkpt>
      <trkpt lat="47.29283" lon="-1.59413">
        <ele>52</ele>
        <time>2023-11-03T12:49:58Z</time>
      </trkpt>
      <trkpt lat="47.29282" lon="-1.5944">
        <ele>53</ele>
        <time>2023-11-03T12:50:22Z</time>
      </trkpt>
      <trkpt lat="47.29278" lon="-1.59467">
        <ele>53</ele>
        <time>2023-11-03T12:50:47Z</time>
      </trkpt>
      <trkpt lat="47.29275" lon="-1.59495">
        <ele>53</ele>
        <time>2023-11-03T12:51:13Z</time>
      </trkpt>
      <trkpt lat="47.2927" lon="-1.59525">
        <ele>53</ele>
        <time>2023-11-03T12:51:41Z</time>
      </trkpt>
      <trkpt lat="47.29266" lon="-1.59553">
        <ele>53</ele>
        <time>2023-11-03T12:52:07Z</time>
      </trkpt>
      <trkpt lat="47.29263" lon="-1.59583">
        <ele>53</ele>
        <time>2023-11-03T12:52:34Z</time>
      </trkpt>
      <trkpt lat="47.29254" lon="-1.59611">
        <ele>53</ele>
        <time>2023-11-03T12:53:02Z</time>
      </trkpt>
      <trkpt lat="47.29237" lon="-1.59624">
        <ele>53</ele>
        <time>2023-11-03T12:53:28Z</time>
      </trkpt>
      <trkpt lat="47.29241" lon="-1.59653">
        <ele>52</ele>
        <time>2023-11-03T12:53:55Z</time>
      </trkpt>
      <trkpt lat="47.29244" lon="-1.59681">
        <ele>52</ele>
        <time>2023-11-03T12:54:20Z</time>
      </trkpt>
      <trkpt lat="47.29236" lon="-1.59705">
        <ele>52</ele>
        <time>2023-11-03T12:54:44Z</time>
      </trkpt>
      <trkpt lat="47.29216" lon="-1.59703">
        <ele>52</ele>
        <time>2023-11-03T12:55:11Z</time>
      </trkpt>
      <trkpt lat="47.29178" lon="-1.59702">
        <ele>53</ele>
        <time>2023-11-03T12:56:02Z</time>
      </trkpt>
      <trkpt lat="47.29157" lon="-1.59699">
        <ele>54</ele>
        <time>2023-11-03T12:56:30Z</time>
      </trkpt>
      <trkpt lat="47.29138" lon="-1.59697">
        <ele>55</ele>
        <time>2023-11-03T12:56:55Z</time>
      </trkpt>
      <trkpt lat="47.29117" lon="-1.59706">
        <ele>56</ele>
        <time>2023-11-03T12:57:25Z</time>
      </trkpt>
      <trkpt lat="47.29094" lon="-1.59704">
        <ele>57</ele>
        <time>2023-11-03T12:57:55Z</time>
      </trkpt>
      <trkpt lat="47.29075" lon="-1.59698">
        <ele>58</ele>
        <time>2023-11-03T12:58:21Z</time>
      </trkpt>
      <trkpt lat="47.29039" lon="-1.59686">
        <ele>59</ele>
        <time>2023-11-03T12:59:11Z</time>
      </trkpt>
      <trkpt lat="47.29018" lon="-1.59676">
        <ele>59</ele>
        <time>2023-11-03T12:59:40Z</time>
      </trkpt>
      <trkpt lat="47.28996" lon="-1.59671">
        <ele>60</ele>
        <time>2023-11-03T13:00:10Z</time>
      </trkpt>
      <trkpt lat="47.28957" lon="-1.59656">
        <ele>59</ele>
        <time>2023-11-03T13:01:04Z</time>
      </trkpt>
      <trkpt lat="47.28938" lon="-1.59651">
        <ele>59</ele>
        <time>2023-11-03T13:01:29Z</time>
      </trkpt>
      <trkpt lat="47.28919" lon="-1.59644">
        <ele>58</ele>
        <time>2023-11-03T13:01:55Z</time>
      </trkpt>
      <trkpt lat="47.28898" lon="-1.59647">
        <ele>57</ele>
        <time>2023-11-03T13:02:24Z</time>
      </trkpt>
      <trkpt lat="47.28878" lon="-1.59646">
        <ele>57</ele>
        <time>2023-11-03T13:02:50Z</time>
      </trkpt>
      <trkpt lat="47.2886" lon="-1.59648">
        <ele>56</ele>
        <time>2023-11-03T13:03:14Z</time>
      </trkpt>
      <trkpt lat="47.28838" lon="-1.59649">
        <ele>56</ele>
        <time>2023-11-03T13:03:44Z</time>
      </trkpt>
      <trkpt lat="47.28816" lon="-1.59647">
        <ele>55</ele>
        <time>2023-11-03T13:04:13Z</time>
      </trkpt>
      <trkpt lat="47.28797" lon="-1.59632">
        <ele>54</ele>
        <time>2023-11-03T13:04:42Z</time>
      </trkpt>
      <trkpt lat="47.28782" lon="-1.59615">
        <ele>53</ele>
        <time>2023-11-03T13:05:07Z</time>
      </trkpt>
      <trkpt lat="47.28766" lon="-1.59596">
        <ele>52</ele>
        <time>2023-11-03T13:05:35Z</time>
      </trkpt>
      <trkpt lat="47.2875" lon="-1.59574">
        <ele>52</ele>
        <time>2023-11-03T13:06:04Z</time>
      </trkpt>
      <trkpt lat="47.28732" lon="-1.59554">
        <ele>52</ele>
        <time>2023-11-03T13:06:34Z</time>
      </trkpt>
      <trkpt lat="47.28717" lon="-1.59539">
        <ele>52</ele>
        <time>2023-11-03T13:06:58Z</time>
      </trkpt>
      <trkpt lat="47.28701" lon="-1.59525">
        <ele>52</ele>
        <time>2023-11-03T13:07:23Z</time>
      </trkpt>
      <trkpt lat="47.28683" lon="-1.59515">
        <ele>52</ele>
        <time>2023-11-03T13:07:49Z</time>
      </trkpt>
      <trkpt lat="47.28661" lon="-1.5951">
        <ele>52</ele>
        <time>2023-11-03T13:08:18Z</time>
      </trkpt>
      <trkpt lat="47.28642" lon="-1.59505">
        <ele>52</ele>
        <time>2023-11-03T13:08:44Z</time>
      </trkpt>
      <trkpt lat="47.28623" lon="-1.59499">
        <ele>51</ele>
        <time>2023-11-03T13:09:10Z</time>
      </trkpt>
      <trkpt lat="47.28604" lon="-1.59495">
        <ele>51</ele>
        <time>2023-11-03T13:09:36Z</time>
      </trkpt>
      <trkpt lat="47.28584" lon="-1.59491">
        <ele>51</ele>
        <time>2023-11-03T13:10:02Z</time>
      </trkpt>
      <trkpt lat="47.28565" lon="-1.59483">
        <ele>52</ele>
        <time>2023-11-03T13:10:29Z</time>
      </trkpt>
      <trkpt lat="47.28545" lon="-1.59475">
        <ele>53</ele>
        <time>2023-11-03T13:10:57Z</time>
      </trkpt>
      <trkpt lat="47.28524" lon="-1.59468">
        <ele>53</ele>
        <time>2023-11-03T13:11:25Z</time>
      </trkpt>
      <trkpt lat="47.28504" lon="-1.59465">
        <ele>54</ele>
        <time>2023-11-03T13:11:52Z</time>
      </trkpt>
      <trkpt lat="47.28483" lon="-1.59457">
        <ele>54</ele>
        <time>2023-11-03T13:12:21Z</time>
      </trkpt>
      <trkpt lat="47.28464" lon="-1.59454">
        <ele>54</ele>
        <time>2023-11-03T13:12:47Z</time>
      </trkpt>
      <trkpt lat="47.28421" lon="-1.59442">
        <ele>53</ele>
        <time>2023-11-03T13:13:45Z</time>
      </trkpt>
      <trkpt lat="47.28399" lon="-1.59437">
        <ele>54</ele>
        <time>2023-11-03T13:14:15Z</time>
      </trkpt>
      <trkpt lat="47.28376" lon="-1.59435">
        <ele>54</ele>
        <time>2023-11-03T13:14:45Z</time>
      </trkpt>
      <trkpt lat="47.28357" lon="-1.59427">
        <ele>54</ele>
        <time>2023-11-03T13:15:12Z</time>
      </trkpt>
      <trkpt lat="47.28315" lon="-1.59415">
        <ele>54</ele>
        <time>2023-11-03T13:16:09Z</time>
      </trkpt>
      <trkpt lat="47.28295" lon="-1.59402">
        <ele>55</ele>
        <time>2023-11-03T13:16:38Z</time>
      </trkpt>
      <trkpt lat="47.28277" lon="-1.5939">
        <ele>55</ele>
        <time>2023-11-03T13:17:04Z</time>
      </trkpt>
      <trkpt lat="47.28258" lon="-1.59374">
        <ele>54</ele>
        <time>2023-11-03T13:17:34Z</time>
      </trkpt>
      <trkpt lat="47.28241" lon="-1.59357">
        <ele>54</ele>
        <time>2023-11-03T13:18:01Z</time>
      </trkpt>
      <trkpt lat="47.28224" lon="-1.59343">
        <ele>54</ele>
        <time>2023-11-03T13:18:27Z</time>
      </trkpt>
      <trkpt lat="47.28211" lon="-1.59319">
        <ele>53</ele>
        <time>2023-11-03T13:18:55Z</time>
      </trkpt>
      <trkpt lat="47.28197" lon="-1.59298">
        <ele>53</ele>
        <time>2023-11-03T13:19:21Z</time>
      </trkpt>
      <trkpt lat="47.28181" lon="-1.59283">
        <ele>53</ele>
        <time>2023-11-03T13:19:47Z</time>
      </trkpt>
      <trkpt lat="47.28166" lon="-1.59267">
        <ele>52</ele>
        <time>2023-11-03T13:20:11Z</time>
      </trkpt>
      <trkpt lat="47.28153" lon="-1.59247">
        <ele>52</ele>
        <time>2023-11-03T13:20:37Z</time>
      </trkpt>
      <trkpt lat="47.28139" lon="-1.59227">
        <ele>53</ele>
        <time>2023-11-03T13:21:03Z</time>
      </trkpt>
      <trkpt lat="47.28121" lon="-1.59206">
        <ele>53</ele>
        <time>2023-11-03T13:21:33Z</time>
      </trkpt>
      <trkpt lat="47.28108" lon="-1.59184">
        <ele>53</ele>
        <time>2023-11-03T13:22:00Z</time>
      </trkpt>
      <trkpt lat="47.28094" lon="-1.59165">
        <ele>53</ele>
        <time>2023-11-03T13:22:25Z</time>
      </trkpt>
      <trkpt lat="47.2809" lon="-1.59139">
        <ele>53</ele>
        <time>2023-11-03T13:22:49Z</time>
      </trkpt>
      <trkpt lat="47.28089" lon="-1.59107">
        <ele>53</ele>
        <time>2023-11-03T13:23:18Z</time>
      </trkpt>
      <trkpt lat="47.28104" lon="-1.59087">
        <ele>53</ele>
        <time>2023-11-03T13:23:45Z</time>
      </trkpt>
      <trkpt lat="47.28117" lon="-1.59062">
        <ele>53</ele>
        <time>2023-11-03T13:24:14Z</time>
      </trkpt>
      <trkpt lat="47.28132" lon="-1.59041">
        <ele>53</ele>
        <time>2023-11-03T13:24:41Z</time>
      </trkpt>
      <trkpt lat="47.28146" lon="-1.59014">
        <ele>53</ele>
        <time>2023-11-03T13:25:12Z</time>
      </trkpt>
      <trkpt lat="47.2816" lon="-1.58988">
        <ele>52</ele>
        <time>2023-11-03T13:25:42Z</time>
      </trkpt>
      <trkpt lat="47.28175" lon="-1.58966">
        <ele>51</ele>
        <time>2023-11-03T13:26:10Z</time>
      </trkpt>
      <trkpt lat="47.28188" lon="-1.58942">
        <ele>51</ele>
        <time>2023-11-03T13:26:38Z</time>
      </trkpt>
      <trkpt lat="47.28212" lon="-1.58893">
        <ele>49</ele>
        <time>2023-11-03T13:27:33Z</time>
      </trkpt>
      <trkpt lat="47.28223" lon="-1.58868">
        <ele>49</ele>
        <time>2023-11-03T13:28:00Z</time>
      </trkpt>
      <trkpt lat="47.28209" lon="-1.58849">
        <ele>49</ele>
        <time>2023-11-03T13:28:25Z</time>
      </trkpt>
      <trkpt lat="47.28192" lon="-1.5883">
        <ele>49</ele>
        <time>2023-11-03T13:28:54Z</time>
      </trkpt>
      <trkpt lat="47.28173" lon="-1.58818">
        <ele>49</ele>
        <time>2023-11-03T13:29:21Z</time>
      </trkpt>
      <trkpt lat="47.28155" lon="-1.58811">
        <ele>50</ele>
        <time>2023-11-03T13:29:46Z</time>
      </trkpt>
      <trkpt lat="47.2814" lon="-1.58785">
        <ele>50</ele>
        <time>2023-11-03T13:30:17Z</time>
      </trkpt>
      <trkpt lat="47.28136" lon="-1.58757">
        <ele>50</ele>
        <time>2023-11-03T13:30:43Z</time>
      </trkpt>
      <trkpt lat="47.28146" lon="-1.58729">
        <ele>50</ele>
        <time>2023-11-03T13:31:11Z</time>
      </trkpt>
      <trkpt lat="47.28155" lon="-1.58706">
        <ele>50</ele>
        <time>2023-11-03T13:31:36Z</time>
      </trkpt>
      <trkpt lat="47.28166" lon="-1.58682">
        <ele>50</ele>
        <time>2023-11-03T13:32:02Z</time>
      </trkpt>
      <trkpt lat="47.2816" lon="-1.58656">
        <ele>50</ele>
        <time>2023-11-03T13:32:27Z</time>
      </trkpt>
      <trkpt lat="47.28141" lon="-1.58654">
        <ele>51</ele>
        <time>2023-11-03T13:32:52Z</time>
      </trkpt>
      <trkpt lat="47.28081" lon="-1.58644">
        <ele>52</ele>
        <time>2023-11-03T13:34:13Z</time>
      </trkpt>
      <trkpt lat="47.2806" lon="-1.58641">
        <ele>52</ele>
        <time>2023-11-03T13:34:41Z</time>
      </trkpt>
      <trkpt lat="47.28016" lon="-1.58636">
        <ele>53</ele>
        <time>2023-11-03T13:35:40Z</time>
      </trkpt>
      <trkpt lat="47.27997" lon="-1.5864">
        <ele>53</ele>
        <time>2023-11-03T13:36:05Z</time>
      </trkpt>
      <trkpt lat="47.27975" lon="-1.58636">
        <ele>53</ele>
        <time>2023-11-03T13:36:35Z</time>
      </trkpt>
      <trkpt lat="47.27957" lon="-1.58641">
        <ele>53</ele>
        <time>2023-11-03T13:36:59Z</time>
      </trkpt>
      <trkpt lat="47.27938" lon="-1.58643">
        <ele>53</ele>
        <time>2023-11-03T13:37:25Z</time>
      </trkpt>
      <trkpt lat="47.27918" lon="-1.58635">
        <ele>53</ele>
        <time>2023-11-03T13:37:52Z</time>
      </trkpt>
      <trkpt lat="47.2792" lon="-1.58606">
        <ele>53</ele>
        <time>2023-11-03T13:38:19Z</time>
      </trkpt>
      <trkpt lat="47.27901" lon="-1.58604">
        <ele>53</ele>
        <time>2023-11-03T13:38:44Z</time>
      </trkpt>
      <trkpt lat="47.2788" lon="-1.58603">
        <ele>53</ele>
        <time>2023-11-03T13:39:12Z</time>
      </trkpt>
      <trkpt lat="47.2786" lon="-1.58598">
        <ele>52</ele>
        <time>2023-11-03T13:39:39Z</time>
      </trkpt>
      <trkpt lat="47.2784" lon="-1.58589">
        <ele>52</ele>
        <time>2023-11-03T13:40:07Z</time>
      </trkpt>
      <trkpt lat="47.27819" lon="-1.58584">
        <ele>52</ele>
        <time>2023-11-03T13:40:36Z</time>
      </trkpt>
      <trkpt lat="47.27797" lon="-1.58581">
        <ele>52</ele>
        <time>2023-11-03T13:41:05Z</time>
      </trkpt>
      <trkpt lat="47.27779" lon="-1.58577">
        <ele>53</ele>
        <time>2023-11-03T13:41:29Z</time>
      </trkpt>
      <trkpt lat="47.2776" lon="-1.58566">
        <ele>53</ele>
        <time>2023-11-03T13:41:57Z</time>
      </trkpt>
      <trkpt lat="47.2774" lon="-1.58559">
        <ele>53</ele>
        <time>2023-11-03T13:42:24Z</time>
      </trkpt>
      <trkpt lat="47.27722" lon="-1.5855">
        <ele>52</ele>
        <time>2023-11-03T13:42:49Z</time>
      </trkpt>
      <trkpt lat="47.27706" lon="-1.58536">
        <ele>52</ele>
        <time>2023-11-03T13:43:14Z</time>
      </trkpt>
      <trkpt lat="47.27684" lon="-1.58533">
        <ele>51</ele>
        <time>2023-11-03T13:43:44Z</time>
      </trkpt>
      <trkpt lat="47.27665" lon="-1.58521">
        <ele>50</ele>
        <time>2023-11-03T13:44:11Z</time>
      </trkpt>
      <trkpt lat="47.27646" lon="-1.58511">
        <ele>50</ele>
        <time>2023-11-03T13:44:38Z</time>
      </trkpt>
      <trkpt lat="47.27629" lon="-1.58501">
        <ele>51</ele>
        <time>2023-11-03T13:45:03Z</time>
      </trkpt>
      <trkpt lat="47.27611" lon="-1.58494">
        <ele>51</ele>
        <time>2023-11-03T13:45:27Z</time>
      </trkpt>
      <trkpt lat="47.27592" lon="-1.58484">
        <ele>52</ele>
        <time>2023-11-03T13:45:54Z</time>
      </trkpt>
      <trkpt lat="47.27574" lon="-1.58478">
        <ele>52</ele>
        <time>2023-11-03T13:46:19Z</time>
      </trkpt>
      <trkpt lat="47.27556" lon="-1.58467">
        <ele>53</ele>
        <time>2023-11-03T13:46:45Z</time>
      </trkpt>
      <trkpt lat="47.27541" lon="-1.58451">
        <ele>52</ele>
        <time>2023-11-03T13:47:10Z</time>
      </trkpt>
      <trkpt lat="47.27521" lon="-1.58448">
        <ele>52</ele>
        <time>2023-11-03T13:47:37Z</time>
      </trkpt>
      <trkpt lat="47.27503" lon="-1.58441">
        <ele>52</ele>
        <time>2023-11-03T13:48:01Z</time>
      </trkpt>
      <trkpt lat="47.27485" lon="-1.58436">
        <ele>51</ele>
        <time>2023-11-03T13:48:26Z</time>
      </trkpt>
      <trkpt lat="47.27465" lon="-1.58434">
        <ele>51</ele>
        <time>2023-11-03T13:48:53Z</time>
      </trkpt>
      <trkpt lat="47.27443" lon="-1.58427">
        <ele>50</ele>
        <time>2023-11-03T13:49:23Z</time>
      </trkpt>
      <trkpt lat="47.27426" lon="-1.5842">
        <ele>49</ele>
        <time>2023-11-03T13:49:46Z</time>
      </trkpt>
      <trkpt lat="47.27404" lon="-1.58423">
        <ele>49</ele>
        <time>2023-11-03T13:50:16Z</time>
      </trkpt>
      <trkpt lat="47.27384" lon="-1.58416">
        <ele>48</ele>
        <time>2023-11-03T13:50:43Z</time>
      </trkpt>
      <trkpt lat="47.27362" lon="-1.58406">
        <ele>47</ele>
        <time>2023-11-03T13:51:14Z</time>
      </trkpt>
      <trkpt lat="47.27337" lon="-1.58399">
        <ele>46</ele>
        <time>2023-11-03T13:51:48Z</time>
      </trkpt>
      <trkpt lat="47.27319" lon="-1.58387">
        <ele>45</ele>
        <time>2023-11-03T13:52:14Z</time>
      </trkpt>
      <trkpt lat="47.27323" lon="-1.58357">
        <ele>44</ele>
        <time>2023-11-03T13:52:42Z</time>
      </trkpt>
      <trkpt lat="47.27341" lon="-1.58305">
        <ele>42</ele>
        <time>2023-11-03T13:53:35Z</time>
      </trkpt>
      <trkpt lat="47.27345" lon="-1.58278">
        <ele>41</ele>
        <time>2023-11-03T13:54:00Z</time>
      </trkpt>
      <trkpt lat="47.27353" lon="-1.5825">
        <ele>40</ele>
        <time>2023-11-03T13:54:27Z</time>
      </trkpt>
      <trkpt lat="47.2736" lon="-1.58222">
        <ele>41</ele>
        <time>2023-11-03T13:54:54Z</time>
      </trkpt>
      <trkpt lat="47.27368" lon="-1.58193">
        <ele>41</ele>
        <time>2023-11-03T13:55:23Z</time>
      </trkpt>
      <trkpt lat="47.27383" lon="-1.58174">
        <ele>41</ele>
        <time>2023-11-03T13:55:49Z</time>
      </trkpt>
      <trkpt lat="47.27397" lon="-1.58152">
        <ele>42</ele>
        <time>2023-11-03T13:56:16Z</time>
      </trkpt>
      <trkpt lat="47.27401" lon="-1.58125">
        <ele>42</ele>
        <time>2023-11-03T13:56:41Z</time>
      </trkpt>
      <trkpt lat="47.27408" lon="-1.58098">
        <ele>42</ele>
        <time>2023-11-03T13:57:07Z</time>
      </trkpt>
      <trkpt lat="47.2741" lon="-1.58067">
        <ele>42</ele>
        <time>2023-11-03T13:57:36Z</time>
      </trkpt>
      <trkpt lat="47.2741" lon="-1.58038">
        <ele>42</ele>
        <time>2023-11-03T13:58:02Z</time>
      </trkpt>
      <trkpt lat="47.27413" lon="-1.58003">
        <ele>42</ele>
        <time>2023-11-03T13:58:34Z</time>
      </trkpt>
      <trkpt lat="47.27417" lon="-1.57977">
        <ele>41</ele>
        <time>2023-11-03T13:58:58Z</time>
      </trkpt>
      <trkpt lat="47.27423" lon="-1.57952">
        <ele>40</ele>
        <time>2023-11-03T13:59:22Z</time>
      </trkpt>
      <trkpt lat="47.27426" lon="-1.57918">
        <ele>39</ele>
        <time>2023-11-03T13:59:53Z</time>
      </trkpt>
      <trkpt lat="47.27438" lon="-1.57823">
        <ele>38</ele>
        <time>2023-11-03T14:01:21Z</time>
      </trkpt>
      <trkpt lat="47.27441" lon="-1.57787">
        <ele>38</ele>
        <time>2023-11-03T14:01:53Z</time>
      </trkpt>
      <trkpt lat="47.27446" lon="-1.5776">
        <ele>38</ele>
        <time>2023-11-03T14:02:19Z</time>
      </trkpt>
      <trkpt lat="47.27456" lon="-1.57729">
        <ele>39</ele>
        <time>2023-11-03T14:02:50Z</time>
      </trkpt>
      <trkpt lat="47.27467" lon="-1.57705">
        <ele>39</ele>
        <time>2023-11-03T14:03:16Z</time>
      </trkpt>
      <trkpt lat="47.27475" lon="-1.57679">
        <ele>40</ele>
        <time>2023-11-03T14:03:42Z</time>
      </trkpt>
      <trkpt lat="47.27485" lon="-1.57652">
        <ele>41</ele>
        <time>2023-11-03T14:04:10Z</time>
      </trkpt>
      <trkpt lat="47.27491" lon="-1.57627">
        <ele>41</ele>
        <time>2023-11-03T14:04:34Z</time>
      </trkpt>
      <trkpt lat="47.27483" lon="-1.576">
        <ele>41</ele>
        <time>2023-11-03T14:05:00Z</time>
      </trkpt>
      <trkpt lat="47.27471" lon="-1.57576">
        <ele>41</ele>
        <time>2023-11-03T14:05:27Z</time>
      </trkpt>
      <trkpt lat="47.27452" lon="-1.57559">
        <ele>40</ele>
        <time>2023-11-03T14:05:57Z</time>
      </trkpt>
      <trkpt lat="47.27437" lon="-1.5754">
        <ele>40</ele>
        <time>2023-11-03T14:06:23Z</time>
      </trkpt>
      <trkpt lat="47.27416" lon="-1.57528">
        <ele>40</ele>
        <time>2023-11-03T14:06:54Z</time>
      </trkpt>
      <trkpt lat="47.27397" lon="-1.57513">
        <ele>39</ele>
        <time>2023-11-03T14:07:22Z</time>
      </trkpt>
      <trkpt lat="47.27398" lon="-1.57486">
        <ele>39</ele>
        <time>2023-11-03T14:07:47Z</time>
      </trkpt>
      <trkpt lat="47.27401" lon="-1.57457">
        <ele>39</ele>
        <time>2023-11-03T14:08:13Z</time>
      </trkpt>
      <trkpt lat="47.27405" lon="-1.5743">
        <ele>39</ele>
        <time>2023-11-03T14:08:38Z</time>
      </trkpt>
      <trkpt lat="47.2741" lon="-1.57403">
        <ele>39</ele>
        <time>2023-11-03T14:09:04Z</time>
      </trkpt>
      <trkpt lat="47.27413" lon="-1.57372">
        <ele>39</ele>
        <time>2023-11-03T14:09:32Z</time>
      </trkpt>
      <trkpt lat="47.27417" lon="-1.57342">
        <ele>40</ele>
        <time>2023-11-03T14:10:00Z</time>
      </trkpt>
      <trkpt lat="47.27419" lon="-1.57314">
        <ele>40</ele>
        <time>2023-11-03T14:10:25Z</time>
      </trkpt>
      <trkpt lat="47.27428" lon="-1.57225">
        <ele>38</ele>
        <time>2023-11-03T14:11:47Z</time>
      </trkpt>
      <trkpt lat="47.27429" lon="-1.57196">
        <ele>37</ele>
        <time>2023-11-03T14:12:13Z</time>
      </trkpt>
      <trkpt lat="47.27433" lon="-1.57168">
        <ele>37</ele>
        <time>2023-11-03T14:12:39Z</time>
      </trkpt>
      <trkpt lat="47.27452" lon="-1.57159">
        <ele>38</ele>
        <time>2023-11-03T14:13:06Z</time>
      </trkpt>
      <trkpt lat="47.27491" lon="-1.57142">
        <ele>39</ele>
        <time>2023-11-03T14:14:00Z</time>
      </trkpt>
      <trkpt lat="47.27509" lon="-1.57137">
        <ele>40</ele>
        <time>2023-11-03T14:14:24Z</time>
      </trkpt>
      <trkpt lat="47.27525" lon="-1.57124">
        <ele>40</ele>
        <time>2023-11-03T14:14:49Z</time>
      </trkpt>
      <trkpt lat="47.27524" lon="-1.57097">
        <ele>39</ele>
        <time>2023-11-03T14:15:13Z</time>
      </trkpt>
      <trkpt lat="47.2755" lon="-1.5705">
        <ele>38</ele>
        <time>2023-11-03T14:16:08Z</time>
      </trkpt>
      <trkpt lat="47.27567" lon="-1.57027">
        <ele>39</ele>
        <time>2023-11-03T14:16:39Z</time>
      </trkpt>
      <trkpt lat="47.27583" lon="-1.57006">
        <ele>39</ele>
        <time>2023-11-03T14:17:07Z</time>
      </trkpt>
      <trkpt lat="47.27599" lon="-1.56988">
        <ele>38</ele>
        <time>2023-11-03T14:17:34Z</time>
      </trkpt>
      <trkpt lat="47.27616" lon="-1.56964">
        <ele>37</ele>
        <time>2023-11-03T14:18:06Z</time>
      </trkpt>
      <trkpt lat="47.27634" lon="-1.56944">
        <ele>35</ele>
        <time>2023-11-03T14:18:36Z</time>
      </trkpt>
      <trkpt lat="47.27665" lon="-1.56909">
        <ele>33</ele>
        <time>2023-11-03T14:19:28Z</time>
      </trkpt>
      <trkpt lat="47.2768" lon="-1.56889">
        <ele>33</ele>
        <time>2023-11-03T14:19:55Z</time>
      </trkpt>
      <trkpt lat="47.27695" lon="-1.5687">
        <ele>33</ele>
        <time>2023-11-03T14:20:21Z</time>
      </trkpt>
      <trkpt lat="47.27712" lon="-1.56857">
        <ele>34</ele>
        <time>2023-11-03T14:20:47Z</time>
      </trkpt>
      <trkpt lat="47.27728" lon="-1.56844">
        <ele>34</ele>
        <time>2023-11-03T14:21:11Z</time>
      </trkpt>
      <trkpt lat="47.2774" lon="-1.56821">
        <ele>34</ele>
        <time>2023-11-03T14:21:37Z</time>
      </trkpt>
      <trkpt lat="47.27759" lon="-1.56803">
        <ele>33</ele>
        <time>2023-11-03T14:22:08Z</time>
      </trkpt>
      <trkpt lat="47.27773" lon="-1.56782">
        <ele>31</ele>
        <time>2023-11-03T14:22:34Z</time>
      </trkpt>
      <trkpt lat="47.27791" lon="-1.56769">
        <ele>30</ele>
        <time>2023-11-03T14:23:01Z</time>
      </trkpt>
      <trkpt lat="47.27807" lon="-1.56755">
        <ele>29</ele>
        <time>2023-11-03T14:23:26Z</time>
      </trkpt>
      <trkpt lat="47.2782" lon="-1.56735">
        <ele>27</ele>
        <time>2023-11-03T14:23:51Z</time>
      </trkpt>
      <trkpt lat="47.27836" lon="-1.56718">
        <ele>24</ele>
        <time>2023-11-03T14:24:17Z</time>
      </trkpt>
      <trkpt lat="47.27854" lon="-1.56709">
        <ele>22</ele>
        <time>2023-11-03T14:24:43Z</time>
      </trkpt>
      <trkpt lat="47.27871" lon="-1.56699">
        <ele>21</ele>
        <time>2023-11-03T14:25:07Z</time>
      </trkpt>
      <trkpt lat="47.27886" lon="-1.56679">
        <ele>18</ele>
        <time>2023-11-03T14:25:34Z</time>
      </trkpt>
      <trkpt lat="47.27901" lon="-1.56662">
        <ele>16</ele>
        <time>2023-11-03T14:25:59Z</time>
      </trkpt>
      <trkpt lat="47.2792" lon="-1.56666">
        <ele>16</ele>
        <time>2023-11-03T14:26:25Z</time>
      </trkpt>
      <trkpt lat="47.27939" lon="-1.56667">
        <ele>16</ele>
        <time>2023-11-03T14:26:50Z</time>
      </trkpt>
      <trkpt lat="47.27937" lon="-1.56638">
        <ele>16</ele>
        <time>2023-11-03T14:27:17Z</time>
      </trkpt>
      <trkpt lat="47.2793" lon="-1.56611">
        <ele>17</ele>
        <time>2023-11-03T14:27:43Z</time>
      </trkpt>
      <trkpt lat="47.27916" lon="-1.56591">
        <ele>16</ele>
        <time>2023-11-03T14:28:09Z</time>
      </trkpt>
      <trkpt lat="47.27914" lon="-1.56547">
        <ele>18</ele>
        <time>2023-11-03T14:28:49Z</time>
        <extensions>
          <visugpx:TrkExtension xmlns:visugpx="https://www.visugpx.com/editgpx/">
            <visugpx:node>1</visugpx:node>
            </visugpx:TrkExtension>
        </extensions>
      </trkpt>
    </trkseg>
  </trk>
  <trk>
    <name><![CDATA[ChapelleE_GesvresEtRagon_11km-8202803]]></name>
    <extensions>
      <line xmlns="http://www.topografix.com/GPX/gpx_style/0/2">
        <color>00FFFF</color>
        <width>4</width>
      </line>
    </extensions>
    <trkseg>
      <trkpt lat="47.2969" lon="-1.56492">
        <ele>37</ele>
        <time>2023-11-03T11:21:56Z</time>
      </trkpt>
      <trkpt lat="47.29674" lon="-1.56507">
        <ele>38</ele>
        <time>2023-11-03T11:22:21Z</time>
      </trkpt>
      <trkpt lat="47.29656" lon="-1.5652">
        <ele>38</ele>
        <time>2023-11-03T11:22:48Z</time>
      </trkpt>
      <trkpt lat="47.29638" lon="-1.56527">
        <ele>38</ele>
        <time>2023-11-03T11:23:13Z</time>
      </trkpt>
      <trkpt lat="47.29619" lon="-1.56528">
        <ele>38</ele>
        <time>2023-11-03T11:23:38Z</time>
      </trkpt>
      <trkpt lat="47.29615" lon="-1.56555">
        <ele>37</ele>
        <time>2023-11-03T11:24:03Z</time>
      </trkpt>
      <trkpt lat="47.29619" lon="-1.56581">
        <ele>37</ele>
        <time>2023-11-03T11:24:27Z</time>
      </trkpt>
      <trkpt lat="47.29624" lon="-1.56608">
        <ele>36</ele>
        <time>2023-11-03T11:24:53Z</time>
      </trkpt>
      <trkpt lat="47.29627" lon="-1.56634">
        <ele>35</ele>
        <time>2023-11-03T11:25:17Z</time>
      </trkpt>
      <trkpt lat="47.29634" lon="-1.5666">
        <ele>34</ele>
        <time>2023-11-03T11:25:42Z</time>
      </trkpt>
      <trkpt lat="47.29643" lon="-1.56684">
        <ele>33</ele>
        <time>2023-11-03T11:26:07Z</time>
      </trkpt>
      <trkpt lat="47.29634" lon="-1.56708">
        <ele>33</ele>
        <time>2023-11-03T11:26:32Z</time>
      </trkpt>
      <trkpt lat="47.29617" lon="-1.56721">
        <ele>33</ele>
        <time>2023-11-03T11:26:57Z</time>
      </trkpt>
      <trkpt lat="47.29607" lon="-1.56744">
        <ele>33</ele>
        <time>2023-11-03T11:27:22Z</time>
      </trkpt>
      <trkpt lat="47.29594" lon="-1.56762">
        <ele>33</ele>
        <time>2023-11-03T11:27:46Z</time>
      </trkpt>
      <trkpt lat="47.29575" lon="-1.56772">
        <ele>32</ele>
        <time>2023-11-03T11:28:13Z</time>
      </trkpt>
      <trkpt lat="47.29558" lon="-1.56778">
        <ele>31</ele>
        <time>2023-11-03T11:28:36Z</time>
      </trkpt>
      <trkpt lat="47.29539" lon="-1.56772">
        <ele>30</ele>
        <time>2023-11-03T11:29:02Z</time>
      </trkpt>
      <trkpt lat="47.29521" lon="-1.56771">
        <ele>29</ele>
        <time>2023-11-03T11:29:26Z</time>
      </trkpt>
      <trkpt lat="47.29503" lon="-1.56776">
        <ele>28</ele>
        <time>2023-11-03T11:29:50Z</time>
      </trkpt>
      <trkpt lat="47.29485" lon="-1.56776">
        <ele>28</ele>
        <time>2023-11-03T11:30:14Z</time>
      </trkpt>
      <trkpt lat="47.29467" lon="-1.56771">
        <ele>27</ele>
        <time>2023-11-03T11:30:39Z</time>
      </trkpt>
      <trkpt lat="47.29448" lon="-1.56765">
        <ele>26</ele>
        <time>2023-11-03T11:31:05Z</time>
      </trkpt>
      <trkpt lat="47.2943" lon="-1.56762">
        <ele>25</ele>
        <time>2023-11-03T11:31:29Z</time>
      </trkpt>
      <trkpt lat="47.29413" lon="-1.56752">
        <ele>25</ele>
        <time>2023-11-03T11:31:53Z</time>
      </trkpt>
      <trkpt lat="47.29398" lon="-1.56737">
        <ele>24</ele>
        <time>2023-11-03T11:32:17Z</time>
      </trkpt>
      <trkpt lat="47.2938" lon="-1.56725">
        <ele>23</ele>
        <time>2023-11-03T11:32:44Z</time>
      </trkpt>
      <trkpt lat="47.29367" lon="-1.56707">
        <ele>23</ele>
        <time>2023-11-03T11:33:08Z</time>
      </trkpt>
      <trkpt lat="47.29353" lon="-1.56687">
        <ele>22</ele>
        <time>2023-11-03T11:33:34Z</time>
      </trkpt>
      <trkpt lat="47.29337" lon="-1.56674">
        <ele>21</ele>
        <time>2023-11-03T11:33:58Z</time>
      </trkpt>
      <trkpt lat="47.2932" lon="-1.56662">
        <ele>21</ele>
        <time>2023-11-03T11:34:23Z</time>
      </trkpt>
      <trkpt lat="47.29304" lon="-1.56649">
        <ele>21</ele>
        <time>2023-11-03T11:34:48Z</time>
      </trkpt>
      <trkpt lat="47.2929" lon="-1.5663">
        <ele>21</ele>
        <time>2023-11-03T11:35:13Z</time>
      </trkpt>
      <trkpt lat="47.29275" lon="-1.56616">
        <ele>21</ele>
        <time>2023-11-03T11:35:37Z</time>
      </trkpt>
      <trkpt lat="47.29257" lon="-1.56619">
        <ele>20</ele>
        <time>2023-11-03T11:36:01Z</time>
      </trkpt>
      <trkpt lat="47.29244" lon="-1.56638">
        <ele>18</ele>
        <time>2023-11-03T11:36:25Z</time>
      </trkpt>
      <trkpt lat="47.29225" lon="-1.56638">
        <ele>18</ele>
        <time>2023-11-03T11:36:51Z</time>
      </trkpt>
      <trkpt lat="47.29207" lon="-1.5663">
        <ele>19</ele>
        <time>2023-11-03T11:37:16Z</time>
      </trkpt>
      <trkpt lat="47.29188" lon="-1.56632">
        <ele>19</ele>
        <time>2023-11-03T11:37:41Z</time>
      </trkpt>
      <trkpt lat="47.2917" lon="-1.56631">
        <ele>19</ele>
        <time>2023-11-03T11:38:05Z</time>
      </trkpt>
      <trkpt lat="47.29151" lon="-1.56634">
        <ele>18</ele>
        <time>2023-11-03T11:38:31Z</time>
      </trkpt>
      <trkpt lat="47.29134" lon="-1.56625">
        <ele>18</ele>
        <time>2023-11-03T11:38:55Z</time>
      </trkpt>
      <trkpt lat="47.29124" lon="-1.56602">
        <ele>20</ele>
        <time>2023-11-03T11:39:19Z</time>
      </trkpt>
      <trkpt lat="47.29111" lon="-1.56583">
        <ele>21</ele>
        <time>2023-11-03T11:39:44Z</time>
      </trkpt>
      <trkpt lat="47.29101" lon="-1.5656">
        <ele>23</ele>
        <time>2023-11-03T11:40:09Z</time>
      </trkpt>
      <trkpt lat="47.29093" lon="-1.56536">
        <ele>25</ele>
        <time>2023-11-03T11:40:33Z</time>
      </trkpt>
      <trkpt lat="47.29085" lon="-1.56511">
        <ele>27</ele>
        <time>2023-11-03T11:40:58Z</time>
      </trkpt>
      <trkpt lat="47.29078" lon="-1.56485">
        <ele>29</ele>
        <time>2023-11-03T11:41:23Z</time>
      </trkpt>
      <trkpt lat="47.29063" lon="-1.56471">
        <ele>30</ele>
        <time>2023-11-03T11:41:47Z</time>
      </trkpt>
      <trkpt lat="47.29049" lon="-1.56453">
        <ele>31</ele>
        <time>2023-11-03T11:42:12Z</time>
      </trkpt>
      <trkpt lat="47.29031" lon="-1.56452">
        <ele>31</ele>
        <time>2023-11-03T11:42:36Z</time>
      </trkpt>
      <trkpt lat="47.29012" lon="-1.56447">
        <ele>32</ele>
        <time>2023-11-03T11:43:01Z</time>
      </trkpt>
      <trkpt lat="47.28994" lon="-1.56448">
        <ele>32</ele>
        <time>2023-11-03T11:43:25Z</time>
      </trkpt>
      <trkpt lat="47.28976" lon="-1.56451">
        <ele>32</ele>
        <time>2023-11-03T11:43:50Z</time>
      </trkpt>
      <trkpt lat="47.28957" lon="-1.56453">
        <ele>32</ele>
        <time>2023-11-03T11:44:15Z</time>
      </trkpt>
      <trkpt lat="47.2894" lon="-1.56469">
        <ele>31</ele>
        <time>2023-11-03T11:44:42Z</time>
      </trkpt>
      <trkpt lat="47.28924" lon="-1.56483">
        <ele>31</ele>
        <time>2023-11-03T11:45:07Z</time>
      </trkpt>
      <trkpt lat="47.2891" lon="-1.56499">
        <ele>31</ele>
        <time>2023-11-03T11:45:30Z</time>
      </trkpt>
      <trkpt lat="47.28894" lon="-1.56513">
        <ele>29</ele>
        <time>2023-11-03T11:45:55Z</time>
      </trkpt>
      <trkpt lat="47.28885" lon="-1.56537">
        <ele>26</ele>
        <time>2023-11-03T11:46:20Z</time>
      </trkpt>
      <trkpt lat="47.28877" lon="-1.56562">
        <ele>23</ele>
        <time>2023-11-03T11:46:45Z</time>
      </trkpt>
      <trkpt lat="47.2887" lon="-1.56588">
        <ele>21</ele>
        <time>2023-11-03T11:47:10Z</time>
      </trkpt>
      <trkpt lat="47.28859" lon="-1.56611">
        <ele>20</ele>
        <time>2023-11-03T11:47:36Z</time>
      </trkpt>
      <trkpt lat="47.28853" lon="-1.56637">
        <ele>18</ele>
        <time>2023-11-03T11:48:01Z</time>
      </trkpt>
      <trkpt lat="47.28848" lon="-1.56666">
        <ele>16</ele>
        <time>2023-11-03T11:48:28Z</time>
      </trkpt>
      <trkpt lat="47.28845" lon="-1.56693">
        <ele>16</ele>
        <time>2023-11-03T11:48:53Z</time>
      </trkpt>
      <trkpt lat="47.28843" lon="-1.5672">
        <ele>16</ele>
        <time>2023-11-03T11:49:17Z</time>
      </trkpt>
      <trkpt lat="47.28839" lon="-1.56747">
        <ele>15</ele>
        <time>2023-11-03T11:49:42Z</time>
      </trkpt>
      <trkpt lat="47.28823" lon="-1.56759">
        <ele>15</ele>
        <time>2023-11-03T11:50:06Z</time>
      </trkpt>
      <trkpt lat="47.28804" lon="-1.56758">
        <ele>14</ele>
        <time>2023-11-03T11:50:32Z</time>
      </trkpt>
      <trkpt lat="47.28786" lon="-1.56751">
        <ele>13</ele>
        <time>2023-11-03T11:50:56Z</time>
      </trkpt>
      <trkpt lat="47.28768" lon="-1.56744">
        <ele>13</ele>
        <time>2023-11-03T11:51:21Z</time>
      </trkpt>
      <trkpt lat="47.2875" lon="-1.56739">
        <ele>12</ele>
        <time>2023-11-03T11:51:46Z</time>
      </trkpt>
      <trkpt lat="47.28734" lon="-1.56727">
        <ele>12</ele>
        <time>2023-11-03T11:52:10Z</time>
      </trkpt>
      <trkpt lat="47.28717" lon="-1.56714">
        <ele>13</ele>
        <time>2023-11-03T11:52:35Z</time>
      </trkpt>
      <trkpt lat="47.28702" lon="-1.56696">
        <ele>13</ele>
        <time>2023-11-03T11:53:01Z</time>
      </trkpt>
      <trkpt lat="47.28686" lon="-1.56685">
        <ele>13</ele>
        <time>2023-11-03T11:53:25Z</time>
      </trkpt>
      <trkpt lat="47.28649" lon="-1.56678">
        <ele>13</ele>
        <time>2023-11-03T11:54:14Z</time>
      </trkpt>
      <trkpt lat="47.28631" lon="-1.56673">
        <ele>13</ele>
        <time>2023-11-03T11:54:39Z</time>
      </trkpt>
      <trkpt lat="47.28613" lon="-1.56667">
        <ele>12</ele>
        <time>2023-11-03T11:55:03Z</time>
      </trkpt>
      <trkpt lat="47.28597" lon="-1.56654">
        <ele>12</ele>
        <time>2023-11-03T11:55:28Z</time>
      </trkpt>
      <trkpt lat="47.2858" lon="-1.56641">
        <ele>13</ele>
        <time>2023-11-03T11:55:53Z</time>
      </trkpt>
      <trkpt lat="47.28572" lon="-1.56617">
        <ele>14</ele>
        <time>2023-11-03T11:56:18Z</time>
      </trkpt>
      <trkpt lat="47.2856" lon="-1.56596">
        <ele>15</ele>
        <time>2023-11-03T11:56:42Z</time>
      </trkpt>
      <trkpt lat="47.28562" lon="-1.5657">
        <ele>16</ele>
        <time>2023-11-03T11:57:06Z</time>
      </trkpt>
      <trkpt lat="47.28553" lon="-1.56546">
        <ele>18</ele>
        <time>2023-11-03T11:57:31Z</time>
      </trkpt>
      <trkpt lat="47.28551" lon="-1.5652">
        <ele>21</ele>
        <time>2023-11-03T11:57:55Z</time>
      </trkpt>
      <trkpt lat="47.28545" lon="-1.56494">
        <ele>23</ele>
        <time>2023-11-03T11:58:19Z</time>
      </trkpt>
      <trkpt lat="47.28532" lon="-1.56474">
        <ele>24</ele>
        <time>2023-11-03T11:58:45Z</time>
      </trkpt>
      <trkpt lat="47.28513" lon="-1.56468">
        <ele>24</ele>
        <time>2023-11-03T11:59:10Z</time>
      </trkpt>
      <trkpt lat="47.28495" lon="-1.56463">
        <ele>24</ele>
        <time>2023-11-03T11:59:35Z</time>
      </trkpt>
      <trkpt lat="47.28478" lon="-1.56476">
        <ele>22</ele>
        <time>2023-11-03T12:00:00Z</time>
      </trkpt>
      <trkpt lat="47.2846" lon="-1.56481">
        <ele>20</ele>
        <time>2023-11-03T12:00:25Z</time>
      </trkpt>
      <trkpt lat="47.28442" lon="-1.56488">
        <ele>19</ele>
        <time>2023-11-03T12:00:50Z</time>
      </trkpt>
      <trkpt lat="47.28424" lon="-1.56491">
        <ele>17</ele>
        <time>2023-11-03T12:01:14Z</time>
      </trkpt>
      <trkpt lat="47.28406" lon="-1.56482">
        <ele>18</ele>
        <time>2023-11-03T12:01:39Z</time>
      </trkpt>
      <trkpt lat="47.28388" lon="-1.56477">
        <ele>18</ele>
        <time>2023-11-03T12:02:04Z</time>
      </trkpt>
      <trkpt lat="47.28371" lon="-1.56487">
        <ele>17</ele>
        <time>2023-11-03T12:02:28Z</time>
      </trkpt>
      <trkpt lat="47.28355" lon="-1.56473">
        <ele>18</ele>
        <time>2023-11-03T12:02:53Z</time>
      </trkpt>
      <trkpt lat="47.28337" lon="-1.56474">
        <ele>18</ele>
        <time>2023-11-03T12:03:17Z</time>
      </trkpt>
      <trkpt lat="47.28318" lon="-1.56481">
        <ele>18</ele>
        <time>2023-11-03T12:03:43Z</time>
      </trkpt>
      <trkpt lat="47.28299" lon="-1.5648">
        <ele>18</ele>
        <time>2023-11-03T12:04:09Z</time>
      </trkpt>
      <trkpt lat="47.28281" lon="-1.56482">
        <ele>19</ele>
        <time>2023-11-03T12:04:33Z</time>
      </trkpt>
      <trkpt lat="47.28263" lon="-1.56482">
        <ele>19</ele>
        <time>2023-11-03T12:04:57Z</time>
      </trkpt>
      <trkpt lat="47.28245" lon="-1.56486">
        <ele>20</ele>
        <time>2023-11-03T12:05:21Z</time>
      </trkpt>
      <trkpt lat="47.28228" lon="-1.56497">
        <ele>21</ele>
        <time>2023-11-03T12:05:46Z</time>
      </trkpt>
      <trkpt lat="47.28214" lon="-1.56516">
        <ele>21</ele>
        <time>2023-11-03T12:06:11Z</time>
      </trkpt>
      <trkpt lat="47.282" lon="-1.56534">
        <ele>21</ele>
        <time>2023-11-03T12:06:36Z</time>
      </trkpt>
      <trkpt lat="47.28188" lon="-1.56556">
        <ele>19</ele>
        <time>2023-11-03T12:07:01Z</time>
      </trkpt>
      <trkpt lat="47.28173" lon="-1.56573">
        <ele>19</ele>
        <time>2023-11-03T12:07:27Z</time>
      </trkpt>
      <trkpt lat="47.28137" lon="-1.56589">
        <ele>19</ele>
        <time>2023-11-03T12:08:17Z</time>
      </trkpt>
      <trkpt lat="47.28119" lon="-1.56591">
        <ele>20</ele>
        <time>2023-11-03T12:08:41Z</time>
      </trkpt>
      <trkpt lat="47.28102" lon="-1.56601">
        <ele>20</ele>
        <time>2023-11-03T12:09:05Z</time>
      </trkpt>
      <trkpt lat="47.28085" lon="-1.5661">
        <ele>20</ele>
        <time>2023-11-03T12:09:30Z</time>
      </trkpt>
      <trkpt lat="47.28067" lon="-1.56616">
        <ele>19</ele>
        <time>2023-11-03T12:09:54Z</time>
      </trkpt>
      <trkpt lat="47.28048" lon="-1.56617">
        <ele>19</ele>
        <time>2023-11-03T12:10:20Z</time>
      </trkpt>
      <trkpt lat="47.2803" lon="-1.56617">
        <ele>19</ele>
        <time>2023-11-03T12:10:44Z</time>
      </trkpt>
      <trkpt lat="47.28011" lon="-1.56616">
        <ele>19</ele>
        <time>2023-11-03T12:11:09Z</time>
      </trkpt>
      <trkpt lat="47.27993" lon="-1.56611">
        <ele>19</ele>
        <time>2023-11-03T12:11:33Z</time>
      </trkpt>
      <trkpt lat="47.27975" lon="-1.56602">
        <ele>19</ele>
        <time>2023-11-03T12:11:59Z</time>
      </trkpt>
      <trkpt lat="47.27957" lon="-1.56602">
        <ele>18</ele>
        <time>2023-11-03T12:12:23Z</time>
      </trkpt>
      <trkpt lat="47.27938" lon="-1.56605">
        <ele>17</ele>
        <time>2023-11-03T12:12:48Z</time>
      </trkpt>
      <trkpt lat="47.2792" lon="-1.56606">
        <ele>16</ele>
        <time>2023-11-03T12:13:12Z</time>
      </trkpt>
      <trkpt lat="47.27937" lon="-1.56615">
        <ele>17</ele>
        <time>2023-11-03T12:13:36Z</time>
      </trkpt>
      <trkpt lat="47.27943" lon="-1.56641">
        <ele>16</ele>
        <time>2023-11-03T12:14:01Z</time>
      </trkpt>
      <trkpt lat="47.27942" lon="-1.56669">
        <ele>16</ele>
        <time>2023-11-03T12:14:27Z</time>
      </trkpt>
      <trkpt lat="47.27923" lon="-1.56669">
        <ele>16</ele>
        <time>2023-11-03T12:14:52Z</time>
      </trkpt>
      <trkpt lat="47.27904" lon="-1.5667">
        <ele>17</ele>
        <time>2023-11-03T12:15:17Z</time>
      </trkpt>
      <trkpt lat="47.27887" lon="-1.5668">
        <ele>18</ele>
        <time>2023-11-03T12:15:42Z</time>
      </trkpt>
      <trkpt lat="47.27882" lon="-1.56706">
        <ele>22</ele>
        <time>2023-11-03T12:16:06Z</time>
      </trkpt>
      <trkpt lat="47.27863" lon="-1.56707">
        <ele>22</ele>
        <time>2023-11-03T12:16:32Z</time>
      </trkpt>
      <trkpt lat="47.27846" lon="-1.56715">
        <ele>23</ele>
        <time>2023-11-03T12:16:55Z</time>
      </trkpt>
      <trkpt lat="47.27828" lon="-1.56722">
        <ele>25</ele>
        <time>2023-11-03T12:17:20Z</time>
      </trkpt>
      <trkpt lat="47.27818" lon="-1.56745">
        <ele>28</ele>
        <time>2023-11-03T12:17:45Z</time>
      </trkpt>
      <trkpt lat="47.27806" lon="-1.56765">
        <ele>30</ele>
        <time>2023-11-03T12:18:09Z</time>
      </trkpt>
      <trkpt lat="47.27789" lon="-1.56775">
        <ele>31</ele>
        <time>2023-11-03T12:18:34Z</time>
      </trkpt>
      <trkpt lat="47.27773" lon="-1.56789">
        <ele>32</ele>
        <time>2023-11-03T12:18:58Z</time>
      </trkpt>
      <trkpt lat="47.27758" lon="-1.56803">
        <ele>33</ele>
        <time>2023-11-03T12:19:22Z</time>
      </trkpt>
      <trkpt lat="47.27728" lon="-1.56835">
        <ele>34</ele>
        <time>2023-11-03T12:20:12Z</time>
      </trkpt>
      <trkpt lat="47.27713" lon="-1.56852">
        <ele>34</ele>
        <time>2023-11-03T12:20:37Z</time>
      </trkpt>
      <trkpt lat="47.27699" lon="-1.5687">
        <ele>33</ele>
        <time>2023-11-03T12:21:02Z</time>
      </trkpt>
      <trkpt lat="47.27684" lon="-1.56887">
        <ele>33</ele>
        <time>2023-11-03T12:21:27Z</time>
      </trkpt>
      <trkpt lat="47.2767" lon="-1.56905">
        <ele>33</ele>
        <time>2023-11-03T12:21:52Z</time>
      </trkpt>
      <trkpt lat="47.27655" lon="-1.56921">
        <ele>34</ele>
        <time>2023-11-03T12:22:16Z</time>
      </trkpt>
      <trkpt lat="47.27641" lon="-1.56938">
        <ele>35</ele>
        <time>2023-11-03T12:22:41Z</time>
      </trkpt>
      <trkpt lat="47.27626" lon="-1.56957">
        <ele>36</ele>
        <time>2023-11-03T12:23:07Z</time>
      </trkpt>
      <trkpt lat="47.27613" lon="-1.56975">
        <ele>37</ele>
        <time>2023-11-03T12:23:31Z</time>
      </trkpt>
      <trkpt lat="47.27598" lon="-1.56992">
        <ele>38</ele>
        <time>2023-11-03T12:23:56Z</time>
      </trkpt>
      <trkpt lat="47.27583" lon="-1.5701">
        <ele>39</ele>
        <time>2023-11-03T12:24:22Z</time>
      </trkpt>
      <trkpt lat="47.2757" lon="-1.57028">
        <ele>39</ele>
        <time>2023-11-03T12:24:46Z</time>
      </trkpt>
      <trkpt lat="47.27544" lon="-1.57069">
        <ele>39</ele>
        <time>2023-11-03T12:25:36Z</time>
      </trkpt>
      <trkpt lat="47.27534" lon="-1.5709">
        <ele>39</ele>
        <time>2023-11-03T12:26:00Z</time>
      </trkpt>
      <trkpt lat="47.27518" lon="-1.57105">
        <ele>39</ele>
        <time>2023-11-03T12:26:25Z</time>
      </trkpt>
      <trkpt lat="47.27503" lon="-1.57119">
        <ele>39</ele>
        <time>2023-11-03T12:26:49Z</time>
      </trkpt>
      <trkpt lat="47.27486" lon="-1.57131">
        <ele>38</ele>
        <time>2023-11-03T12:27:14Z</time>
      </trkpt>
      <trkpt lat="47.27469" lon="-1.5714">
        <ele>38</ele>
        <time>2023-11-03T12:27:38Z</time>
      </trkpt>
      <trkpt lat="47.2745" lon="-1.57147">
        <ele>37</ele>
        <time>2023-11-03T12:28:04Z</time>
      </trkpt>
      <trkpt lat="47.27433" lon="-1.57154">
        <ele>36</ele>
        <time>2023-11-03T12:28:28Z</time>
      </trkpt>
      <trkpt lat="47.27428" lon="-1.57209">
        <ele>37</ele>
        <time>2023-11-03T12:29:18Z</time>
      </trkpt>
      <trkpt lat="47.27424" lon="-1.57264">
        <ele>39</ele>
        <time>2023-11-03T12:30:08Z</time>
      </trkpt>
      <trkpt lat="47.27421" lon="-1.57292">
        <ele>39</ele>
        <time>2023-11-03T12:30:34Z</time>
      </trkpt>
      <trkpt lat="47.27414" lon="-1.57346">
        <ele>40</ele>
        <time>2023-11-03T12:31:23Z</time>
      </trkpt>
      <trkpt lat="47.27411" lon="-1.57372">
        <ele>39</ele>
        <time>2023-11-03T12:31:47Z</time>
      </trkpt>
      <trkpt lat="47.27408" lon="-1.57399">
        <ele>39</ele>
        <time>2023-11-03T12:32:12Z</time>
      </trkpt>
      <trkpt lat="47.27402" lon="-1.57424">
        <ele>39</ele>
        <time>2023-11-03T12:32:36Z</time>
      </trkpt>
      <trkpt lat="47.27398" lon="-1.57451">
        <ele>39</ele>
        <time>2023-11-03T12:33:01Z</time>
      </trkpt>
      <trkpt lat="47.27395" lon="-1.57479">
        <ele>39</ele>
        <time>2023-11-03T12:33:27Z</time>
      </trkpt>
      <trkpt lat="47.27394" lon="-1.57507">
        <ele>39</ele>
        <time>2023-11-03T12:33:52Z</time>
      </trkpt>
      <trkpt lat="47.27403" lon="-1.57531">
        <ele>39</ele>
        <time>2023-11-03T12:34:17Z</time>
      </trkpt>
      <trkpt lat="47.2744" lon="-1.57544">
        <ele>40</ele>
        <time>2023-11-03T12:35:08Z</time>
      </trkpt>
      <trkpt lat="47.27455" lon="-1.5756">
        <ele>40</ele>
        <time>2023-11-03T12:35:32Z</time>
      </trkpt>
      <trkpt lat="47.27469" lon="-1.57578">
        <ele>41</ele>
        <time>2023-11-03T12:35:57Z</time>
      </trkpt>
      <trkpt lat="47.2748" lon="-1.57599">
        <ele>41</ele>
        <time>2023-11-03T12:36:21Z</time>
      </trkpt>
      <trkpt lat="47.2749" lon="-1.57623">
        <ele>41</ele>
        <time>2023-11-03T12:36:47Z</time>
      </trkpt>
      <trkpt lat="47.27485" lon="-1.57649">
        <ele>41</ele>
        <time>2023-11-03T12:37:11Z</time>
      </trkpt>
      <trkpt lat="47.27476" lon="-1.57674">
        <ele>40</ele>
        <time>2023-11-03T12:37:37Z</time>
      </trkpt>
      <trkpt lat="47.27466" lon="-1.57697">
        <ele>39</ele>
        <time>2023-11-03T12:38:02Z</time>
      </trkpt>
      <trkpt lat="47.27459" lon="-1.57722">
        <ele>39</ele>
        <time>2023-11-03T12:38:26Z</time>
      </trkpt>
      <trkpt lat="47.2745" lon="-1.57745">
        <ele>38</ele>
        <time>2023-11-03T12:38:50Z</time>
      </trkpt>
      <trkpt lat="47.27444" lon="-1.5777">
        <ele>38</ele>
        <time>2023-11-03T12:39:14Z</time>
      </trkpt>
      <trkpt lat="47.2744" lon="-1.57797">
        <ele>38</ele>
        <time>2023-11-03T12:39:39Z</time>
      </trkpt>
      <trkpt lat="47.27436" lon="-1.57823">
        <ele>38</ele>
        <time>2023-11-03T12:40:03Z</time>
      </trkpt>
      <trkpt lat="47.27435" lon="-1.5785">
        <ele>38</ele>
        <time>2023-11-03T12:40:28Z</time>
      </trkpt>
      <trkpt lat="47.27432" lon="-1.57877">
        <ele>39</ele>
        <time>2023-11-03T12:40:52Z</time>
      </trkpt>
      <trkpt lat="47.2742" lon="-1.57958">
        <ele>40</ele>
        <time>2023-11-03T12:42:08Z</time>
      </trkpt>
      <trkpt lat="47.27416" lon="-1.57985">
        <ele>41</ele>
        <time>2023-11-03T12:42:33Z</time>
      </trkpt>
      <trkpt lat="47.27412" lon="-1.58011">
        <ele>42</ele>
        <time>2023-11-03T12:42:57Z</time>
      </trkpt>
      <trkpt lat="47.27409" lon="-1.58038">
        <ele>42</ele>
        <time>2023-11-03T12:43:21Z</time>
      </trkpt>
      <trkpt lat="47.27412" lon="-1.58066">
        <ele>43</ele>
        <time>2023-11-03T12:43:47Z</time>
      </trkpt>
      <trkpt lat="47.2741" lon="-1.58093">
        <ele>43</ele>
        <time>2023-11-03T12:44:12Z</time>
      </trkpt>
      <trkpt lat="47.27404" lon="-1.58119">
        <ele>42</ele>
        <time>2023-11-03T12:44:37Z</time>
      </trkpt>
      <trkpt lat="47.27398" lon="-1.58145">
        <ele>42</ele>
        <time>2023-11-03T12:45:01Z</time>
      </trkpt>
      <trkpt lat="47.2739" lon="-1.5817">
        <ele>41</ele>
        <time>2023-11-03T12:45:26Z</time>
      </trkpt>
      <trkpt lat="47.27374" lon="-1.58184">
        <ele>41</ele>
        <time>2023-11-03T12:45:51Z</time>
      </trkpt>
      <trkpt lat="47.27362" lon="-1.58205">
        <ele>41</ele>
        <time>2023-11-03T12:46:16Z</time>
      </trkpt>
      <trkpt lat="47.27355" lon="-1.5823">
        <ele>41</ele>
        <time>2023-11-03T12:46:41Z</time>
      </trkpt>
      <trkpt lat="47.27342" lon="-1.58281">
        <ele>41</ele>
        <time>2023-11-03T12:47:30Z</time>
      </trkpt>
      <trkpt lat="47.27336" lon="-1.58307">
        <ele>41</ele>
        <time>2023-11-03T12:47:55Z</time>
      </trkpt>
      <trkpt lat="47.27331" lon="-1.58333">
        <ele>42</ele>
        <time>2023-11-03T12:48:19Z</time>
      </trkpt>
      <trkpt lat="47.27322" lon="-1.58358">
        <ele>44</ele>
        <time>2023-11-03T12:48:45Z</time>
      </trkpt>
      <trkpt lat="47.27316" lon="-1.58385">
        <ele>45</ele>
        <time>2023-11-03T12:49:11Z</time>
      </trkpt>
      <trkpt lat="47.27324" lon="-1.58409">
        <ele>46</ele>
        <time>2023-11-03T12:49:35Z</time>
      </trkpt>
      <trkpt lat="47.27343" lon="-1.58405">
        <ele>47</ele>
        <time>2023-11-03T12:50:01Z</time>
      </trkpt>
      <trkpt lat="47.2736" lon="-1.58411">
        <ele>47</ele>
        <time>2023-11-03T12:50:24Z</time>
      </trkpt>
      <trkpt lat="47.27378" lon="-1.58419">
        <ele>48</ele>
        <time>2023-11-03T12:50:49Z</time>
      </trkpt>
      <trkpt lat="47.27397" lon="-1.58422">
        <ele>48</ele>
        <time>2023-11-03T12:51:14Z</time>
      </trkpt>
      <trkpt lat="47.27434" lon="-1.58429">
        <ele>50</ele>
        <time>2023-11-03T12:52:04Z</time>
      </trkpt>
      <trkpt lat="47.27452" lon="-1.58434">
        <ele>50</ele>
        <time>2023-11-03T12:52:29Z</time>
      </trkpt>
      <trkpt lat="47.2747" lon="-1.58435">
        <ele>51</ele>
        <time>2023-11-03T12:52:53Z</time>
      </trkpt>
      <trkpt lat="47.27488" lon="-1.58444">
        <ele>52</ele>
        <time>2023-11-03T12:53:18Z</time>
      </trkpt>
      <trkpt lat="47.27507" lon="-1.58446">
        <ele>52</ele>
        <time>2023-11-03T12:53:43Z</time>
      </trkpt>
      <trkpt lat="47.27525" lon="-1.58453">
        <ele>52</ele>
        <time>2023-11-03T12:54:08Z</time>
      </trkpt>
      <trkpt lat="47.27544" lon="-1.58455">
        <ele>52</ele>
        <time>2023-11-03T12:54:34Z</time>
      </trkpt>
      <trkpt lat="47.27558" lon="-1.58472">
        <ele>53</ele>
        <time>2023-11-03T12:54:58Z</time>
      </trkpt>
      <trkpt lat="47.27576" lon="-1.58478">
        <ele>52</ele>
        <time>2023-11-03T12:55:23Z</time>
      </trkpt>
      <trkpt lat="47.27594" lon="-1.58486">
        <ele>52</ele>
        <time>2023-11-03T12:55:48Z</time>
      </trkpt>
      <trkpt lat="47.27611" lon="-1.58495">
        <ele>51</ele>
        <time>2023-11-03T12:56:12Z</time>
      </trkpt>
      <trkpt lat="47.2763" lon="-1.58503">
        <ele>51</ele>
        <time>2023-11-03T12:56:38Z</time>
      </trkpt>
      <trkpt lat="47.27647" lon="-1.58514">
        <ele>50</ele>
        <time>2023-11-03T12:57:03Z</time>
      </trkpt>
      <trkpt lat="47.27664" lon="-1.58522">
        <ele>50</ele>
        <time>2023-11-03T12:57:27Z</time>
      </trkpt>
      <trkpt lat="47.27699" lon="-1.5854">
        <ele>51</ele>
        <time>2023-11-03T12:58:16Z</time>
      </trkpt>
      <trkpt lat="47.27717" lon="-1.58547">
        <ele>52</ele>
        <time>2023-11-03T12:58:41Z</time>
      </trkpt>
      <trkpt lat="47.27734" lon="-1.58556">
        <ele>53</ele>
        <time>2023-11-03T12:59:05Z</time>
      </trkpt>
      <trkpt lat="47.27752" lon="-1.58563">
        <ele>53</ele>
        <time>2023-11-03T12:59:30Z</time>
      </trkpt>
      <trkpt lat="47.27769" lon="-1.58572">
        <ele>53</ele>
        <time>2023-11-03T12:59:54Z</time>
      </trkpt>
      <trkpt lat="47.27787" lon="-1.5858">
        <ele>53</ele>
        <time>2023-11-03T13:00:19Z</time>
      </trkpt>
      <trkpt lat="47.27805" lon="-1.58585">
        <ele>52</ele>
        <time>2023-11-03T13:00:44Z</time>
      </trkpt>
      <trkpt lat="47.27824" lon="-1.58586">
        <ele>52</ele>
        <time>2023-11-03T13:01:09Z</time>
      </trkpt>
      <trkpt lat="47.27843" lon="-1.58591">
        <ele>52</ele>
        <time>2023-11-03T13:01:35Z</time>
      </trkpt>
      <trkpt lat="47.2786" lon="-1.58598">
        <ele>52</ele>
        <time>2023-11-03T13:01:58Z</time>
      </trkpt>
      <trkpt lat="47.27879" lon="-1.58603">
        <ele>53</ele>
        <time>2023-11-03T13:02:24Z</time>
      </trkpt>
      <trkpt lat="47.27898" lon="-1.58603">
        <ele>53</ele>
        <time>2023-11-03T13:02:49Z</time>
      </trkpt>
      <trkpt lat="47.27917" lon="-1.58605">
        <ele>53</ele>
        <time>2023-11-03T13:03:15Z</time>
      </trkpt>
      <trkpt lat="47.27917" lon="-1.58632">
        <ele>53</ele>
        <time>2023-11-03T13:03:39Z</time>
      </trkpt>
      <trkpt lat="47.27934" lon="-1.58643">
        <ele>53</ele>
        <time>2023-11-03T13:04:04Z</time>
      </trkpt>
      <trkpt lat="47.27953" lon="-1.58642">
        <ele>53</ele>
        <time>2023-11-03T13:04:29Z</time>
      </trkpt>
      <trkpt lat="47.27971" lon="-1.58639">
        <ele>53</ele>
        <time>2023-11-03T13:04:54Z</time>
      </trkpt>
      <trkpt lat="47.27989" lon="-1.58637">
        <ele>53</ele>
        <time>2023-11-03T13:05:18Z</time>
      </trkpt>
      <trkpt lat="47.28008" lon="-1.58637">
        <ele>53</ele>
        <time>2023-11-03T13:05:43Z</time>
      </trkpt>
      <trkpt lat="47.28026" lon="-1.58639">
        <ele>53</ele>
        <time>2023-11-03T13:06:07Z</time>
      </trkpt>
      <trkpt lat="47.28044" lon="-1.58642">
        <ele>52</ele>
        <time>2023-11-03T13:06:31Z</time>
      </trkpt>
      <trkpt lat="47.28062" lon="-1.58644">
        <ele>52</ele>
        <time>2023-11-03T13:06:55Z</time>
      </trkpt>
      <trkpt lat="47.28081" lon="-1.58646">
        <ele>52</ele>
        <time>2023-11-03T13:07:21Z</time>
      </trkpt>
      <trkpt lat="47.281" lon="-1.58648">
        <ele>51</ele>
        <time>2023-11-03T13:07:46Z</time>
      </trkpt>
      <trkpt lat="47.28155" lon="-1.58656">
        <ele>50</ele>
        <time>2023-11-03T13:09:00Z</time>
      </trkpt>
      <trkpt lat="47.28174" lon="-1.5866">
        <ele>50</ele>
        <time>2023-11-03T13:09:26Z</time>
      </trkpt>
      <trkpt lat="47.28166" lon="-1.58685">
        <ele>50</ele>
        <time>2023-11-03T13:09:51Z</time>
      </trkpt>
      <trkpt lat="47.28156" lon="-1.58709">
        <ele>50</ele>
        <time>2023-11-03T13:10:16Z</time>
      </trkpt>
      <trkpt lat="47.28146" lon="-1.58733">
        <ele>50</ele>
        <time>2023-11-03T13:10:42Z</time>
      </trkpt>
      <trkpt lat="47.2814" lon="-1.58759">
        <ele>50</ele>
        <time>2023-11-03T13:11:06Z</time>
      </trkpt>
      <trkpt lat="47.28141" lon="-1.58787">
        <ele>50</ele>
        <time>2023-11-03T13:11:32Z</time>
      </trkpt>
      <trkpt lat="47.28152" lon="-1.58808">
        <ele>50</ele>
        <time>2023-11-03T13:11:56Z</time>
      </trkpt>
      <trkpt lat="47.28187" lon="-1.58827">
        <ele>49</ele>
        <time>2023-11-03T13:12:46Z</time>
      </trkpt>
      <trkpt lat="47.28202" lon="-1.58841">
        <ele>49</ele>
        <time>2023-11-03T13:13:09Z</time>
      </trkpt>
      <trkpt lat="47.28217" lon="-1.58857">
        <ele>49</ele>
        <time>2023-11-03T13:13:34Z</time>
      </trkpt>
      <trkpt lat="47.28219" lon="-1.58884">
        <ele>49</ele>
        <time>2023-11-03T13:13:59Z</time>
      </trkpt>
      <trkpt lat="47.28197" lon="-1.58928">
        <ele>50</ele>
        <time>2023-11-03T13:14:48Z</time>
      </trkpt>
      <trkpt lat="47.28185" lon="-1.58949">
        <ele>51</ele>
        <time>2023-11-03T13:15:13Z</time>
      </trkpt>
      <trkpt lat="47.28173" lon="-1.5897">
        <ele>51</ele>
        <time>2023-11-03T13:15:38Z</time>
      </trkpt>
      <trkpt lat="47.2816" lon="-1.58991">
        <ele>52</ele>
        <time>2023-11-03T13:16:04Z</time>
      </trkpt>
      <trkpt lat="47.28136" lon="-1.59031">
        <ele>53</ele>
        <time>2023-11-03T13:16:52Z</time>
      </trkpt>
      <trkpt lat="47.28124" lon="-1.59052">
        <ele>53</ele>
        <time>2023-11-03T13:17:17Z</time>
      </trkpt>
      <trkpt lat="47.28112" lon="-1.59073">
        <ele>53</ele>
        <time>2023-11-03T13:17:42Z</time>
      </trkpt>
      <trkpt lat="47.28099" lon="-1.59092">
        <ele>53</ele>
        <time>2023-11-03T13:18:06Z</time>
      </trkpt>
      <trkpt lat="47.28085" lon="-1.59111">
        <ele>53</ele>
        <time>2023-11-03T13:18:31Z</time>
      </trkpt>
      <trkpt lat="47.28095" lon="-1.59134">
        <ele>53</ele>
        <time>2023-11-03T13:18:56Z</time>
      </trkpt>
      <trkpt lat="47.28095" lon="-1.59161">
        <ele>53</ele>
        <time>2023-11-03T13:19:21Z</time>
      </trkpt>
      <trkpt lat="47.28107" lon="-1.59182">
        <ele>53</ele>
        <time>2023-11-03T13:19:45Z</time>
      </trkpt>
      <trkpt lat="47.28121" lon="-1.592">
        <ele>53</ele>
        <time>2023-11-03T13:20:10Z</time>
      </trkpt>
      <trkpt lat="47.28136" lon="-1.59216">
        <ele>53</ele>
        <time>2023-11-03T13:20:35Z</time>
      </trkpt>
      <trkpt lat="47.28151" lon="-1.59234">
        <ele>52</ele>
        <time>2023-11-03T13:21:01Z</time>
      </trkpt>
      <trkpt lat="47.28166" lon="-1.5925">
        <ele>52</ele>
        <time>2023-11-03T13:21:25Z</time>
      </trkpt>
      <trkpt lat="47.28181" lon="-1.59268">
        <ele>52</ele>
        <time>2023-11-03T13:21:51Z</time>
      </trkpt>
      <trkpt lat="47.28194" lon="-1.59287">
        <ele>52</ele>
        <time>2023-11-03T13:22:16Z</time>
      </trkpt>
      <trkpt lat="47.2821" lon="-1.59301">
        <ele>53</ele>
        <time>2023-11-03T13:22:41Z</time>
      </trkpt>
      <trkpt lat="47.28219" lon="-1.59325">
        <ele>53</ele>
        <time>2023-11-03T13:23:05Z</time>
      </trkpt>
      <trkpt lat="47.28231" lon="-1.59347">
        <ele>54</ele>
        <time>2023-11-03T13:23:31Z</time>
      </trkpt>
      <trkpt lat="47.28248" lon="-1.59359">
        <ele>54</ele>
        <time>2023-11-03T13:23:56Z</time>
      </trkpt>
      <trkpt lat="47.28265" lon="-1.59373">
        <ele>54</ele>
        <time>2023-11-03T13:24:22Z</time>
      </trkpt>
      <trkpt lat="47.28281" lon="-1.59386">
        <ele>55</ele>
        <time>2023-11-03T13:24:46Z</time>
      </trkpt>
      <trkpt lat="47.28314" lon="-1.59412">
        <ele>54</ele>
        <time>2023-11-03T13:25:36Z</time>
      </trkpt>
      <trkpt lat="47.28332" lon="-1.59419">
        <ele>54</ele>
        <time>2023-11-03T13:26:01Z</time>
      </trkpt>
      <trkpt lat="47.2835" lon="-1.59424">
        <ele>54</ele>
        <time>2023-11-03T13:26:26Z</time>
      </trkpt>
      <trkpt lat="47.28368" lon="-1.59427">
        <ele>54</ele>
        <time>2023-11-03T13:26:50Z</time>
      </trkpt>
      <trkpt lat="47.28387" lon="-1.59433">
        <ele>54</ele>
        <time>2023-11-03T13:27:16Z</time>
      </trkpt>
      <trkpt lat="47.28424" lon="-1.59443">
        <ele>53</ele>
        <time>2023-11-03T13:28:06Z</time>
      </trkpt>
      <trkpt lat="47.28442" lon="-1.59449">
        <ele>54</ele>
        <time>2023-11-03T13:28:31Z</time>
      </trkpt>
      <trkpt lat="47.28461" lon="-1.59454">
        <ele>54</ele>
        <time>2023-11-03T13:28:56Z</time>
      </trkpt>
      <trkpt lat="47.28479" lon="-1.59459">
        <ele>54</ele>
        <time>2023-11-03T13:29:21Z</time>
      </trkpt>
      <trkpt lat="47.28497" lon="-1.59463">
        <ele>54</ele>
        <time>2023-11-03T13:29:45Z</time>
      </trkpt>
      <trkpt lat="47.28516" lon="-1.59468">
        <ele>53</ele>
        <time>2023-11-03T13:30:11Z</time>
      </trkpt>
      <trkpt lat="47.28534" lon="-1.59473">
        <ele>53</ele>
        <time>2023-11-03T13:30:35Z</time>
      </trkpt>
      <trkpt lat="47.28553" lon="-1.59477">
        <ele>52</ele>
        <time>2023-11-03T13:31:01Z</time>
      </trkpt>
      <trkpt lat="47.28589" lon="-1.5949">
        <ele>51</ele>
        <time>2023-11-03T13:31:50Z</time>
      </trkpt>
      <trkpt lat="47.28625" lon="-1.59501">
        <ele>51</ele>
        <time>2023-11-03T13:32:39Z</time>
      </trkpt>
      <trkpt lat="47.28643" lon="-1.59504">
        <ele>52</ele>
        <time>2023-11-03T13:33:04Z</time>
      </trkpt>
      <trkpt lat="47.28661" lon="-1.59509">
        <ele>52</ele>
        <time>2023-11-03T13:33:28Z</time>
      </trkpt>
      <trkpt lat="47.2868" lon="-1.59514">
        <ele>52</ele>
        <time>2023-11-03T13:33:54Z</time>
      </trkpt>
      <trkpt lat="47.28712" lon="-1.59539">
        <ele>52</ele>
        <time>2023-11-03T13:34:42Z</time>
      </trkpt>
      <trkpt lat="47.28729" lon="-1.59552">
        <ele>52</ele>
        <time>2023-11-03T13:35:08Z</time>
      </trkpt>
      <trkpt lat="47.28744" lon="-1.59568">
        <ele>52</ele>
        <time>2023-11-03T13:35:32Z</time>
      </trkpt>
      <trkpt lat="47.28758" lon="-1.59587">
        <ele>52</ele>
        <time>2023-11-03T13:35:58Z</time>
      </trkpt>
      <trkpt lat="47.28773" lon="-1.59603">
        <ele>53</ele>
        <time>2023-11-03T13:36:22Z</time>
      </trkpt>
      <trkpt lat="47.28788" lon="-1.5962">
        <ele>53</ele>
        <time>2023-11-03T13:36:48Z</time>
      </trkpt>
      <trkpt lat="47.28803" lon="-1.59636">
        <ele>54</ele>
        <time>2023-11-03T13:37:12Z</time>
      </trkpt>
      <trkpt lat="47.28819" lon="-1.59648">
        <ele>55</ele>
        <time>2023-11-03T13:37:36Z</time>
      </trkpt>
      <trkpt lat="47.28837" lon="-1.59653">
        <ele>56</ele>
        <time>2023-11-03T13:38:01Z</time>
      </trkpt>
      <trkpt lat="47.28856" lon="-1.59651">
        <ele>56</ele>
        <time>2023-11-03T13:38:26Z</time>
      </trkpt>
      <trkpt lat="47.28875" lon="-1.59648">
        <ele>57</ele>
        <time>2023-11-03T13:38:52Z</time>
      </trkpt>
      <trkpt lat="47.28893" lon="-1.59646">
        <ele>57</ele>
        <time>2023-11-03T13:39:16Z</time>
      </trkpt>
      <trkpt lat="47.28912" lon="-1.59646">
        <ele>58</ele>
        <time>2023-11-03T13:39:41Z</time>
      </trkpt>
      <trkpt lat="47.2893" lon="-1.59637">
        <ele>58</ele>
        <time>2023-11-03T13:40:07Z</time>
      </trkpt>
      <trkpt lat="47.28945" lon="-1.59652">
        <ele>59</ele>
        <time>2023-11-03T13:40:31Z</time>
      </trkpt>
      <trkpt lat="47.28963" lon="-1.59657">
        <ele>59</ele>
        <time>2023-11-03T13:40:55Z</time>
      </trkpt>
      <trkpt lat="47.28981" lon="-1.59664">
        <ele>60</ele>
        <time>2023-11-03T13:41:20Z</time>
      </trkpt>
      <trkpt lat="47.28999" lon="-1.59668">
        <ele>60</ele>
        <time>2023-11-03T13:41:44Z</time>
      </trkpt>
      <trkpt lat="47.29018" lon="-1.59675">
        <ele>59</ele>
        <time>2023-11-03T13:42:10Z</time>
      </trkpt>
      <trkpt lat="47.29036" lon="-1.5968">
        <ele>59</ele>
        <time>2023-11-03T13:42:35Z</time>
      </trkpt>
      <trkpt lat="47.29054" lon="-1.59686">
        <ele>58</ele>
        <time>2023-11-03T13:43:00Z</time>
      </trkpt>
      <trkpt lat="47.2909" lon="-1.59699">
        <ele>57</ele>
        <time>2023-11-03T13:43:49Z</time>
      </trkpt>
      <trkpt lat="47.29108" lon="-1.59705">
        <ele>56</ele>
        <time>2023-11-03T13:44:14Z</time>
      </trkpt>
      <trkpt lat="47.29126" lon="-1.59708">
        <ele>55</ele>
        <time>2023-11-03T13:44:38Z</time>
      </trkpt>
      <trkpt lat="47.29145" lon="-1.59704">
        <ele>54</ele>
        <time>2023-11-03T13:45:03Z</time>
      </trkpt>
      <trkpt lat="47.29163" lon="-1.59697">
        <ele>53</ele>
        <time>2023-11-03T13:45:28Z</time>
      </trkpt>
      <trkpt lat="47.29181" lon="-1.59698">
        <ele>53</ele>
        <time>2023-11-03T13:45:52Z</time>
      </trkpt>
      <trkpt lat="47.292" lon="-1.597">
        <ele>53</ele>
        <time>2023-11-03T13:46:18Z</time>
      </trkpt>
      <trkpt lat="47.29219" lon="-1.59702">
        <ele>52</ele>
        <time>2023-11-03T13:46:43Z</time>
      </trkpt>
      <trkpt lat="47.29237" lon="-1.59702">
        <ele>52</ele>
        <time>2023-11-03T13:47:07Z</time>
      </trkpt>
      <trkpt lat="47.29256" lon="-1.59704">
        <ele>52</ele>
        <time>2023-11-03T13:47:33Z</time>
      </trkpt>
      <trkpt lat="47.29266" lon="-1.59682">
        <ele>53</ele>
        <time>2023-11-03T13:47:57Z</time>
      </trkpt>
      <trkpt lat="47.29267" lon="-1.59654">
        <ele>53</ele>
        <time>2023-11-03T13:48:22Z</time>
      </trkpt>
      <trkpt lat="47.29273" lon="-1.59628">
        <ele>53</ele>
        <time>2023-11-03T13:48:47Z</time>
      </trkpt>
      <trkpt lat="47.29276" lon="-1.596">
        <ele>54</ele>
        <time>2023-11-03T13:49:12Z</time>
      </trkpt>
      <trkpt lat="47.29282" lon="-1.59574">
        <ele>54</ele>
        <time>2023-11-03T13:49:37Z</time>
      </trkpt>
      <trkpt lat="47.29285" lon="-1.59548">
        <ele>54</ele>
        <time>2023-11-03T13:50:01Z</time>
      </trkpt>
      <trkpt lat="47.29289" lon="-1.59521">
        <ele>54</ele>
        <time>2023-11-03T13:50:26Z</time>
      </trkpt>
      <trkpt lat="47.29294" lon="-1.59494">
        <ele>54</ele>
        <time>2023-11-03T13:50:52Z</time>
      </trkpt>
      <trkpt lat="47.293" lon="-1.59439">
        <ele>54</ele>
        <time>2023-11-03T13:51:42Z</time>
      </trkpt>
      <trkpt lat="47.29302" lon="-1.59411">
        <ele>54</ele>
        <time>2023-11-03T13:52:07Z</time>
      </trkpt>
      <trkpt lat="47.29305" lon="-1.59383">
        <ele>53</ele>
        <time>2023-11-03T13:52:33Z</time>
      </trkpt>
      <trkpt lat="47.29312" lon="-1.59357">
        <ele>53</ele>
        <time>2023-11-03T13:52:58Z</time>
      </trkpt>
      <trkpt lat="47.29314" lon="-1.5933">
        <ele>53</ele>
        <time>2023-11-03T13:53:23Z</time>
      </trkpt>
      <trkpt lat="47.29318" lon="-1.59303">
        <ele>52</ele>
        <time>2023-11-03T13:53:48Z</time>
      </trkpt>
      <trkpt lat="47.29322" lon="-1.59276">
        <ele>51</ele>
        <time>2023-11-03T13:54:13Z</time>
      </trkpt>
      <trkpt lat="47.2933" lon="-1.59252">
        <ele>51</ele>
        <time>2023-11-03T13:54:37Z</time>
      </trkpt>
      <trkpt lat="47.29342" lon="-1.59231">
        <ele>50</ele>
        <time>2023-11-03T13:55:02Z</time>
      </trkpt>
      <trkpt lat="47.2936" lon="-1.59227">
        <ele>50</ele>
        <time>2023-11-03T13:55:26Z</time>
      </trkpt>
      <trkpt lat="47.29379" lon="-1.59225">
        <ele>50</ele>
        <time>2023-11-03T13:55:52Z</time>
      </trkpt>
      <trkpt lat="47.29389" lon="-1.59202">
        <ele>49</ele>
        <time>2023-11-03T13:56:16Z</time>
      </trkpt>
      <trkpt lat="47.29378" lon="-1.59179">
        <ele>47</ele>
        <time>2023-11-03T13:56:42Z</time>
      </trkpt>
      <trkpt lat="47.2938" lon="-1.59152">
        <ele>46</ele>
        <time>2023-11-03T13:57:07Z</time>
      </trkpt>
      <trkpt lat="47.29388" lon="-1.59127">
        <ele>45</ele>
        <time>2023-11-03T13:57:32Z</time>
      </trkpt>
      <trkpt lat="47.29403" lon="-1.59112">
        <ele>45</ele>
        <time>2023-11-03T13:57:56Z</time>
      </trkpt>
      <trkpt lat="47.29409" lon="-1.59086">
        <ele>44</ele>
        <time>2023-11-03T13:58:21Z</time>
      </trkpt>
      <trkpt lat="47.29421" lon="-1.59065">
        <ele>43</ele>
        <time>2023-11-03T13:58:45Z</time>
      </trkpt>
      <trkpt lat="47.29436" lon="-1.59047">
        <ele>43</ele>
        <time>2023-11-03T13:59:11Z</time>
      </trkpt>
      <trkpt lat="47.29449" lon="-1.59027">
        <ele>43</ele>
        <time>2023-11-03T13:59:36Z</time>
      </trkpt>
      <trkpt lat="47.29463" lon="-1.59008">
        <ele>42</ele>
        <time>2023-11-03T14:00:02Z</time>
      </trkpt>
      <trkpt lat="47.2947" lon="-1.58983">
        <ele>42</ele>
        <time>2023-11-03T14:00:26Z</time>
      </trkpt>
      <trkpt lat="47.29472" lon="-1.58955">
        <ele>41</ele>
        <time>2023-11-03T14:00:52Z</time>
      </trkpt>
      <trkpt lat="47.29466" lon="-1.5893">
        <ele>40</ele>
        <time>2023-11-03T14:01:16Z</time>
      </trkpt>
      <trkpt lat="47.29457" lon="-1.58906">
        <ele>39</ele>
        <time>2023-11-03T14:01:41Z</time>
      </trkpt>
      <trkpt lat="47.29457" lon="-1.5888">
        <ele>38</ele>
        <time>2023-11-03T14:02:04Z</time>
      </trkpt>
      <trkpt lat="47.29454" lon="-1.58852">
        <ele>37</ele>
        <time>2023-11-03T14:02:30Z</time>
      </trkpt>
      <trkpt lat="47.2945" lon="-1.58825">
        <ele>36</ele>
        <time>2023-11-03T14:02:55Z</time>
      </trkpt>
      <trkpt lat="47.29463" lon="-1.58772">
        <ele>35</ele>
        <time>2023-11-03T14:03:46Z</time>
      </trkpt>
      <trkpt lat="47.29461" lon="-1.58746">
        <ele>35</ele>
        <time>2023-11-03T14:04:09Z</time>
      </trkpt>
      <trkpt lat="47.29456" lon="-1.58721">
        <ele>35</ele>
        <time>2023-11-03T14:04:33Z</time>
      </trkpt>
      <trkpt lat="47.29454" lon="-1.58692">
        <ele>34</ele>
        <time>2023-11-03T14:04:59Z</time>
      </trkpt>
      <trkpt lat="47.29454" lon="-1.58666">
        <ele>34</ele>
        <time>2023-11-03T14:05:23Z</time>
      </trkpt>
      <trkpt lat="47.29457" lon="-1.58639">
        <ele>34</ele>
        <time>2023-11-03T14:05:48Z</time>
      </trkpt>
      <trkpt lat="47.29457" lon="-1.58611">
        <ele>33</ele>
        <time>2023-11-03T14:06:13Z</time>
      </trkpt>
      <trkpt lat="47.29455" lon="-1.58584">
        <ele>32</ele>
        <time>2023-11-03T14:06:38Z</time>
      </trkpt>
      <trkpt lat="47.29451" lon="-1.58556">
        <ele>32</ele>
        <time>2023-11-03T14:07:04Z</time>
      </trkpt>
      <trkpt lat="47.2945" lon="-1.58529">
        <ele>33</ele>
        <time>2023-11-03T14:07:28Z</time>
      </trkpt>
      <trkpt lat="47.29442" lon="-1.58474">
        <ele>34</ele>
        <time>2023-11-03T14:08:19Z</time>
      </trkpt>
      <trkpt lat="47.29436" lon="-1.58449">
        <ele>34</ele>
        <time>2023-11-03T14:08:43Z</time>
      </trkpt>
      <trkpt lat="47.29439" lon="-1.58421">
        <ele>35</ele>
        <time>2023-11-03T14:09:09Z</time>
      </trkpt>
      <trkpt lat="47.29451" lon="-1.58399">
        <ele>36</ele>
        <time>2023-11-03T14:09:34Z</time>
      </trkpt>
      <trkpt lat="47.29459" lon="-1.58374">
        <ele>36</ele>
        <time>2023-11-03T14:09:59Z</time>
      </trkpt>
      <trkpt lat="47.29454" lon="-1.58348">
        <ele>36</ele>
        <time>2023-11-03T14:10:24Z</time>
      </trkpt>
      <trkpt lat="47.2944" lon="-1.58296">
        <ele>37</ele>
        <time>2023-11-03T14:11:14Z</time>
      </trkpt>
      <trkpt lat="47.29426" lon="-1.58246">
        <ele>38</ele>
        <time>2023-11-03T14:12:03Z</time>
      </trkpt>
      <trkpt lat="47.2942" lon="-1.5822">
        <ele>38</ele>
        <time>2023-11-03T14:12:28Z</time>
      </trkpt>
      <trkpt lat="47.29425" lon="-1.58195">
        <ele>38</ele>
        <time>2023-11-03T14:12:52Z</time>
      </trkpt>
      <trkpt lat="47.29427" lon="-1.58168">
        <ele>39</ele>
        <time>2023-11-03T14:13:16Z</time>
      </trkpt>
      <trkpt lat="47.29422" lon="-1.58141">
        <ele>38</ele>
        <time>2023-11-03T14:13:42Z</time>
      </trkpt>
      <trkpt lat="47.29415" lon="-1.58115">
        <ele>38</ele>
        <time>2023-11-03T14:14:07Z</time>
      </trkpt>
      <trkpt lat="47.29406" lon="-1.58091">
        <ele>37</ele>
        <time>2023-11-03T14:14:32Z</time>
      </trkpt>
      <trkpt lat="47.29396" lon="-1.58068">
        <ele>36</ele>
        <time>2023-11-03T14:14:56Z</time>
      </trkpt>
      <trkpt lat="47.29386" lon="-1.58045">
        <ele>36</ele>
        <time>2023-11-03T14:15:21Z</time>
      </trkpt>
      <trkpt lat="47.29368" lon="-1.58043">
        <ele>36</ele>
        <time>2023-11-03T14:15:45Z</time>
      </trkpt>
      <trkpt lat="47.29349" lon="-1.58043">
        <ele>36</ele>
        <time>2023-11-03T14:16:11Z</time>
      </trkpt>
      <trkpt lat="47.29338" lon="-1.58022">
        <ele>35</ele>
        <time>2023-11-03T14:16:35Z</time>
      </trkpt>
      <trkpt lat="47.29329" lon="-1.57998">
        <ele>34</ele>
        <time>2023-11-03T14:16:59Z</time>
      </trkpt>
      <trkpt lat="47.29319" lon="-1.57974">
        <ele>32</ele>
        <time>2023-11-03T14:17:25Z</time>
      </trkpt>
      <trkpt lat="47.29311" lon="-1.5795">
        <ele>31</ele>
        <time>2023-11-03T14:17:49Z</time>
      </trkpt>
      <trkpt lat="47.29301" lon="-1.57926">
        <ele>29</ele>
        <time>2023-11-03T14:18:15Z</time>
      </trkpt>
      <trkpt lat="47.29289" lon="-1.57905">
        <ele>27</ele>
        <time>2023-11-03T14:18:39Z</time>
      </trkpt>
      <trkpt lat="47.29276" lon="-1.57887">
        <ele>26</ele>
        <time>2023-11-03T14:19:03Z</time>
      </trkpt>
      <trkpt lat="47.29265" lon="-1.57865">
        <ele>25</ele>
        <time>2023-11-03T14:19:28Z</time>
      </trkpt>
      <trkpt lat="47.2925" lon="-1.57847">
        <ele>23</ele>
        <time>2023-11-03T14:19:54Z</time>
      </trkpt>
      <trkpt lat="47.29239" lon="-1.57825">
        <ele>23</ele>
        <time>2023-11-03T14:20:19Z</time>
      </trkpt>
      <trkpt lat="47.29231" lon="-1.578">
        <ele>22</ele>
        <time>2023-11-03T14:20:44Z</time>
      </trkpt>
      <trkpt lat="47.29227" lon="-1.57772">
        <ele>22</ele>
        <time>2023-11-03T14:21:09Z</time>
      </trkpt>
      <trkpt lat="47.29223" lon="-1.57746">
        <ele>21</ele>
        <time>2023-11-03T14:21:34Z</time>
      </trkpt>
      <trkpt lat="47.29214" lon="-1.5772">
        <ele>21</ele>
        <time>2023-11-03T14:22:00Z</time>
      </trkpt>
      <trkpt lat="47.29207" lon="-1.57695">
        <ele>21</ele>
        <time>2023-11-03T14:22:24Z</time>
      </trkpt>
      <trkpt lat="47.29227" lon="-1.57617">
        <ele>19</ele>
        <time>2023-11-03T14:23:40Z</time>
      </trkpt>
      <trkpt lat="47.29235" lon="-1.57592">
        <ele>18</ele>
        <time>2023-11-03T14:24:05Z</time>
      </trkpt>
      <trkpt lat="47.29248" lon="-1.57573">
        <ele>17</ele>
        <time>2023-11-03T14:24:29Z</time>
      </trkpt>
      <trkpt lat="47.29239" lon="-1.57549">
        <ele>18</ele>
        <time>2023-11-03T14:24:54Z</time>
      </trkpt>
      <trkpt lat="47.29221" lon="-1.5754">
        <ele>19</ele>
        <time>2023-11-03T14:25:20Z</time>
      </trkpt>
      <trkpt lat="47.29203" lon="-1.5753">
        <ele>20</ele>
        <time>2023-11-03T14:25:45Z</time>
      </trkpt>
      <trkpt lat="47.29196" lon="-1.57555">
        <ele>20</ele>
        <time>2023-11-03T14:26:10Z</time>
      </trkpt>
      <trkpt lat="47.29184" lon="-1.57576">
        <ele>22</ele>
        <time>2023-11-03T14:26:35Z</time>
      </trkpt>
      <trkpt lat="47.29167" lon="-1.57583">
        <ele>23</ele>
        <time>2023-11-03T14:26:58Z</time>
      </trkpt>
      <trkpt lat="47.29148" lon="-1.57578">
        <ele>24</ele>
        <time>2023-11-03T14:27:24Z</time>
      </trkpt>
      <trkpt lat="47.2913" lon="-1.57571">
        <ele>25</ele>
        <time>2023-11-03T14:27:49Z</time>
      </trkpt>
      <trkpt lat="47.29094" lon="-1.57564">
        <ele>28</ele>
        <time>2023-11-03T14:28:37Z</time>
      </trkpt>
      <trkpt lat="47.29075" lon="-1.57561">
        <ele>29</ele>
        <time>2023-11-03T14:29:03Z</time>
      </trkpt>
      <trkpt lat="47.29057" lon="-1.57559">
        <ele>30</ele>
        <time>2023-11-03T14:29:27Z</time>
      </trkpt>
      <trkpt lat="47.29039" lon="-1.57558">
        <ele>31</ele>
        <time>2023-11-03T14:29:51Z</time>
      </trkpt>
      <trkpt lat="47.29028" lon="-1.57536">
        <ele>32</ele>
        <time>2023-11-03T14:30:16Z</time>
      </trkpt>
      <trkpt lat="47.29035" lon="-1.57511">
        <ele>31</ele>
        <time>2023-11-03T14:30:40Z</time>
      </trkpt>
      <trkpt lat="47.29038" lon="-1.57484">
        <ele>31</ele>
        <time>2023-11-03T14:31:05Z</time>
      </trkpt>
      <trkpt lat="47.2904" lon="-1.57457">
        <ele>32</ele>
        <time>2023-11-03T14:31:29Z</time>
      </trkpt>
      <trkpt lat="47.2904" lon="-1.5743">
        <ele>32</ele>
        <time>2023-11-03T14:31:54Z</time>
      </trkpt>
      <trkpt lat="47.29039" lon="-1.57403">
        <ele>32</ele>
        <time>2023-11-03T14:32:18Z</time>
      </trkpt>
      <trkpt lat="47.29038" lon="-1.57376">
        <ele>33</ele>
        <time>2023-11-03T14:32:43Z</time>
      </trkpt>
      <trkpt lat="47.29039" lon="-1.57349">
        <ele>33</ele>
        <time>2023-11-03T14:33:07Z</time>
      </trkpt>
      <trkpt lat="47.2904" lon="-1.57295">
        <ele>33</ele>
        <time>2023-11-03T14:33:56Z</time>
      </trkpt>
      <trkpt lat="47.29039" lon="-1.57267">
        <ele>33</ele>
        <time>2023-11-03T14:34:22Z</time>
      </trkpt>
      <trkpt lat="47.2904" lon="-1.5724">
        <ele>33</ele>
        <time>2023-11-03T14:34:46Z</time>
      </trkpt>
      <trkpt lat="47.29038" lon="-1.57213">
        <ele>34</ele>
        <time>2023-11-03T14:35:11Z</time>
      </trkpt>
      <trkpt lat="47.29035" lon="-1.57185">
        <ele>35</ele>
        <time>2023-11-03T14:35:36Z</time>
      </trkpt>
      <trkpt lat="47.29035" lon="-1.57158">
        <ele>35</ele>
        <time>2023-11-03T14:36:01Z</time>
      </trkpt>
      <trkpt lat="47.29031" lon="-1.57131">
        <ele>35</ele>
        <time>2023-11-03T14:36:26Z</time>
      </trkpt>
      <trkpt lat="47.29025" lon="-1.57105">
        <ele>36</ele>
        <time>2023-11-03T14:36:51Z</time>
      </trkpt>
      <trkpt lat="47.29035" lon="-1.57081">
        <ele>35</ele>
        <time>2023-11-03T14:37:16Z</time>
      </trkpt>
      <trkpt lat="47.2905" lon="-1.57064">
        <ele>34</ele>
        <time>2023-11-03T14:37:41Z</time>
      </trkpt>
      <trkpt lat="47.29062" lon="-1.57044">
        <ele>34</ele>
        <time>2023-11-03T14:38:05Z</time>
      </trkpt>
      <trkpt lat="47.29078" lon="-1.57028">
        <ele>34</ele>
        <time>2023-11-03T14:38:31Z</time>
      </trkpt>
      <trkpt lat="47.29094" lon="-1.57015">
        <ele>33</ele>
        <time>2023-11-03T14:38:56Z</time>
      </trkpt>
      <trkpt lat="47.29107" lon="-1.56997">
        <ele>33</ele>
        <time>2023-11-03T14:39:19Z</time>
      </trkpt>
      <trkpt lat="47.29123" lon="-1.56984">
        <ele>33</ele>
        <time>2023-11-03T14:39:44Z</time>
      </trkpt>
      <trkpt lat="47.29156" lon="-1.56959">
        <ele>32</ele>
        <time>2023-11-03T14:40:33Z</time>
      </trkpt>
      <trkpt lat="47.2917" lon="-1.56939">
        <ele>32</ele>
        <time>2023-11-03T14:40:59Z</time>
      </trkpt>
      <trkpt lat="47.29183" lon="-1.56921">
        <ele>31</ele>
        <time>2023-11-03T14:41:23Z</time>
      </trkpt>
      <trkpt lat="47.29196" lon="-1.569">
        <ele>29</ele>
        <time>2023-11-03T14:41:49Z</time>
      </trkpt>
      <trkpt lat="47.29202" lon="-1.56874">
        <ele>27</ele>
        <time>2023-11-03T14:42:14Z</time>
      </trkpt>
      <trkpt lat="47.29212" lon="-1.56852">
        <ele>25</ele>
        <time>2023-11-03T14:42:38Z</time>
      </trkpt>
      <trkpt lat="47.29224" lon="-1.5683">
        <ele>23</ele>
        <time>2023-11-03T14:43:03Z</time>
      </trkpt>
      <trkpt lat="47.29239" lon="-1.56814">
        <ele>21</ele>
        <time>2023-11-03T14:43:28Z</time>
      </trkpt>
      <trkpt lat="47.29253" lon="-1.56797">
        <ele>18</ele>
        <time>2023-11-03T14:43:52Z</time>
      </trkpt>
      <trkpt lat="47.29254" lon="-1.5677">
        <ele>16</ele>
        <time>2023-11-03T14:44:17Z</time>
      </trkpt>
      <trkpt lat="47.29247" lon="-1.56745">
        <ele>14</ele>
        <time>2023-11-03T14:44:41Z</time>
      </trkpt>
      <trkpt lat="47.2924" lon="-1.56719">
        <ele>15</ele>
        <time>2023-11-03T14:45:06Z</time>
      </trkpt>
      <trkpt lat="47.29231" lon="-1.56696">
        <ele>15</ele>
        <time>2023-11-03T14:45:31Z</time>
      </trkpt>
      <trkpt lat="47.29224" lon="-1.56671">
        <ele>16</ele>
        <time>2023-11-03T14:45:55Z</time>
      </trkpt>
      <trkpt lat="47.2922" lon="-1.56643">
        <ele>18</ele>
        <time>2023-11-03T14:46:21Z</time>
      </trkpt>
      <trkpt lat="47.29238" lon="-1.56644">
        <ele>18</ele>
        <time>2023-11-03T14:46:45Z</time>
      </trkpt>
      <trkpt lat="47.29257" lon="-1.56597">
        <ele>22</ele>
        <time>2023-11-03T14:47:34Z</time>
      </trkpt>
      <trkpt lat="47.29275" lon="-1.56605">
        <ele>22</ele>
        <time>2023-11-03T14:48:00Z</time>
      </trkpt>
      <trkpt lat="47.29286" lon="-1.56627">
        <ele>21</ele>
        <time>2023-11-03T14:48:24Z</time>
      </trkpt>
      <trkpt lat="47.29299" lon="-1.56645">
        <ele>21</ele>
        <time>2023-11-03T14:48:48Z</time>
      </trkpt>
      <trkpt lat="47.29317" lon="-1.56655">
        <ele>21</ele>
        <time>2023-11-03T14:49:14Z</time>
      </trkpt>
      <trkpt lat="47.29333" lon="-1.56667">
        <ele>21</ele>
        <time>2023-11-03T14:49:38Z</time>
      </trkpt>
      <trkpt lat="47.29346" lon="-1.56686">
        <ele>21</ele>
        <time>2023-11-03T14:50:02Z</time>
      </trkpt>
      <trkpt lat="47.29362" lon="-1.56705">
        <ele>22</ele>
        <time>2023-11-03T14:50:30Z</time>
      </trkpt>
      <trkpt lat="47.29378" lon="-1.56721">
        <ele>23</ele>
        <time>2023-11-03T14:50:55Z</time>
      </trkpt>
      <trkpt lat="47.29394" lon="-1.56733">
        <ele>24</ele>
        <time>2023-11-03T14:51:19Z</time>
      </trkpt>
      <trkpt lat="47.2941" lon="-1.56746">
        <ele>25</ele>
        <time>2023-11-03T14:51:44Z</time>
      </trkpt>
      <trkpt lat="47.29427" lon="-1.56756">
        <ele>25</ele>
        <time>2023-11-03T14:52:08Z</time>
      </trkpt>
      <trkpt lat="47.29446" lon="-1.5676">
        <ele>26</ele>
        <time>2023-11-03T14:52:34Z</time>
      </trkpt>
      <trkpt lat="47.29464" lon="-1.56763">
        <ele>27</ele>
        <time>2023-11-03T14:52:58Z</time>
      </trkpt>
      <trkpt lat="47.29482" lon="-1.5677">
        <ele>28</ele>
        <time>2023-11-03T14:53:23Z</time>
      </trkpt>
      <trkpt lat="47.29504" lon="-1.5677">
        <ele>29</ele>
        <time>2023-11-03T14:53:52Z</time>
      </trkpt>
      <trkpt lat="47.29521" lon="-1.56765">
        <ele>30</ele>
        <time>2023-11-03T14:54:15Z</time>
      </trkpt>
      <trkpt lat="47.29536" lon="-1.56749">
        <ele>31</ele>
        <time>2023-11-03T14:54:40Z</time>
      </trkpt>
      <trkpt lat="47.29572" lon="-1.56732">
        <ele>34</ele>
        <time>2023-11-03T14:55:30Z</time>
      </trkpt>
      <trkpt lat="47.29589" lon="-1.56723">
        <ele>34</ele>
        <time>2023-11-03T14:55:54Z</time>
      </trkpt>
      <trkpt lat="47.29607" lon="-1.56719">
        <ele>33</ele>
        <time>2023-11-03T14:56:19Z</time>
      </trkpt>
      <trkpt lat="47.29625" lon="-1.5671">
        <ele>33</ele>
        <time>2023-11-03T14:56:44Z</time>
      </trkpt>
      <trkpt lat="47.29641" lon="-1.56697">
        <ele>33</ele>
        <time>2023-11-03T14:57:08Z</time>
      </trkpt>
      <trkpt lat="47.29639" lon="-1.5667">
        <ele>34</ele>
        <time>2023-11-03T14:57:33Z</time>
      </trkpt>
      <trkpt lat="47.29632" lon="-1.56645">
        <ele>35</ele>
        <time>2023-11-03T14:57:58Z</time>
      </trkpt>
      <trkpt lat="47.29627" lon="-1.56618">
        <ele>35</ele>
        <time>2023-11-03T14:58:23Z</time>
      </trkpt>
      <trkpt lat="47.29624" lon="-1.56591">
        <ele>36</ele>
        <time>2023-11-03T14:58:48Z</time>
      </trkpt>
      <trkpt lat="47.29616" lon="-1.56567">
        <ele>37</ele>
        <time>2023-11-03T14:59:12Z</time>
      </trkpt>
      <trkpt lat="47.29609" lon="-1.56541">
        <ele>38</ele>
        <time>2023-11-03T14:59:37Z</time>
      </trkpt>
      <trkpt lat="47.29623" lon="-1.56525">
        <ele>38</ele>
        <time>2023-11-03T15:00:01Z</time>
      </trkpt>
      <trkpt lat="47.29642" lon="-1.56523">
        <ele>38</ele>
        <time>2023-11-03T15:00:26Z</time>
      </trkpt>
      <trkpt lat="47.2966" lon="-1.56516">
        <ele>38</ele>
        <time>2023-11-03T15:00:51Z</time>
      </trkpt>
      <trkpt lat="47.29676" lon="-1.56503">
        <ele>38</ele>
        <time>2023-11-03T15:01:15Z</time>
        <extensions>
          <visugpx:TrkExtension xmlns:visugpx="https://www.visugpx.com/editgpx/">
            <visugpx:node>1</visugpx:node>
            </visugpx:TrkExtension>
        </extensions>
      </trkpt>
    </trkseg>
  </trk>
  <trk>
    <name><![CDATA[ChapelleE_CapelliaGolf_12km-10119982]]></name>
    <extensions>
      <line xmlns="http://www.topografix.com/GPX/gpx_style/0/2">
        <color>ff8000</color>
        <width>4</width>
      </line>
    </extensions>
    <trkseg>
      <trkpt lat="47.27981" lon="-1.557">
        <ele>40</ele>
        <time>2023-11-03T12:54:39Z</time>
      </trkpt>
      <trkpt lat="47.27977" lon="-1.55726">
        <ele>40</ele>
        <time>2023-11-03T12:55:03Z</time>
      </trkpt>
      <trkpt lat="47.27973" lon="-1.55754">
        <ele>39</ele>
        <time>2023-11-03T12:55:29Z</time>
      </trkpt>
      <trkpt lat="47.27973" lon="-1.5578">
        <ele>39</ele>
        <time>2023-11-03T12:55:53Z</time>
      </trkpt>
      <trkpt lat="47.27977" lon="-1.55815">
        <ele>38</ele>
        <time>2023-11-03T12:56:25Z</time>
      </trkpt>
      <trkpt lat="47.27971" lon="-1.55843">
        <ele>37</ele>
        <time>2023-11-03T12:56:51Z</time>
      </trkpt>
      <trkpt lat="47.27967" lon="-1.55869">
        <ele>37</ele>
        <time>2023-11-03T12:57:15Z</time>
      </trkpt>
      <trkpt lat="47.27954" lon="-1.55898">
        <ele>36</ele>
        <time>2023-11-03T12:57:47Z</time>
      </trkpt>
      <trkpt lat="47.27931" lon="-1.55899">
        <ele>36</ele>
        <time>2023-11-03T12:58:18Z</time>
      </trkpt>
      <trkpt lat="47.27914" lon="-1.55887">
        <ele>36</ele>
        <time>2023-11-03T12:58:43Z</time>
      </trkpt>
      <trkpt lat="47.27897" lon="-1.55878">
        <ele>35</ele>
        <time>2023-11-03T12:59:07Z</time>
      </trkpt>
      <trkpt lat="47.27876" lon="-1.5587">
        <ele>35</ele>
        <time>2023-11-03T12:59:36Z</time>
      </trkpt>
      <trkpt lat="47.27859" lon="-1.55857">
        <ele>34</ele>
        <time>2023-11-03T13:00:01Z</time>
      </trkpt>
      <trkpt lat="47.27841" lon="-1.55849">
        <ele>33</ele>
        <time>2023-11-03T13:00:26Z</time>
      </trkpt>
      <trkpt lat="47.27824" lon="-1.55835">
        <ele>33</ele>
        <time>2023-11-03T13:00:52Z</time>
      </trkpt>
      <trkpt lat="47.27802" lon="-1.55844">
        <ele>33</ele>
        <time>2023-11-03T13:01:23Z</time>
      </trkpt>
      <trkpt lat="47.27788" lon="-1.55862">
        <ele>32</ele>
        <time>2023-11-03T13:01:48Z</time>
      </trkpt>
      <trkpt lat="47.27775" lon="-1.55881">
        <ele>32</ele>
        <time>2023-11-03T13:02:12Z</time>
      </trkpt>
      <trkpt lat="47.27761" lon="-1.55904">
        <ele>32</ele>
        <time>2023-11-03T13:02:40Z</time>
      </trkpt>
      <trkpt lat="47.27744" lon="-1.5592">
        <ele>32</ele>
        <time>2023-11-03T13:03:07Z</time>
      </trkpt>
      <trkpt lat="47.27706" lon="-1.55942">
        <ele>30</ele>
        <time>2023-11-03T13:04:02Z</time>
      </trkpt>
      <trkpt lat="47.27686" lon="-1.55955">
        <ele>29</ele>
        <time>2023-11-03T13:04:31Z</time>
      </trkpt>
      <trkpt lat="47.2767" lon="-1.55972">
        <ele>28</ele>
        <time>2023-11-03T13:04:57Z</time>
      </trkpt>
      <trkpt lat="47.27653" lon="-1.55989">
        <ele>28</ele>
        <time>2023-11-03T13:05:24Z</time>
      </trkpt>
      <trkpt lat="47.27637" lon="-1.56008">
        <ele>27</ele>
        <time>2023-11-03T13:05:52Z</time>
      </trkpt>
      <trkpt lat="47.27625" lon="-1.56033">
        <ele>27</ele>
        <time>2023-11-03T13:06:20Z</time>
      </trkpt>
      <trkpt lat="47.27624" lon="-1.5606">
        <ele>26</ele>
        <time>2023-11-03T13:06:44Z</time>
      </trkpt>
      <trkpt lat="47.2764" lon="-1.56077">
        <ele>26</ele>
        <time>2023-11-03T13:07:10Z</time>
      </trkpt>
      <trkpt lat="47.27657" lon="-1.56097">
        <ele>25</ele>
        <time>2023-11-03T13:07:39Z</time>
      </trkpt>
      <trkpt lat="47.27674" lon="-1.56111">
        <ele>24</ele>
        <time>2023-11-03T13:08:05Z</time>
      </trkpt>
      <trkpt lat="47.27691" lon="-1.56123">
        <ele>24</ele>
        <time>2023-11-03T13:08:31Z</time>
      </trkpt>
      <trkpt lat="47.27709" lon="-1.56133">
        <ele>25</ele>
        <time>2023-11-03T13:08:56Z</time>
      </trkpt>
      <trkpt lat="47.27729" lon="-1.56143">
        <ele>26</ele>
        <time>2023-11-03T13:09:24Z</time>
      </trkpt>
      <trkpt lat="47.2775" lon="-1.5616">
        <ele>27</ele>
        <time>2023-11-03T13:09:56Z</time>
      </trkpt>
      <trkpt lat="47.27763" lon="-1.56184">
        <ele>27</ele>
        <time>2023-11-03T13:10:24Z</time>
      </trkpt>
      <trkpt lat="47.27774" lon="-1.5621">
        <ele>27</ele>
        <time>2023-11-03T13:10:52Z</time>
      </trkpt>
      <trkpt lat="47.27785" lon="-1.56233">
        <ele>27</ele>
        <time>2023-11-03T13:11:17Z</time>
      </trkpt>
      <trkpt lat="47.27794" lon="-1.56257">
        <ele>26</ele>
        <time>2023-11-03T13:11:42Z</time>
      </trkpt>
      <trkpt lat="47.27802" lon="-1.56284">
        <ele>24</ele>
        <time>2023-11-03T13:12:09Z</time>
      </trkpt>
      <trkpt lat="47.27812" lon="-1.56307">
        <ele>23</ele>
        <time>2023-11-03T13:12:34Z</time>
      </trkpt>
      <trkpt lat="47.27829" lon="-1.56334">
        <ele>23</ele>
        <time>2023-11-03T13:13:07Z</time>
      </trkpt>
      <trkpt lat="47.27845" lon="-1.56354">
        <ele>23</ele>
        <time>2023-11-03T13:13:35Z</time>
      </trkpt>
      <trkpt lat="47.2786" lon="-1.56376">
        <ele>22</ele>
        <time>2023-11-03T13:14:03Z</time>
      </trkpt>
      <trkpt lat="47.27861" lon="-1.56403">
        <ele>20</ele>
        <time>2023-11-03T13:14:28Z</time>
      </trkpt>
      <trkpt lat="47.27861" lon="-1.5643">
        <ele>18</ele>
        <time>2023-11-03T13:14:52Z</time>
      </trkpt>
      <trkpt lat="47.27858" lon="-1.56457">
        <ele>17</ele>
        <time>2023-11-03T13:15:17Z</time>
      </trkpt>
      <trkpt lat="47.27859" lon="-1.56484">
        <ele>15</ele>
        <time>2023-11-03T13:15:41Z</time>
      </trkpt>
      <trkpt lat="47.27862" lon="-1.5651">
        <ele>14</ele>
        <time>2023-11-03T13:16:05Z</time>
      </trkpt>
      <trkpt lat="47.27875" lon="-1.56534">
        <ele>15</ele>
        <time>2023-11-03T13:16:33Z</time>
      </trkpt>
      <trkpt lat="47.27894" lon="-1.56555">
        <ele>15</ele>
        <time>2023-11-03T13:17:05Z</time>
      </trkpt>
      <trkpt lat="47.27905" lon="-1.56577">
        <ele>15</ele>
        <time>2023-11-03T13:17:29Z</time>
      </trkpt>
      <trkpt lat="47.27922" lon="-1.5659">
        <ele>16</ele>
        <time>2023-11-03T13:17:55Z</time>
      </trkpt>
      <trkpt lat="47.27937" lon="-1.56616">
        <ele>17</ele>
        <time>2023-11-03T13:18:26Z</time>
      </trkpt>
      <trkpt lat="47.27942" lon="-1.56645">
        <ele>16</ele>
        <time>2023-11-03T13:18:53Z</time>
      </trkpt>
      <trkpt lat="47.27943" lon="-1.56674">
        <ele>17</ele>
        <time>2023-11-03T13:19:19Z</time>
      </trkpt>
      <trkpt lat="47.27923" lon="-1.56673">
        <ele>17</ele>
        <time>2023-11-03T13:19:46Z</time>
      </trkpt>
      <trkpt lat="47.27903" lon="-1.56677">
        <ele>18</ele>
        <time>2023-11-03T13:20:13Z</time>
      </trkpt>
      <trkpt lat="47.27886" lon="-1.56686">
        <ele>19</ele>
        <time>2023-11-03T13:20:37Z</time>
      </trkpt>
      <trkpt lat="47.27872" lon="-1.56709">
        <ele>22</ele>
        <time>2023-11-03T13:21:05Z</time>
      </trkpt>
      <trkpt lat="47.27851" lon="-1.56715">
        <ele>23</ele>
        <time>2023-11-03T13:21:34Z</time>
      </trkpt>
      <trkpt lat="47.27834" lon="-1.56729">
        <ele>25</ele>
        <time>2023-11-03T13:22:00Z</time>
      </trkpt>
      <trkpt lat="47.27817" lon="-1.56745">
        <ele>28</ele>
        <time>2023-11-03T13:22:26Z</time>
      </trkpt>
      <trkpt lat="47.278" lon="-1.56767">
        <ele>30</ele>
        <time>2023-11-03T13:22:57Z</time>
      </trkpt>
      <trkpt lat="47.27786" lon="-1.56785">
        <ele>31</ele>
        <time>2023-11-03T13:23:21Z</time>
      </trkpt>
      <trkpt lat="47.27766" lon="-1.56801">
        <ele>33</ele>
        <time>2023-11-03T13:23:52Z</time>
      </trkpt>
      <trkpt lat="47.27752" lon="-1.56819">
        <ele>34</ele>
        <time>2023-11-03T13:24:17Z</time>
      </trkpt>
      <trkpt lat="47.27732" lon="-1.56828">
        <ele>34</ele>
        <time>2023-11-03T13:24:45Z</time>
      </trkpt>
      <trkpt lat="47.27717" lon="-1.56771">
        <ele>31</ele>
        <time>2023-11-03T13:25:40Z</time>
      </trkpt>
      <trkpt lat="47.27709" lon="-1.56745">
        <ele>30</ele>
        <time>2023-11-03T13:26:06Z</time>
      </trkpt>
      <trkpt lat="47.27697" lon="-1.56717">
        <ele>29</ele>
        <time>2023-11-03T13:26:36Z</time>
      </trkpt>
      <trkpt lat="47.27685" lon="-1.56692">
        <ele>29</ele>
        <time>2023-11-03T13:27:03Z</time>
      </trkpt>
      <trkpt lat="47.27665" lon="-1.56642">
        <ele>28</ele>
        <time>2023-11-03T13:27:56Z</time>
      </trkpt>
      <trkpt lat="47.27653" lon="-1.56615">
        <ele>26</ele>
        <time>2023-11-03T13:28:25Z</time>
      </trkpt>
      <trkpt lat="47.27644" lon="-1.56591">
        <ele>25</ele>
        <time>2023-11-03T13:28:50Z</time>
      </trkpt>
      <trkpt lat="47.27633" lon="-1.56562">
        <ele>24</ele>
        <time>2023-11-03T13:29:20Z</time>
      </trkpt>
      <trkpt lat="47.27621" lon="-1.56534">
        <ele>24</ele>
        <time>2023-11-03T13:29:50Z</time>
      </trkpt>
      <trkpt lat="47.2761" lon="-1.56511">
        <ele>24</ele>
        <time>2023-11-03T13:30:16Z</time>
      </trkpt>
      <trkpt lat="47.27603" lon="-1.56487">
        <ele>23</ele>
        <time>2023-11-03T13:30:39Z</time>
      </trkpt>
      <trkpt lat="47.27593" lon="-1.56462">
        <ele>22</ele>
        <time>2023-11-03T13:31:06Z</time>
      </trkpt>
      <trkpt lat="47.2758" lon="-1.56439">
        <ele>21</ele>
        <time>2023-11-03T13:31:33Z</time>
      </trkpt>
      <trkpt lat="47.2757" lon="-1.56417">
        <ele>20</ele>
        <time>2023-11-03T13:31:57Z</time>
      </trkpt>
      <trkpt lat="47.2756" lon="-1.56391">
        <ele>18</ele>
        <time>2023-11-03T13:32:24Z</time>
      </trkpt>
      <trkpt lat="47.2754" lon="-1.56385">
        <ele>17</ele>
        <time>2023-11-03T13:32:51Z</time>
      </trkpt>
      <trkpt lat="47.27526" lon="-1.56404">
        <ele>17</ele>
        <time>2023-11-03T13:33:16Z</time>
      </trkpt>
      <trkpt lat="47.27511" lon="-1.56421">
        <ele>18</ele>
        <time>2023-11-03T13:33:42Z</time>
      </trkpt>
      <trkpt lat="47.27489" lon="-1.56433">
        <ele>17</ele>
        <time>2023-11-03T13:34:13Z</time>
      </trkpt>
      <trkpt lat="47.27472" lon="-1.56445">
        <ele>18</ele>
        <time>2023-11-03T13:34:38Z</time>
      </trkpt>
      <trkpt lat="47.27432" lon="-1.5645">
        <ele>17</ele>
        <time>2023-11-03T13:35:32Z</time>
      </trkpt>
      <trkpt lat="47.27413" lon="-1.5645">
        <ele>17</ele>
        <time>2023-11-03T13:35:57Z</time>
      </trkpt>
      <trkpt lat="47.27396" lon="-1.56462">
        <ele>17</ele>
        <time>2023-11-03T13:36:22Z</time>
      </trkpt>
      <trkpt lat="47.27383" lon="-1.56482">
        <ele>18</ele>
        <time>2023-11-03T13:36:47Z</time>
      </trkpt>
      <trkpt lat="47.27365" lon="-1.56491">
        <ele>18</ele>
        <time>2023-11-03T13:37:13Z</time>
      </trkpt>
      <trkpt lat="47.27347" lon="-1.56479">
        <ele>17</ele>
        <time>2023-11-03T13:37:39Z</time>
      </trkpt>
      <trkpt lat="47.2733" lon="-1.56458">
        <ele>16</ele>
        <time>2023-11-03T13:38:08Z</time>
      </trkpt>
      <trkpt lat="47.27314" lon="-1.56445">
        <ele>15</ele>
        <time>2023-11-03T13:38:33Z</time>
      </trkpt>
      <trkpt lat="47.273" lon="-1.56426">
        <ele>14</ele>
        <time>2023-11-03T13:38:58Z</time>
      </trkpt>
      <trkpt lat="47.27278" lon="-1.56424">
        <ele>14</ele>
        <time>2023-11-03T13:39:28Z</time>
      </trkpt>
      <trkpt lat="47.27259" lon="-1.56409">
        <ele>13</ele>
        <time>2023-11-03T13:39:56Z</time>
      </trkpt>
      <trkpt lat="47.27243" lon="-1.56391">
        <ele>13</ele>
        <time>2023-11-03T13:40:23Z</time>
      </trkpt>
      <trkpt lat="47.27228" lon="-1.56375">
        <ele>13</ele>
        <time>2023-11-03T13:40:48Z</time>
      </trkpt>
      <trkpt lat="47.2721" lon="-1.5636">
        <ele>13</ele>
        <time>2023-11-03T13:41:16Z</time>
      </trkpt>
      <trkpt lat="47.2719" lon="-1.56349">
        <ele>13</ele>
        <time>2023-11-03T13:41:44Z</time>
      </trkpt>
      <trkpt lat="47.27177" lon="-1.56329">
        <ele>11</ele>
        <time>2023-11-03T13:42:09Z</time>
      </trkpt>
      <trkpt lat="47.27156" lon="-1.56315">
        <ele>12</ele>
        <time>2023-11-03T13:42:40Z</time>
      </trkpt>
      <trkpt lat="47.27137" lon="-1.56299">
        <ele>12</ele>
        <time>2023-11-03T13:43:09Z</time>
      </trkpt>
      <trkpt lat="47.27124" lon="-1.56279">
        <ele>12</ele>
        <time>2023-11-03T13:43:34Z</time>
      </trkpt>
      <trkpt lat="47.271" lon="-1.56237">
        <ele>11</ele>
        <time>2023-11-03T13:44:24Z</time>
      </trkpt>
      <trkpt lat="47.27083" lon="-1.56214">
        <ele>11</ele>
        <time>2023-11-03T13:44:55Z</time>
      </trkpt>
      <trkpt lat="47.27065" lon="-1.562">
        <ele>11</ele>
        <time>2023-11-03T13:45:22Z</time>
      </trkpt>
      <trkpt lat="47.27045" lon="-1.56193">
        <ele>12</ele>
        <time>2023-11-03T13:45:49Z</time>
      </trkpt>
      <trkpt lat="47.27027" lon="-1.56199">
        <ele>13</ele>
        <time>2023-11-03T13:46:14Z</time>
      </trkpt>
      <trkpt lat="47.27008" lon="-1.56202">
        <ele>14</ele>
        <time>2023-11-03T13:46:39Z</time>
      </trkpt>
      <trkpt lat="47.27" lon="-1.56232">
        <ele>15</ele>
        <time>2023-11-03T13:47:09Z</time>
      </trkpt>
      <trkpt lat="47.27011" lon="-1.56255">
        <ele>16</ele>
        <time>2023-11-03T13:47:34Z</time>
      </trkpt>
      <trkpt lat="47.27022" lon="-1.56276">
        <ele>17</ele>
        <time>2023-11-03T13:47:58Z</time>
      </trkpt>
      <trkpt lat="47.27024" lon="-1.56335">
        <ele>21</ele>
        <time>2023-11-03T13:48:52Z</time>
      </trkpt>
      <trkpt lat="47.27022" lon="-1.56362">
        <ele>22</ele>
        <time>2023-11-03T13:49:16Z</time>
      </trkpt>
      <trkpt lat="47.27024" lon="-1.5633">
        <ele>21</ele>
        <time>2023-11-03T13:49:45Z</time>
      </trkpt>
      <trkpt lat="47.27022" lon="-1.56299">
        <ele>19</ele>
        <time>2023-11-03T13:50:13Z</time>
      </trkpt>
      <trkpt lat="47.27016" lon="-1.56273">
        <ele>17</ele>
        <time>2023-11-03T13:50:38Z</time>
      </trkpt>
      <trkpt lat="47.27004" lon="-1.56253">
        <ele>16</ele>
        <time>2023-11-03T13:51:03Z</time>
      </trkpt>
      <trkpt lat="47.26999" lon="-1.5628">
        <ele>18</ele>
        <time>2023-11-03T13:51:28Z</time>
      </trkpt>
      <trkpt lat="47.26997" lon="-1.5631">
        <ele>20</ele>
        <time>2023-11-03T13:51:55Z</time>
      </trkpt>
      <trkpt lat="47.26989" lon="-1.56339">
        <ele>21</ele>
        <time>2023-11-03T13:52:24Z</time>
      </trkpt>
      <trkpt lat="47.26982" lon="-1.56364">
        <ele>22</ele>
        <time>2023-11-03T13:52:48Z</time>
      </trkpt>
      <trkpt lat="47.26977" lon="-1.5639">
        <ele>23</ele>
        <time>2023-11-03T13:53:12Z</time>
      </trkpt>
      <trkpt lat="47.26973" lon="-1.56418">
        <ele>24</ele>
        <time>2023-11-03T13:53:38Z</time>
      </trkpt>
      <trkpt lat="47.26978" lon="-1.56446">
        <ele>24</ele>
        <time>2023-11-03T13:54:05Z</time>
      </trkpt>
      <trkpt lat="47.26993" lon="-1.56461">
        <ele>24</ele>
        <time>2023-11-03T13:54:29Z</time>
      </trkpt>
      <trkpt lat="47.27015" lon="-1.56474">
        <ele>24</ele>
        <time>2023-11-03T13:55:00Z</time>
      </trkpt>
      <trkpt lat="47.27028" lon="-1.56491">
        <ele>24</ele>
        <time>2023-11-03T13:55:24Z</time>
      </trkpt>
      <trkpt lat="47.27039" lon="-1.5652">
        <ele>24</ele>
        <time>2023-11-03T13:55:54Z</time>
      </trkpt>
      <trkpt lat="47.27054" lon="-1.56546">
        <ele>24</ele>
        <time>2023-11-03T13:56:25Z</time>
      </trkpt>
      <trkpt lat="47.27071" lon="-1.56563">
        <ele>23</ele>
        <time>2023-11-03T13:56:52Z</time>
      </trkpt>
      <trkpt lat="47.27084" lon="-1.56582">
        <ele>23</ele>
        <time>2023-11-03T13:57:16Z</time>
      </trkpt>
      <trkpt lat="47.27096" lon="-1.56604">
        <ele>24</ele>
        <time>2023-11-03T13:57:42Z</time>
      </trkpt>
      <trkpt lat="47.27109" lon="-1.56627">
        <ele>24</ele>
        <time>2023-11-03T13:58:09Z</time>
      </trkpt>
      <trkpt lat="47.27129" lon="-1.56643">
        <ele>25</ele>
        <time>2023-11-03T13:58:39Z</time>
      </trkpt>
      <trkpt lat="47.27146" lon="-1.56653">
        <ele>25</ele>
        <time>2023-11-03T13:59:04Z</time>
      </trkpt>
      <trkpt lat="47.27158" lon="-1.56676">
        <ele>25</ele>
        <time>2023-11-03T13:59:30Z</time>
      </trkpt>
      <trkpt lat="47.27179" lon="-1.56684">
        <ele>24</ele>
        <time>2023-11-03T13:59:59Z</time>
      </trkpt>
      <trkpt lat="47.27199" lon="-1.56673">
        <ele>24</ele>
        <time>2023-11-03T14:00:28Z</time>
      </trkpt>
      <trkpt lat="47.27211" lon="-1.56654">
        <ele>24</ele>
        <time>2023-11-03T14:00:51Z</time>
      </trkpt>
      <trkpt lat="47.27231" lon="-1.56641">
        <ele>23</ele>
        <time>2023-11-03T14:01:20Z</time>
      </trkpt>
      <trkpt lat="47.2723" lon="-1.56615">
        <ele>22</ele>
        <time>2023-11-03T14:01:44Z</time>
      </trkpt>
      <trkpt lat="47.27237" lon="-1.5664">
        <ele>23</ele>
        <time>2023-11-03T14:02:08Z</time>
      </trkpt>
      <trkpt lat="47.27256" lon="-1.56657">
        <ele>23</ele>
        <time>2023-11-03T14:02:38Z</time>
      </trkpt>
      <trkpt lat="47.27272" lon="-1.56672">
        <ele>23</ele>
        <time>2023-11-03T14:03:03Z</time>
      </trkpt>
      <trkpt lat="47.27289" lon="-1.56683">
        <ele>24</ele>
        <time>2023-11-03T14:03:28Z</time>
      </trkpt>
      <trkpt lat="47.27307" lon="-1.567">
        <ele>25</ele>
        <time>2023-11-03T14:03:57Z</time>
      </trkpt>
      <trkpt lat="47.27326" lon="-1.56712">
        <ele>26</ele>
        <time>2023-11-03T14:04:24Z</time>
      </trkpt>
      <trkpt lat="47.27342" lon="-1.56726">
        <ele>27</ele>
        <time>2023-11-03T14:04:49Z</time>
      </trkpt>
      <trkpt lat="47.27362" lon="-1.56739">
        <ele>27</ele>
        <time>2023-11-03T14:05:18Z</time>
      </trkpt>
      <trkpt lat="47.2738" lon="-1.56763">
        <ele>28</ele>
        <time>2023-11-03T14:05:51Z</time>
      </trkpt>
      <trkpt lat="47.27395" lon="-1.56777">
        <ele>28</ele>
        <time>2023-11-03T14:06:14Z</time>
      </trkpt>
      <trkpt lat="47.27414" lon="-1.56797">
        <ele>30</ele>
        <time>2023-11-03T14:06:45Z</time>
      </trkpt>
      <trkpt lat="47.27432" lon="-1.56811">
        <ele>31</ele>
        <time>2023-11-03T14:07:13Z</time>
      </trkpt>
      <trkpt lat="47.27453" lon="-1.56822">
        <ele>32</ele>
        <time>2023-11-03T14:07:42Z</time>
      </trkpt>
      <trkpt lat="47.27486" lon="-1.56846">
        <ele>33</ele>
        <time>2023-11-03T14:08:31Z</time>
      </trkpt>
      <trkpt lat="47.27503" lon="-1.5686">
        <ele>33</ele>
        <time>2023-11-03T14:08:57Z</time>
      </trkpt>
      <trkpt lat="47.27521" lon="-1.56876">
        <ele>33</ele>
        <time>2023-11-03T14:09:26Z</time>
      </trkpt>
      <trkpt lat="47.2754" lon="-1.56892">
        <ele>34</ele>
        <time>2023-11-03T14:09:55Z</time>
      </trkpt>
      <trkpt lat="47.27572" lon="-1.56918">
        <ele>36</ele>
        <time>2023-11-03T14:10:43Z</time>
      </trkpt>
      <trkpt lat="47.27588" lon="-1.56932">
        <ele>36</ele>
        <time>2023-11-03T14:11:08Z</time>
      </trkpt>
      <trkpt lat="47.27603" lon="-1.56948">
        <ele>36</ele>
        <time>2023-11-03T14:11:33Z</time>
      </trkpt>
      <trkpt lat="47.27613" lon="-1.56974">
        <ele>37</ele>
        <time>2023-11-03T14:12:00Z</time>
      </trkpt>
      <trkpt lat="47.27599" lon="-1.56992">
        <ele>38</ele>
        <time>2023-11-03T14:12:25Z</time>
      </trkpt>
      <trkpt lat="47.27583" lon="-1.57011">
        <ele>39</ele>
        <time>2023-11-03T14:12:52Z</time>
      </trkpt>
      <trkpt lat="47.27567" lon="-1.57035">
        <ele>39</ele>
        <time>2023-11-03T14:13:23Z</time>
      </trkpt>
      <trkpt lat="47.27553" lon="-1.57055">
        <ele>39</ele>
        <time>2023-11-03T14:13:49Z</time>
      </trkpt>
      <trkpt lat="47.27526" lon="-1.57102">
        <ele>39</ele>
        <time>2023-11-03T14:14:45Z</time>
      </trkpt>
      <trkpt lat="47.27512" lon="-1.57119">
        <ele>39</ele>
        <time>2023-11-03T14:15:09Z</time>
      </trkpt>
      <trkpt lat="47.27495" lon="-1.57131">
        <ele>39</ele>
        <time>2023-11-03T14:15:34Z</time>
      </trkpt>
      <trkpt lat="47.27477" lon="-1.57146">
        <ele>38</ele>
        <time>2023-11-03T14:16:01Z</time>
      </trkpt>
      <trkpt lat="47.27458" lon="-1.57151">
        <ele>38</ele>
        <time>2023-11-03T14:16:27Z</time>
      </trkpt>
      <trkpt lat="47.27438" lon="-1.57159">
        <ele>37</ele>
        <time>2023-11-03T14:16:55Z</time>
      </trkpt>
      <trkpt lat="47.27429" lon="-1.57183">
        <ele>37</ele>
        <time>2023-11-03T14:17:20Z</time>
      </trkpt>
      <trkpt lat="47.27429" lon="-1.57211">
        <ele>38</ele>
        <time>2023-11-03T14:17:45Z</time>
      </trkpt>
      <trkpt lat="47.27425" lon="-1.5727">
        <ele>39</ele>
        <time>2023-11-03T14:18:39Z</time>
      </trkpt>
      <trkpt lat="47.27422" lon="-1.57301">
        <ele>39</ele>
        <time>2023-11-03T14:19:07Z</time>
      </trkpt>
      <trkpt lat="47.27411" lon="-1.57385">
        <ele>39</ele>
        <time>2023-11-03T14:20:25Z</time>
      </trkpt>
      <trkpt lat="47.27406" lon="-1.57412">
        <ele>39</ele>
        <time>2023-11-03T14:20:50Z</time>
      </trkpt>
      <trkpt lat="47.27401" lon="-1.57472">
        <ele>39</ele>
        <time>2023-11-03T14:21:45Z</time>
      </trkpt>
      <trkpt lat="47.274" lon="-1.57502">
        <ele>39</ele>
        <time>2023-11-03T14:22:12Z</time>
      </trkpt>
      <trkpt lat="47.2741" lon="-1.57526">
        <ele>40</ele>
        <time>2023-11-03T14:22:37Z</time>
      </trkpt>
      <trkpt lat="47.27428" lon="-1.5753">
        <ele>40</ele>
        <time>2023-11-03T14:23:02Z</time>
      </trkpt>
      <trkpt lat="47.27445" lon="-1.57542">
        <ele>40</ele>
        <time>2023-11-03T14:23:27Z</time>
      </trkpt>
      <trkpt lat="47.27459" lon="-1.5756">
        <ele>40</ele>
        <time>2023-11-03T14:23:52Z</time>
      </trkpt>
      <trkpt lat="47.27475" lon="-1.57579">
        <ele>41</ele>
        <time>2023-11-03T14:24:19Z</time>
      </trkpt>
      <trkpt lat="47.27487" lon="-1.57601">
        <ele>41</ele>
        <time>2023-11-03T14:24:45Z</time>
      </trkpt>
      <trkpt lat="47.27495" lon="-1.57632">
        <ele>41</ele>
        <time>2023-11-03T14:25:15Z</time>
      </trkpt>
      <trkpt lat="47.27489" lon="-1.57657">
        <ele>41</ele>
        <time>2023-11-03T14:25:39Z</time>
      </trkpt>
      <trkpt lat="47.2748" lon="-1.57682">
        <ele>40</ele>
        <time>2023-11-03T14:26:04Z</time>
      </trkpt>
      <trkpt lat="47.27469" lon="-1.57709">
        <ele>39</ele>
        <time>2023-11-03T14:26:33Z</time>
      </trkpt>
      <trkpt lat="47.2746" lon="-1.57737">
        <ele>39</ele>
        <time>2023-11-03T14:27:01Z</time>
      </trkpt>
      <trkpt lat="47.27452" lon="-1.57767">
        <ele>38</ele>
        <time>2023-11-03T14:27:30Z</time>
      </trkpt>
      <trkpt lat="47.27448" lon="-1.57799">
        <ele>38</ele>
        <time>2023-11-03T14:27:59Z</time>
      </trkpt>
      <trkpt lat="47.27443" lon="-1.57824">
        <ele>38</ele>
        <time>2023-11-03T14:28:23Z</time>
      </trkpt>
      <trkpt lat="47.27441" lon="-1.57852">
        <ele>38</ele>
        <time>2023-11-03T14:28:49Z</time>
      </trkpt>
      <trkpt lat="47.27436" lon="-1.57879">
        <ele>39</ele>
        <time>2023-11-03T14:29:14Z</time>
      </trkpt>
      <trkpt lat="47.27433" lon="-1.57909">
        <ele>39</ele>
        <time>2023-11-03T14:29:41Z</time>
      </trkpt>
      <trkpt lat="47.27427" lon="-1.57936">
        <ele>40</ele>
        <time>2023-11-03T14:30:07Z</time>
      </trkpt>
      <trkpt lat="47.27419" lon="-1.57997">
        <ele>42</ele>
        <time>2023-11-03T14:31:03Z</time>
      </trkpt>
      <trkpt lat="47.27412" lon="-1.58026">
        <ele>42</ele>
        <time>2023-11-03T14:31:31Z</time>
      </trkpt>
      <trkpt lat="47.27415" lon="-1.5806">
        <ele>43</ele>
        <time>2023-11-03T14:32:02Z</time>
      </trkpt>
      <trkpt lat="47.27415" lon="-1.58091">
        <ele>43</ele>
        <time>2023-11-03T14:32:30Z</time>
      </trkpt>
      <trkpt lat="47.27409" lon="-1.58124">
        <ele>42</ele>
        <time>2023-11-03T14:33:01Z</time>
      </trkpt>
      <trkpt lat="47.27402" lon="-1.5815">
        <ele>42</ele>
        <time>2023-11-03T14:33:27Z</time>
      </trkpt>
      <trkpt lat="47.27391" lon="-1.58179">
        <ele>41</ele>
        <time>2023-11-03T14:33:57Z</time>
      </trkpt>
      <trkpt lat="47.27376" lon="-1.58199">
        <ele>41</ele>
        <time>2023-11-03T14:34:24Z</time>
      </trkpt>
      <trkpt lat="47.27366" lon="-1.58222">
        <ele>41</ele>
        <time>2023-11-03T14:34:48Z</time>
      </trkpt>
      <trkpt lat="47.27357" lon="-1.58248">
        <ele>41</ele>
        <time>2023-11-03T14:35:15Z</time>
      </trkpt>
      <trkpt lat="47.27351" lon="-1.58273">
        <ele>41</ele>
        <time>2023-11-03T14:35:39Z</time>
      </trkpt>
      <trkpt lat="47.27342" lon="-1.58301">
        <ele>41</ele>
        <time>2023-11-03T14:36:07Z</time>
      </trkpt>
      <trkpt lat="47.27329" lon="-1.58357">
        <ele>44</ele>
        <time>2023-11-03T14:37:00Z</time>
      </trkpt>
      <trkpt lat="47.27324" lon="-1.58384">
        <ele>45</ele>
        <time>2023-11-03T14:37:26Z</time>
      </trkpt>
      <trkpt lat="47.27313" lon="-1.58409">
        <ele>46</ele>
        <time>2023-11-03T14:37:53Z</time>
      </trkpt>
      <trkpt lat="47.27295" lon="-1.58408">
        <ele>46</ele>
        <time>2023-11-03T14:38:17Z</time>
      </trkpt>
      <trkpt lat="47.27277" lon="-1.58417">
        <ele>46</ele>
        <time>2023-11-03T14:38:42Z</time>
      </trkpt>
      <trkpt lat="47.27258" lon="-1.58419">
        <ele>45</ele>
        <time>2023-11-03T14:39:08Z</time>
      </trkpt>
      <trkpt lat="47.27235" lon="-1.58422">
        <ele>45</ele>
        <time>2023-11-03T14:39:38Z</time>
      </trkpt>
      <trkpt lat="47.27216" lon="-1.58414">
        <ele>45</ele>
        <time>2023-11-03T14:40:05Z</time>
      </trkpt>
      <trkpt lat="47.272" lon="-1.58391">
        <ele>44</ele>
        <time>2023-11-03T14:40:35Z</time>
      </trkpt>
      <trkpt lat="47.27188" lon="-1.58365">
        <ele>44</ele>
        <time>2023-11-03T14:41:03Z</time>
      </trkpt>
      <trkpt lat="47.27185" lon="-1.58336">
        <ele>43</ele>
        <time>2023-11-03T14:41:30Z</time>
      </trkpt>
      <trkpt lat="47.27193" lon="-1.5831">
        <ele>43</ele>
        <time>2023-11-03T14:41:55Z</time>
      </trkpt>
      <trkpt lat="47.27194" lon="-1.58278">
        <ele>43</ele>
        <time>2023-11-03T14:42:24Z</time>
      </trkpt>
      <trkpt lat="47.27174" lon="-1.58267">
        <ele>43</ele>
        <time>2023-11-03T14:42:53Z</time>
      </trkpt>
      <trkpt lat="47.27156" lon="-1.58261">
        <ele>43</ele>
        <time>2023-11-03T14:43:18Z</time>
      </trkpt>
      <trkpt lat="47.27139" lon="-1.58257">
        <ele>44</ele>
        <time>2023-11-03T14:43:41Z</time>
      </trkpt>
      <trkpt lat="47.27119" lon="-1.58247">
        <ele>44</ele>
        <time>2023-11-03T14:44:09Z</time>
      </trkpt>
      <trkpt lat="47.271" lon="-1.5824">
        <ele>44</ele>
        <time>2023-11-03T14:44:35Z</time>
      </trkpt>
      <trkpt lat="47.27082" lon="-1.58235">
        <ele>45</ele>
        <time>2023-11-03T14:44:59Z</time>
      </trkpt>
      <trkpt lat="47.27062" lon="-1.58226">
        <ele>45</ele>
        <time>2023-11-03T14:45:27Z</time>
      </trkpt>
      <trkpt lat="47.27046" lon="-1.58241">
        <ele>45</ele>
        <time>2023-11-03T14:45:53Z</time>
      </trkpt>
      <trkpt lat="47.27041" lon="-1.58273">
        <ele>46</ele>
        <time>2023-11-03T14:46:22Z</time>
      </trkpt>
      <trkpt lat="47.2704" lon="-1.58307">
        <ele>47</ele>
        <time>2023-11-03T14:46:53Z</time>
      </trkpt>
      <trkpt lat="47.2703" lon="-1.58333">
        <ele>48</ele>
        <time>2023-11-03T14:47:20Z</time>
      </trkpt>
      <trkpt lat="47.27026" lon="-1.58361">
        <ele>48</ele>
        <time>2023-11-03T14:47:46Z</time>
      </trkpt>
      <trkpt lat="47.27025" lon="-1.58391">
        <ele>48</ele>
        <time>2023-11-03T14:48:13Z</time>
      </trkpt>
      <trkpt lat="47.27043" lon="-1.58394">
        <ele>48</ele>
        <time>2023-11-03T14:48:37Z</time>
      </trkpt>
      <trkpt lat="47.27058" lon="-1.58415">
        <ele>48</ele>
        <time>2023-11-03T14:49:05Z</time>
      </trkpt>
      <trkpt lat="47.27076" lon="-1.58424">
        <ele>47</ele>
        <time>2023-11-03T14:49:30Z</time>
      </trkpt>
      <trkpt lat="47.27095" lon="-1.5841">
        <ele>47</ele>
        <time>2023-11-03T14:49:59Z</time>
      </trkpt>
      <trkpt lat="47.27137" lon="-1.5842">
        <ele>45</ele>
        <time>2023-11-03T14:50:56Z</time>
      </trkpt>
      <trkpt lat="47.27157" lon="-1.58428">
        <ele>44</ele>
        <time>2023-11-03T14:51:23Z</time>
      </trkpt>
      <trkpt lat="47.27175" lon="-1.58412">
        <ele>44</ele>
        <time>2023-11-03T14:51:51Z</time>
      </trkpt>
      <trkpt lat="47.27194" lon="-1.58404">
        <ele>44</ele>
        <time>2023-11-03T14:52:18Z</time>
      </trkpt>
      <trkpt lat="47.27216" lon="-1.58398">
        <ele>45</ele>
        <time>2023-11-03T14:52:47Z</time>
      </trkpt>
      <trkpt lat="47.27234" lon="-1.584">
        <ele>45</ele>
        <time>2023-11-03T14:53:12Z</time>
      </trkpt>
      <trkpt lat="47.27256" lon="-1.584">
        <ele>45</ele>
        <time>2023-11-03T14:53:41Z</time>
      </trkpt>
      <trkpt lat="47.27277" lon="-1.58406">
        <ele>45</ele>
        <time>2023-11-03T14:54:09Z</time>
      </trkpt>
      <trkpt lat="47.27295" lon="-1.58397">
        <ele>45</ele>
        <time>2023-11-03T14:54:35Z</time>
      </trkpt>
      <trkpt lat="47.27313" lon="-1.58397">
        <ele>46</ele>
        <time>2023-11-03T14:54:59Z</time>
      </trkpt>
      <trkpt lat="47.27331" lon="-1.58402">
        <ele>46</ele>
        <time>2023-11-03T14:55:23Z</time>
      </trkpt>
      <trkpt lat="47.2735" lon="-1.58404">
        <ele>47</ele>
        <time>2023-11-03T14:55:49Z</time>
      </trkpt>
      <trkpt lat="47.27369" lon="-1.58409">
        <ele>47</ele>
        <time>2023-11-03T14:56:14Z</time>
      </trkpt>
      <trkpt lat="47.27408" lon="-1.58416">
        <ele>49</ele>
        <time>2023-11-03T14:57:07Z</time>
      </trkpt>
      <trkpt lat="47.27427" lon="-1.58421">
        <ele>49</ele>
        <time>2023-11-03T14:57:33Z</time>
      </trkpt>
      <trkpt lat="47.27445" lon="-1.58423">
        <ele>50</ele>
        <time>2023-11-03T14:57:57Z</time>
      </trkpt>
      <trkpt lat="47.27464" lon="-1.58425">
        <ele>50</ele>
        <time>2023-11-03T14:58:22Z</time>
      </trkpt>
      <trkpt lat="47.27506" lon="-1.58436">
        <ele>52</ele>
        <time>2023-11-03T14:59:19Z</time>
      </trkpt>
      <trkpt lat="47.27526" lon="-1.58445">
        <ele>52</ele>
        <time>2023-11-03T14:59:47Z</time>
      </trkpt>
      <trkpt lat="47.27544" lon="-1.58459">
        <ele>53</ele>
        <time>2023-11-03T15:00:14Z</time>
      </trkpt>
      <trkpt lat="47.27562" lon="-1.58471">
        <ele>53</ele>
        <time>2023-11-03T15:00:40Z</time>
      </trkpt>
      <trkpt lat="47.2758" lon="-1.5848">
        <ele>52</ele>
        <time>2023-11-03T15:01:06Z</time>
      </trkpt>
      <trkpt lat="47.27599" lon="-1.58488">
        <ele>52</ele>
        <time>2023-11-03T15:01:32Z</time>
      </trkpt>
      <trkpt lat="47.2762" lon="-1.58495">
        <ele>51</ele>
        <time>2023-11-03T15:02:01Z</time>
      </trkpt>
      <trkpt lat="47.27637" lon="-1.58502">
        <ele>51</ele>
        <time>2023-11-03T15:02:24Z</time>
      </trkpt>
      <trkpt lat="47.27656" lon="-1.5851">
        <ele>50</ele>
        <time>2023-11-03T15:02:51Z</time>
      </trkpt>
      <trkpt lat="47.27673" lon="-1.58522">
        <ele>50</ele>
        <time>2023-11-03T15:03:16Z</time>
      </trkpt>
      <trkpt lat="47.27693" lon="-1.58532">
        <ele>51</ele>
        <time>2023-11-03T15:03:44Z</time>
      </trkpt>
      <trkpt lat="47.27714" lon="-1.58542">
        <ele>52</ele>
        <time>2023-11-03T15:04:14Z</time>
      </trkpt>
      <trkpt lat="47.27733" lon="-1.58549">
        <ele>53</ele>
        <time>2023-11-03T15:04:40Z</time>
      </trkpt>
      <trkpt lat="47.27755" lon="-1.58558">
        <ele>53</ele>
        <time>2023-11-03T15:05:10Z</time>
      </trkpt>
      <trkpt lat="47.27773" lon="-1.58564">
        <ele>53</ele>
        <time>2023-11-03T15:05:35Z</time>
      </trkpt>
      <trkpt lat="47.27796" lon="-1.58572">
        <ele>52</ele>
        <time>2023-11-03T15:06:06Z</time>
      </trkpt>
      <trkpt lat="47.27818" lon="-1.5858">
        <ele>52</ele>
        <time>2023-11-03T15:06:37Z</time>
      </trkpt>
      <trkpt lat="47.27837" lon="-1.58584">
        <ele>52</ele>
        <time>2023-11-03T15:07:02Z</time>
      </trkpt>
      <trkpt lat="47.27857" lon="-1.58592">
        <ele>52</ele>
        <time>2023-11-03T15:07:30Z</time>
      </trkpt>
      <trkpt lat="47.27881" lon="-1.58595">
        <ele>53</ele>
        <time>2023-11-03T15:08:02Z</time>
      </trkpt>
      <trkpt lat="47.27902" lon="-1.58597">
        <ele>53</ele>
        <time>2023-11-03T15:08:30Z</time>
      </trkpt>
      <trkpt lat="47.27943" lon="-1.58599">
        <ele>53</ele>
        <time>2023-11-03T15:09:25Z</time>
      </trkpt>
      <trkpt lat="47.27962" lon="-1.58599">
        <ele>53</ele>
        <time>2023-11-03T15:09:50Z</time>
      </trkpt>
      <trkpt lat="47.28001" lon="-1.58595">
        <ele>54</ele>
        <time>2023-11-03T15:10:42Z</time>
      </trkpt>
      <trkpt lat="47.28021" lon="-1.586">
        <ele>53</ele>
        <time>2023-11-03T15:11:09Z</time>
      </trkpt>
      <trkpt lat="47.28033" lon="-1.58576">
        <ele>54</ele>
        <time>2023-11-03T15:11:36Z</time>
      </trkpt>
      <trkpt lat="47.2804" lon="-1.58544">
        <ele>54</ele>
        <time>2023-11-03T15:12:07Z</time>
      </trkpt>
      <trkpt lat="47.28051" lon="-1.58523">
        <ele>54</ele>
        <time>2023-11-03T15:12:31Z</time>
      </trkpt>
      <trkpt lat="47.28071" lon="-1.58476">
        <ele>53</ele>
        <time>2023-11-03T15:13:21Z</time>
      </trkpt>
      <trkpt lat="47.28085" lon="-1.58452">
        <ele>53</ele>
        <time>2023-11-03T15:13:50Z</time>
      </trkpt>
      <trkpt lat="47.28093" lon="-1.58426">
        <ele>52</ele>
        <time>2023-11-03T15:14:16Z</time>
      </trkpt>
      <trkpt lat="47.28115" lon="-1.58379">
        <ele>50</ele>
        <time>2023-11-03T15:15:07Z</time>
      </trkpt>
      <trkpt lat="47.2813" lon="-1.58354">
        <ele>50</ele>
        <time>2023-11-03T15:15:38Z</time>
      </trkpt>
      <trkpt lat="47.28151" lon="-1.58302">
        <ele>48</ele>
        <time>2023-11-03T15:16:32Z</time>
      </trkpt>
      <trkpt lat="47.28161" lon="-1.58278">
        <ele>48</ele>
        <time>2023-11-03T15:16:58Z</time>
      </trkpt>
      <trkpt lat="47.28179" lon="-1.58229">
        <ele>48</ele>
        <time>2023-11-03T15:17:48Z</time>
      </trkpt>
      <trkpt lat="47.28195" lon="-1.58212">
        <ele>48</ele>
        <time>2023-11-03T15:18:15Z</time>
      </trkpt>
      <trkpt lat="47.28207" lon="-1.58184">
        <ele>48</ele>
        <time>2023-11-03T15:18:45Z</time>
      </trkpt>
      <trkpt lat="47.28213" lon="-1.58156">
        <ele>48</ele>
        <time>2023-11-03T15:19:11Z</time>
      </trkpt>
      <trkpt lat="47.28225" lon="-1.58133">
        <ele>48</ele>
        <time>2023-11-03T15:19:37Z</time>
      </trkpt>
      <trkpt lat="47.28241" lon="-1.58108">
        <ele>47</ele>
        <time>2023-11-03T15:20:09Z</time>
      </trkpt>
      <trkpt lat="47.28235" lon="-1.58081">
        <ele>47</ele>
        <time>2023-11-03T15:20:34Z</time>
      </trkpt>
      <trkpt lat="47.28233" lon="-1.58051">
        <ele>47</ele>
        <time>2023-11-03T15:21:02Z</time>
      </trkpt>
      <trkpt lat="47.28249" lon="-1.58036">
        <ele>47</ele>
        <time>2023-11-03T15:21:27Z</time>
      </trkpt>
      <trkpt lat="47.28306" lon="-1.57999">
        <ele>45</ele>
        <time>2023-11-03T15:22:50Z</time>
      </trkpt>
      <trkpt lat="47.28325" lon="-1.57986">
        <ele>44</ele>
        <time>2023-11-03T15:23:18Z</time>
      </trkpt>
      <trkpt lat="47.28341" lon="-1.57971">
        <ele>44</ele>
        <time>2023-11-03T15:23:43Z</time>
      </trkpt>
      <trkpt lat="47.28357" lon="-1.57958">
        <ele>44</ele>
        <time>2023-11-03T15:24:08Z</time>
      </trkpt>
      <trkpt lat="47.28369" lon="-1.57937">
        <ele>44</ele>
        <time>2023-11-03T15:24:32Z</time>
      </trkpt>
      <trkpt lat="47.28386" lon="-1.57913">
        <ele>44</ele>
        <time>2023-11-03T15:25:04Z</time>
      </trkpt>
      <trkpt lat="47.28403" lon="-1.5789">
        <ele>43</ele>
        <time>2023-11-03T15:25:35Z</time>
      </trkpt>
      <trkpt lat="47.28417" lon="-1.5787">
        <ele>43</ele>
        <time>2023-11-03T15:26:01Z</time>
      </trkpt>
      <trkpt lat="47.28428" lon="-1.57846">
        <ele>42</ele>
        <time>2023-11-03T15:26:27Z</time>
      </trkpt>
      <trkpt lat="47.28459" lon="-1.578">
        <ele>43</ele>
        <time>2023-11-03T15:27:26Z</time>
      </trkpt>
      <trkpt lat="47.2847" lon="-1.57778">
        <ele>43</ele>
        <time>2023-11-03T15:27:50Z</time>
      </trkpt>
      <trkpt lat="47.28486" lon="-1.57759">
        <ele>43</ele>
        <time>2023-11-03T15:28:18Z</time>
      </trkpt>
      <trkpt lat="47.28501" lon="-1.57737">
        <ele>43</ele>
        <time>2023-11-03T15:28:46Z</time>
      </trkpt>
      <trkpt lat="47.28518" lon="-1.57716">
        <ele>43</ele>
        <time>2023-11-03T15:29:16Z</time>
      </trkpt>
      <trkpt lat="47.28532" lon="-1.57693">
        <ele>43</ele>
        <time>2023-11-03T15:29:44Z</time>
      </trkpt>
      <trkpt lat="47.28551" lon="-1.57678">
        <ele>44</ele>
        <time>2023-11-03T15:30:12Z</time>
      </trkpt>
      <trkpt lat="47.28587" lon="-1.57644">
        <ele>44</ele>
        <time>2023-11-03T15:31:09Z</time>
      </trkpt>
      <trkpt lat="47.28606" lon="-1.5763">
        <ele>43</ele>
        <time>2023-11-03T15:31:38Z</time>
      </trkpt>
      <trkpt lat="47.28625" lon="-1.57612">
        <ele>43</ele>
        <time>2023-11-03T15:32:08Z</time>
      </trkpt>
      <trkpt lat="47.28642" lon="-1.57592">
        <ele>43</ele>
        <time>2023-11-03T15:32:37Z</time>
      </trkpt>
      <trkpt lat="47.28661" lon="-1.57579">
        <ele>43</ele>
        <time>2023-11-03T15:33:05Z</time>
      </trkpt>
      <trkpt lat="47.2868" lon="-1.57562">
        <ele>43</ele>
        <time>2023-11-03T15:33:35Z</time>
      </trkpt>
      <trkpt lat="47.28699" lon="-1.57547">
        <ele>42</ele>
        <time>2023-11-03T15:34:03Z</time>
      </trkpt>
      <trkpt lat="47.28716" lon="-1.57531">
        <ele>42</ele>
        <time>2023-11-03T15:34:30Z</time>
      </trkpt>
      <trkpt lat="47.2871" lon="-1.57506">
        <ele>42</ele>
        <time>2023-11-03T15:34:54Z</time>
      </trkpt>
      <trkpt lat="47.28697" lon="-1.5748">
        <ele>43</ele>
        <time>2023-11-03T15:35:23Z</time>
      </trkpt>
      <trkpt lat="47.28677" lon="-1.5743">
        <ele>44</ele>
        <time>2023-11-03T15:36:16Z</time>
      </trkpt>
      <trkpt lat="47.28668" lon="-1.57402">
        <ele>44</ele>
        <time>2023-11-03T15:36:44Z</time>
      </trkpt>
      <trkpt lat="47.28644" lon="-1.57348">
        <ele>46</ele>
        <time>2023-11-03T15:37:42Z</time>
      </trkpt>
      <trkpt lat="47.28632" lon="-1.57322">
        <ele>46</ele>
        <time>2023-11-03T15:38:11Z</time>
      </trkpt>
      <trkpt lat="47.28623" lon="-1.57293">
        <ele>46</ele>
        <time>2023-11-03T15:38:40Z</time>
      </trkpt>
      <trkpt lat="47.28615" lon="-1.57262">
        <ele>45</ele>
        <time>2023-11-03T15:39:10Z</time>
      </trkpt>
      <trkpt lat="47.28605" lon="-1.57236">
        <ele>45</ele>
        <time>2023-11-03T15:39:37Z</time>
      </trkpt>
      <trkpt lat="47.28601" lon="-1.57208">
        <ele>44</ele>
        <time>2023-11-03T15:40:03Z</time>
      </trkpt>
      <trkpt lat="47.28593" lon="-1.57178">
        <ele>44</ele>
        <time>2023-11-03T15:40:32Z</time>
      </trkpt>
      <trkpt lat="47.28598" lon="-1.57148">
        <ele>42</ele>
        <time>2023-11-03T15:41:00Z</time>
      </trkpt>
      <trkpt lat="47.28611" lon="-1.57124">
        <ele>39</ele>
        <time>2023-11-03T15:41:28Z</time>
      </trkpt>
      <trkpt lat="47.28628" lon="-1.57112">
        <ele>38</ele>
        <time>2023-11-03T15:41:53Z</time>
      </trkpt>
      <trkpt lat="47.28649" lon="-1.57099">
        <ele>36</ele>
        <time>2023-11-03T15:42:23Z</time>
      </trkpt>
      <trkpt lat="47.28667" lon="-1.57106">
        <ele>36</ele>
        <time>2023-11-03T15:42:48Z</time>
      </trkpt>
      <trkpt lat="47.28685" lon="-1.57101">
        <ele>36</ele>
        <time>2023-11-03T15:43:13Z</time>
      </trkpt>
      <trkpt lat="47.28706" lon="-1.57091">
        <ele>36</ele>
        <time>2023-11-03T15:43:42Z</time>
      </trkpt>
      <trkpt lat="47.28727" lon="-1.57087">
        <ele>36</ele>
        <time>2023-11-03T15:44:10Z</time>
      </trkpt>
      <trkpt lat="47.28748" lon="-1.57081">
        <ele>36</ele>
        <time>2023-11-03T15:44:39Z</time>
      </trkpt>
      <trkpt lat="47.28786" lon="-1.57067">
        <ele>37</ele>
        <time>2023-11-03T15:45:31Z</time>
      </trkpt>
      <trkpt lat="47.28805" lon="-1.57063">
        <ele>37</ele>
        <time>2023-11-03T15:45:57Z</time>
      </trkpt>
      <trkpt lat="47.28821" lon="-1.57052">
        <ele>38</ele>
        <time>2023-11-03T15:46:20Z</time>
      </trkpt>
      <trkpt lat="47.28835" lon="-1.57031">
        <ele>38</ele>
        <time>2023-11-03T15:46:47Z</time>
      </trkpt>
      <trkpt lat="47.28848" lon="-1.57012">
        <ele>38</ele>
        <time>2023-11-03T15:47:11Z</time>
      </trkpt>
      <trkpt lat="47.28865" lon="-1.57">
        <ele>38</ele>
        <time>2023-11-03T15:47:36Z</time>
      </trkpt>
      <trkpt lat="47.28881" lon="-1.56987">
        <ele>37</ele>
        <time>2023-11-03T15:48:01Z</time>
      </trkpt>
      <trkpt lat="47.28901" lon="-1.5698">
        <ele>36</ele>
        <time>2023-11-03T15:48:28Z</time>
      </trkpt>
      <trkpt lat="47.28919" lon="-1.56972">
        <ele>36</ele>
        <time>2023-11-03T15:48:53Z</time>
      </trkpt>
      <trkpt lat="47.28939" lon="-1.56964">
        <ele>35</ele>
        <time>2023-11-03T15:49:21Z</time>
      </trkpt>
      <trkpt lat="47.28958" lon="-1.5696">
        <ele>34</ele>
        <time>2023-11-03T15:49:47Z</time>
      </trkpt>
      <trkpt lat="47.28978" lon="-1.56958">
        <ele>33</ele>
        <time>2023-11-03T15:50:13Z</time>
      </trkpt>
      <trkpt lat="47.28996" lon="-1.5695">
        <ele>32</ele>
        <time>2023-11-03T15:50:38Z</time>
      </trkpt>
      <trkpt lat="47.29014" lon="-1.56959">
        <ele>33</ele>
        <time>2023-11-03T15:51:04Z</time>
      </trkpt>
      <trkpt lat="47.29032" lon="-1.56963">
        <ele>33</ele>
        <time>2023-11-03T15:51:28Z</time>
      </trkpt>
      <trkpt lat="47.29043" lon="-1.56991">
        <ele>34</ele>
        <time>2023-11-03T15:51:57Z</time>
      </trkpt>
      <trkpt lat="47.29059" lon="-1.57012">
        <ele>34</ele>
        <time>2023-11-03T15:52:26Z</time>
      </trkpt>
      <trkpt lat="47.29078" lon="-1.57022">
        <ele>34</ele>
        <time>2023-11-03T15:52:53Z</time>
      </trkpt>
      <trkpt lat="47.29097" lon="-1.57011">
        <ele>33</ele>
        <time>2023-11-03T15:53:20Z</time>
      </trkpt>
      <trkpt lat="47.29116" lon="-1.56993">
        <ele>33</ele>
        <time>2023-11-03T15:53:50Z</time>
      </trkpt>
      <trkpt lat="47.29133" lon="-1.5698">
        <ele>32</ele>
        <time>2023-11-03T15:54:16Z</time>
      </trkpt>
      <trkpt lat="47.2915" lon="-1.56965">
        <ele>32</ele>
        <time>2023-11-03T15:54:42Z</time>
      </trkpt>
      <trkpt lat="47.29169" lon="-1.56953">
        <ele>31</ele>
        <time>2023-11-03T15:55:10Z</time>
      </trkpt>
      <trkpt lat="47.29189" lon="-1.56943">
        <ele>30</ele>
        <time>2023-11-03T15:55:38Z</time>
      </trkpt>
      <trkpt lat="47.29204" lon="-1.56919">
        <ele>29</ele>
        <time>2023-11-03T15:56:08Z</time>
      </trkpt>
      <trkpt lat="47.29214" lon="-1.56894">
        <ele>27</ele>
        <time>2023-11-03T15:56:34Z</time>
      </trkpt>
      <trkpt lat="47.29228" lon="-1.56864">
        <ele>25</ele>
        <time>2023-11-03T15:57:07Z</time>
      </trkpt>
      <trkpt lat="47.29241" lon="-1.56839">
        <ele>23</ele>
        <time>2023-11-03T15:57:35Z</time>
      </trkpt>
      <trkpt lat="47.29258" lon="-1.5683">
        <ele>21</ele>
        <time>2023-11-03T15:57:59Z</time>
      </trkpt>
      <trkpt lat="47.29268" lon="-1.56805">
        <ele>18</ele>
        <time>2023-11-03T15:58:26Z</time>
      </trkpt>
      <trkpt lat="47.29268" lon="-1.56774">
        <ele>16</ele>
        <time>2023-11-03T15:58:54Z</time>
      </trkpt>
      <trkpt lat="47.29263" lon="-1.56748">
        <ele>14</ele>
        <time>2023-11-03T15:59:18Z</time>
      </trkpt>
      <trkpt lat="47.29248" lon="-1.56723">
        <ele>15</ele>
        <time>2023-11-03T15:59:48Z</time>
      </trkpt>
      <trkpt lat="47.29242" lon="-1.56695">
        <ele>15</ele>
        <time>2023-11-03T16:00:15Z</time>
      </trkpt>
      <trkpt lat="47.29237" lon="-1.56664">
        <ele>16</ele>
        <time>2023-11-03T16:00:44Z</time>
      </trkpt>
      <trkpt lat="47.29223" lon="-1.56643">
        <ele>18</ele>
        <time>2023-11-03T16:01:11Z</time>
      </trkpt>
      <trkpt lat="47.29205" lon="-1.56638">
        <ele>18</ele>
        <time>2023-11-03T16:01:35Z</time>
      </trkpt>
      <trkpt lat="47.29183" lon="-1.56639">
        <ele>18</ele>
        <time>2023-11-03T16:02:04Z</time>
      </trkpt>
      <trkpt lat="47.29162" lon="-1.56638">
        <ele>18</ele>
        <time>2023-11-03T16:02:32Z</time>
      </trkpt>
      <trkpt lat="47.29143" lon="-1.56634">
        <ele>18</ele>
        <time>2023-11-03T16:02:58Z</time>
      </trkpt>
      <trkpt lat="47.29114" lon="-1.56598">
        <ele>20</ele>
        <time>2023-11-03T16:03:49Z</time>
      </trkpt>
      <trkpt lat="47.29101" lon="-1.56579">
        <ele>21</ele>
        <time>2023-11-03T16:04:13Z</time>
      </trkpt>
      <trkpt lat="47.29096" lon="-1.56551">
        <ele>23</ele>
        <time>2023-11-03T16:04:39Z</time>
      </trkpt>
      <trkpt lat="47.29086" lon="-1.56525">
        <ele>26</ele>
        <time>2023-11-03T16:05:06Z</time>
      </trkpt>
      <trkpt lat="47.29078" lon="-1.565">
        <ele>28</ele>
        <time>2023-11-03T16:05:31Z</time>
      </trkpt>
      <trkpt lat="47.29063" lon="-1.5648">
        <ele>29</ele>
        <time>2023-11-03T16:05:58Z</time>
      </trkpt>
      <trkpt lat="47.2905" lon="-1.56462">
        <ele>30</ele>
        <time>2023-11-03T16:06:22Z</time>
      </trkpt>
      <trkpt lat="47.29029" lon="-1.56458">
        <ele>31</ele>
        <time>2023-11-03T16:06:50Z</time>
      </trkpt>
      <trkpt lat="47.29011" lon="-1.56454">
        <ele>31</ele>
        <time>2023-11-03T16:07:15Z</time>
      </trkpt>
      <trkpt lat="47.28991" lon="-1.56454">
        <ele>31</ele>
        <time>2023-11-03T16:07:41Z</time>
      </trkpt>
      <trkpt lat="47.2897" lon="-1.56458">
        <ele>31</ele>
        <time>2023-11-03T16:08:10Z</time>
      </trkpt>
      <trkpt lat="47.28953" lon="-1.5647">
        <ele>31</ele>
        <time>2023-11-03T16:08:35Z</time>
      </trkpt>
      <trkpt lat="47.28928" lon="-1.56485">
        <ele>31</ele>
        <time>2023-11-03T16:09:11Z</time>
      </trkpt>
      <trkpt lat="47.28899" lon="-1.56519">
        <ele>28</ele>
        <time>2023-11-03T16:10:00Z</time>
      </trkpt>
      <trkpt lat="47.28884" lon="-1.56536">
        <ele>26</ele>
        <time>2023-11-03T16:10:25Z</time>
      </trkpt>
      <trkpt lat="47.28875" lon="-1.56563">
        <ele>23</ele>
        <time>2023-11-03T16:10:53Z</time>
      </trkpt>
      <trkpt lat="47.28872" lon="-1.56591">
        <ele>21</ele>
        <time>2023-11-03T16:11:18Z</time>
      </trkpt>
      <trkpt lat="47.28864" lon="-1.56618">
        <ele>19</ele>
        <time>2023-11-03T16:11:45Z</time>
      </trkpt>
      <trkpt lat="47.28857" lon="-1.56648">
        <ele>17</ele>
        <time>2023-11-03T16:12:14Z</time>
      </trkpt>
      <trkpt lat="47.28853" lon="-1.56677">
        <ele>16</ele>
        <time>2023-11-03T16:12:41Z</time>
      </trkpt>
      <trkpt lat="47.28849" lon="-1.56709">
        <ele>16</ele>
        <time>2023-11-03T16:13:10Z</time>
      </trkpt>
      <trkpt lat="47.28847" lon="-1.56742">
        <ele>15</ele>
        <time>2023-11-03T16:13:40Z</time>
      </trkpt>
      <trkpt lat="47.28828" lon="-1.56757">
        <ele>15</ele>
        <time>2023-11-03T16:14:09Z</time>
      </trkpt>
      <trkpt lat="47.28806" lon="-1.56761">
        <ele>14</ele>
        <time>2023-11-03T16:14:38Z</time>
      </trkpt>
      <trkpt lat="47.28785" lon="-1.56757">
        <ele>14</ele>
        <time>2023-11-03T16:15:07Z</time>
      </trkpt>
      <trkpt lat="47.28744" lon="-1.56738">
        <ele>12</ele>
        <time>2023-11-03T16:16:04Z</time>
      </trkpt>
      <trkpt lat="47.28723" lon="-1.5673">
        <ele>12</ele>
        <time>2023-11-03T16:16:33Z</time>
      </trkpt>
      <trkpt lat="47.28705" lon="-1.56716">
        <ele>12</ele>
        <time>2023-11-03T16:17:00Z</time>
      </trkpt>
      <trkpt lat="47.28691" lon="-1.56698">
        <ele>13</ele>
        <time>2023-11-03T16:17:25Z</time>
      </trkpt>
      <trkpt lat="47.28673" lon="-1.56684">
        <ele>13</ele>
        <time>2023-11-03T16:17:52Z</time>
      </trkpt>
      <trkpt lat="47.28652" lon="-1.56681">
        <ele>13</ele>
        <time>2023-11-03T16:18:20Z</time>
      </trkpt>
      <trkpt lat="47.28633" lon="-1.56676">
        <ele>13</ele>
        <time>2023-11-03T16:18:46Z</time>
      </trkpt>
      <trkpt lat="47.28614" lon="-1.56672">
        <ele>12</ele>
        <time>2023-11-03T16:19:11Z</time>
      </trkpt>
      <trkpt lat="47.28594" lon="-1.5666">
        <ele>12</ele>
        <time>2023-11-03T16:19:40Z</time>
      </trkpt>
      <trkpt lat="47.28577" lon="-1.56646">
        <ele>12</ele>
        <time>2023-11-03T16:20:06Z</time>
      </trkpt>
      <trkpt lat="47.28563" lon="-1.56618">
        <ele>14</ele>
        <time>2023-11-03T16:20:38Z</time>
      </trkpt>
      <trkpt lat="47.28553" lon="-1.56592">
        <ele>14</ele>
        <time>2023-11-03T16:21:05Z</time>
      </trkpt>
      <trkpt lat="47.28556" lon="-1.56563">
        <ele>17</ele>
        <time>2023-11-03T16:21:31Z</time>
      </trkpt>
      <trkpt lat="47.28551" lon="-1.56536">
        <ele>19</ele>
        <time>2023-11-03T16:21:57Z</time>
      </trkpt>
      <trkpt lat="47.28544" lon="-1.56505">
        <ele>22</ele>
        <time>2023-11-03T16:22:26Z</time>
      </trkpt>
      <trkpt lat="47.28528" lon="-1.56488">
        <ele>23</ele>
        <time>2023-11-03T16:22:53Z</time>
      </trkpt>
      <trkpt lat="47.28507" lon="-1.56481">
        <ele>22</ele>
        <time>2023-11-03T16:23:21Z</time>
      </trkpt>
      <trkpt lat="47.28486" lon="-1.56477">
        <ele>22</ele>
        <time>2023-11-03T16:23:50Z</time>
      </trkpt>
      <trkpt lat="47.28468" lon="-1.56486">
        <ele>20</ele>
        <time>2023-11-03T16:24:15Z</time>
      </trkpt>
      <trkpt lat="47.2845" lon="-1.5649">
        <ele>19</ele>
        <time>2023-11-03T16:24:39Z</time>
      </trkpt>
      <trkpt lat="47.28427" lon="-1.56494">
        <ele>17</ele>
        <time>2023-11-03T16:25:10Z</time>
      </trkpt>
      <trkpt lat="47.28406" lon="-1.56487">
        <ele>17</ele>
        <time>2023-11-03T16:25:39Z</time>
      </trkpt>
      <trkpt lat="47.28388" lon="-1.56481">
        <ele>18</ele>
        <time>2023-11-03T16:26:04Z</time>
      </trkpt>
      <trkpt lat="47.28367" lon="-1.56489">
        <ele>17</ele>
        <time>2023-11-03T16:26:32Z</time>
      </trkpt>
      <trkpt lat="47.28348" lon="-1.56484">
        <ele>17</ele>
        <time>2023-11-03T16:26:58Z</time>
      </trkpt>
      <trkpt lat="47.28326" lon="-1.56481">
        <ele>17</ele>
        <time>2023-11-03T16:27:28Z</time>
      </trkpt>
      <trkpt lat="47.28307" lon="-1.56483">
        <ele>18</ele>
        <time>2023-11-03T16:27:53Z</time>
      </trkpt>
      <trkpt lat="47.28284" lon="-1.5649">
        <ele>18</ele>
        <time>2023-11-03T16:28:24Z</time>
      </trkpt>
      <trkpt lat="47.28263" lon="-1.5649">
        <ele>18</ele>
        <time>2023-11-03T16:28:52Z</time>
      </trkpt>
      <trkpt lat="47.28243" lon="-1.56498">
        <ele>19</ele>
        <time>2023-11-03T16:29:20Z</time>
      </trkpt>
      <trkpt lat="47.28226" lon="-1.56509">
        <ele>20</ele>
        <time>2023-11-03T16:29:45Z</time>
      </trkpt>
      <trkpt lat="47.28211" lon="-1.56532">
        <ele>20</ele>
        <time>2023-11-03T16:30:14Z</time>
      </trkpt>
      <trkpt lat="47.28198" lon="-1.56556">
        <ele>18</ele>
        <time>2023-11-03T16:30:42Z</time>
      </trkpt>
      <trkpt lat="47.2818" lon="-1.56569">
        <ele>19</ele>
        <time>2023-11-03T16:31:08Z</time>
      </trkpt>
      <trkpt lat="47.28161" lon="-1.56582">
        <ele>18</ele>
        <time>2023-11-03T16:31:36Z</time>
      </trkpt>
      <trkpt lat="47.28141" lon="-1.56593">
        <ele>19</ele>
        <time>2023-11-03T16:32:05Z</time>
      </trkpt>
      <trkpt lat="47.28124" lon="-1.56605">
        <ele>19</ele>
        <time>2023-11-03T16:32:30Z</time>
      </trkpt>
      <trkpt lat="47.28105" lon="-1.56615">
        <ele>19</ele>
        <time>2023-11-03T16:32:57Z</time>
      </trkpt>
      <trkpt lat="47.28083" lon="-1.56621">
        <ele>19</ele>
        <time>2023-11-03T16:33:27Z</time>
      </trkpt>
      <trkpt lat="47.28043" lon="-1.56625">
        <ele>19</ele>
        <time>2023-11-03T16:34:20Z</time>
      </trkpt>
      <trkpt lat="47.28025" lon="-1.56626">
        <ele>18</ele>
        <time>2023-11-03T16:34:44Z</time>
      </trkpt>
      <trkpt lat="47.28007" lon="-1.56618">
        <ele>19</ele>
        <time>2023-11-03T16:35:09Z</time>
      </trkpt>
      <trkpt lat="47.2799" lon="-1.56606">
        <ele>19</ele>
        <time>2023-11-03T16:35:35Z</time>
      </trkpt>
      <trkpt lat="47.27969" lon="-1.56612">
        <ele>18</ele>
        <time>2023-11-03T16:36:03Z</time>
      </trkpt>
      <trkpt lat="47.27949" lon="-1.56614">
        <ele>17</ele>
        <time>2023-11-03T16:36:30Z</time>
      </trkpt>
      <trkpt lat="47.27933" lon="-1.56597">
        <ele>17</ele>
        <time>2023-11-03T16:36:56Z</time>
      </trkpt>
      <trkpt lat="47.27912" lon="-1.56593">
        <ele>16</ele>
        <time>2023-11-03T16:37:24Z</time>
      </trkpt>
      <trkpt lat="47.27894" lon="-1.56581">
        <ele>14</ele>
        <time>2023-11-03T16:37:51Z</time>
      </trkpt>
      <trkpt lat="47.27878" lon="-1.56566">
        <ele>13</ele>
        <time>2023-11-03T16:38:16Z</time>
      </trkpt>
      <trkpt lat="47.27864" lon="-1.56543">
        <ele>13</ele>
        <time>2023-11-03T16:38:44Z</time>
      </trkpt>
      <trkpt lat="47.27858" lon="-1.56512">
        <ele>14</ele>
        <time>2023-11-03T16:39:13Z</time>
      </trkpt>
      <trkpt lat="47.27861" lon="-1.56485">
        <ele>15</ele>
        <time>2023-11-03T16:39:38Z</time>
      </trkpt>
      <trkpt lat="47.27871" lon="-1.56459">
        <ele>18</ele>
        <time>2023-11-03T16:40:05Z</time>
      </trkpt>
      <trkpt lat="47.27883" lon="-1.56432">
        <ele>21</ele>
        <time>2023-11-03T16:40:34Z</time>
      </trkpt>
      <trkpt lat="47.27889" lon="-1.56404">
        <ele>24</ele>
        <time>2023-11-03T16:41:01Z</time>
      </trkpt>
      <trkpt lat="47.27907" lon="-1.56391">
        <ele>26</ele>
        <time>2023-11-03T16:41:28Z</time>
      </trkpt>
      <trkpt lat="47.27925" lon="-1.56383">
        <ele>28</ele>
        <time>2023-11-03T16:41:53Z</time>
      </trkpt>
      <trkpt lat="47.27929" lon="-1.56356">
        <ele>29</ele>
        <time>2023-11-03T16:42:18Z</time>
      </trkpt>
      <trkpt lat="47.27923" lon="-1.56329">
        <ele>30</ele>
        <time>2023-11-03T16:42:43Z</time>
      </trkpt>
      <trkpt lat="47.27932" lon="-1.56306">
        <ele>31</ele>
        <time>2023-11-03T16:43:07Z</time>
      </trkpt>
      <trkpt lat="47.2795" lon="-1.56292">
        <ele>32</ele>
        <time>2023-11-03T16:43:35Z</time>
      </trkpt>
      <trkpt lat="47.27955" lon="-1.56266">
        <ele>33</ele>
        <time>2023-11-03T16:43:59Z</time>
      </trkpt>
      <trkpt lat="47.27937" lon="-1.56253">
        <ele>34</ele>
        <time>2023-11-03T16:44:26Z</time>
      </trkpt>
      <trkpt lat="47.27926" lon="-1.5623">
        <ele>35</ele>
        <time>2023-11-03T16:44:51Z</time>
      </trkpt>
      <trkpt lat="47.2793" lon="-1.56194">
        <ele>36</ele>
        <time>2023-11-03T16:45:24Z</time>
      </trkpt>
      <trkpt lat="47.27934" lon="-1.56167">
        <ele>37</ele>
        <time>2023-11-03T16:45:49Z</time>
      </trkpt>
      <trkpt lat="47.27939" lon="-1.56138">
        <ele>37</ele>
        <time>2023-11-03T16:46:16Z</time>
      </trkpt>
      <trkpt lat="47.2794" lon="-1.56108">
        <ele>38</ele>
        <time>2023-11-03T16:46:44Z</time>
      </trkpt>
      <trkpt lat="47.27943" lon="-1.56079">
        <ele>38</ele>
        <time>2023-11-03T16:47:10Z</time>
      </trkpt>
      <trkpt lat="47.27948" lon="-1.56052">
        <ele>38</ele>
        <time>2023-11-03T16:47:36Z</time>
      </trkpt>
      <trkpt lat="47.27951" lon="-1.56026">
        <ele>38</ele>
        <time>2023-11-03T16:47:59Z</time>
      </trkpt>
      <trkpt lat="47.27955" lon="-1.55996">
        <ele>37</ele>
        <time>2023-11-03T16:48:27Z</time>
      </trkpt>
      <trkpt lat="47.27958" lon="-1.55964">
        <ele>37</ele>
        <time>2023-11-03T16:48:56Z</time>
      </trkpt>
      <trkpt lat="47.27958" lon="-1.55936">
        <ele>36</ele>
        <time>2023-11-03T16:49:22Z</time>
      </trkpt>
      <trkpt lat="47.27959" lon="-1.55906">
        <ele>36</ele>
        <time>2023-11-03T16:49:49Z</time>
      </trkpt>
      <trkpt lat="47.27969" lon="-1.55812">
        <ele>38</ele>
        <time>2023-11-03T16:51:15Z</time>
      </trkpt>
      <trkpt lat="47.2797" lon="-1.55783">
        <ele>38</ele>
        <time>2023-11-03T16:51:41Z</time>
      </trkpt>
      <trkpt lat="47.27974" lon="-1.55755">
        <ele>39</ele>
        <time>2023-11-03T16:52:07Z</time>
      </trkpt>
      <trkpt lat="47.27978" lon="-1.55722">
        <ele>40</ele>
        <time>2023-11-03T16:52:38Z</time>
      </trkpt>
      <trkpt lat="47.27965" lon="-1.557">
        <ele>40</ele>
        <time>2023-11-03T16:53:04Z</time>
      </trkpt>
      <trkpt lat="47.27964" lon="-1.55672">
        <ele>40</ele>
        <time>2023-11-03T16:53:29Z</time>
      </trkpt>
      <trkpt lat="47.27983" lon="-1.5568">
        <ele>41</ele>
        <time>2023-11-03T16:53:56Z</time>
        <extensions>
          <visugpx:TrkExtension xmlns:visugpx="https://www.visugpx.com/editgpx/">
            <visugpx:node>1</visugpx:node>
            </visugpx:TrkExtension>
        </extensions>
      </trkpt>
    </trkseg>
  </trk>
  <trk>
    <name><![CDATA[ChapelleE_3communesGRP_8km-12139558]]></name>
    <extensions>
      <line xmlns="http://www.topografix.com/GPX/gpx_style/0/2">
        <color>FF00FF</color>
        <width>4</width>
      </line>
    </extensions>
    <trkseg>
      <trkpt lat="47.29716" lon="-1.59951">
        <ele>61</ele>
        <time>2023-11-15T17:45:57Z</time>
      </trkpt>
      <trkpt lat="47.29937" lon="-1.60147">
        <ele>59</ele>
        <time>2023-11-15T17:51:41Z</time>
      </trkpt>
      <trkpt lat="47.3015" lon="-1.60344">
        <ele>62</ele>
        <time>2023-11-15T17:57:17Z</time>
      </trkpt>
      <trkpt lat="47.30126" lon="-1.60355">
        <ele>62</ele>
        <time>2023-11-15T17:57:50Z</time>
      </trkpt>
      <trkpt lat="47.30009" lon="-1.60424">
        <ele>64</ele>
        <time>2023-11-15T18:00:38Z</time>
      </trkpt>
      <trkpt lat="47.30303" lon="-1.60836">
        <ele>59</ele>
        <time>2023-11-15T18:09:40Z</time>
      </trkpt>
      <trkpt lat="47.30494" lon="-1.60866">
        <ele>60</ele>
        <time>2023-11-15T18:13:56Z</time>
      </trkpt>
      <trkpt lat="47.30588" lon="-1.60825">
        <ele>53</ele>
        <time>2023-11-15T18:16:07Z</time>
      </trkpt>
      <trkpt lat="47.30641" lon="-1.60817">
        <ele>52</ele>
        <time>2023-11-15T18:17:18Z</time>
      </trkpt>
      <trkpt lat="47.30713" lon="-1.6075">
        <ele>50</ele>
        <time>2023-11-15T18:19:11Z</time>
      </trkpt>
      <trkpt lat="47.30724" lon="-1.60813">
        <ele>48</ele>
        <time>2023-11-15T18:20:10Z</time>
      </trkpt>
      <trkpt lat="47.30797" lon="-1.60779">
        <ele>46</ele>
        <time>2023-11-15T18:21:52Z</time>
      </trkpt>
      <trkpt lat="47.30808" lon="-1.60845">
        <ele>42</ele>
        <time>2023-11-15T18:22:54Z</time>
      </trkpt>
      <trkpt lat="47.30806" lon="-1.60962">
        <ele>33</ele>
        <time>2023-11-15T18:24:40Z</time>
      </trkpt>
      <trkpt lat="47.30803" lon="-1.61118">
        <ele>38</ele>
        <time>2023-11-15T18:27:01Z</time>
      </trkpt>
      <trkpt lat="47.30759" lon="-1.61186">
        <ele>40</ele>
        <time>2023-11-15T18:28:26Z</time>
      </trkpt>
      <trkpt lat="47.30733" lon="-1.61286">
        <ele>44</ele>
        <time>2023-11-15T18:30:03Z</time>
      </trkpt>
      <trkpt lat="47.3073" lon="-1.61311">
        <ele>45</ele>
        <time>2023-11-15T18:30:26Z</time>
      </trkpt>
      <trkpt lat="47.30736" lon="-1.61374">
        <ele>46</ele>
        <time>2023-11-15T18:31:24Z</time>
      </trkpt>
      <trkpt lat="47.30694" lon="-1.61445">
        <ele>49</ele>
        <time>2023-11-15T18:32:49Z</time>
      </trkpt>
      <trkpt lat="47.30676" lon="-1.61479">
        <ele>51</ele>
        <time>2023-11-15T18:33:28Z</time>
      </trkpt>
      <trkpt lat="47.30734" lon="-1.61491">
        <ele>50</ele>
        <time>2023-11-15T18:34:46Z</time>
      </trkpt>
      <trkpt lat="47.30752" lon="-1.6156">
        <ele>55</ele>
        <time>2023-11-15T18:35:53Z</time>
      </trkpt>
      <trkpt lat="47.30777" lon="-1.61604">
        <ele>57</ele>
        <time>2023-11-15T18:36:45Z</time>
      </trkpt>
      <trkpt lat="47.30832" lon="-1.61708">
        <ele>60</ele>
        <time>2023-11-15T18:38:44Z</time>
      </trkpt>
      <trkpt lat="47.30902" lon="-1.61738">
        <ele>56</ele>
        <time>2023-11-15T18:40:21Z</time>
      </trkpt>
      <trkpt lat="47.30906" lon="-1.61794">
        <ele>56</ele>
        <time>2023-11-15T18:41:12Z</time>
      </trkpt>
      <trkpt lat="47.30899" lon="-1.61844">
        <ele>57</ele>
        <time>2023-11-15T18:41:59Z</time>
      </trkpt>
      <trkpt lat="47.30916" lon="-1.61845">
        <ele>56</ele>
        <time>2023-11-15T18:42:21Z</time>
      </trkpt>
      <trkpt lat="47.30915" lon="-1.6187">
        <ele>57</ele>
        <time>2023-11-15T18:42:44Z</time>
      </trkpt>
      <trkpt lat="47.30917" lon="-1.61891">
        <ele>57</ele>
        <time>2023-11-15T18:43:03Z</time>
      </trkpt>
      <trkpt lat="47.30916" lon="-1.61914">
        <ele>58</ele>
        <time>2023-11-15T18:43:24Z</time>
      </trkpt>
      <trkpt lat="47.30896" lon="-1.61939">
        <ele>59</ele>
        <time>2023-11-15T18:43:59Z</time>
      </trkpt>
      <trkpt lat="47.30883" lon="-1.61983">
        <ele>61</ele>
        <time>2023-11-15T18:44:42Z</time>
      </trkpt>
      <trkpt lat="47.30867" lon="-1.62032">
        <ele>61</ele>
        <time>2023-11-15T18:45:32Z</time>
      </trkpt>
      <trkpt lat="47.3084" lon="-1.62111">
        <ele>63</ele>
        <time>2023-11-15T18:46:52Z</time>
      </trkpt>
      <trkpt lat="47.30787" lon="-1.62236">
        <ele>62</ele>
        <time>2023-11-15T18:49:05Z</time>
      </trkpt>
      <trkpt lat="47.30777" lon="-1.62248">
        <ele>62</ele>
        <time>2023-11-15T18:49:22Z</time>
      </trkpt>
      <trkpt lat="47.30846" lon="-1.62321">
        <ele>61</ele>
        <time>2023-11-15T18:51:16Z</time>
      </trkpt>
      <trkpt lat="47.30944" lon="-1.62345">
        <ele>55</ele>
        <time>2023-11-15T18:53:28Z</time>
      </trkpt>
      <trkpt lat="47.30954" lon="-1.62328">
        <ele>54</ele>
        <time>2023-11-15T18:53:49Z</time>
      </trkpt>
      <trkpt lat="47.30975" lon="-1.62339">
        <ele>53</ele>
        <time>2023-11-15T18:54:18Z</time>
      </trkpt>
      <trkpt lat="47.30983" lon="-1.6235">
        <ele>53</ele>
        <time>2023-11-15T18:54:33Z</time>
      </trkpt>
      <trkpt lat="47.30984" lon="-1.62408">
        <ele>55</ele>
        <time>2023-11-15T18:55:25Z</time>
      </trkpt>
      <trkpt lat="47.30993" lon="-1.62439">
        <ele>55</ele>
        <time>2023-11-15T18:55:56Z</time>
      </trkpt>
      <trkpt lat="47.31033" lon="-1.62471">
        <ele>52</ele>
        <time>2023-11-15T18:56:57Z</time>
      </trkpt>
      <trkpt lat="47.3103" lon="-1.62499">
        <ele>52</ele>
        <time>2023-11-15T18:57:22Z</time>
      </trkpt>
      <trkpt lat="47.30921" lon="-1.62512">
        <ele>58</ele>
        <time>2023-11-15T18:59:48Z</time>
      </trkpt>
      <trkpt lat="47.30858" lon="-1.62513">
        <ele>60</ele>
        <time>2023-11-15T19:01:12Z</time>
      </trkpt>
      <trkpt lat="47.30795" lon="-1.62544">
        <ele>61</ele>
        <time>2023-11-15T19:02:41Z</time>
      </trkpt>
      <trkpt lat="47.30721" lon="-1.62595">
        <ele>62</ele>
        <time>2023-11-15T19:04:30Z</time>
      </trkpt>
      <trkpt lat="47.30646" lon="-1.6263">
        <ele>62</ele>
        <time>2023-11-15T19:06:15Z</time>
      </trkpt>
      <trkpt lat="47.30593" lon="-1.62611">
        <ele>64</ele>
        <time>2023-11-15T19:07:28Z</time>
      </trkpt>
      <trkpt lat="47.30526" lon="-1.62574">
        <ele>65</ele>
        <time>2023-11-15T19:09:03Z</time>
      </trkpt>
      <trkpt lat="47.30467" lon="-1.62561">
        <ele>66</ele>
        <time>2023-11-15T19:10:23Z</time>
      </trkpt>
      <trkpt lat="47.30347" lon="-1.62461">
        <ele>66</ele>
        <time>2023-11-15T19:13:27Z</time>
      </trkpt>
      <trkpt lat="47.30338" lon="-1.6251">
        <ele>66</ele>
        <time>2023-11-15T19:14:13Z</time>
      </trkpt>
      <trkpt lat="47.3028" lon="-1.62657">
        <ele>67</ele>
        <time>2023-11-15T19:16:47Z</time>
      </trkpt>
      <trkpt lat="47.30247" lon="-1.62708">
        <ele>66</ele>
        <time>2023-11-15T19:17:50Z</time>
      </trkpt>
      <trkpt lat="47.30127" lon="-1.62842">
        <ele>63</ele>
        <time>2023-11-15T19:21:11Z</time>
      </trkpt>
      <trkpt lat="47.30064" lon="-1.62902">
        <ele>63</ele>
        <time>2023-11-15T19:22:51Z</time>
      </trkpt>
      <trkpt lat="47.29951" lon="-1.6305">
        <ele>63</ele>
        <time>2023-11-15T19:26:13Z</time>
      </trkpt>
      <trkpt lat="47.29795" lon="-1.62814">
        <ele>61</ele>
        <time>2023-11-15T19:31:11Z</time>
      </trkpt>
      <trkpt lat="47.29769" lon="-1.62709">
        <ele>60</ele>
        <time>2023-11-15T19:32:52Z</time>
      </trkpt>
      <trkpt lat="47.29724" lon="-1.62665">
        <ele>59</ele>
        <time>2023-11-15T19:34:04Z</time>
      </trkpt>
      <trkpt lat="47.29644" lon="-1.62637">
        <ele>57</ele>
        <time>2023-11-15T19:35:54Z</time>
      </trkpt>
      <trkpt lat="47.2966" lon="-1.62546">
        <ele>55</ele>
        <time>2023-11-15T19:37:19Z</time>
      </trkpt>
      <trkpt lat="47.29644" lon="-1.62463">
        <ele>55</ele>
        <time>2023-11-15T19:38:37Z</time>
      </trkpt>
      <trkpt lat="47.29619" lon="-1.6241">
        <ele>55</ele>
        <time>2023-11-15T19:39:36Z</time>
      </trkpt>
      <trkpt lat="47.29619" lon="-1.62401">
        <ele>55</ele>
        <time>2023-11-15T19:39:44Z</time>
      </trkpt>
      <trkpt lat="47.29603" lon="-1.62398">
        <ele>54</ele>
        <time>2023-11-15T19:40:05Z</time>
      </trkpt>
      <trkpt lat="47.29623" lon="-1.62351">
        <ele>55</ele>
        <time>2023-11-15T19:40:56Z</time>
      </trkpt>
      <trkpt lat="47.29618" lon="-1.62278">
        <ele>56</ele>
        <time>2023-11-15T19:42:02Z</time>
      </trkpt>
      <trkpt lat="47.29629" lon="-1.62277">
        <ele>56</ele>
        <time>2023-11-15T19:42:17Z</time>
      </trkpt>
      <trkpt lat="47.29596" lon="-1.62169">
        <ele>55</ele>
        <time>2023-11-15T19:44:04Z</time>
      </trkpt>
      <trkpt lat="47.29543" lon="-1.62055">
        <ele>56</ele>
        <time>2023-11-15T19:46:09Z</time>
      </trkpt>
      <trkpt lat="47.29563" lon="-1.61949">
        <ele>56</ele>
        <time>2023-11-15T19:47:49Z</time>
      </trkpt>
      <trkpt lat="47.29562" lon="-1.61932">
        <ele>56</ele>
        <time>2023-11-15T19:48:04Z</time>
      </trkpt>
      <trkpt lat="47.29588" lon="-1.6189">
        <ele>56</ele>
        <time>2023-11-15T19:48:56Z</time>
      </trkpt>
      <trkpt lat="47.29359" lon="-1.61505">
        <ele>57</ele>
        <time>2023-11-15T19:56:39Z</time>
      </trkpt>
      <trkpt lat="47.29332" lon="-1.61466">
        <ele>57</ele>
        <time>2023-11-15T19:57:29Z</time>
      </trkpt>
      <trkpt lat="47.29316" lon="-1.61448">
        <ele>58</ele>
        <time>2023-11-15T19:57:56Z</time>
      </trkpt>
      <trkpt lat="47.2929" lon="-1.61433">
        <ele>59</ele>
        <time>2023-11-15T19:58:34Z</time>
      </trkpt>
      <trkpt lat="47.29241" lon="-1.61433">
        <ele>60</ele>
        <time>2023-11-15T19:59:39Z</time>
      </trkpt>
      <trkpt lat="47.29182" lon="-1.61322">
        <ele>57</ele>
        <time>2023-11-15T20:01:47Z</time>
      </trkpt>
      <trkpt lat="47.2915" lon="-1.61243">
        <ele>59</ele>
        <time>2023-11-15T20:03:10Z</time>
      </trkpt>
      <trkpt lat="47.29111" lon="-1.61157">
        <ele>61</ele>
        <time>2023-11-15T20:04:44Z</time>
      </trkpt>
      <trkpt lat="47.29078" lon="-1.6112">
        <ele>62</ele>
        <time>2023-11-15T20:05:39Z</time>
      </trkpt>
      <trkpt lat="47.29063" lon="-1.61114">
        <ele>62</ele>
        <time>2023-11-15T20:06:00Z</time>
      </trkpt>
      <trkpt lat="47.29059" lon="-1.61104">
        <ele>62</ele>
        <time>2023-11-15T20:06:10Z</time>
      </trkpt>
      <trkpt lat="47.28955" lon="-1.60984">
        <ele>64</ele>
        <time>2023-11-15T20:09:06Z</time>
      </trkpt>
      <trkpt lat="47.29001" lon="-1.60912">
        <ele>64</ele>
        <time>2023-11-15T20:10:36Z</time>
      </trkpt>
      <trkpt lat="47.29056" lon="-1.6082">
        <ele>62</ele>
        <time>2023-11-15T20:12:27Z</time>
      </trkpt>
      <trkpt lat="47.29067" lon="-1.60809">
        <ele>62</ele>
        <time>2023-11-15T20:12:45Z</time>
      </trkpt>
      <trkpt lat="47.29081" lon="-1.60779">
        <ele>62</ele>
        <time>2023-11-15T20:13:18Z</time>
      </trkpt>
      <trkpt lat="47.29139" lon="-1.60704">
        <ele>61</ele>
        <time>2023-11-15T20:15:01Z</time>
      </trkpt>
      <trkpt lat="47.29173" lon="-1.60633">
        <ele>60</ele>
        <time>2023-11-15T20:16:19Z</time>
      </trkpt>
      <trkpt lat="47.29201" lon="-1.6055">
        <ele>58</ele>
        <time>2023-11-15T20:17:43Z</time>
      </trkpt>
      <trkpt lat="47.29232" lon="-1.60489">
        <ele>57</ele>
        <time>2023-11-15T20:18:52Z</time>
      </trkpt>
      <trkpt lat="47.29293" lon="-1.60453">
        <ele>56</ele>
        <time>2023-11-15T20:20:20Z</time>
      </trkpt>
      <trkpt lat="47.2937" lon="-1.60335">
        <ele>56</ele>
        <time>2023-11-15T20:22:48Z</time>
      </trkpt>
      <trkpt lat="47.29468" lon="-1.60198">
        <ele>60</ele>
        <time>2023-11-15T20:25:48Z</time>
      </trkpt>
      <trkpt lat="47.2954" lon="-1.60093">
        <ele>61</ele>
        <time>2023-11-15T20:28:03Z</time>
      </trkpt>
      <trkpt lat="47.29666" lon="-1.59906">
        <ele>62</ele>
        <time>2023-11-15T20:32:02Z</time>
      </trkpt>
      <trkpt lat="47.29718" lon="-1.59942">
        <ele>61</ele>
        <time>2023-11-15T20:33:19Z</time>
      </trkpt>
    </trkseg>
  </trk>
  <trk>
    <name><![CDATA[LCSE-13-BoucleNordOuest_13.3km18236170]]></name>
    <extensions>
      <line xmlns="http://www.topografix.com/GPX/gpx_style/0/2">
        <color>800080</color>
        <width>4</width>
      </line>
    </extensions>
    <trkseg>
      <trkpt lat="47.30614" lon="-1.55996">
        <ele>31.8</ele>
      </trkpt>
      <trkpt lat="47.30631" lon="-1.56028">
        <ele>32</ele>
      </trkpt>
      <trkpt lat="47.30626" lon="-1.56085">
        <ele>32</ele>
      </trkpt>
      <trkpt lat="47.30719" lon="-1.56292">
        <ele>37.5</ele>
      </trkpt>
      <trkpt lat="47.30888" lon="-1.56727">
        <ele>36.2</ele>
      </trkpt>
      <trkpt lat="47.30972" lon="-1.56911">
        <ele>41.8</ele>
      </trkpt>
      <trkpt lat="47.31051" lon="-1.57053">
        <ele>45</ele>
      </trkpt>
      <trkpt lat="47.3118" lon="-1.57212">
        <ele>42.9</ele>
      </trkpt>
      <trkpt lat="47.31319" lon="-1.57369">
        <ele>37.6</ele>
      </trkpt>
      <trkpt lat="47.31684" lon="-1.57778">
        <ele>40.6</ele>
      </trkpt>
      <trkpt lat="47.32244" lon="-1.58401">
        <ele>38.8</ele>
      </trkpt>
      <trkpt lat="47.32328" lon="-1.58562">
        <ele>38.4</ele>
      </trkpt>
      <trkpt lat="47.32398" lon="-1.58722">
        <ele>37.6</ele>
      </trkpt>
      <trkpt lat="47.32572" lon="-1.5954">
        <ele>45.6</ele>
      </trkpt>
      <trkpt lat="47.32302" lon="-1.59459">
        <ele>38.8</ele>
      </trkpt>
      <trkpt lat="47.32232" lon="-1.59337">
        <ele>36.8</ele>
      </trkpt>
      <trkpt lat="47.3217" lon="-1.59367">
        <ele>40.1</ele>
      </trkpt>
      <trkpt lat="47.3216" lon="-1.59199">
        <ele>36.4</ele>
      </trkpt>
      <trkpt lat="47.31884" lon="-1.59068">
        <ele>34.9</ele>
      </trkpt>
      <trkpt lat="47.31647" lon="-1.59036">
        <ele>22.6</ele>
      </trkpt>
      <trkpt lat="47.31529" lon="-1.5897">
        <ele>13.1</ele>
      </trkpt>
      <trkpt lat="47.3151" lon="-1.59135">
        <ele>13.2</ele>
      </trkpt>
      <trkpt lat="47.31551" lon="-1.59355">
        <ele>13.8</ele>
      </trkpt>
      <trkpt lat="47.3151" lon="-1.59471">
        <ele>14.3</ele>
      </trkpt>
      <trkpt lat="47.31484" lon="-1.59686">
        <ele>14.4</ele>
      </trkpt>
      <trkpt lat="47.31437" lon="-1.5997">
        <ele>14.8</ele>
      </trkpt>
      <trkpt lat="47.31389" lon="-1.59963">
        <ele>13.4</ele>
      </trkpt>
      <trkpt lat="47.31341" lon="-1.59987">
        <ele>15.8</ele>
      </trkpt>
      <trkpt lat="47.31296" lon="-1.59965">
        <ele>24.6</ele>
      </trkpt>
      <trkpt lat="47.31275" lon="-1.59899">
        <ele>32</ele>
      </trkpt>
      <trkpt lat="47.31277" lon="-1.5987">
        <ele>32.7</ele>
      </trkpt>
      <trkpt lat="47.31301" lon="-1.5984">
        <ele>27.4</ele>
      </trkpt>
      <trkpt lat="47.31299" lon="-1.59796">
        <ele>26.7</ele>
      </trkpt>
      <trkpt lat="47.31275" lon="-1.59671">
        <ele>27.9</ele>
      </trkpt>
      <trkpt lat="47.31265" lon="-1.59579">
        <ele>22.8</ele>
      </trkpt>
      <trkpt lat="47.31243" lon="-1.59564">
        <ele>23.7</ele>
      </trkpt>
      <trkpt lat="47.31212" lon="-1.59596">
        <ele>29.1</ele>
      </trkpt>
      <trkpt lat="47.31149" lon="-1.59631">
        <ele>28.4</ele>
      </trkpt>
      <trkpt lat="47.31055" lon="-1.59652">
        <ele>25.9</ele>
      </trkpt>
      <trkpt lat="47.31026" lon="-1.59671">
        <ele>26.4</ele>
      </trkpt>
      <trkpt lat="47.30987" lon="-1.59713">
        <ele>30.6</ele>
      </trkpt>
      <trkpt lat="47.30994" lon="-1.59765">
        <ele>31.8</ele>
      </trkpt>
      <trkpt lat="47.30961" lon="-1.59797">
        <ele>34.5</ele>
      </trkpt>
      <trkpt lat="47.30914" lon="-1.59823">
        <ele>38.2</ele>
      </trkpt>
      <trkpt lat="47.30802" lon="-1.59885">
        <ele>50.2</ele>
      </trkpt>
      <trkpt lat="47.30745" lon="-1.59919">
        <ele>54</ele>
      </trkpt>
      <trkpt lat="47.30681" lon="-1.59952">
        <ele>54.7</ele>
      </trkpt>
      <trkpt lat="47.30615" lon="-1.5998">
        <ele>56.2</ele>
      </trkpt>
      <trkpt lat="47.30579" lon="-1.59998">
        <ele>58.1</ele>
      </trkpt>
      <trkpt lat="47.30564" lon="-1.60013">
        <ele>59.2</ele>
      </trkpt>
      <trkpt lat="47.30536" lon="-1.60007">
        <ele>59.2</ele>
      </trkpt>
      <trkpt lat="47.30488" lon="-1.60013">
        <ele>61.9</ele>
      </trkpt>
      <trkpt lat="47.30439" lon="-1.60024">
        <ele>62.7</ele>
      </trkpt>
      <trkpt lat="47.30421" lon="-1.59983">
        <ele>61.4</ele>
      </trkpt>
      <trkpt lat="47.30392" lon="-1.59865">
        <ele>58.3</ele>
      </trkpt>
      <trkpt lat="47.30353" lon="-1.59836">
        <ele>55.8</ele>
      </trkpt>
      <trkpt lat="47.30335" lon="-1.5981">
        <ele>54.2</ele>
      </trkpt>
      <trkpt lat="47.30311" lon="-1.59772">
        <ele>53</ele>
      </trkpt>
      <trkpt lat="47.30284" lon="-1.59737">
        <ele>48.8</ele>
      </trkpt>
      <trkpt lat="47.30265" lon="-1.59693">
        <ele>47.3</ele>
      </trkpt>
      <trkpt lat="47.30253" lon="-1.59646">
        <ele>51.3</ele>
      </trkpt>
      <trkpt lat="47.30245" lon="-1.59608">
        <ele>51.2</ele>
      </trkpt>
      <trkpt lat="47.30192" lon="-1.5945">
        <ele>49.2</ele>
      </trkpt>
      <trkpt lat="47.30159" lon="-1.59355">
        <ele>49.1</ele>
      </trkpt>
      <trkpt lat="47.30125" lon="-1.5923">
        <ele>49.7</ele>
      </trkpt>
      <trkpt lat="47.30102" lon="-1.59186">
        <ele>51.5</ele>
      </trkpt>
      <trkpt lat="47.30088" lon="-1.59159">
        <ele>51.8</ele>
      </trkpt>
      <trkpt lat="47.30071" lon="-1.59141">
        <ele>53</ele>
      </trkpt>
      <trkpt lat="47.30057" lon="-1.59103">
        <ele>52.7</ele>
      </trkpt>
      <trkpt lat="47.30043" lon="-1.59073">
        <ele>52.1</ele>
      </trkpt>
      <trkpt lat="47.29427" lon="-1.59386">
        <ele>57.2</ele>
      </trkpt>
      <trkpt lat="47.29404" lon="-1.59344">
        <ele>55.2</ele>
      </trkpt>
      <trkpt lat="47.29395" lon="-1.59272">
        <ele>52</ele>
      </trkpt>
      <trkpt lat="47.29371" lon="-1.59173">
        <ele>45.7</ele>
      </trkpt>
      <trkpt lat="47.29387" lon="-1.59126">
        <ele>43</ele>
      </trkpt>
      <trkpt lat="47.29421" lon="-1.59067">
        <ele>41.6</ele>
      </trkpt>
      <trkpt lat="47.29454" lon="-1.59028">
        <ele>41.3</ele>
      </trkpt>
      <trkpt lat="47.29469" lon="-1.5899">
        <ele>41.3</ele>
      </trkpt>
      <trkpt lat="47.29454" lon="-1.58895">
        <ele>36.9</ele>
      </trkpt>
      <trkpt lat="47.29455" lon="-1.58845">
        <ele>36</ele>
      </trkpt>
      <trkpt lat="47.29462" lon="-1.58761">
        <ele>34.9</ele>
      </trkpt>
      <trkpt lat="47.29454" lon="-1.58713">
        <ele>33.3</ele>
      </trkpt>
      <trkpt lat="47.29455" lon="-1.58616">
        <ele>33.4</ele>
      </trkpt>
      <trkpt lat="47.29446" lon="-1.58509">
        <ele>33.1</ele>
      </trkpt>
      <trkpt lat="47.29437" lon="-1.58451">
        <ele>32.7</ele>
      </trkpt>
      <trkpt lat="47.29439" lon="-1.58444">
        <ele>32.8</ele>
      </trkpt>
      <trkpt lat="47.29461" lon="-1.58382">
        <ele>35.1</ele>
      </trkpt>
      <trkpt lat="47.29424" lon="-1.58218">
        <ele>38.1</ele>
      </trkpt>
      <trkpt lat="47.29428" lon="-1.58159">
        <ele>38.7</ele>
      </trkpt>
      <trkpt lat="47.29387" lon="-1.58043">
        <ele>38.6</ele>
      </trkpt>
      <trkpt lat="47.29347" lon="-1.5804">
        <ele>37.9</ele>
      </trkpt>
      <trkpt lat="47.29288" lon="-1.57904">
        <ele>28.2</ele>
      </trkpt>
      <trkpt lat="47.29245" lon="-1.57837">
        <ele>20.5</ele>
      </trkpt>
      <trkpt lat="47.29209" lon="-1.57713">
        <ele>14.8</ele>
      </trkpt>
      <trkpt lat="47.29212" lon="-1.57668">
        <ele>14.1</ele>
      </trkpt>
      <trkpt lat="47.29224" lon="-1.5764">
        <ele>13.9</ele>
      </trkpt>
      <trkpt lat="47.29236" lon="-1.57603">
        <ele>14.1</ele>
      </trkpt>
      <trkpt lat="47.29254" lon="-1.57571">
        <ele>13.2</ele>
      </trkpt>
      <trkpt lat="47.29205" lon="-1.57536">
        <ele>18.8</ele>
      </trkpt>
      <trkpt lat="47.29181" lon="-1.57572">
        <ele>21.1</ele>
      </trkpt>
      <trkpt lat="47.29167" lon="-1.5758">
        <ele>23</ele>
      </trkpt>
      <trkpt lat="47.29063" lon="-1.57558">
        <ele>30.4</ele>
      </trkpt>
      <trkpt lat="47.2905" lon="-1.57562">
        <ele>31.3</ele>
      </trkpt>
      <trkpt lat="47.29037" lon="-1.5756">
        <ele>32.2</ele>
      </trkpt>
      <trkpt lat="47.29022" lon="-1.57562">
        <ele>33</ele>
      </trkpt>
      <trkpt lat="47.29033" lon="-1.57531">
        <ele>32.8</ele>
      </trkpt>
      <trkpt lat="47.29037" lon="-1.57488">
        <ele>32.6</ele>
      </trkpt>
      <trkpt lat="47.29037" lon="-1.57444">
        <ele>34</ele>
      </trkpt>
      <trkpt lat="47.29038" lon="-1.57386">
        <ele>35.3</ele>
      </trkpt>
      <trkpt lat="47.29037" lon="-1.57326">
        <ele>35.2</ele>
      </trkpt>
      <trkpt lat="47.29035" lon="-1.57176">
        <ele>33.2</ele>
      </trkpt>
      <trkpt lat="47.29035" lon="-1.57148">
        <ele>33.2</ele>
      </trkpt>
      <trkpt lat="47.29029" lon="-1.57091">
        <ele>34.9</ele>
      </trkpt>
      <trkpt lat="47.29044" lon="-1.57071">
        <ele>33.7</ele>
      </trkpt>
      <trkpt lat="47.29064" lon="-1.57059">
        <ele>32.3</ele>
      </trkpt>
      <trkpt lat="47.29061" lon="-1.57039">
        <ele>32.8</ele>
      </trkpt>
      <trkpt lat="47.29074" lon="-1.57024">
        <ele>33.1</ele>
      </trkpt>
      <trkpt lat="47.29095" lon="-1.57009">
        <ele>32.6</ele>
      </trkpt>
      <trkpt lat="47.29115" lon="-1.56993">
        <ele>32.2</ele>
      </trkpt>
      <trkpt lat="47.29193" lon="-1.56925">
        <ele>27.4</ele>
      </trkpt>
      <trkpt lat="47.29218" lon="-1.56888">
        <ele>23.4</ele>
      </trkpt>
      <trkpt lat="47.29234" lon="-1.56845">
        <ele>18.7</ele>
      </trkpt>
      <trkpt lat="47.29253" lon="-1.56825">
        <ele>15.9</ele>
      </trkpt>
      <trkpt lat="47.29255" lon="-1.5681">
        <ele>14.2</ele>
      </trkpt>
      <trkpt lat="47.29258" lon="-1.56781">
        <ele>10.4</ele>
      </trkpt>
      <trkpt lat="47.29255" lon="-1.56748">
        <ele>10.5</ele>
      </trkpt>
      <trkpt lat="47.29232" lon="-1.56651">
        <ele>13.4</ele>
      </trkpt>
      <trkpt lat="47.29242" lon="-1.56631">
        <ele>14.9</ele>
      </trkpt>
      <trkpt lat="47.29247" lon="-1.56606">
        <ele>16.6</ele>
      </trkpt>
      <trkpt lat="47.29278" lon="-1.56611">
        <ele>16.1</ele>
      </trkpt>
      <trkpt lat="47.29307" lon="-1.56646">
        <ele>18.4</ele>
      </trkpt>
      <trkpt lat="47.29331" lon="-1.56667">
        <ele>21.6</ele>
      </trkpt>
      <trkpt lat="47.29364" lon="-1.56699">
        <ele>24.9</ele>
      </trkpt>
      <trkpt lat="47.29404" lon="-1.56748">
        <ele>25.7</ele>
      </trkpt>
      <trkpt lat="47.29466" lon="-1.56772">
        <ele>26.5</ele>
      </trkpt>
      <trkpt lat="47.29495" lon="-1.56777">
        <ele>26.8</ele>
      </trkpt>
      <trkpt lat="47.29532" lon="-1.56764">
        <ele>28.2</ele>
      </trkpt>
      <trkpt lat="47.2961" lon="-1.56727">
        <ele>32.8</ele>
      </trkpt>
      <trkpt lat="47.29652" lon="-1.56695">
        <ele>34</ele>
      </trkpt>
      <trkpt lat="47.29712" lon="-1.56659">
        <ele>33.6</ele>
      </trkpt>
      <trkpt lat="47.29782" lon="-1.56654">
        <ele>30.9</ele>
      </trkpt>
      <trkpt lat="47.29845" lon="-1.56629">
        <ele>29.3</ele>
      </trkpt>
      <trkpt lat="47.29874" lon="-1.56624">
        <ele>26.8</ele>
      </trkpt>
      <trkpt lat="47.29886" lon="-1.56622">
        <ele>25.6</ele>
      </trkpt>
      <trkpt lat="47.29976" lon="-1.56613">
        <ele>20.5</ele>
      </trkpt>
      <trkpt lat="47.30033" lon="-1.56601">
        <ele>17.5</ele>
      </trkpt>
      <trkpt lat="47.30094" lon="-1.56615">
        <ele>16.2</ele>
      </trkpt>
      <trkpt lat="47.30135" lon="-1.56614">
        <ele>18.6</ele>
      </trkpt>
      <trkpt lat="47.30177" lon="-1.56608">
        <ele>21.9</ele>
      </trkpt>
      <trkpt lat="47.30213" lon="-1.56587">
        <ele>24.5</ele>
      </trkpt>
      <trkpt lat="47.30248" lon="-1.5657">
        <ele>26.4</ele>
      </trkpt>
      <trkpt lat="47.30281" lon="-1.56544">
        <ele>28.4</ele>
      </trkpt>
      <trkpt lat="47.30309" lon="-1.56528">
        <ele>29.1</ele>
      </trkpt>
      <trkpt lat="47.30361" lon="-1.5652">
        <ele>31.3</ele>
      </trkpt>
      <trkpt lat="47.30392" lon="-1.56497">
        <ele>32.2</ele>
      </trkpt>
      <trkpt lat="47.30415" lon="-1.5648">
        <ele>33.7</ele>
      </trkpt>
      <trkpt lat="47.30422" lon="-1.56462">
        <ele>34.2</ele>
      </trkpt>
      <trkpt lat="47.30435" lon="-1.56416">
        <ele>34.7</ele>
      </trkpt>
      <trkpt lat="47.30469" lon="-1.5627">
        <ele>33</ele>
      </trkpt>
      <trkpt lat="47.30494" lon="-1.56213">
        <ele>32.9</ele>
      </trkpt>
      <trkpt lat="47.30514" lon="-1.5617">
        <ele>33</ele>
      </trkpt>
      <trkpt lat="47.3056" lon="-1.56076">
        <ele>31.1</ele>
      </trkpt>
      <trkpt lat="47.30573" lon="-1.56054">
        <ele>31</ele>
      </trkpt>
      <trkpt lat="47.30586" lon="-1.56067">
        <ele>31.5</ele>
      </trkpt>
      <trkpt lat="47.30615" lon="-1.5606">
        <ele>32</ele>
      </trkpt>
      <trkpt lat="47.30606" lon="-1.56025">
        <ele>31.8</ele>
      </trkpt>
    </trkseg>
  </trk>
  <trk>
    <name><![CDATA[ChapelleE_GesvresRagon_11-20km_8]]></name>
    <extensions>
      <line xmlns="http://www.topografix.com/GPX/gpx_style/0/2">
        <color>008800</color>
        <opacity>1</opacity>
        <width>4</width>
      </line>
    </extensions>
    <trkseg>
      <trkpt lat="47.26878" lon="-1.54534">
        <ele>30.2</ele>
      </trkpt>
      <trkpt lat="47.26883" lon="-1.54549">
        <ele>30.8</ele>
      </trkpt>
      <trkpt lat="47.26867" lon="-1.54561">
        <ele>31.2</ele>
      </trkpt>
      <trkpt lat="47.26875" lon="-1.54571">
        <ele>31.6</ele>
      </trkpt>
      <trkpt lat="47.26875" lon="-1.54582">
        <ele>32</ele>
      </trkpt>
      <trkpt lat="47.26875" lon="-1.54584">
        <ele>32</ele>
      </trkpt>
      <trkpt lat="47.26874" lon="-1.54597">
        <ele>32</ele>
      </trkpt>
      <trkpt lat="47.26874" lon="-1.546">
        <ele>32</ele>
      </trkpt>
      <trkpt lat="47.26866" lon="-1.54615">
        <ele>32</ele>
      </trkpt>
      <trkpt lat="47.26862" lon="-1.54625">
        <ele>32</ele>
      </trkpt>
      <trkpt lat="47.26861" lon="-1.54636">
        <ele>32</ele>
      </trkpt>
      <trkpt lat="47.26863" lon="-1.54651">
        <ele>32</ele>
      </trkpt>
      <trkpt lat="47.26867" lon="-1.54653">
        <ele>31.9</ele>
      </trkpt>
      <trkpt lat="47.26869" lon="-1.54657">
        <ele>31.8</ele>
      </trkpt>
      <trkpt lat="47.2687" lon="-1.54672">
        <ele>31.7</ele>
      </trkpt>
      <trkpt lat="47.2687" lon="-1.54679">
        <ele>31.7</ele>
      </trkpt>
      <trkpt lat="47.26901" lon="-1.54799">
        <ele>29.7</ele>
      </trkpt>
      <trkpt lat="47.26906" lon="-1.54829">
        <ele>29.1</ele>
      </trkpt>
      <trkpt lat="47.26924" lon="-1.54905">
        <ele>26.4</ele>
      </trkpt>
      <trkpt lat="47.26929" lon="-1.54928">
        <ele>25.6</ele>
      </trkpt>
      <trkpt lat="47.26913" lon="-1.54988">
        <ele>24</ele>
      </trkpt>
      <trkpt lat="47.26908" lon="-1.54994">
        <ele>24</ele>
      </trkpt>
      <trkpt lat="47.26914" lon="-1.55006">
        <ele>24.2</ele>
      </trkpt>
      <trkpt lat="47.26934" lon="-1.55099">
        <ele>26.6</ele>
      </trkpt>
      <trkpt lat="47.2696" lon="-1.55224">
        <ele>28</ele>
      </trkpt>
      <trkpt lat="47.26975" lon="-1.55217">
        <ele>28.1</ele>
      </trkpt>
      <trkpt lat="47.26977" lon="-1.55232">
        <ele>28.1</ele>
      </trkpt>
      <trkpt lat="47.26982" lon="-1.55261">
        <ele>28</ele>
      </trkpt>
      <trkpt lat="47.26997" lon="-1.55277">
        <ele>28</ele>
      </trkpt>
      <trkpt lat="47.27007" lon="-1.55298">
        <ele>28</ele>
      </trkpt>
      <trkpt lat="47.2701" lon="-1.55329">
        <ele>27.5</ele>
      </trkpt>
      <trkpt lat="47.27013" lon="-1.55337">
        <ele>27.3</ele>
      </trkpt>
      <trkpt lat="47.27027" lon="-1.55423">
        <ele>23.8</ele>
      </trkpt>
      <trkpt lat="47.27028" lon="-1.55428">
        <ele>23.6</ele>
      </trkpt>
      <trkpt lat="47.27031" lon="-1.55464">
        <ele>22.2</ele>
      </trkpt>
      <trkpt lat="47.27034" lon="-1.55488">
        <ele>20.8</ele>
      </trkpt>
      <trkpt lat="47.2705" lon="-1.55525">
        <ele>17.5</ele>
      </trkpt>
      <trkpt lat="47.2708" lon="-1.55554">
        <ele>15.2</ele>
      </trkpt>
      <trkpt lat="47.27069" lon="-1.55594">
        <ele>12</ele>
      </trkpt>
      <trkpt lat="47.27066" lon="-1.55607">
        <ele>10.8</ele>
      </trkpt>
      <trkpt lat="47.27065" lon="-1.55638">
        <ele>8.7</ele>
      </trkpt>
      <trkpt lat="47.27066" lon="-1.55659">
        <ele>8.5</ele>
      </trkpt>
      <trkpt lat="47.27066" lon="-1.55679">
        <ele>8.4</ele>
      </trkpt>
      <trkpt lat="47.27061" lon="-1.55706">
        <ele>8.1</ele>
      </trkpt>
      <trkpt lat="47.27061" lon="-1.55717">
        <ele>8.4</ele>
      </trkpt>
      <trkpt lat="47.27062" lon="-1.55734">
        <ele>8.1</ele>
      </trkpt>
      <trkpt lat="47.27065" lon="-1.55748">
        <ele>8.1</ele>
      </trkpt>
      <trkpt lat="47.27069" lon="-1.55753">
        <ele>8.9</ele>
      </trkpt>
      <trkpt lat="47.27075" lon="-1.55769">
        <ele>9.2</ele>
      </trkpt>
      <trkpt lat="47.27092" lon="-1.5579">
        <ele>10.4</ele>
      </trkpt>
      <trkpt lat="47.27103" lon="-1.55807">
        <ele>11.7</ele>
      </trkpt>
      <trkpt lat="47.27115" lon="-1.55864">
        <ele>7.7</ele>
      </trkpt>
      <trkpt lat="47.27118" lon="-1.5587">
        <ele>7.9</ele>
      </trkpt>
      <trkpt lat="47.27137" lon="-1.5589">
        <ele>8.7</ele>
      </trkpt>
      <trkpt lat="47.27149" lon="-1.55914">
        <ele>8.6</ele>
      </trkpt>
      <trkpt lat="47.27161" lon="-1.55938">
        <ele>8.6</ele>
      </trkpt>
      <trkpt lat="47.27202" lon="-1.56002">
        <ele>8.2</ele>
      </trkpt>
      <trkpt lat="47.27215" lon="-1.56016">
        <ele>7.7</ele>
      </trkpt>
      <trkpt lat="47.27253" lon="-1.56033">
        <ele>7.7</ele>
      </trkpt>
      <trkpt lat="47.27269" lon="-1.56046">
        <ele>7.4</ele>
      </trkpt>
      <trkpt lat="47.27304" lon="-1.56092">
        <ele>6.6</ele>
      </trkpt>
      <trkpt lat="47.27338" lon="-1.56116">
        <ele>7</ele>
      </trkpt>
      <trkpt lat="47.27373" lon="-1.56125">
        <ele>7.2</ele>
      </trkpt>
      <trkpt lat="47.27436" lon="-1.56126">
        <ele>9.4</ele>
      </trkpt>
      <trkpt lat="47.27456" lon="-1.56122">
        <ele>9.2</ele>
      </trkpt>
      <trkpt lat="47.27463" lon="-1.56125">
        <ele>8.5</ele>
      </trkpt>
      <trkpt lat="47.27474" lon="-1.56126">
        <ele>7.8</ele>
      </trkpt>
      <trkpt lat="47.27492" lon="-1.56124">
        <ele>7.8</ele>
      </trkpt>
      <trkpt lat="47.27502" lon="-1.56115">
        <ele>8.5</ele>
      </trkpt>
      <trkpt lat="47.27507" lon="-1.56102">
        <ele>9.9</ele>
      </trkpt>
      <trkpt lat="47.2753" lon="-1.56065">
        <ele>13.1</ele>
      </trkpt>
      <trkpt lat="47.27568" lon="-1.56026">
        <ele>16.4</ele>
      </trkpt>
      <trkpt lat="47.27596" lon="-1.56008">
        <ele>19.2</ele>
      </trkpt>
      <trkpt lat="47.27606" lon="-1.56015">
        <ele>19.8</ele>
      </trkpt>
      <trkpt lat="47.2761" lon="-1.56024">
        <ele>20</ele>
      </trkpt>
      <trkpt lat="47.27638" lon="-1.56079">
        <ele>25.1</ele>
      </trkpt>
      <trkpt lat="47.27645" lon="-1.56093">
        <ele>24.1</ele>
      </trkpt>
      <trkpt lat="47.27668" lon="-1.5612">
        <ele>23.5</ele>
      </trkpt>
      <trkpt lat="47.27685" lon="-1.56128">
        <ele>23.8</ele>
      </trkpt>
      <trkpt lat="47.27715" lon="-1.56143">
        <ele>25.4</ele>
      </trkpt>
      <trkpt lat="47.27735" lon="-1.56157">
        <ele>25.4</ele>
      </trkpt>
      <trkpt lat="47.27747" lon="-1.56172">
        <ele>25.8</ele>
      </trkpt>
      <trkpt lat="47.27797" lon="-1.56272">
        <ele>27.9</ele>
      </trkpt>
      <trkpt lat="47.27801" lon="-1.56279">
        <ele>28</ele>
      </trkpt>
      <trkpt lat="47.2781" lon="-1.56297">
        <ele>26.7</ele>
      </trkpt>
      <trkpt lat="47.27854" lon="-1.56364">
        <ele>19.8</ele>
      </trkpt>
      <trkpt lat="47.27857" lon="-1.5638">
        <ele>17.8</ele>
      </trkpt>
      <trkpt lat="47.27858" lon="-1.56445">
        <ele>12.6</ele>
      </trkpt>
      <trkpt lat="47.27855" lon="-1.56469">
        <ele>11.3</ele>
      </trkpt>
      <trkpt lat="47.27855" lon="-1.5649">
        <ele>10</ele>
      </trkpt>
      <trkpt lat="47.27857" lon="-1.56509">
        <ele>9.2</ele>
      </trkpt>
      <trkpt lat="47.27899" lon="-1.56573">
        <ele>8.8</ele>
      </trkpt>
      <trkpt lat="47.27911" lon="-1.56583">
        <ele>9.4</ele>
      </trkpt>
      <trkpt lat="47.27918" lon="-1.56587">
        <ele>9.6</ele>
      </trkpt>
      <trkpt lat="47.27922" lon="-1.5658">
        <ele>10.1</ele>
      </trkpt>
      <trkpt lat="47.27924" lon="-1.56567">
        <ele>11.4</ele>
      </trkpt>
      <trkpt lat="47.2793" lon="-1.56556">
        <ele>12.9</ele>
      </trkpt>
      <trkpt lat="47.27935" lon="-1.56551">
        <ele>14.1</ele>
      </trkpt>
      <trkpt lat="47.27939" lon="-1.5655">
        <ele>14.6</ele>
        <extensions>
          <visugpx:TrkExtension xmlns:visugpx="https://www.visugpx.com/editgpx/">
            <visugpx:node>1</visugpx:node>
            </visugpx:TrkExtension>
        </extensions>
      </trkpt>
      <trkpt lat="47.27959" lon="-1.56546">
        <ele>15.5</ele>
      </trkpt>
      <trkpt lat="47.27963" lon="-1.56547">
        <ele>15.3</ele>
      </trkpt>
      <trkpt lat="47.27992" lon="-1.56563">
        <ele>15</ele>
      </trkpt>
      <trkpt lat="47.28005" lon="-1.56563">
        <ele>16.8</ele>
      </trkpt>
      <trkpt lat="47.28019" lon="-1.56553">
        <ele>20.6</ele>
      </trkpt>
      <trkpt lat="47.28022" lon="-1.56546">
        <ele>21.6</ele>
      </trkpt>
      <trkpt lat="47.28029" lon="-1.56552">
        <ele>22.3</ele>
      </trkpt>
      <trkpt lat="47.28051" lon="-1.56554">
        <ele>23.8</ele>
      </trkpt>
      <trkpt lat="47.28066" lon="-1.56558">
        <ele>23.2</ele>
      </trkpt>
      <trkpt lat="47.28145" lon="-1.56551">
        <ele>20.4</ele>
      </trkpt>
      <trkpt lat="47.28171" lon="-1.56534">
        <ele>21.6</ele>
      </trkpt>
      <trkpt lat="47.2819" lon="-1.5651">
        <ele>22.5</ele>
      </trkpt>
      <trkpt lat="47.28194" lon="-1.5649">
        <ele>25.2</ele>
      </trkpt>
      <trkpt lat="47.28206" lon="-1.56471">
        <ele>23</ele>
      </trkpt>
      <trkpt lat="47.28229" lon="-1.56457">
        <ele>18.8</ele>
      </trkpt>
      <trkpt lat="47.28244" lon="-1.5646">
        <ele>14.9</ele>
      </trkpt>
      <trkpt lat="47.28254" lon="-1.56468">
        <ele>11.7</ele>
      </trkpt>
      <trkpt lat="47.28255" lon="-1.56481">
        <ele>9.6</ele>
      </trkpt>
      <trkpt lat="47.28265" lon="-1.56476">
        <ele>10</ele>
      </trkpt>
      <trkpt lat="47.2828" lon="-1.56482">
        <ele>8.9</ele>
      </trkpt>
      <trkpt lat="47.28312" lon="-1.56477">
        <ele>8.5</ele>
      </trkpt>
      <trkpt lat="47.28345" lon="-1.56475">
        <ele>9</ele>
      </trkpt>
      <trkpt lat="47.28366" lon="-1.56483">
        <ele>9.4</ele>
      </trkpt>
      <trkpt lat="47.28391" lon="-1.56475">
        <ele>10.7</ele>
      </trkpt>
      <trkpt lat="47.2841" lon="-1.56484">
        <ele>10.2</ele>
      </trkpt>
      <trkpt lat="47.28438" lon="-1.56489">
        <ele>9.7</ele>
      </trkpt>
      <trkpt lat="47.28456" lon="-1.56488">
        <ele>10.2</ele>
      </trkpt>
      <trkpt lat="47.28503" lon="-1.56473">
        <ele>13.3</ele>
      </trkpt>
      <trkpt lat="47.2852" lon="-1.56478">
        <ele>14.7</ele>
      </trkpt>
      <trkpt lat="47.28537" lon="-1.56487">
        <ele>15.6</ele>
      </trkpt>
      <trkpt lat="47.28551" lon="-1.56514">
        <ele>14.1</ele>
      </trkpt>
      <trkpt lat="47.28558" lon="-1.56531">
        <ele>12.9</ele>
      </trkpt>
      <trkpt lat="47.28561" lon="-1.56557">
        <ele>9.7</ele>
      </trkpt>
      <trkpt lat="47.28561" lon="-1.56598">
        <ele>8.1</ele>
      </trkpt>
      <trkpt lat="47.28567" lon="-1.56622">
        <ele>7.9</ele>
      </trkpt>
      <trkpt lat="47.2858" lon="-1.56647">
        <ele>7.6</ele>
      </trkpt>
      <trkpt lat="47.28589" lon="-1.56619">
        <ele>9.9</ele>
        <extensions>
          <visugpx:TrkExtension xmlns:visugpx="https://www.visugpx.com/editgpx/">
            <visugpx:node>2</visugpx:node>
            </visugpx:TrkExtension>
        </extensions>
      </trkpt>
      <trkpt lat="47.2858" lon="-1.56647">
        <ele>7.6</ele>
      </trkpt>
      <trkpt lat="47.28582" lon="-1.5665">
        <ele>7.6</ele>
      </trkpt>
      <trkpt lat="47.28617" lon="-1.56669">
        <ele>9</ele>
      </trkpt>
      <trkpt lat="47.28643" lon="-1.5668">
        <ele>9.1</ele>
      </trkpt>
      <trkpt lat="47.28677" lon="-1.56682">
        <ele>9.1</ele>
      </trkpt>
      <trkpt lat="47.28684" lon="-1.56684">
        <ele>8.8</ele>
      </trkpt>
      <trkpt lat="47.2869" lon="-1.56688">
        <ele>8.4</ele>
      </trkpt>
      <trkpt lat="47.28716" lon="-1.56716">
        <ele>8.5</ele>
      </trkpt>
      <trkpt lat="47.28746" lon="-1.56737">
        <ele>8.7</ele>
      </trkpt>
      <trkpt lat="47.28785" lon="-1.56753">
        <ele>9</ele>
      </trkpt>
      <trkpt lat="47.28804" lon="-1.56758">
        <ele>9.1</ele>
      </trkpt>
      <trkpt lat="47.28813" lon="-1.56758">
        <ele>9.1</ele>
      </trkpt>
      <trkpt lat="47.2883" lon="-1.56755">
        <ele>9.5</ele>
      </trkpt>
      <trkpt lat="47.28837" lon="-1.5675">
        <ele>9.6</ele>
      </trkpt>
      <trkpt lat="47.2884" lon="-1.56741">
        <ele>10.1</ele>
      </trkpt>
      <trkpt lat="47.28845" lon="-1.56705">
        <ele>11.4</ele>
      </trkpt>
      <trkpt lat="47.28854" lon="-1.56633">
        <ele>18.7</ele>
      </trkpt>
      <trkpt lat="47.28865" lon="-1.56595">
        <ele>22.6</ele>
      </trkpt>
      <trkpt lat="47.2888" lon="-1.56554">
        <ele>25.5</ele>
      </trkpt>
      <trkpt lat="47.28895" lon="-1.56522">
        <ele>27.9</ele>
      </trkpt>
      <trkpt lat="47.28907" lon="-1.56502">
        <ele>30</ele>
      </trkpt>
      <trkpt lat="47.28937" lon="-1.56472">
        <ele>31.6</ele>
      </trkpt>
      <trkpt lat="47.28964" lon="-1.56456">
        <ele>32.2</ele>
      </trkpt>
      <trkpt lat="47.28994" lon="-1.56451">
        <ele>32.2</ele>
      </trkpt>
      <trkpt lat="47.29026" lon="-1.5645">
        <ele>31.5</ele>
      </trkpt>
      <trkpt lat="47.29042" lon="-1.56454">
        <ele>30.1</ele>
      </trkpt>
      <trkpt lat="47.29055" lon="-1.5646">
        <ele>28.9</ele>
        <extensions>
          <visugpx:TrkExtension xmlns:visugpx="https://www.visugpx.com/editgpx/">
            <visugpx:node>3</visugpx:node>
            </visugpx:TrkExtension>
        </extensions>
      </trkpt>
      <trkpt lat="47.29066" lon="-1.56475">
        <ele>27.8</ele>
      </trkpt>
      <trkpt lat="47.2908" lon="-1.56499">
        <ele>26.8</ele>
      </trkpt>
      <trkpt lat="47.29103" lon="-1.56562">
        <ele>22.4</ele>
      </trkpt>
      <trkpt lat="47.29112" lon="-1.56583">
        <ele>21.1</ele>
      </trkpt>
      <trkpt lat="47.29132" lon="-1.5662">
        <ele>17.1</ele>
      </trkpt>
      <trkpt lat="47.29141" lon="-1.56628">
        <ele>17.1</ele>
      </trkpt>
      <trkpt lat="47.29148" lon="-1.5663">
        <ele>17.4</ele>
      </trkpt>
      <trkpt lat="47.29165" lon="-1.56635">
        <ele>18.3</ele>
      </trkpt>
      <trkpt lat="47.29213" lon="-1.56632">
        <ele>16.3</ele>
      </trkpt>
      <trkpt lat="47.29222" lon="-1.56638">
        <ele>15.1</ele>
      </trkpt>
      <trkpt lat="47.29232" lon="-1.56649">
        <ele>13.6</ele>
      </trkpt>
      <trkpt lat="47.2924" lon="-1.56644">
        <ele>14</ele>
      </trkpt>
      <trkpt lat="47.29235" lon="-1.56636">
        <ele>14.8</ele>
      </trkpt>
      <trkpt lat="47.29239" lon="-1.56633">
        <ele>14.9</ele>
      </trkpt>
      <trkpt lat="47.29244" lon="-1.56619">
        <ele>15.8</ele>
      </trkpt>
      <trkpt lat="47.29246" lon="-1.56609">
        <ele>16.4</ele>
      </trkpt>
      <trkpt lat="47.29246" lon="-1.56601">
        <ele>17</ele>
        <extensions>
          <visugpx:TrkExtension xmlns:visugpx="https://www.visugpx.com/editgpx/">
            <visugpx:node>4</visugpx:node>
            </visugpx:TrkExtension>
        </extensions>
      </trkpt>
      <trkpt lat="47.29246" lon="-1.56609">
        <ele>16.4</ele>
      </trkpt>
      <trkpt lat="47.29253" lon="-1.56605">
        <ele>16.5</ele>
      </trkpt>
      <trkpt lat="47.29266" lon="-1.56606">
        <ele>16.5</ele>
      </trkpt>
      <trkpt lat="47.29274" lon="-1.5661">
        <ele>16.1</ele>
      </trkpt>
      <trkpt lat="47.29282" lon="-1.56615">
        <ele>16.3</ele>
      </trkpt>
      <trkpt lat="47.29317" lon="-1.56657">
        <ele>19.4</ele>
      </trkpt>
      <trkpt lat="47.29354" lon="-1.56687">
        <ele>24.1</ele>
      </trkpt>
      <trkpt lat="47.29387" lon="-1.56731">
        <ele>25.7</ele>
      </trkpt>
      <trkpt lat="47.29394" lon="-1.56739">
        <ele>25.7</ele>
      </trkpt>
      <trkpt lat="47.29445" lon="-1.56766">
        <ele>27.3</ele>
      </trkpt>
      <trkpt lat="47.29465" lon="-1.56772">
        <ele>26.5</ele>
      </trkpt>
      <trkpt lat="47.29494" lon="-1.56777">
        <ele>26.8</ele>
      </trkpt>
      <trkpt lat="47.29526" lon="-1.56768">
        <ele>27.7</ele>
      </trkpt>
      <trkpt lat="47.29607" lon="-1.56728">
        <ele>32.8</ele>
      </trkpt>
      <trkpt lat="47.29611" lon="-1.56725">
        <ele>32.9</ele>
      </trkpt>
      <trkpt lat="47.2965" lon="-1.56694">
        <ele>34</ele>
      </trkpt>
      <trkpt lat="47.29717" lon="-1.5666">
        <ele>33.4</ele>
      </trkpt>
      <trkpt lat="47.2973" lon="-1.56656">
        <ele>33.1</ele>
      </trkpt>
      <trkpt lat="47.2978" lon="-1.56655">
        <ele>30.8</ele>
      </trkpt>
      <trkpt lat="47.29836" lon="-1.56634">
        <ele>30</ele>
      </trkpt>
      <trkpt lat="47.29846" lon="-1.56628">
        <ele>29.3</ele>
      </trkpt>
      <trkpt lat="47.29885" lon="-1.5662">
        <ele>25.7</ele>
      </trkpt>
      <trkpt lat="47.29896" lon="-1.56621">
        <ele>24.8</ele>
      </trkpt>
      <trkpt lat="47.2999" lon="-1.56612">
        <ele>19.6</ele>
      </trkpt>
      <trkpt lat="47.3003" lon="-1.56603">
        <ele>17.5</ele>
      </trkpt>
      <trkpt lat="47.30046" lon="-1.56603">
        <ele>16.7</ele>
      </trkpt>
      <trkpt lat="47.30061" lon="-1.56606">
        <ele>16.2</ele>
      </trkpt>
      <trkpt lat="47.30091" lon="-1.56617">
        <ele>16.1</ele>
      </trkpt>
      <trkpt lat="47.30111" lon="-1.56617">
        <ele>16.8</ele>
      </trkpt>
      <trkpt lat="47.30141" lon="-1.56615">
        <ele>19</ele>
      </trkpt>
      <trkpt lat="47.30175" lon="-1.56608">
        <ele>21.7</ele>
      </trkpt>
      <trkpt lat="47.30213" lon="-1.56591">
        <ele>24.4</ele>
      </trkpt>
      <trkpt lat="47.30249" lon="-1.5657">
        <ele>26.4</ele>
      </trkpt>
      <trkpt lat="47.30279" lon="-1.56544">
        <ele>28.4</ele>
      </trkpt>
      <trkpt lat="47.303" lon="-1.56533">
        <ele>28.8</ele>
      </trkpt>
      <trkpt lat="47.30328" lon="-1.56528">
        <ele>29.8</ele>
      </trkpt>
      <trkpt lat="47.3036" lon="-1.56519">
        <ele>31.3</ele>
      </trkpt>
      <trkpt lat="47.30362" lon="-1.56518">
        <ele>31.4</ele>
      </trkpt>
      <trkpt lat="47.30383" lon="-1.56501">
        <ele>32</ele>
      </trkpt>
      <trkpt lat="47.30404" lon="-1.56488">
        <ele>33</ele>
      </trkpt>
      <trkpt lat="47.30416" lon="-1.56474">
        <ele>33.9</ele>
      </trkpt>
      <trkpt lat="47.30423" lon="-1.5646">
        <ele>34.2</ele>
      </trkpt>
      <trkpt lat="47.3043" lon="-1.5643">
        <ele>34.5</ele>
      </trkpt>
      <trkpt lat="47.30448" lon="-1.56353">
        <ele>34.1</ele>
      </trkpt>
      <trkpt lat="47.30437" lon="-1.56341">
        <ele>34</ele>
        <extensions>
          <visugpx:TrkExtension xmlns:visugpx="https://www.visugpx.com/editgpx/">
            <visugpx:node>5</visugpx:node>
            </visugpx:TrkExtension>
        </extensions>
      </trkpt>
      <trkpt lat="47.30448" lon="-1.56353">
        <ele>34.1</ele>
      </trkpt>
      <trkpt lat="47.30477" lon="-1.5638">
        <ele>35</ele>
      </trkpt>
      <trkpt lat="47.30535" lon="-1.56473">
        <ele>37</ele>
      </trkpt>
      <trkpt lat="47.30595" lon="-1.56546">
        <ele>38.3</ele>
      </trkpt>
      <trkpt lat="47.30624" lon="-1.56578">
        <ele>39</ele>
      </trkpt>
      <trkpt lat="47.3063" lon="-1.56576">
        <ele>39</ele>
      </trkpt>
      <trkpt lat="47.30651" lon="-1.56555">
        <ele>39</ele>
      </trkpt>
      <trkpt lat="47.30687" lon="-1.56539">
        <ele>39</ele>
      </trkpt>
      <trkpt lat="47.30754" lon="-1.56466">
        <ele>39</ele>
      </trkpt>
      <trkpt lat="47.30786" lon="-1.56533">
        <ele>38.7</ele>
      </trkpt>
      <trkpt lat="47.30806" lon="-1.56571">
        <ele>38</ele>
      </trkpt>
      <trkpt lat="47.30817" lon="-1.56586">
        <ele>37.6</ele>
      </trkpt>
      <trkpt lat="47.30827" lon="-1.56594">
        <ele>37.5</ele>
      </trkpt>
      <trkpt lat="47.30842" lon="-1.56601">
        <ele>37.4</ele>
      </trkpt>
      <trkpt lat="47.30846" lon="-1.56602">
        <ele>37.4</ele>
      </trkpt>
      <trkpt lat="47.3086" lon="-1.56611">
        <ele>37</ele>
      </trkpt>
      <trkpt lat="47.30861" lon="-1.56605">
        <ele>37</ele>
        <extensions>
          <visugpx:TrkExtension xmlns:visugpx="https://www.visugpx.com/editgpx/">
            <visugpx:node>6</visugpx:node>
            </visugpx:TrkExtension>
        </extensions>
      </trkpt>
      <trkpt lat="47.3086" lon="-1.56611">
        <ele>37</ele>
      </trkpt>
      <trkpt lat="47.30846" lon="-1.56602">
        <ele>37.4</ele>
      </trkpt>
      <trkpt lat="47.30842" lon="-1.56601">
        <ele>37.4</ele>
      </trkpt>
      <trkpt lat="47.30851" lon="-1.56619">
        <ele>37.4</ele>
      </trkpt>
      <trkpt lat="47.30936" lon="-1.56826">
        <ele>38.7</ele>
      </trkpt>
      <trkpt lat="47.30983" lon="-1.56934">
        <ele>42.6</ele>
      </trkpt>
      <trkpt lat="47.30991" lon="-1.56947">
        <ele>43.1</ele>
      </trkpt>
      <trkpt lat="47.31044" lon="-1.57039">
        <ele>45</ele>
      </trkpt>
      <trkpt lat="47.31078" lon="-1.57094">
        <ele>45.5</ele>
      </trkpt>
      <trkpt lat="47.31106" lon="-1.57133">
        <ele>45.2</ele>
      </trkpt>
      <trkpt lat="47.31156" lon="-1.57195">
        <ele>43.8</ele>
      </trkpt>
      <trkpt lat="47.31315" lon="-1.57367">
        <ele>37.8</ele>
      </trkpt>
      <trkpt lat="47.3195" lon="-1.58068">
        <ele>42.4</ele>
        <extensions>
          <visugpx:TrkExtension xmlns:visugpx="https://www.visugpx.com/editgpx/">
            <visugpx:node>7</visugpx:node>
            </visugpx:TrkExtension>
        </extensions>
      </trkpt>
      <trkpt lat="47.32021" lon="-1.58147">
        <ele>42</ele>
      </trkpt>
      <trkpt lat="47.32197" lon="-1.58341">
        <ele>39.8</ele>
      </trkpt>
      <trkpt lat="47.32228" lon="-1.58377">
        <ele>39.2</ele>
      </trkpt>
      <trkpt lat="47.32258" lon="-1.58419">
        <ele>38.4</ele>
      </trkpt>
      <trkpt lat="47.32305" lon="-1.58505">
        <ele>38.8</ele>
      </trkpt>
      <trkpt lat="47.32345" lon="-1.58587">
        <ele>38.7</ele>
      </trkpt>
      <trkpt lat="47.32384" lon="-1.58688">
        <ele>37.9</ele>
      </trkpt>
      <trkpt lat="47.32395" lon="-1.58721">
        <ele>37.5</ele>
      </trkpt>
      <trkpt lat="47.32415" lon="-1.58796">
        <ele>37.2</ele>
      </trkpt>
      <trkpt lat="47.32438" lon="-1.5889">
        <ele>36.3</ele>
      </trkpt>
      <trkpt lat="47.32572" lon="-1.5954">
        <ele>45.6</ele>
      </trkpt>
      <trkpt lat="47.32597" lon="-1.59547">
        <ele>46</ele>
        <extensions>
          <visugpx:TrkExtension xmlns:visugpx="https://www.visugpx.com/editgpx/">
            <visugpx:node>8</visugpx:node>
            </visugpx:TrkExtension>
        </extensions>
      </trkpt>
      <trkpt lat="47.32572" lon="-1.5954">
        <ele>45.6</ele>
      </trkpt>
      <trkpt lat="47.32529" lon="-1.59528">
        <ele>44.1</ele>
      </trkpt>
      <trkpt lat="47.32345" lon="-1.59474">
        <ele>41.4</ele>
      </trkpt>
      <trkpt lat="47.32302" lon="-1.59459">
        <ele>38.8</ele>
      </trkpt>
      <trkpt lat="47.32296" lon="-1.5945">
        <ele>38.4</ele>
      </trkpt>
      <trkpt lat="47.32255" lon="-1.59365">
        <ele>37</ele>
      </trkpt>
      <trkpt lat="47.32242" lon="-1.59347">
        <ele>36.8</ele>
      </trkpt>
      <trkpt lat="47.32232" lon="-1.59337">
        <ele>36.8</ele>
      </trkpt>
      <trkpt lat="47.3222" lon="-1.59335">
        <ele>37.1</ele>
      </trkpt>
      <trkpt lat="47.32209" lon="-1.59338">
        <ele>37.6</ele>
      </trkpt>
      <trkpt lat="47.32177" lon="-1.59362">
        <ele>39.7</ele>
      </trkpt>
      <trkpt lat="47.32162" lon="-1.59365">
        <ele>40.3</ele>
      </trkpt>
      <trkpt lat="47.32158" lon="-1.59205">
        <ele>36.7</ele>
      </trkpt>
      <trkpt lat="47.32156" lon="-1.59193">
        <ele>36.3</ele>
      </trkpt>
      <trkpt lat="47.31881" lon="-1.5907">
        <ele>34.9</ele>
      </trkpt>
      <trkpt lat="47.31775" lon="-1.59048">
        <ele>30.1</ele>
      </trkpt>
      <trkpt lat="47.31745" lon="-1.59042">
        <ele>28.3</ele>
      </trkpt>
      <trkpt lat="47.31719" lon="-1.59036">
        <ele>27.5</ele>
      </trkpt>
      <trkpt lat="47.31684" lon="-1.59044">
        <ele>25.2</ele>
      </trkpt>
      <trkpt lat="47.31666" lon="-1.59042">
        <ele>24</ele>
      </trkpt>
      <trkpt lat="47.31649" lon="-1.59035">
        <ele>22.7</ele>
      </trkpt>
      <trkpt lat="47.31547" lon="-1.58973">
        <ele>14.4</ele>
      </trkpt>
      <trkpt lat="47.3153" lon="-1.58971">
        <ele>13.2</ele>
      </trkpt>
      <trkpt lat="47.31527" lon="-1.58958">
        <ele>13</ele>
      </trkpt>
      <trkpt lat="47.31528" lon="-1.58952">
        <ele>13</ele>
        <extensions>
          <visugpx:TrkExtension xmlns:visugpx="https://www.visugpx.com/editgpx/">
            <visugpx:node>9</visugpx:node>
            </visugpx:TrkExtension>
        </extensions>
      </trkpt>
      <trkpt lat="47.31527" lon="-1.58958">
        <ele>13</ele>
      </trkpt>
      <trkpt lat="47.3153" lon="-1.58971">
        <ele>13.2</ele>
      </trkpt>
      <trkpt lat="47.31526" lon="-1.58979">
        <ele>13.2</ele>
      </trkpt>
      <trkpt lat="47.31524" lon="-1.58988">
        <ele>13.5</ele>
      </trkpt>
      <trkpt lat="47.3151" lon="-1.59135">
        <ele>13.2</ele>
      </trkpt>
      <trkpt lat="47.31555" lon="-1.59356">
        <ele>14</ele>
      </trkpt>
      <trkpt lat="47.31553" lon="-1.59372">
        <ele>14.3</ele>
      </trkpt>
      <trkpt lat="47.31538" lon="-1.59403">
        <ele>13.9</ele>
      </trkpt>
      <trkpt lat="47.31508" lon="-1.59479">
        <ele>14.4</ele>
      </trkpt>
      <trkpt lat="47.31502" lon="-1.59531">
        <ele>13.2</ele>
      </trkpt>
      <trkpt lat="47.31493" lon="-1.59644">
        <ele>14.8</ele>
      </trkpt>
      <trkpt lat="47.31479" lon="-1.59726">
        <ele>14.4</ele>
      </trkpt>
      <trkpt lat="47.31461" lon="-1.59807">
        <ele>14.8</ele>
      </trkpt>
      <trkpt lat="47.3144" lon="-1.59942">
        <ele>15.6</ele>
      </trkpt>
      <trkpt lat="47.31434" lon="-1.59972">
        <ele>14.6</ele>
      </trkpt>
      <trkpt lat="47.31445" lon="-1.59979">
        <ele>15.1</ele>
      </trkpt>
      <trkpt lat="47.3145" lon="-1.59986">
        <ele>15.8</ele>
        <extensions>
          <visugpx:TrkExtension xmlns:visugpx="https://www.visugpx.com/editgpx/">
            <visugpx:node>10</visugpx:node>
            </visugpx:TrkExtension>
        </extensions>
      </trkpt>
      <trkpt lat="47.31445" lon="-1.59979">
        <ele>15.1</ele>
      </trkpt>
      <trkpt lat="47.31434" lon="-1.59972">
        <ele>14.6</ele>
      </trkpt>
      <trkpt lat="47.31382" lon="-1.59959">
        <ele>13.6</ele>
      </trkpt>
      <trkpt lat="47.31371" lon="-1.59959">
        <ele>13.8</ele>
      </trkpt>
      <trkpt lat="47.31358" lon="-1.59963">
        <ele>14.3</ele>
      </trkpt>
      <trkpt lat="47.31333" lon="-1.59987">
        <ele>16.5</ele>
      </trkpt>
      <trkpt lat="47.31322" lon="-1.59999">
        <ele>17.7</ele>
      </trkpt>
      <trkpt lat="47.31285" lon="-1.6003">
        <ele>24.4</ele>
      </trkpt>
      <trkpt lat="47.31256" lon="-1.60047">
        <ele>26.1</ele>
      </trkpt>
      <trkpt lat="47.31157" lon="-1.60096">
        <ele>32.2</ele>
      </trkpt>
      <trkpt lat="47.3112" lon="-1.60113">
        <ele>35.4</ele>
      </trkpt>
      <trkpt lat="47.31079" lon="-1.60122">
        <ele>39.4</ele>
      </trkpt>
      <trkpt lat="47.31082" lon="-1.60132">
        <ele>39.1</ele>
        <extensions>
          <visugpx:TrkExtension xmlns:visugpx="https://www.visugpx.com/editgpx/">
            <visugpx:node>11</visugpx:node>
            </visugpx:TrkExtension>
        </extensions>
      </trkpt>
      <trkpt lat="47.3113" lon="-1.60265">
        <ele>41.3</ele>
      </trkpt>
      <trkpt lat="47.31131" lon="-1.60273">
        <ele>41.4</ele>
      </trkpt>
      <trkpt lat="47.31207" lon="-1.60447">
        <ele>32.8</ele>
      </trkpt>
      <trkpt lat="47.31219" lon="-1.60455">
        <ele>32.9</ele>
      </trkpt>
      <trkpt lat="47.31237" lon="-1.6046">
        <ele>33.1</ele>
      </trkpt>
      <trkpt lat="47.31252" lon="-1.60458">
        <ele>33.1</ele>
      </trkpt>
      <trkpt lat="47.3131" lon="-1.60429">
        <ele>34.7</ele>
      </trkpt>
      <trkpt lat="47.31342" lon="-1.6042">
        <ele>35.6</ele>
      </trkpt>
      <trkpt lat="47.31354" lon="-1.60419">
        <ele>35.9</ele>
      </trkpt>
      <trkpt lat="47.31382" lon="-1.60423">
        <ele>35.7</ele>
      </trkpt>
      <trkpt lat="47.31429" lon="-1.60442">
        <ele>33.1</ele>
      </trkpt>
      <trkpt lat="47.31442" lon="-1.60453">
        <ele>31.7</ele>
      </trkpt>
      <trkpt lat="47.31462" lon="-1.60476">
        <ele>28.8</ele>
      </trkpt>
      <trkpt lat="47.31494" lon="-1.60529">
        <ele>24.2</ele>
      </trkpt>
      <trkpt lat="47.31523" lon="-1.60582">
        <ele>21.8</ele>
      </trkpt>
      <trkpt lat="47.31549" lon="-1.60653">
        <ele>20.8</ele>
      </trkpt>
      <trkpt lat="47.31553" lon="-1.60666">
        <ele>20.5</ele>
      </trkpt>
      <trkpt lat="47.31556" lon="-1.60693">
        <ele>19.9</ele>
      </trkpt>
      <trkpt lat="47.31552" lon="-1.60794">
        <ele>17.9</ele>
      </trkpt>
      <trkpt lat="47.31553" lon="-1.6083">
        <ele>17.8</ele>
      </trkpt>
      <trkpt lat="47.31558" lon="-1.60882">
        <ele>19.4</ele>
      </trkpt>
      <trkpt lat="47.31566" lon="-1.60929">
        <ele>21.9</ele>
      </trkpt>
      <trkpt lat="47.31606" lon="-1.61107">
        <ele>30.3</ele>
      </trkpt>
      <trkpt lat="47.31582" lon="-1.61117">
        <ele>32.2</ele>
        <extensions>
          <visugpx:TrkExtension xmlns:visugpx="https://www.visugpx.com/editgpx/">
            <visugpx:node>12</visugpx:node>
            </visugpx:TrkExtension>
        </extensions>
      </trkpt>
      <trkpt lat="47.31553" lon="-1.6113">
        <ele>33.3</ele>
      </trkpt>
      <trkpt lat="47.3146" lon="-1.61163">
        <ele>32.9</ele>
      </trkpt>
      <trkpt lat="47.31437" lon="-1.61175">
        <ele>31.8</ele>
      </trkpt>
      <trkpt lat="47.3133" lon="-1.61241">
        <ele>34.7</ele>
      </trkpt>
      <trkpt lat="47.31295" lon="-1.61252">
        <ele>35.1</ele>
      </trkpt>
      <trkpt lat="47.3129" lon="-1.6126">
        <ele>35.4</ele>
      </trkpt>
      <trkpt lat="47.31284" lon="-1.61284">
        <ele>36.2</ele>
      </trkpt>
      <trkpt lat="47.31256" lon="-1.6131">
        <ele>37.1</ele>
      </trkpt>
      <trkpt lat="47.31238" lon="-1.61342">
        <ele>39.2</ele>
      </trkpt>
      <trkpt lat="47.31229" lon="-1.61354">
        <ele>40.3</ele>
      </trkpt>
      <trkpt lat="47.31211" lon="-1.61368">
        <ele>41.7</ele>
      </trkpt>
      <trkpt lat="47.31064" lon="-1.61408">
        <ele>48.1</ele>
      </trkpt>
      <trkpt lat="47.31017" lon="-1.61411">
        <ele>50.7</ele>
      </trkpt>
      <trkpt lat="47.30938" lon="-1.61426">
        <ele>51</ele>
      </trkpt>
      <trkpt lat="47.30904" lon="-1.61435">
        <ele>51</ele>
      </trkpt>
      <trkpt lat="47.3089" lon="-1.61457">
        <ele>51</ele>
      </trkpt>
      <trkpt lat="47.30873" lon="-1.61457">
        <ele>50.1</ele>
      </trkpt>
      <trkpt lat="47.30865" lon="-1.61462">
        <ele>49.8</ele>
      </trkpt>
      <trkpt lat="47.30861" lon="-1.61456">
        <ele>49.4</ele>
        <extensions>
          <visugpx:TrkExtension xmlns:visugpx="https://www.visugpx.com/editgpx/">
            <visugpx:node>13</visugpx:node>
            </visugpx:TrkExtension>
        </extensions>
      </trkpt>
      <trkpt lat="47.30849" lon="-1.6143">
        <ele>48.6</ele>
      </trkpt>
      <trkpt lat="47.3076" lon="-1.61486">
        <ele>48.2</ele>
      </trkpt>
      <trkpt lat="47.30741" lon="-1.61493">
        <ele>48.2</ele>
      </trkpt>
      <trkpt lat="47.30675" lon="-1.6148">
        <ele>50</ele>
      </trkpt>
      <trkpt lat="47.30677" lon="-1.61467">
        <ele>49.4</ele>
      </trkpt>
      <trkpt lat="47.30681" lon="-1.61458">
        <ele>49</ele>
      </trkpt>
      <trkpt lat="47.30698" lon="-1.61427">
        <ele>47.2</ele>
      </trkpt>
      <trkpt lat="47.30721" lon="-1.61397">
        <ele>45.3</ele>
      </trkpt>
      <trkpt lat="47.30731" lon="-1.61378">
        <ele>44.7</ele>
      </trkpt>
      <trkpt lat="47.30732" lon="-1.61362">
        <ele>44.4</ele>
      </trkpt>
      <trkpt lat="47.30729" lon="-1.61317">
        <ele>43.4</ele>
      </trkpt>
      <trkpt lat="47.3073" lon="-1.61304">
        <ele>42.9</ele>
      </trkpt>
      <trkpt lat="47.30731" lon="-1.61287">
        <ele>42.1</ele>
      </trkpt>
      <trkpt lat="47.30743" lon="-1.61239">
        <ele>40</ele>
      </trkpt>
      <trkpt lat="47.30749" lon="-1.61221">
        <ele>39.1</ele>
      </trkpt>
      <trkpt lat="47.30756" lon="-1.61192">
        <ele>39.1</ele>
      </trkpt>
      <trkpt lat="47.30756" lon="-1.61183">
        <ele>38.8</ele>
      </trkpt>
      <trkpt lat="47.30794" lon="-1.61125">
        <ele>37.3</ele>
      </trkpt>
      <trkpt lat="47.30803" lon="-1.61121">
        <ele>37.3</ele>
      </trkpt>
      <trkpt lat="47.30806" lon="-1.60865">
        <ele>35.7</ele>
      </trkpt>
      <trkpt lat="47.30806" lon="-1.60854">
        <ele>36.5</ele>
      </trkpt>
      <trkpt lat="47.30803" lon="-1.60814">
        <ele>38.9</ele>
      </trkpt>
      <trkpt lat="47.30795" lon="-1.60781">
        <ele>40.6</ele>
      </trkpt>
      <trkpt lat="47.30793" lon="-1.60771">
        <ele>41.3</ele>
      </trkpt>
      <trkpt lat="47.30784" lon="-1.60748">
        <ele>42.8</ele>
      </trkpt>
      <trkpt lat="47.30775" lon="-1.60736">
        <ele>43.7</ele>
        <extensions>
          <visugpx:TrkExtension xmlns:visugpx="https://www.visugpx.com/editgpx/">
            <visugpx:node>14</visugpx:node>
            </visugpx:TrkExtension>
        </extensions>
      </trkpt>
      <trkpt lat="47.30752" lon="-1.60707">
        <ele>45.3</ele>
      </trkpt>
      <trkpt lat="47.30705" lon="-1.60756">
        <ele>48.5</ele>
      </trkpt>
      <trkpt lat="47.30675" lon="-1.60791">
        <ele>49.9</ele>
      </trkpt>
      <trkpt lat="47.30655" lon="-1.6081">
        <ele>50.2</ele>
      </trkpt>
      <trkpt lat="47.30647" lon="-1.60814">
        <ele>50.3</ele>
      </trkpt>
      <trkpt lat="47.30581" lon="-1.60829">
        <ele>52.5</ele>
      </trkpt>
      <trkpt lat="47.3052" lon="-1.6085">
        <ele>55.6</ele>
      </trkpt>
      <trkpt lat="47.30498" lon="-1.60857">
        <ele>57.1</ele>
      </trkpt>
      <trkpt lat="47.30472" lon="-1.60863">
        <ele>58.1</ele>
      </trkpt>
      <trkpt lat="47.30407" lon="-1.60853">
        <ele>59</ele>
      </trkpt>
      <trkpt lat="47.30318" lon="-1.60836">
        <ele>59.4</ele>
      </trkpt>
      <trkpt lat="47.30306" lon="-1.60836">
        <ele>59</ele>
      </trkpt>
      <trkpt lat="47.30237" lon="-1.60735">
        <ele>60.3</ele>
      </trkpt>
      <trkpt lat="47.30163" lon="-1.60633">
        <ele>61.2</ele>
      </trkpt>
      <trkpt lat="47.30141" lon="-1.60607">
        <ele>62</ele>
      </trkpt>
      <trkpt lat="47.30123" lon="-1.60578">
        <ele>62.1</ele>
      </trkpt>
      <trkpt lat="47.30015" lon="-1.60429">
        <ele>64.8</ele>
      </trkpt>
      <trkpt lat="47.30007" lon="-1.60418">
        <ele>65</ele>
      </trkpt>
      <trkpt lat="47.30149" lon="-1.60346">
        <ele>64</ele>
      </trkpt>
      <trkpt lat="47.30148" lon="-1.60342">
        <ele>64</ele>
      </trkpt>
      <trkpt lat="47.30142" lon="-1.60336">
        <ele>64</ele>
      </trkpt>
      <trkpt lat="47.29666" lon="-1.59904">
        <ele>62</ele>
      </trkpt>
      <trkpt lat="47.29572" lon="-1.59707">
        <ele>59.6</ele>
      </trkpt>
      <trkpt lat="47.29555" lon="-1.59713">
        <ele>59</ele>
      </trkpt>
      <trkpt lat="47.2942" lon="-1.59709">
        <ele>55</ele>
      </trkpt>
      <trkpt lat="47.29396" lon="-1.59708">
        <ele>54.6</ele>
        <extensions>
          <visugpx:TrkExtension xmlns:visugpx="https://www.visugpx.com/editgpx/">
            <visugpx:node>15</visugpx:node>
            </visugpx:TrkExtension>
        </extensions>
      </trkpt>
      <trkpt lat="47.29261" lon="-1.59703">
        <ele>50.5</ele>
      </trkpt>
      <trkpt lat="47.29199" lon="-1.597">
        <ele>49</ele>
      </trkpt>
      <trkpt lat="47.29178" lon="-1.59697">
        <ele>50.9</ele>
      </trkpt>
      <trkpt lat="47.2916" lon="-1.59698">
        <ele>52.6</ele>
      </trkpt>
      <trkpt lat="47.29141" lon="-1.59703">
        <ele>54.2</ele>
      </trkpt>
      <trkpt lat="47.29118" lon="-1.59708">
        <ele>56</ele>
      </trkpt>
      <trkpt lat="47.29102" lon="-1.59706">
        <ele>56.9</ele>
      </trkpt>
      <trkpt lat="47.29078" lon="-1.597">
        <ele>58.2</ele>
      </trkpt>
      <trkpt lat="47.29018" lon="-1.59678">
        <ele>60</ele>
      </trkpt>
      <trkpt lat="47.28964" lon="-1.59662">
        <ele>60</ele>
      </trkpt>
      <trkpt lat="47.2894" lon="-1.59658">
        <ele>59.8</ele>
      </trkpt>
      <trkpt lat="47.28908" lon="-1.59653">
        <ele>58.7</ele>
      </trkpt>
      <trkpt lat="47.28828" lon="-1.59657">
        <ele>54.8</ele>
      </trkpt>
      <trkpt lat="47.28808" lon="-1.59646">
        <ele>54.1</ele>
      </trkpt>
      <trkpt lat="47.28777" lon="-1.59612">
        <ele>53</ele>
      </trkpt>
      <trkpt lat="47.28747" lon="-1.59575">
        <ele>52.9</ele>
      </trkpt>
      <trkpt lat="47.28741" lon="-1.59567">
        <ele>52.9</ele>
      </trkpt>
      <trkpt lat="47.28702" lon="-1.59534">
        <ele>53</ele>
      </trkpt>
      <trkpt lat="47.28679" lon="-1.59518">
        <ele>53</ele>
      </trkpt>
      <trkpt lat="47.28553" lon="-1.59482">
        <ele>53</ele>
      </trkpt>
      <trkpt lat="47.28455" lon="-1.59458">
        <ele>53.3</ele>
      </trkpt>
      <trkpt lat="47.28398" lon="-1.59442">
        <ele>54</ele>
      </trkpt>
      <trkpt lat="47.28318" lon="-1.5942">
        <ele>54</ele>
      </trkpt>
      <trkpt lat="47.28306" lon="-1.59411">
        <ele>53.8</ele>
      </trkpt>
      <trkpt lat="47.28302" lon="-1.59407">
        <ele>53.7</ele>
      </trkpt>
      <trkpt lat="47.28215" lon="-1.59336">
        <ele>53</ele>
      </trkpt>
      <trkpt lat="47.28219" lon="-1.59301">
        <ele>53</ele>
        <extensions>
          <visugpx:TrkExtension xmlns:visugpx="https://www.visugpx.com/editgpx/">
            <visugpx:node>16</visugpx:node>
            </visugpx:TrkExtension>
        </extensions>
      </trkpt>
      <trkpt lat="47.28219" lon="-1.59299">
        <ele>53</ele>
      </trkpt>
      <trkpt lat="47.28221" lon="-1.5928">
        <ele>53</ele>
      </trkpt>
      <trkpt lat="47.28239" lon="-1.59131">
        <ele>52.9</ele>
      </trkpt>
      <trkpt lat="47.28258" lon="-1.59064">
        <ele>51.8</ele>
      </trkpt>
      <trkpt lat="47.28262" lon="-1.59044">
        <ele>51.2</ele>
      </trkpt>
      <trkpt lat="47.28263" lon="-1.59006">
        <ele>50.5</ele>
      </trkpt>
      <trkpt lat="47.28263" lon="-1.58939">
        <ele>49.9</ele>
      </trkpt>
      <trkpt lat="47.28264" lon="-1.58894">
        <ele>49.5</ele>
      </trkpt>
      <trkpt lat="47.28266" lon="-1.58841">
        <ele>48.3</ele>
      </trkpt>
      <trkpt lat="47.28267" lon="-1.58829">
        <ele>47.9</ele>
        <extensions>
          <visugpx:TrkExtension xmlns:visugpx="https://www.visugpx.com/editgpx/">
            <visugpx:node>17</visugpx:node>
            </visugpx:TrkExtension>
        </extensions>
      </trkpt>
      <trkpt lat="47.28268" lon="-1.58816">
        <ele>47.6</ele>
      </trkpt>
      <trkpt lat="47.28274" lon="-1.58806">
        <ele>47.1</ele>
      </trkpt>
      <trkpt lat="47.28274" lon="-1.588">
        <ele>47.1</ele>
      </trkpt>
      <trkpt lat="47.28276" lon="-1.58794">
        <ele>47</ele>
      </trkpt>
      <trkpt lat="47.28281" lon="-1.58769">
        <ele>46.6</ele>
      </trkpt>
      <trkpt lat="47.28303" lon="-1.58705">
        <ele>45.1</ele>
      </trkpt>
      <trkpt lat="47.28302" lon="-1.58699">
        <ele>45.1</ele>
      </trkpt>
      <trkpt lat="47.28316" lon="-1.58651">
        <ele>44.6</ele>
      </trkpt>
      <trkpt lat="47.28307" lon="-1.58649">
        <ele>44.9</ele>
        <extensions>
          <visugpx:TrkExtension xmlns:visugpx="https://www.visugpx.com/editgpx/">
            <visugpx:node>18</visugpx:node>
            </visugpx:TrkExtension>
        </extensions>
      </trkpt>
      <trkpt lat="47.28244" lon="-1.58637">
        <ele>47.2</ele>
      </trkpt>
      <trkpt lat="47.28203" lon="-1.5863">
        <ele>48.7</ele>
      </trkpt>
      <trkpt lat="47.28131" lon="-1.58617">
        <ele>51.6</ele>
      </trkpt>
      <trkpt lat="47.28046" lon="-1.58605">
        <ele>52.3</ele>
        <extensions>
          <visugpx:TrkExtension xmlns:visugpx="https://www.visugpx.com/editgpx/">
            <visugpx:node>19</visugpx:node>
            </visugpx:TrkExtension>
        </extensions>
      </trkpt>
      <trkpt lat="47.28039" lon="-1.58604">
        <ele>52.6</ele>
      </trkpt>
      <trkpt lat="47.28034" lon="-1.586">
        <ele>52.8</ele>
      </trkpt>
      <trkpt lat="47.28032" lon="-1.58597">
        <ele>52.8</ele>
      </trkpt>
      <trkpt lat="47.28032" lon="-1.58551">
        <ele>52.7</ele>
      </trkpt>
      <trkpt lat="47.2803" lon="-1.58469">
        <ele>52</ele>
      </trkpt>
      <trkpt lat="47.28021" lon="-1.58374">
        <ele>52</ele>
      </trkpt>
      <trkpt lat="47.2801" lon="-1.58291">
        <ele>51</ele>
      </trkpt>
      <trkpt lat="47.27989" lon="-1.58215">
        <ele>50</ele>
      </trkpt>
      <trkpt lat="47.27988" lon="-1.58208">
        <ele>50</ele>
      </trkpt>
      <trkpt lat="47.27984" lon="-1.58204">
        <ele>50</ele>
      </trkpt>
      <trkpt lat="47.27845" lon="-1.57868">
        <ele>44.4</ele>
      </trkpt>
      <trkpt lat="47.27817" lon="-1.57808">
        <ele>44.3</ele>
      </trkpt>
      <trkpt lat="47.27779" lon="-1.57717">
        <ele>44.2</ele>
      </trkpt>
      <trkpt lat="47.27771" lon="-1.57693">
        <ele>44.8</ele>
      </trkpt>
      <trkpt lat="47.27767" lon="-1.57674">
        <ele>44.6</ele>
      </trkpt>
      <trkpt lat="47.27765" lon="-1.57651">
        <ele>45.1</ele>
      </trkpt>
      <trkpt lat="47.27767" lon="-1.57579">
        <ele>45.6</ele>
      </trkpt>
      <trkpt lat="47.27781" lon="-1.57392">
        <ele>44.1</ele>
      </trkpt>
      <trkpt lat="47.27786" lon="-1.57304">
        <ele>42.3</ele>
      </trkpt>
      <trkpt lat="47.27788" lon="-1.57234">
        <ele>40.8</ele>
      </trkpt>
      <trkpt lat="47.27788" lon="-1.57215">
        <ele>40.5</ele>
      </trkpt>
      <trkpt lat="47.27786" lon="-1.57203">
        <ele>40.2</ele>
      </trkpt>
      <trkpt lat="47.2778" lon="-1.57191">
        <ele>39.9</ele>
      </trkpt>
      <trkpt lat="47.27773" lon="-1.57186">
        <ele>39.7</ele>
      </trkpt>
      <trkpt lat="47.27657" lon="-1.57161">
        <ele>39.9</ele>
      </trkpt>
      <trkpt lat="47.27638" lon="-1.57154">
        <ele>40</ele>
      </trkpt>
      <trkpt lat="47.27628" lon="-1.57147">
        <ele>40.1</ele>
      </trkpt>
      <trkpt lat="47.2762" lon="-1.57138">
        <ele>40</ele>
        <extensions>
          <visugpx:TrkExtension xmlns:visugpx="https://www.visugpx.com/editgpx/">
            <visugpx:node>20</visugpx:node>
            </visugpx:TrkExtension>
        </extensions>
      </trkpt>
      <trkpt lat="47.27612" lon="-1.5713">
        <ele>39.7</ele>
      </trkpt>
      <trkpt lat="47.27602" lon="-1.57117">
        <ele>39.5</ele>
        <extensions>
          <visugpx:TrkExtension xmlns:visugpx="https://www.visugpx.com/editgpx/">
            <visugpx:node>21</visugpx:node>
            </visugpx:TrkExtension>
        </extensions>
      </trkpt>
      <trkpt lat="47.27602" lon="-1.57117">
        <ele>39.5</ele>
      </trkpt>
      <trkpt lat="47.27612" lon="-1.5713">
        <ele>39.7</ele>
      </trkpt>
      <trkpt lat="47.27606" lon="-1.57116">
        <ele>39.4</ele>
      </trkpt>
      <trkpt lat="47.27606" lon="-1.5709">
        <ele>39</ele>
      </trkpt>
      <trkpt lat="47.27628" lon="-1.57082">
        <ele>39</ele>
      </trkpt>
      <trkpt lat="47.27627" lon="-1.57076">
        <ele>38.7</ele>
      </trkpt>
      <trkpt lat="47.27534" lon="-1.57113">
        <ele>40.1</ele>
      </trkpt>
      <trkpt lat="47.27528" lon="-1.57111">
        <ele>40</ele>
      </trkpt>
      <trkpt lat="47.27526" lon="-1.57104">
        <ele>39.7</ele>
      </trkpt>
      <trkpt lat="47.27527" lon="-1.571">
        <ele>39.6</ele>
      </trkpt>
      <trkpt lat="47.27525" lon="-1.57098">
        <ele>39.5</ele>
      </trkpt>
      <trkpt lat="47.27524" lon="-1.57096">
        <ele>39.4</ele>
        <extensions>
          <visugpx:TrkExtension xmlns:visugpx="https://www.visugpx.com/editgpx/">
            <visugpx:node>22</visugpx:node>
            </visugpx:TrkExtension>
        </extensions>
      </trkpt>
      <trkpt lat="47.27525" lon="-1.57098">
        <ele>39.5</ele>
      </trkpt>
      <trkpt lat="47.27548" lon="-1.57055">
        <ele>38</ele>
      </trkpt>
      <trkpt lat="47.27602" lon="-1.56987">
        <ele>36.2</ele>
      </trkpt>
      <trkpt lat="47.27613" lon="-1.56974">
        <ele>36.1</ele>
      </trkpt>
      <trkpt lat="47.27618" lon="-1.56968">
        <ele>35.8</ele>
      </trkpt>
      <trkpt lat="47.27699" lon="-1.56868">
        <ele>32.2</ele>
      </trkpt>
      <trkpt lat="47.27729" lon="-1.56833">
        <ele>31</ele>
      </trkpt>
      <trkpt lat="47.27797" lon="-1.56765">
        <ele>29.1</ele>
      </trkpt>
      <trkpt lat="47.27825" lon="-1.56746">
        <ele>24.7</ele>
      </trkpt>
      <trkpt lat="47.27838" lon="-1.56738">
        <ele>22</ele>
      </trkpt>
      <trkpt lat="47.27872" lon="-1.56724">
        <ele>17.4</ele>
      </trkpt>
      <trkpt lat="47.27888" lon="-1.56736">
        <ele>19.5</ele>
      </trkpt>
      <trkpt lat="47.27891" lon="-1.56718">
        <ele>16.1</ele>
        <extensions>
          <visugpx:TrkExtension xmlns:visugpx="https://www.visugpx.com/editgpx/">
            <visugpx:node>23</visugpx:node>
            </visugpx:TrkExtension>
        </extensions>
      </trkpt>
      <trkpt lat="47.27892" lon="-1.56711">
        <ele>14.8</ele>
      </trkpt>
      <trkpt lat="47.27896" lon="-1.56689">
        <ele>10.4</ele>
      </trkpt>
      <trkpt lat="47.27911" lon="-1.56583">
        <ele>9.4</ele>
      </trkpt>
      <trkpt lat="47.27899" lon="-1.56573">
        <ele>8.8</ele>
      </trkpt>
      <trkpt lat="47.27857" lon="-1.56509">
        <ele>9.2</ele>
      </trkpt>
      <trkpt lat="47.27861" lon="-1.56495">
        <ele>10.3</ele>
      </trkpt>
      <trkpt lat="47.27887" lon="-1.56445">
        <ele>16.7</ele>
      </trkpt>
      <trkpt lat="47.27901" lon="-1.56398">
        <ele>24.2</ele>
      </trkpt>
      <trkpt lat="47.27904" lon="-1.56392">
        <ele>25.4</ele>
      </trkpt>
      <trkpt lat="47.27908" lon="-1.56391">
        <ele>26.2</ele>
      </trkpt>
      <trkpt lat="47.27917" lon="-1.56398">
        <ele>27.4</ele>
      </trkpt>
      <trkpt lat="47.27933" lon="-1.56378">
        <ele>31.1</ele>
      </trkpt>
      <trkpt lat="47.27934" lon="-1.56372">
        <ele>31.6</ele>
      </trkpt>
      <trkpt lat="47.27933" lon="-1.56363">
        <ele>32.1</ele>
      </trkpt>
      <trkpt lat="47.27928" lon="-1.56335">
        <ele>32.8</ele>
      </trkpt>
      <trkpt lat="47.27931" lon="-1.56314">
        <ele>34.1</ele>
      </trkpt>
      <trkpt lat="47.27944" lon="-1.56307">
        <ele>34.9</ele>
      </trkpt>
      <trkpt lat="47.27967" lon="-1.56273">
        <ele>36.8</ele>
      </trkpt>
      <trkpt lat="47.2802" lon="-1.56203">
        <ele>37</ele>
      </trkpt>
      <trkpt lat="47.28023" lon="-1.56191">
        <ele>37</ele>
      </trkpt>
      <trkpt lat="47.28024" lon="-1.56177">
        <ele>37</ele>
      </trkpt>
      <trkpt lat="47.28018" lon="-1.56149">
        <ele>37.6</ele>
      </trkpt>
      <trkpt lat="47.28012" lon="-1.56119">
        <ele>37.7</ele>
      </trkpt>
      <trkpt lat="47.28013" lon="-1.56101">
        <ele>37.7</ele>
      </trkpt>
      <trkpt lat="47.28019" lon="-1.56082">
        <ele>38</ele>
      </trkpt>
      <trkpt lat="47.28027" lon="-1.56073">
        <ele>38</ele>
      </trkpt>
      <trkpt lat="47.28038" lon="-1.56061">
        <ele>37.6</ele>
      </trkpt>
      <trkpt lat="47.28048" lon="-1.5605">
        <ele>37.3</ele>
      </trkpt>
      <trkpt lat="47.28054" lon="-1.56041">
        <ele>37.1</ele>
      </trkpt>
      <trkpt lat="47.28061" lon="-1.5602">
        <ele>37.2</ele>
      </trkpt>
      <trkpt lat="47.28066" lon="-1.56022">
        <ele>37.1</ele>
      </trkpt>
      <trkpt lat="47.28088" lon="-1.56028">
        <ele>36.7</ele>
      </trkpt>
      <trkpt lat="47.28089" lon="-1.56024">
        <ele>36.6</ele>
        <extensions>
          <visugpx:TrkExtension xmlns:visugpx="https://www.visugpx.com/editgpx/">
            <visugpx:node>24</visugpx:node>
            </visugpx:TrkExtension>
        </extensions>
      </trkpt>
      <trkpt lat="47.28102" lon="-1.5598">
        <ele>37</ele>
      </trkpt>
      <trkpt lat="47.28108" lon="-1.55945">
        <ele>38</ele>
      </trkpt>
      <trkpt lat="47.2811" lon="-1.55934">
        <ele>38</ele>
      </trkpt>
      <trkpt lat="47.28112" lon="-1.55899">
        <ele>38</ele>
      </trkpt>
      <trkpt lat="47.28122" lon="-1.55817">
        <ele>39</ele>
        <extensions>
          <visugpx:TrkExtension xmlns:visugpx="https://www.visugpx.com/editgpx/">
            <visugpx:node>25</visugpx:node>
            </visugpx:TrkExtension>
        </extensions>
      </trkpt>
      <trkpt lat="47.28123" lon="-1.55814">
        <ele>39</ele>
      </trkpt>
      <trkpt lat="47.2811" lon="-1.55811">
        <ele>39</ele>
      </trkpt>
      <trkpt lat="47.2803" lon="-1.55794">
        <ele>40</ele>
      </trkpt>
      <trkpt lat="47.28027" lon="-1.55793">
        <ele>40</ele>
      </trkpt>
      <trkpt lat="47.2799" lon="-1.55786">
        <ele>39</ele>
      </trkpt>
      <trkpt lat="47.27982" lon="-1.55784">
        <ele>39</ele>
        <extensions>
          <visugpx:TrkExtension xmlns:visugpx="https://www.visugpx.com/editgpx/">
            <visugpx:node>26</visugpx:node>
            </visugpx:TrkExtension>
        </extensions>
      </trkpt>
      <trkpt lat="47.27978" lon="-1.55783">
        <ele>39</ele>
      </trkpt>
      <trkpt lat="47.27982" lon="-1.55747">
        <ele>39.4</ele>
      </trkpt>
      <trkpt lat="47.27986" lon="-1.55708">
        <ele>39.8</ele>
      </trkpt>
      <trkpt lat="47.27988" lon="-1.55685">
        <ele>40</ele>
      </trkpt>
      <trkpt lat="47.28002" lon="-1.55537">
        <ele>41</ele>
        <extensions>
          <visugpx:TrkExtension xmlns:visugpx="https://www.visugpx.com/editgpx/">
            <visugpx:node>27</visugpx:node>
            </visugpx:TrkExtension>
        </extensions>
      </trkpt>
      <trkpt lat="47.28002" lon="-1.55536">
        <ele>41</ele>
      </trkpt>
      <trkpt lat="47.28001" lon="-1.55522">
        <ele>41</ele>
      </trkpt>
      <trkpt lat="47.27995" lon="-1.55517">
        <ele>41</ele>
      </trkpt>
      <trkpt lat="47.27994" lon="-1.55514">
        <ele>41</ele>
      </trkpt>
      <trkpt lat="47.27994" lon="-1.55507">
        <ele>41</ele>
      </trkpt>
      <trkpt lat="47.27952" lon="-1.55484">
        <ele>41</ele>
      </trkpt>
      <trkpt lat="47.27869" lon="-1.55437">
        <ele>40.3</ele>
      </trkpt>
      <trkpt lat="47.27843" lon="-1.55423">
        <ele>40.3</ele>
      </trkpt>
      <trkpt lat="47.27843" lon="-1.55414">
        <ele>40.4</ele>
      </trkpt>
      <trkpt lat="47.27764" lon="-1.5529">
        <ele>41</ele>
      </trkpt>
      <trkpt lat="47.2775" lon="-1.55264">
        <ele>41</ele>
      </trkpt>
      <trkpt lat="47.27747" lon="-1.55266">
        <ele>40.9</ele>
      </trkpt>
      <trkpt lat="47.27725" lon="-1.55285">
        <ele>40.1</ele>
      </trkpt>
      <trkpt lat="47.27695" lon="-1.55318">
        <ele>40</ele>
      </trkpt>
      <trkpt lat="47.27684" lon="-1.55334">
        <ele>40</ele>
      </trkpt>
      <trkpt lat="47.27584" lon="-1.55278">
        <ele>39</ele>
      </trkpt>
      <trkpt lat="47.27551" lon="-1.55258">
        <ele>39</ele>
      </trkpt>
      <trkpt lat="47.27511" lon="-1.55229">
        <ele>38.4</ele>
      </trkpt>
      <trkpt lat="47.2745" lon="-1.55178">
        <ele>38</ele>
      </trkpt>
      <trkpt lat="47.27436" lon="-1.55166">
        <ele>36.1</ele>
      </trkpt>
      <trkpt lat="47.2739" lon="-1.55127">
        <ele>36.3</ele>
      </trkpt>
      <trkpt lat="47.27381" lon="-1.5512">
        <ele>36.8</ele>
      </trkpt>
      <trkpt lat="47.27375" lon="-1.55116">
        <ele>36.9</ele>
      </trkpt>
      <trkpt lat="47.27372" lon="-1.55115">
        <ele>36.9</ele>
        <extensions>
          <visugpx:TrkExtension xmlns:visugpx="https://www.visugpx.com/editgpx/">
            <visugpx:node>28</visugpx:node>
            </visugpx:TrkExtension>
        </extensions>
      </trkpt>
      <trkpt lat="47.27375" lon="-1.55116">
        <ele>36.9</ele>
      </trkpt>
      <trkpt lat="47.27379" lon="-1.55101">
        <ele>36.6</ele>
      </trkpt>
      <trkpt lat="47.27389" lon="-1.55099">
        <ele>36.6</ele>
      </trkpt>
      <trkpt lat="47.27403" lon="-1.55085">
        <ele>35</ele>
      </trkpt>
      <trkpt lat="47.27412" lon="-1.55068">
        <ele>34.8</ele>
      </trkpt>
      <trkpt lat="47.27422" lon="-1.55041">
        <ele>34.7</ele>
      </trkpt>
      <trkpt lat="47.27424" lon="-1.55033">
        <ele>34.5</ele>
      </trkpt>
      <trkpt lat="47.27425" lon="-1.55024">
        <ele>34.4</ele>
      </trkpt>
      <trkpt lat="47.27408" lon="-1.54828">
        <ele>33.7</ele>
      </trkpt>
      <trkpt lat="47.27407" lon="-1.54824">
        <ele>33.7</ele>
      </trkpt>
      <trkpt lat="47.27399" lon="-1.54813">
        <ele>33.4</ele>
      </trkpt>
      <trkpt lat="47.27399" lon="-1.54808">
        <ele>33.4</ele>
      </trkpt>
      <trkpt lat="47.27407" lon="-1.54775">
        <ele>34.4</ele>
      </trkpt>
      <trkpt lat="47.27408" lon="-1.54776">
        <ele>34.4</ele>
        <extensions>
          <visugpx:TrkExtension xmlns:visugpx="https://www.visugpx.com/editgpx/">
            <visugpx:node>29</visugpx:node>
            </visugpx:TrkExtension>
        </extensions>
      </trkpt>
      <trkpt lat="47.27407" lon="-1.54775">
        <ele>34.4</ele>
      </trkpt>
      <trkpt lat="47.27395" lon="-1.54763">
        <ele>34</ele>
      </trkpt>
      <trkpt lat="47.27378" lon="-1.54737">
        <ele>33.7</ele>
      </trkpt>
      <trkpt lat="47.27362" lon="-1.5472">
        <ele>33.1</ele>
      </trkpt>
      <trkpt lat="47.27349" lon="-1.54712">
        <ele>32.3</ele>
      </trkpt>
      <trkpt lat="47.27266" lon="-1.54685">
        <ele>31</ele>
      </trkpt>
      <trkpt lat="47.2724" lon="-1.54681">
        <ele>31</ele>
      </trkpt>
      <trkpt lat="47.27204" lon="-1.54668">
        <ele>31</ele>
      </trkpt>
      <trkpt lat="47.27074" lon="-1.54629">
        <ele>31.4</ele>
      </trkpt>
      <trkpt lat="47.27026" lon="-1.5462">
        <ele>31.7</ele>
      </trkpt>
      <trkpt lat="47.27" lon="-1.54618">
        <ele>32</ele>
      </trkpt>
      <trkpt lat="47.26901" lon="-1.54628">
        <ele>32</ele>
      </trkpt>
      <trkpt lat="47.26877" lon="-1.54621">
        <ele>32</ele>
      </trkpt>
      <trkpt lat="47.26866" lon="-1.54615">
        <ele>32</ele>
      </trkpt>
      <trkpt lat="47.26856" lon="-1.54609">
        <ele>31.8</ele>
        <extensions>
          <visugpx:TrkExtension xmlns:visugpx="https://www.visugpx.com/editgpx/">
            <visugpx:node>30</visugpx:node>
            </visugpx:TrkExtension>
        </extensions>
      </trkpt>
      <trkpt lat="47.26866" lon="-1.54615">
        <ele>32</ele>
      </trkpt>
      <trkpt lat="47.26874" lon="-1.546">
        <ele>32</ele>
      </trkpt>
      <trkpt lat="47.26874" lon="-1.54597">
        <ele>32</ele>
      </trkpt>
      <trkpt lat="47.26875" lon="-1.54584">
        <ele>32</ele>
      </trkpt>
      <trkpt lat="47.26875" lon="-1.54582">
        <ele>32</ele>
      </trkpt>
      <trkpt lat="47.26875" lon="-1.54571">
        <ele>31.6</ele>
      </trkpt>
      <trkpt lat="47.26867" lon="-1.54561">
        <ele>31.2</ele>
      </trkpt>
      <trkpt lat="47.26875" lon="-1.54555">
        <ele>31</ele>
        <extensions>
          <visugpx:TrkExtension xmlns:visugpx="https://www.visugpx.com/editgpx/">
            <visugpx:node>31</visugpx:node>
            </visugpx:TrkExtension>
        </extensions>
      </trkpt>
    </trkseg>
  </trk>
</gpx>